<?xml version="1.0" encoding="UTF-8" standalone="no" ?>
<gpx xmlns="http://www.topografix.com/GPX/1/1" xmlns:xsi="http://www.w3.org/2001/XMLSchema-instance" xsi:schemaLocation="http://www.topografix.com/GPX/1/1 http://www.topografix.com/GPX/1/1/gpx.xsd" version="1.1" creator="VisuGPX - https://www.visugpx.com">
  <metadata>
    <name>secteur Saverne - Dabo - Petite Pierre</name>
  </metadata>
  <trk>
    <name><![CDATA[secteur Saverne - Dabo - Petite Pierre_36]]></name>
    <trkseg>
      <trkpt lat="48.76015" lon="7.34831">
        <ele>222.5</ele>
        <time>2020-05-10T11:26:44Z</time>
      </trkpt>
      <trkpt lat="48.76015" lon="7.34831">
        <ele>222.5</ele>
        <time>2020-05-10T11:26:44Z</time>
      </trkpt>
      <trkpt lat="48.76015" lon="7.34831">
        <ele>222.5</ele>
        <time>2020-05-10T11:26:44Z</time>
      </trkpt>
      <trkpt lat="48.76015" lon="7.34831">
        <ele>222.5</ele>
        <time>2020-05-10T11:26:44Z</time>
      </trkpt>
      <trkpt lat="48.76015" lon="7.34831">
        <ele>222.5</ele>
        <time>2020-05-10T11:26:44Z</time>
      </trkpt>
      <trkpt lat="48.76026" lon="7.34825">
        <ele>224.3</ele>
        <time>2020-05-10T11:26:46Z</time>
      </trkpt>
      <trkpt lat="48.76031" lon="7.34819">
        <ele>225.3</ele>
        <time>2020-05-10T11:26:47Z</time>
      </trkpt>
      <trkpt lat="48.76039" lon="7.34808">
        <ele>227</ele>
        <time>2020-05-10T11:26:49Z</time>
      </trkpt>
      <trkpt lat="48.76046" lon="7.34798">
        <ele>228.6</ele>
        <time>2020-05-10T11:26:51Z</time>
      </trkpt>
      <trkpt lat="48.76048" lon="7.34791">
        <ele>229.4</ele>
        <time>2020-05-10T11:26:52Z</time>
      </trkpt>
      <trkpt lat="48.76055" lon="7.34778">
        <ele>231.1</ele>
        <time>2020-05-10T11:26:54Z</time>
      </trkpt>
      <trkpt lat="48.76055" lon="7.34769">
        <ele>232.1</ele>
        <time>2020-05-10T11:26:56Z</time>
      </trkpt>
      <trkpt lat="48.76054" lon="7.34762">
        <ele>232.8</ele>
        <time>2020-05-10T11:26:58Z</time>
      </trkpt>
      <trkpt lat="48.76053" lon="7.34757">
        <ele>233.3</ele>
        <time>2020-05-10T11:26:59Z</time>
      </trkpt>
      <trkpt lat="48.76052" lon="7.34751">
        <ele>233.9</ele>
        <time>2020-05-10T11:27:00Z</time>
      </trkpt>
      <trkpt lat="48.76053" lon="7.34741">
        <ele>234.4</ele>
        <time>2020-05-10T11:27:02Z</time>
      </trkpt>
      <trkpt lat="48.76056" lon="7.34729">
        <ele>234.7</ele>
        <time>2020-05-10T11:27:04Z</time>
      </trkpt>
      <trkpt lat="48.76062" lon="7.3472">
        <ele>235.1</ele>
        <time>2020-05-10T11:27:06Z</time>
      </trkpt>
      <trkpt lat="48.76065" lon="7.34716">
        <ele>235.3</ele>
        <time>2020-05-10T11:27:07Z</time>
      </trkpt>
      <trkpt lat="48.76072" lon="7.34708">
        <ele>235.7</ele>
        <time>2020-05-10T11:27:09Z</time>
      </trkpt>
      <trkpt lat="48.76076" lon="7.347">
        <ele>235.9</ele>
        <time>2020-05-10T11:27:10Z</time>
      </trkpt>
      <trkpt lat="48.76078" lon="7.3469">
        <ele>236.2</ele>
        <time>2020-05-10T11:27:12Z</time>
      </trkpt>
      <trkpt lat="48.76079" lon="7.34684">
        <ele>236.3</ele>
        <time>2020-05-10T11:27:13Z</time>
      </trkpt>
      <trkpt lat="48.76086" lon="7.34677">
        <ele>236.7</ele>
        <time>2020-05-10T11:27:15Z</time>
      </trkpt>
      <trkpt lat="48.7609" lon="7.34674">
        <ele>236.9</ele>
        <time>2020-05-10T11:27:16Z</time>
      </trkpt>
      <trkpt lat="48.76095" lon="7.34663">
        <ele>237.3</ele>
        <time>2020-05-10T11:27:18Z</time>
      </trkpt>
      <trkpt lat="48.761" lon="7.34653">
        <ele>237.7</ele>
        <time>2020-05-10T11:27:20Z</time>
      </trkpt>
      <trkpt lat="48.76106" lon="7.34643">
        <ele>238</ele>
        <time>2020-05-10T11:27:22Z</time>
      </trkpt>
      <trkpt lat="48.76111" lon="7.34633">
        <ele>238.4</ele>
        <time>2020-05-10T11:27:24Z</time>
      </trkpt>
      <trkpt lat="48.76115" lon="7.34627">
        <ele>238.6</ele>
        <time>2020-05-10T11:27:26Z</time>
      </trkpt>
      <trkpt lat="48.76118" lon="7.34619">
        <ele>238.8</ele>
        <time>2020-05-10T11:27:28Z</time>
      </trkpt>
      <trkpt lat="48.76124" lon="7.34612">
        <ele>239.2</ele>
        <time>2020-05-10T11:27:30Z</time>
      </trkpt>
      <trkpt lat="48.76127" lon="7.34606">
        <ele>239.3</ele>
        <time>2020-05-10T11:27:31Z</time>
      </trkpt>
      <trkpt lat="48.76129" lon="7.346">
        <ele>239.6</ele>
        <time>2020-05-10T11:27:32Z</time>
      </trkpt>
      <trkpt lat="48.76135" lon="7.34593">
        <ele>239.9</ele>
        <time>2020-05-10T11:27:34Z</time>
      </trkpt>
      <trkpt lat="48.7614" lon="7.34584">
        <ele>240.3</ele>
        <time>2020-05-10T11:27:36Z</time>
      </trkpt>
      <trkpt lat="48.76143" lon="7.34578">
        <ele>240.5</ele>
        <time>2020-05-10T11:27:38Z</time>
      </trkpt>
      <trkpt lat="48.76145" lon="7.34573">
        <ele>240.7</ele>
        <time>2020-05-10T11:27:39Z</time>
      </trkpt>
      <trkpt lat="48.76147" lon="7.34565">
        <ele>241</ele>
        <time>2020-05-10T11:27:41Z</time>
      </trkpt>
      <trkpt lat="48.76149" lon="7.34561">
        <ele>241.2</ele>
        <time>2020-05-10T11:27:42Z</time>
      </trkpt>
      <trkpt lat="48.76152" lon="7.3455">
        <ele>241.5</ele>
        <time>2020-05-10T11:27:44Z</time>
      </trkpt>
      <trkpt lat="48.76156" lon="7.34542">
        <ele>241.8</ele>
        <time>2020-05-10T11:27:46Z</time>
      </trkpt>
      <trkpt lat="48.76159" lon="7.34538">
        <ele>241.8</ele>
        <time>2020-05-10T11:27:47Z</time>
      </trkpt>
      <trkpt lat="48.76167" lon="7.34529">
        <ele>241.8</ele>
        <time>2020-05-10T11:27:49Z</time>
      </trkpt>
      <trkpt lat="48.7617" lon="7.34525">
        <ele>241.9</ele>
        <time>2020-05-10T11:27:50Z</time>
      </trkpt>
      <trkpt lat="48.76178" lon="7.34519">
        <ele>242</ele>
        <time>2020-05-10T11:27:52Z</time>
      </trkpt>
      <trkpt lat="48.76181" lon="7.34515">
        <ele>242.1</ele>
        <time>2020-05-10T11:27:53Z</time>
      </trkpt>
      <trkpt lat="48.76183" lon="7.34514">
        <ele>242.1</ele>
        <time>2020-05-10T11:27:54Z</time>
      </trkpt>
      <trkpt lat="48.76189" lon="7.34506">
        <ele>242.3</ele>
        <time>2020-05-10T11:27:56Z</time>
      </trkpt>
      <trkpt lat="48.76193" lon="7.34501">
        <ele>242.3</ele>
        <time>2020-05-10T11:27:57Z</time>
      </trkpt>
      <trkpt lat="48.76196" lon="7.34496">
        <ele>242.4</ele>
        <time>2020-05-10T11:27:58Z</time>
      </trkpt>
      <trkpt lat="48.76199" lon="7.34491">
        <ele>242.5</ele>
        <time>2020-05-10T11:27:59Z</time>
      </trkpt>
      <trkpt lat="48.76204" lon="7.34483">
        <ele>242.6</ele>
        <time>2020-05-10T11:28:01Z</time>
      </trkpt>
      <trkpt lat="48.76209" lon="7.34475">
        <ele>242.8</ele>
        <time>2020-05-10T11:28:03Z</time>
      </trkpt>
      <trkpt lat="48.76212" lon="7.34465">
        <ele>243</ele>
        <time>2020-05-10T11:28:05Z</time>
      </trkpt>
      <trkpt lat="48.76214" lon="7.3446">
        <ele>243.2</ele>
        <time>2020-05-10T11:28:06Z</time>
      </trkpt>
      <trkpt lat="48.76218" lon="7.34453">
        <ele>243.4</ele>
        <time>2020-05-10T11:28:08Z</time>
      </trkpt>
      <trkpt lat="48.76219" lon="7.34449">
        <ele>243.6</ele>
        <time>2020-05-10T11:28:09Z</time>
      </trkpt>
      <trkpt lat="48.76222" lon="7.34441">
        <ele>243.8</ele>
        <time>2020-05-10T11:28:11Z</time>
      </trkpt>
      <trkpt lat="48.76223" lon="7.34433">
        <ele>244.1</ele>
        <time>2020-05-10T11:28:12Z</time>
      </trkpt>
      <trkpt lat="48.76224" lon="7.34422">
        <ele>244.5</ele>
        <time>2020-05-10T11:28:14Z</time>
      </trkpt>
      <trkpt lat="48.76225" lon="7.34417">
        <ele>244.7</ele>
        <time>2020-05-10T11:28:15Z</time>
      </trkpt>
      <trkpt lat="48.76226" lon="7.34407">
        <ele>244.9</ele>
        <time>2020-05-10T11:28:17Z</time>
      </trkpt>
      <trkpt lat="48.76227" lon="7.34403">
        <ele>245.1</ele>
        <time>2020-05-10T11:28:18Z</time>
      </trkpt>
      <trkpt lat="48.7623" lon="7.34393">
        <ele>245.3</ele>
        <time>2020-05-10T11:28:20Z</time>
      </trkpt>
      <trkpt lat="48.76233" lon="7.34386">
        <ele>245.5</ele>
        <time>2020-05-10T11:28:22Z</time>
      </trkpt>
      <trkpt lat="48.76235" lon="7.34382">
        <ele>245.6</ele>
        <time>2020-05-10T11:28:23Z</time>
      </trkpt>
      <trkpt lat="48.7624" lon="7.34371">
        <ele>245.9</ele>
        <time>2020-05-10T11:28:25Z</time>
      </trkpt>
      <trkpt lat="48.76244" lon="7.3436">
        <ele>246.1</ele>
        <time>2020-05-10T11:28:27Z</time>
      </trkpt>
      <trkpt lat="48.76246" lon="7.3435">
        <ele>246.3</ele>
        <time>2020-05-10T11:28:29Z</time>
      </trkpt>
      <trkpt lat="48.76246" lon="7.34339">
        <ele>246.4</ele>
        <time>2020-05-10T11:28:31Z</time>
      </trkpt>
      <trkpt lat="48.76246" lon="7.34329">
        <ele>246.6</ele>
        <time>2020-05-10T11:28:33Z</time>
      </trkpt>
      <trkpt lat="48.7625" lon="7.34319">
        <ele>246.7</ele>
        <time>2020-05-10T11:28:35Z</time>
      </trkpt>
      <trkpt lat="48.76251" lon="7.34314">
        <ele>246.7</ele>
        <time>2020-05-10T11:28:36Z</time>
      </trkpt>
      <trkpt lat="48.76252" lon="7.34312">
        <ele>246.7</ele>
        <time>2020-05-10T11:28:37Z</time>
      </trkpt>
      <trkpt lat="48.76253" lon="7.34307">
        <ele>246.8</ele>
        <time>2020-05-10T11:28:38Z</time>
      </trkpt>
      <trkpt lat="48.76254" lon="7.34304">
        <ele>246.8</ele>
        <time>2020-05-10T11:28:39Z</time>
      </trkpt>
      <trkpt lat="48.76255" lon="7.34295">
        <ele>246.8</ele>
        <time>2020-05-10T11:28:41Z</time>
      </trkpt>
      <trkpt lat="48.76256" lon="7.34285">
        <ele>246.9</ele>
        <time>2020-05-10T11:28:43Z</time>
      </trkpt>
      <trkpt lat="48.76257" lon="7.3428">
        <ele>246.9</ele>
        <time>2020-05-10T11:28:44Z</time>
      </trkpt>
      <trkpt lat="48.7626" lon="7.34269">
        <ele>246.9</ele>
        <time>2020-05-10T11:28:46Z</time>
      </trkpt>
      <trkpt lat="48.76261" lon="7.34264">
        <ele>246.9</ele>
        <time>2020-05-10T11:28:47Z</time>
      </trkpt>
      <trkpt lat="48.76263" lon="7.34253">
        <ele>247</ele>
        <time>2020-05-10T11:28:49Z</time>
      </trkpt>
      <trkpt lat="48.76264" lon="7.34248">
        <ele>247</ele>
        <time>2020-05-10T11:28:50Z</time>
      </trkpt>
      <trkpt lat="48.76266" lon="7.34239">
        <ele>247</ele>
        <time>2020-05-10T11:28:51Z</time>
      </trkpt>
      <trkpt lat="48.76269" lon="7.34231">
        <ele>247</ele>
        <time>2020-05-10T11:28:53Z</time>
      </trkpt>
      <trkpt lat="48.76272" lon="7.34226">
        <ele>247</ele>
        <time>2020-05-10T11:28:54Z</time>
      </trkpt>
      <trkpt lat="48.76279" lon="7.34219">
        <ele>246.6</ele>
        <time>2020-05-10T11:28:56Z</time>
      </trkpt>
      <trkpt lat="48.76285" lon="7.34213">
        <ele>246.4</ele>
        <time>2020-05-10T11:28:58Z</time>
      </trkpt>
      <trkpt lat="48.76291" lon="7.34207">
        <ele>246.2</ele>
        <time>2020-05-10T11:29:00Z</time>
      </trkpt>
      <trkpt lat="48.76293" lon="7.34202">
        <ele>246.2</ele>
        <time>2020-05-10T11:29:01Z</time>
      </trkpt>
      <trkpt lat="48.76296" lon="7.34197">
        <ele>246.2</ele>
        <time>2020-05-10T11:29:03Z</time>
      </trkpt>
      <trkpt lat="48.76297" lon="7.34195">
        <ele>246.2</ele>
        <time>2020-05-10T11:29:04Z</time>
      </trkpt>
      <trkpt lat="48.76301" lon="7.3419">
        <ele>246.2</ele>
        <time>2020-05-10T11:29:06Z</time>
      </trkpt>
      <trkpt lat="48.76302" lon="7.34187">
        <ele>246.3</ele>
        <time>2020-05-10T11:29:08Z</time>
      </trkpt>
      <trkpt lat="48.76302" lon="7.34185">
        <ele>246.3</ele>
        <time>2020-05-10T11:29:09Z</time>
      </trkpt>
      <trkpt lat="48.76303" lon="7.34182">
        <ele>246.4</ele>
        <time>2020-05-10T11:29:10Z</time>
      </trkpt>
      <trkpt lat="48.76304" lon="7.3418">
        <ele>246.5</ele>
        <time>2020-05-10T11:29:11Z</time>
      </trkpt>
      <trkpt lat="48.76304" lon="7.34176">
        <ele>246.6</ele>
        <time>2020-05-10T11:29:12Z</time>
      </trkpt>
      <trkpt lat="48.76304" lon="7.34174">
        <ele>246.6</ele>
        <time>2020-05-10T11:29:13Z</time>
      </trkpt>
      <trkpt lat="48.76306" lon="7.34166">
        <ele>246.8</ele>
        <time>2020-05-10T11:29:15Z</time>
      </trkpt>
      <trkpt lat="48.76308" lon="7.34164">
        <ele>246.9</ele>
        <time>2020-05-10T11:29:17Z</time>
      </trkpt>
      <trkpt lat="48.76309" lon="7.34161">
        <ele>247</ele>
        <time>2020-05-10T11:29:19Z</time>
      </trkpt>
      <trkpt lat="48.76311" lon="7.34158">
        <ele>247</ele>
        <time>2020-05-10T11:29:21Z</time>
      </trkpt>
      <trkpt lat="48.76312" lon="7.34155">
        <ele>247.1</ele>
        <time>2020-05-10T11:29:22Z</time>
      </trkpt>
      <trkpt lat="48.76313" lon="7.34152">
        <ele>247.1</ele>
        <time>2020-05-10T11:29:23Z</time>
      </trkpt>
      <trkpt lat="48.76315" lon="7.34148">
        <ele>247.2</ele>
        <time>2020-05-10T11:29:24Z</time>
      </trkpt>
      <trkpt lat="48.76316" lon="7.34146">
        <ele>247.2</ele>
        <time>2020-05-10T11:29:25Z</time>
      </trkpt>
      <trkpt lat="48.76318" lon="7.34144">
        <ele>247.2</ele>
        <time>2020-05-10T11:29:26Z</time>
      </trkpt>
      <trkpt lat="48.7632" lon="7.34138">
        <ele>247.2</ele>
        <time>2020-05-10T11:29:28Z</time>
      </trkpt>
      <trkpt lat="48.76322" lon="7.3413">
        <ele>247.3</ele>
        <time>2020-05-10T11:29:30Z</time>
      </trkpt>
      <trkpt lat="48.76322" lon="7.34126">
        <ele>247.3</ele>
        <time>2020-05-10T11:29:31Z</time>
      </trkpt>
      <trkpt lat="48.76324" lon="7.34115">
        <ele>247.4</ele>
        <time>2020-05-10T11:29:33Z</time>
      </trkpt>
      <trkpt lat="48.76326" lon="7.34108">
        <ele>247.4</ele>
        <time>2020-05-10T11:29:35Z</time>
      </trkpt>
      <trkpt lat="48.76327" lon="7.34106">
        <ele>247.4</ele>
        <time>2020-05-10T11:29:36Z</time>
      </trkpt>
      <trkpt lat="48.7633" lon="7.34101">
        <ele>247.4</ele>
        <time>2020-05-10T11:29:38Z</time>
      </trkpt>
      <trkpt lat="48.76334" lon="7.34095">
        <ele>247.5</ele>
        <time>2020-05-10T11:29:40Z</time>
      </trkpt>
      <trkpt lat="48.76338" lon="7.34089">
        <ele>247.6</ele>
        <time>2020-05-10T11:29:42Z</time>
      </trkpt>
      <trkpt lat="48.76342" lon="7.34083">
        <ele>247.7</ele>
        <time>2020-05-10T11:29:44Z</time>
      </trkpt>
      <trkpt lat="48.76345" lon="7.34076">
        <ele>247.9</ele>
        <time>2020-05-10T11:29:46Z</time>
      </trkpt>
      <trkpt lat="48.76348" lon="7.34071">
        <ele>248</ele>
        <time>2020-05-10T11:29:48Z</time>
      </trkpt>
      <trkpt lat="48.7635" lon="7.34068">
        <ele>248</ele>
        <time>2020-05-10T11:29:49Z</time>
      </trkpt>
      <trkpt lat="48.76351" lon="7.34063">
        <ele>248.2</ele>
        <time>2020-05-10T11:29:51Z</time>
      </trkpt>
      <trkpt lat="48.76355" lon="7.34055">
        <ele>248.4</ele>
        <time>2020-05-10T11:29:53Z</time>
      </trkpt>
      <trkpt lat="48.76356" lon="7.34051">
        <ele>248.5</ele>
        <time>2020-05-10T11:29:54Z</time>
      </trkpt>
      <trkpt lat="48.76357" lon="7.34049">
        <ele>248.5</ele>
        <time>2020-05-10T11:29:55Z</time>
      </trkpt>
      <trkpt lat="48.76359" lon="7.34043">
        <ele>248.7</ele>
        <time>2020-05-10T11:29:57Z</time>
      </trkpt>
      <trkpt lat="48.76359" lon="7.34041">
        <ele>248.8</ele>
        <time>2020-05-10T11:29:58Z</time>
      </trkpt>
      <trkpt lat="48.76358" lon="7.34037">
        <ele>248.8</ele>
        <time>2020-05-10T11:30:00Z</time>
      </trkpt>
      <trkpt lat="48.76359" lon="7.34032">
        <ele>248.9</ele>
        <time>2020-05-10T11:30:01Z</time>
      </trkpt>
      <trkpt lat="48.76359" lon="7.34031">
        <ele>249</ele>
        <time>2020-05-10T11:30:02Z</time>
      </trkpt>
      <trkpt lat="48.76361" lon="7.34027">
        <ele>249</ele>
        <time>2020-05-10T11:30:03Z</time>
      </trkpt>
      <trkpt lat="48.76364" lon="7.34022">
        <ele>249.1</ele>
        <time>2020-05-10T11:30:05Z</time>
      </trkpt>
      <trkpt lat="48.76365" lon="7.34017">
        <ele>249.2</ele>
        <time>2020-05-10T11:30:06Z</time>
      </trkpt>
      <trkpt lat="48.76365" lon="7.34016">
        <ele>249.2</ele>
        <time>2020-05-10T11:30:07Z</time>
      </trkpt>
      <trkpt lat="48.76367" lon="7.34012">
        <ele>249.3</ele>
        <time>2020-05-10T11:30:09Z</time>
      </trkpt>
      <trkpt lat="48.76369" lon="7.3401">
        <ele>249.4</ele>
        <time>2020-05-10T11:30:10Z</time>
      </trkpt>
      <trkpt lat="48.76371" lon="7.34006">
        <ele>249.5</ele>
        <time>2020-05-10T11:30:12Z</time>
      </trkpt>
      <trkpt lat="48.76377" lon="7.34004">
        <ele>249.7</ele>
        <time>2020-05-10T11:30:14Z</time>
      </trkpt>
      <trkpt lat="48.76379" lon="7.34003">
        <ele>249.8</ele>
        <time>2020-05-10T11:30:15Z</time>
      </trkpt>
      <trkpt lat="48.76381" lon="7.34002">
        <ele>250</ele>
        <time>2020-05-10T11:30:16Z</time>
      </trkpt>
      <trkpt lat="48.76384" lon="7.33997">
        <ele>250.3</ele>
        <time>2020-05-10T11:30:18Z</time>
      </trkpt>
      <trkpt lat="48.76387" lon="7.3399">
        <ele>250.7</ele>
        <time>2020-05-10T11:30:20Z</time>
      </trkpt>
      <trkpt lat="48.76389" lon="7.33982">
        <ele>251.3</ele>
        <time>2020-05-10T11:30:22Z</time>
      </trkpt>
      <trkpt lat="48.76393" lon="7.33975">
        <ele>251.9</ele>
        <time>2020-05-10T11:30:24Z</time>
      </trkpt>
      <trkpt lat="48.76398" lon="7.3397">
        <ele>252.3</ele>
        <time>2020-05-10T11:30:26Z</time>
      </trkpt>
      <trkpt lat="48.764" lon="7.33964">
        <ele>252.6</ele>
        <time>2020-05-10T11:30:28Z</time>
      </trkpt>
      <trkpt lat="48.76402" lon="7.3396">
        <ele>252.8</ele>
        <time>2020-05-10T11:30:29Z</time>
      </trkpt>
      <trkpt lat="48.76404" lon="7.33953">
        <ele>253.1</ele>
        <time>2020-05-10T11:30:31Z</time>
      </trkpt>
      <trkpt lat="48.76406" lon="7.33946">
        <ele>253.4</ele>
        <time>2020-05-10T11:30:33Z</time>
      </trkpt>
      <trkpt lat="48.76408" lon="7.33943">
        <ele>253.5</ele>
        <time>2020-05-10T11:30:35Z</time>
      </trkpt>
      <trkpt lat="48.76411" lon="7.33937">
        <ele>253.8</ele>
        <time>2020-05-10T11:30:36Z</time>
      </trkpt>
      <trkpt lat="48.76412" lon="7.33935">
        <ele>253.9</ele>
        <time>2020-05-10T11:30:37Z</time>
      </trkpt>
      <trkpt lat="48.76414" lon="7.33934">
        <ele>254</ele>
        <time>2020-05-10T11:30:38Z</time>
      </trkpt>
      <trkpt lat="48.76418" lon="7.33932">
        <ele>254.2</ele>
        <time>2020-05-10T11:30:40Z</time>
      </trkpt>
      <trkpt lat="48.76421" lon="7.33928">
        <ele>254.5</ele>
        <time>2020-05-10T11:30:42Z</time>
      </trkpt>
      <trkpt lat="48.76425" lon="7.33926">
        <ele>254.7</ele>
        <time>2020-05-10T11:30:43Z</time>
      </trkpt>
      <trkpt lat="48.76426" lon="7.33925">
        <ele>254.8</ele>
        <time>2020-05-10T11:30:44Z</time>
      </trkpt>
      <trkpt lat="48.76429" lon="7.33922">
        <ele>255</ele>
        <time>2020-05-10T11:30:46Z</time>
      </trkpt>
      <trkpt lat="48.76429" lon="7.33921">
        <ele>255.1</ele>
        <time>2020-05-10T11:30:47Z</time>
      </trkpt>
      <trkpt lat="48.7643" lon="7.33917">
        <ele>255.2</ele>
        <time>2020-05-10T11:30:48Z</time>
      </trkpt>
      <trkpt lat="48.7643" lon="7.33913">
        <ele>255.3</ele>
        <time>2020-05-10T11:30:50Z</time>
      </trkpt>
      <trkpt lat="48.7643" lon="7.3391">
        <ele>255.5</ele>
        <time>2020-05-10T11:30:51Z</time>
      </trkpt>
      <trkpt lat="48.7643" lon="7.33905">
        <ele>255.6</ele>
        <time>2020-05-10T11:30:53Z</time>
      </trkpt>
      <trkpt lat="48.7643" lon="7.33903">
        <ele>255.7</ele>
        <time>2020-05-10T11:30:54Z</time>
      </trkpt>
      <trkpt lat="48.76433" lon="7.33898">
        <ele>255.9</ele>
        <time>2020-05-10T11:30:56Z</time>
      </trkpt>
      <trkpt lat="48.76435" lon="7.33895">
        <ele>256.1</ele>
        <time>2020-05-10T11:30:58Z</time>
      </trkpt>
      <trkpt lat="48.76436" lon="7.33893">
        <ele>256.2</ele>
        <time>2020-05-10T11:30:59Z</time>
      </trkpt>
      <trkpt lat="48.76438" lon="7.33891">
        <ele>256.3</ele>
        <time>2020-05-10T11:31:00Z</time>
      </trkpt>
      <trkpt lat="48.76441" lon="7.33889">
        <ele>256.5</ele>
        <time>2020-05-10T11:31:02Z</time>
      </trkpt>
      <trkpt lat="48.76443" lon="7.33887">
        <ele>256.6</ele>
        <time>2020-05-10T11:31:03Z</time>
      </trkpt>
      <trkpt lat="48.76447" lon="7.33883">
        <ele>256.9</ele>
        <time>2020-05-10T11:31:05Z</time>
      </trkpt>
      <trkpt lat="48.76451" lon="7.33882">
        <ele>257.1</ele>
        <time>2020-05-10T11:31:06Z</time>
      </trkpt>
      <trkpt lat="48.76452" lon="7.33882">
        <ele>257.2</ele>
        <time>2020-05-10T11:31:07Z</time>
      </trkpt>
      <trkpt lat="48.76457" lon="7.3388">
        <ele>257.4</ele>
        <time>2020-05-10T11:31:09Z</time>
      </trkpt>
      <trkpt lat="48.7646" lon="7.33879">
        <ele>257.6</ele>
        <time>2020-05-10T11:31:10Z</time>
      </trkpt>
      <trkpt lat="48.76464" lon="7.33877">
        <ele>257.9</ele>
        <time>2020-05-10T11:31:12Z</time>
      </trkpt>
      <trkpt lat="48.76467" lon="7.33874">
        <ele>258.1</ele>
        <time>2020-05-10T11:31:13Z</time>
      </trkpt>
      <trkpt lat="48.7647" lon="7.33871">
        <ele>258.3</ele>
        <time>2020-05-10T11:31:15Z</time>
      </trkpt>
      <trkpt lat="48.76474" lon="7.33868">
        <ele>258.5</ele>
        <time>2020-05-10T11:31:16Z</time>
      </trkpt>
      <trkpt lat="48.76479" lon="7.33865">
        <ele>258.7</ele>
        <time>2020-05-10T11:31:18Z</time>
      </trkpt>
      <trkpt lat="48.76481" lon="7.33864">
        <ele>258.7</ele>
        <time>2020-05-10T11:31:19Z</time>
      </trkpt>
      <trkpt lat="48.76483" lon="7.3386">
        <ele>258.8</ele>
        <time>2020-05-10T11:31:21Z</time>
      </trkpt>
      <trkpt lat="48.76487" lon="7.33858">
        <ele>258.8</ele>
        <time>2020-05-10T11:31:23Z</time>
      </trkpt>
      <trkpt lat="48.7649" lon="7.33858">
        <ele>258.8</ele>
        <time>2020-05-10T11:31:24Z</time>
      </trkpt>
      <trkpt lat="48.76493" lon="7.33857">
        <ele>258.8</ele>
        <time>2020-05-10T11:31:25Z</time>
      </trkpt>
      <trkpt lat="48.76495" lon="7.33857">
        <ele>258.7</ele>
        <time>2020-05-10T11:31:26Z</time>
      </trkpt>
      <trkpt lat="48.76499" lon="7.33854">
        <ele>258.6</ele>
        <time>2020-05-10T11:31:28Z</time>
      </trkpt>
      <trkpt lat="48.76503" lon="7.33852">
        <ele>259.1</ele>
        <time>2020-05-10T11:31:30Z</time>
      </trkpt>
      <trkpt lat="48.76507" lon="7.33848">
        <ele>258.3</ele>
        <time>2020-05-10T11:31:32Z</time>
      </trkpt>
      <trkpt lat="48.76508" lon="7.33847">
        <ele>259</ele>
        <time>2020-05-10T11:31:33Z</time>
      </trkpt>
      <trkpt lat="48.76509" lon="7.33846">
        <ele>259.3</ele>
        <time>2020-05-10T11:31:34Z</time>
      </trkpt>
      <trkpt lat="48.76512" lon="7.33842">
        <ele>260.2</ele>
        <time>2020-05-10T11:31:35Z</time>
      </trkpt>
      <trkpt lat="48.76513" lon="7.33841">
        <ele>259.5</ele>
        <time>2020-05-10T11:31:36Z</time>
      </trkpt>
      <trkpt lat="48.76515" lon="7.33838">
        <ele>261.5</ele>
        <time>2020-05-10T11:31:37Z</time>
      </trkpt>
      <trkpt lat="48.76517" lon="7.33835">
        <ele>262.4</ele>
        <time>2020-05-10T11:31:39Z</time>
      </trkpt>
      <trkpt lat="48.76523" lon="7.3383">
        <ele>261.8</ele>
        <time>2020-05-10T11:31:41Z</time>
      </trkpt>
      <trkpt lat="48.76527" lon="7.33825">
        <ele>261</ele>
        <time>2020-05-10T11:31:43Z</time>
      </trkpt>
      <trkpt lat="48.76531" lon="7.33819">
        <ele>261.4</ele>
        <time>2020-05-10T11:31:45Z</time>
      </trkpt>
      <trkpt lat="48.76535" lon="7.33815">
        <ele>261.7</ele>
        <time>2020-05-10T11:31:47Z</time>
      </trkpt>
      <trkpt lat="48.76538" lon="7.3381">
        <ele>262.1</ele>
        <time>2020-05-10T11:31:48Z</time>
      </trkpt>
      <trkpt lat="48.76539" lon="7.33808">
        <ele>262.6</ele>
        <time>2020-05-10T11:31:49Z</time>
      </trkpt>
      <trkpt lat="48.76544" lon="7.33803">
        <ele>263.2</ele>
        <time>2020-05-10T11:31:51Z</time>
      </trkpt>
      <trkpt lat="48.76545" lon="7.33799">
        <ele>263.8</ele>
        <time>2020-05-10T11:31:53Z</time>
      </trkpt>
      <trkpt lat="48.76545" lon="7.33795">
        <ele>265.6</ele>
        <time>2020-05-10T11:31:55Z</time>
      </trkpt>
      <trkpt lat="48.76545" lon="7.33794">
        <ele>266</ele>
        <time>2020-05-10T11:31:56Z</time>
      </trkpt>
      <trkpt lat="48.76545" lon="7.33792">
        <ele>267.8</ele>
        <time>2020-05-10T11:31:57Z</time>
      </trkpt>
      <trkpt lat="48.76547" lon="7.33787">
        <ele>268.4</ele>
        <time>2020-05-10T11:31:59Z</time>
      </trkpt>
      <trkpt lat="48.76551" lon="7.33783">
        <ele>268.9</ele>
        <time>2020-05-10T11:32:01Z</time>
      </trkpt>
      <trkpt lat="48.76552" lon="7.33781">
        <ele>269.2</ele>
        <time>2020-05-10T11:32:02Z</time>
      </trkpt>
      <trkpt lat="48.76555" lon="7.33778">
        <ele>269.5</ele>
        <time>2020-05-10T11:32:04Z</time>
      </trkpt>
      <trkpt lat="48.76558" lon="7.33776">
        <ele>268.5</ele>
        <time>2020-05-10T11:32:06Z</time>
      </trkpt>
      <trkpt lat="48.7656" lon="7.33775">
        <ele>268.7</ele>
        <time>2020-05-10T11:32:07Z</time>
      </trkpt>
      <trkpt lat="48.76563" lon="7.33772">
        <ele>267.6</ele>
        <time>2020-05-10T11:32:08Z</time>
      </trkpt>
      <trkpt lat="48.76564" lon="7.33771">
        <ele>266.7</ele>
        <time>2020-05-10T11:32:09Z</time>
      </trkpt>
      <trkpt lat="48.76566" lon="7.3377">
        <ele>268.2</ele>
        <time>2020-05-10T11:32:10Z</time>
      </trkpt>
      <trkpt lat="48.7657" lon="7.33768">
        <ele>266.1</ele>
        <time>2020-05-10T11:32:12Z</time>
      </trkpt>
      <trkpt lat="48.76573" lon="7.33764">
        <ele>266.5</ele>
        <time>2020-05-10T11:32:14Z</time>
      </trkpt>
      <trkpt lat="48.76575" lon="7.33761">
        <ele>268.2</ele>
        <time>2020-05-10T11:32:16Z</time>
      </trkpt>
      <trkpt lat="48.76577" lon="7.33758">
        <ele>268.7</ele>
        <time>2020-05-10T11:32:17Z</time>
      </trkpt>
      <trkpt lat="48.76579" lon="7.33756">
        <ele>267.7</ele>
        <time>2020-05-10T11:32:18Z</time>
      </trkpt>
      <trkpt lat="48.76582" lon="7.33754">
        <ele>268.1</ele>
        <time>2020-05-10T11:32:19Z</time>
      </trkpt>
      <trkpt lat="48.76585" lon="7.33752">
        <ele>267.1</ele>
        <time>2020-05-10T11:32:20Z</time>
      </trkpt>
      <trkpt lat="48.76589" lon="7.33749">
        <ele>267.6</ele>
        <time>2020-05-10T11:32:22Z</time>
      </trkpt>
      <trkpt lat="48.76592" lon="7.33747">
        <ele>266.7</ele>
        <time>2020-05-10T11:32:23Z</time>
      </trkpt>
      <trkpt lat="48.76593" lon="7.33746">
        <ele>265.9</ele>
        <time>2020-05-10T11:32:24Z</time>
      </trkpt>
      <trkpt lat="48.76597" lon="7.33743">
        <ele>266.5</ele>
        <time>2020-05-10T11:32:26Z</time>
      </trkpt>
      <trkpt lat="48.76601" lon="7.3374">
        <ele>266</ele>
        <time>2020-05-10T11:32:28Z</time>
      </trkpt>
      <trkpt lat="48.76605" lon="7.33737">
        <ele>265.2</ele>
        <time>2020-05-10T11:32:30Z</time>
      </trkpt>
      <trkpt lat="48.76609" lon="7.33734">
        <ele>265.7</ele>
        <time>2020-05-10T11:32:32Z</time>
      </trkpt>
      <trkpt lat="48.7661" lon="7.33734">
        <ele>264.9</ele>
        <time>2020-05-10T11:32:33Z</time>
      </trkpt>
      <trkpt lat="48.76611" lon="7.33733">
        <ele>265.2</ele>
        <time>2020-05-10T11:32:34Z</time>
      </trkpt>
      <trkpt lat="48.76612" lon="7.33732">
        <ele>265.8</ele>
        <time>2020-05-10T11:32:35Z</time>
      </trkpt>
      <trkpt lat="48.76618" lon="7.33726">
        <ele>266.3</ele>
        <time>2020-05-10T11:32:37Z</time>
      </trkpt>
      <trkpt lat="48.76622" lon="7.33726">
        <ele>264.7</ele>
        <time>2020-05-10T11:32:39Z</time>
      </trkpt>
      <trkpt lat="48.76626" lon="7.33725">
        <ele>264.2</ele>
        <time>2020-05-10T11:32:41Z</time>
      </trkpt>
      <trkpt lat="48.76628" lon="7.33724">
        <ele>263.7</ele>
        <time>2020-05-10T11:32:42Z</time>
      </trkpt>
      <trkpt lat="48.76632" lon="7.33723">
        <ele>263.8</ele>
        <time>2020-05-10T11:32:44Z</time>
      </trkpt>
      <trkpt lat="48.76634" lon="7.3372">
        <ele>264.2</ele>
        <time>2020-05-10T11:32:45Z</time>
      </trkpt>
      <trkpt lat="48.76638" lon="7.33714">
        <ele>265.4</ele>
        <time>2020-05-10T11:32:47Z</time>
      </trkpt>
      <trkpt lat="48.7664" lon="7.3371">
        <ele>267.1</ele>
        <time>2020-05-10T11:32:48Z</time>
      </trkpt>
      <trkpt lat="48.76642" lon="7.33706">
        <ele>267.9</ele>
        <time>2020-05-10T11:32:50Z</time>
      </trkpt>
      <trkpt lat="48.76645" lon="7.33702">
        <ele>268.9</ele>
        <time>2020-05-10T11:32:51Z</time>
      </trkpt>
      <trkpt lat="48.76649" lon="7.33697">
        <ele>269.4</ele>
        <time>2020-05-10T11:32:53Z</time>
      </trkpt>
      <trkpt lat="48.76653" lon="7.33694">
        <ele>269.2</ele>
        <time>2020-05-10T11:32:54Z</time>
      </trkpt>
      <trkpt lat="48.76654" lon="7.33694">
        <ele>269.5</ele>
        <time>2020-05-10T11:32:55Z</time>
      </trkpt>
      <trkpt lat="48.76658" lon="7.3369">
        <ele>270</ele>
        <time>2020-05-10T11:32:57Z</time>
      </trkpt>
      <trkpt lat="48.76661" lon="7.33687">
        <ele>270.9</ele>
        <time>2020-05-10T11:32:59Z</time>
      </trkpt>
      <trkpt lat="48.76665" lon="7.33683">
        <ele>271.8</ele>
        <time>2020-05-10T11:33:01Z</time>
      </trkpt>
      <trkpt lat="48.76669" lon="7.33679">
        <ele>271.9</ele>
        <time>2020-05-10T11:33:03Z</time>
      </trkpt>
      <trkpt lat="48.76671" lon="7.33675">
        <ele>273.3</ele>
        <time>2020-05-10T11:33:04Z</time>
      </trkpt>
      <trkpt lat="48.76671" lon="7.33674">
        <ele>273</ele>
        <time>2020-05-10T11:33:05Z</time>
      </trkpt>
      <trkpt lat="48.76673" lon="7.33671">
        <ele>274.3</ele>
        <time>2020-05-10T11:33:06Z</time>
      </trkpt>
      <trkpt lat="48.76674" lon="7.33668">
        <ele>275.1</ele>
        <time>2020-05-10T11:33:08Z</time>
      </trkpt>
      <trkpt lat="48.76677" lon="7.33664">
        <ele>274.8</ele>
        <time>2020-05-10T11:33:10Z</time>
      </trkpt>
      <trkpt lat="48.76681" lon="7.3366">
        <ele>275.6</ele>
        <time>2020-05-10T11:33:12Z</time>
      </trkpt>
      <trkpt lat="48.76683" lon="7.33657">
        <ele>276.3</ele>
        <time>2020-05-10T11:33:13Z</time>
      </trkpt>
      <trkpt lat="48.76684" lon="7.33656">
        <ele>276.6</ele>
        <time>2020-05-10T11:33:14Z</time>
      </trkpt>
      <trkpt lat="48.76686" lon="7.3365">
        <ele>278.2</ele>
        <time>2020-05-10T11:33:16Z</time>
      </trkpt>
      <trkpt lat="48.76687" lon="7.33647">
        <ele>278.5</ele>
        <time>2020-05-10T11:33:17Z</time>
      </trkpt>
      <trkpt lat="48.76691" lon="7.33644">
        <ele>279</ele>
        <time>2020-05-10T11:33:19Z</time>
      </trkpt>
      <trkpt lat="48.76693" lon="7.33641">
        <ele>279.4</ele>
        <time>2020-05-10T11:33:20Z</time>
      </trkpt>
      <trkpt lat="48.76696" lon="7.33636">
        <ele>279.7</ele>
        <time>2020-05-10T11:33:22Z</time>
      </trkpt>
      <trkpt lat="48.76699" lon="7.33631">
        <ele>280</ele>
        <time>2020-05-10T11:33:24Z</time>
      </trkpt>
      <trkpt lat="48.76701" lon="7.33627">
        <ele>280.3</ele>
        <time>2020-05-10T11:33:25Z</time>
      </trkpt>
      <trkpt lat="48.76704" lon="7.33621">
        <ele>280.7</ele>
        <time>2020-05-10T11:33:27Z</time>
      </trkpt>
      <trkpt lat="48.76705" lon="7.33617">
        <ele>281.2</ele>
        <time>2020-05-10T11:33:28Z</time>
      </trkpt>
      <trkpt lat="48.76706" lon="7.33616">
        <ele>282.3</ele>
        <time>2020-05-10T11:33:29Z</time>
      </trkpt>
      <trkpt lat="48.76708" lon="7.33609">
        <ele>283.4</ele>
        <time>2020-05-10T11:33:31Z</time>
      </trkpt>
      <trkpt lat="48.76709" lon="7.33603">
        <ele>284.7</ele>
        <time>2020-05-10T11:33:33Z</time>
      </trkpt>
      <trkpt lat="48.7671" lon="7.336">
        <ele>285</ele>
        <time>2020-05-10T11:33:34Z</time>
      </trkpt>
      <trkpt lat="48.76711" lon="7.33594">
        <ele>286.2</ele>
        <time>2020-05-10T11:33:36Z</time>
      </trkpt>
      <trkpt lat="48.76711" lon="7.33587">
        <ele>287.3</ele>
        <time>2020-05-10T11:33:38Z</time>
      </trkpt>
      <trkpt lat="48.76712" lon="7.33582">
        <ele>289.3</ele>
        <time>2020-05-10T11:33:40Z</time>
      </trkpt>
      <trkpt lat="48.76712" lon="7.33579">
        <ele>289.7</ele>
        <time>2020-05-10T11:33:41Z</time>
      </trkpt>
      <trkpt lat="48.76712" lon="7.33576">
        <ele>290.9</ele>
        <time>2020-05-10T11:33:42Z</time>
      </trkpt>
      <trkpt lat="48.76713" lon="7.33571">
        <ele>292.2</ele>
        <time>2020-05-10T11:33:44Z</time>
      </trkpt>
      <trkpt lat="48.76713" lon="7.33565">
        <ele>293.4</ele>
        <time>2020-05-10T11:33:46Z</time>
      </trkpt>
      <trkpt lat="48.76713" lon="7.33564">
        <ele>294.6</ele>
        <time>2020-05-10T11:33:47Z</time>
      </trkpt>
      <trkpt lat="48.76714" lon="7.33561">
        <ele>294.2</ele>
        <time>2020-05-10T11:33:48Z</time>
      </trkpt>
      <trkpt lat="48.76713" lon="7.33556">
        <ele>296.2</ele>
        <time>2020-05-10T11:33:50Z</time>
      </trkpt>
      <trkpt lat="48.7671" lon="7.33551">
        <ele>298.9</ele>
        <time>2020-05-10T11:33:52Z</time>
      </trkpt>
      <trkpt lat="48.76709" lon="7.33546">
        <ele>300.1</ele>
        <time>2020-05-10T11:33:54Z</time>
      </trkpt>
      <trkpt lat="48.76707" lon="7.3354">
        <ele>302</ele>
        <time>2020-05-10T11:33:56Z</time>
      </trkpt>
      <trkpt lat="48.76706" lon="7.33534">
        <ele>304.1</ele>
        <time>2020-05-10T11:33:58Z</time>
      </trkpt>
      <trkpt lat="48.76706" lon="7.33527">
        <ele>305.3</ele>
        <time>2020-05-10T11:34:00Z</time>
      </trkpt>
      <trkpt lat="48.76706" lon="7.3352">
        <ele>307.3</ele>
        <time>2020-05-10T11:34:02Z</time>
      </trkpt>
      <trkpt lat="48.76706" lon="7.33518">
        <ele>307.6</ele>
        <time>2020-05-10T11:34:03Z</time>
      </trkpt>
      <trkpt lat="48.76706" lon="7.33516">
        <ele>308.7</ele>
        <time>2020-05-10T11:34:04Z</time>
      </trkpt>
      <trkpt lat="48.76706" lon="7.33515">
        <ele>309</ele>
        <time>2020-05-10T11:34:05Z</time>
      </trkpt>
      <trkpt lat="48.76707" lon="7.33506">
        <ele>310.5</ele>
        <time>2020-05-10T11:34:07Z</time>
      </trkpt>
      <trkpt lat="48.76706" lon="7.33502">
        <ele>311.4</ele>
        <time>2020-05-10T11:34:08Z</time>
      </trkpt>
      <trkpt lat="48.76705" lon="7.33497">
        <ele>312.2</ele>
        <time>2020-05-10T11:34:10Z</time>
      </trkpt>
      <trkpt lat="48.76705" lon="7.33494">
        <ele>313</ele>
        <time>2020-05-10T11:34:12Z</time>
      </trkpt>
      <trkpt lat="48.76707" lon="7.33489">
        <ele>313.9</ele>
        <time>2020-05-10T11:34:14Z</time>
      </trkpt>
      <trkpt lat="48.76707" lon="7.33484">
        <ele>314.8</ele>
        <time>2020-05-10T11:34:16Z</time>
      </trkpt>
      <trkpt lat="48.76708" lon="7.33481">
        <ele>315</ele>
        <time>2020-05-10T11:34:17Z</time>
      </trkpt>
      <trkpt lat="48.76709" lon="7.3348">
        <ele>315.3</ele>
        <time>2020-05-10T11:34:18Z</time>
      </trkpt>
      <trkpt lat="48.76709" lon="7.33476">
        <ele>316.4</ele>
        <time>2020-05-10T11:34:20Z</time>
      </trkpt>
      <trkpt lat="48.76708" lon="7.33473">
        <ele>317.4</ele>
        <time>2020-05-10T11:34:22Z</time>
      </trkpt>
      <trkpt lat="48.76709" lon="7.3347">
        <ele>318.4</ele>
        <time>2020-05-10T11:34:24Z</time>
      </trkpt>
      <trkpt lat="48.76708" lon="7.33468">
        <ele>319.6</ele>
        <time>2020-05-10T11:34:26Z</time>
      </trkpt>
      <trkpt lat="48.76707" lon="7.33466">
        <ele>320.5</ele>
        <time>2020-05-10T11:34:27Z</time>
      </trkpt>
      <trkpt lat="48.76706" lon="7.33462">
        <ele>321.4</ele>
        <time>2020-05-10T11:34:29Z</time>
      </trkpt>
      <trkpt lat="48.76706" lon="7.33461">
        <ele>321.7</ele>
        <time>2020-05-10T11:34:30Z</time>
      </trkpt>
      <trkpt lat="48.76706" lon="7.3346">
        <ele>322.1</ele>
        <time>2020-05-10T11:34:31Z</time>
      </trkpt>
      <trkpt lat="48.76705" lon="7.3346">
        <ele>322.4</ele>
        <time>2020-05-10T11:34:33Z</time>
      </trkpt>
      <trkpt lat="48.76705" lon="7.33459">
        <ele>322.8</ele>
        <time>2020-05-10T11:34:34Z</time>
      </trkpt>
      <trkpt lat="48.76705" lon="7.33458">
        <ele>323.9</ele>
        <time>2020-05-10T11:34:35Z</time>
      </trkpt>
      <trkpt lat="48.76703" lon="7.33456">
        <ele>324.8</ele>
        <time>2020-05-10T11:34:37Z</time>
      </trkpt>
      <trkpt lat="48.76702" lon="7.33454">
        <ele>326</ele>
        <time>2020-05-10T11:34:39Z</time>
      </trkpt>
      <trkpt lat="48.76701" lon="7.3345">
        <ele>326.8</ele>
        <time>2020-05-10T11:34:41Z</time>
      </trkpt>
      <trkpt lat="48.767" lon="7.33445">
        <ele>327</ele>
        <time>2020-05-10T11:34:43Z</time>
      </trkpt>
      <trkpt lat="48.76699" lon="7.33442">
        <ele>327.1</ele>
        <time>2020-05-10T11:34:44Z</time>
      </trkpt>
      <trkpt lat="48.76699" lon="7.3344">
        <ele>327.2</ele>
        <time>2020-05-10T11:34:45Z</time>
      </trkpt>
      <trkpt lat="48.76699" lon="7.33434">
        <ele>327.5</ele>
        <time>2020-05-10T11:34:47Z</time>
      </trkpt>
      <trkpt lat="48.76697" lon="7.33428">
        <ele>327.8</ele>
        <time>2020-05-10T11:34:49Z</time>
      </trkpt>
      <trkpt lat="48.76699" lon="7.3342">
        <ele>328.2</ele>
        <time>2020-05-10T11:34:51Z</time>
      </trkpt>
      <trkpt lat="48.76699" lon="7.33414">
        <ele>328.5</ele>
        <time>2020-05-10T11:34:53Z</time>
      </trkpt>
      <trkpt lat="48.76699" lon="7.33406">
        <ele>328.9</ele>
        <time>2020-05-10T11:34:55Z</time>
      </trkpt>
      <trkpt lat="48.76699" lon="7.33398">
        <ele>329.2</ele>
        <time>2020-05-10T11:34:57Z</time>
      </trkpt>
      <trkpt lat="48.767" lon="7.33393">
        <ele>329.5</ele>
        <time>2020-05-10T11:34:58Z</time>
      </trkpt>
      <trkpt lat="48.767" lon="7.33391">
        <ele>329.6</ele>
        <time>2020-05-10T11:34:59Z</time>
      </trkpt>
      <trkpt lat="48.767" lon="7.33389">
        <ele>329.6</ele>
        <time>2020-05-10T11:35:00Z</time>
      </trkpt>
      <trkpt lat="48.76703" lon="7.33382">
        <ele>330.1</ele>
        <time>2020-05-10T11:35:02Z</time>
      </trkpt>
      <trkpt lat="48.76703" lon="7.33378">
        <ele>330.3</ele>
        <time>2020-05-10T11:35:03Z</time>
      </trkpt>
      <trkpt lat="48.76703" lon="7.33371">
        <ele>330.7</ele>
        <time>2020-05-10T11:35:05Z</time>
      </trkpt>
      <trkpt lat="48.76702" lon="7.33363">
        <ele>331.1</ele>
        <time>2020-05-10T11:35:07Z</time>
      </trkpt>
      <trkpt lat="48.76701" lon="7.3336">
        <ele>331.3</ele>
        <time>2020-05-10T11:35:08Z</time>
      </trkpt>
      <trkpt lat="48.76699" lon="7.33354">
        <ele>331.7</ele>
        <time>2020-05-10T11:35:10Z</time>
      </trkpt>
      <trkpt lat="48.76698" lon="7.33351">
        <ele>331.9</ele>
        <time>2020-05-10T11:35:11Z</time>
      </trkpt>
      <trkpt lat="48.76696" lon="7.33349">
        <ele>332.1</ele>
        <time>2020-05-10T11:35:13Z</time>
      </trkpt>
      <trkpt lat="48.76696" lon="7.33349">
        <ele>332.1</ele>
        <time>2020-05-10T11:35:14Z</time>
      </trkpt>
      <trkpt lat="48.76696" lon="7.33348">
        <ele>332.2</ele>
        <time>2020-05-10T11:35:15Z</time>
      </trkpt>
      <trkpt lat="48.76695" lon="7.33347">
        <ele>332.2</ele>
        <time>2020-05-10T11:35:16Z</time>
      </trkpt>
      <trkpt lat="48.76695" lon="7.33345">
        <ele>332.4</ele>
        <time>2020-05-10T11:35:18Z</time>
      </trkpt>
      <trkpt lat="48.76694" lon="7.33344">
        <ele>332.5</ele>
        <time>2020-05-10T11:35:19Z</time>
      </trkpt>
      <trkpt lat="48.76693" lon="7.33344">
        <ele>332.6</ele>
        <time>2020-05-10T11:35:21Z</time>
      </trkpt>
      <trkpt lat="48.76693" lon="7.33343">
        <ele>332.6</ele>
        <time>2020-05-10T11:35:22Z</time>
      </trkpt>
      <trkpt lat="48.76693" lon="7.33343">
        <ele>332.6</ele>
        <time>2020-05-10T11:35:23Z</time>
      </trkpt>
      <trkpt lat="48.76693" lon="7.33343">
        <ele>332.7</ele>
        <time>2020-05-10T11:35:24Z</time>
      </trkpt>
      <trkpt lat="48.76694" lon="7.33343">
        <ele>332.8</ele>
        <time>2020-05-10T11:35:26Z</time>
      </trkpt>
      <trkpt lat="48.76695" lon="7.33343">
        <ele>332.8</ele>
        <time>2020-05-10T11:35:27Z</time>
      </trkpt>
      <trkpt lat="48.76694" lon="7.33342">
        <ele>332.9</ele>
        <time>2020-05-10T11:35:29Z</time>
      </trkpt>
      <trkpt lat="48.76693" lon="7.3334">
        <ele>333.1</ele>
        <time>2020-05-10T11:35:30Z</time>
      </trkpt>
      <trkpt lat="48.76693" lon="7.33339">
        <ele>333.1</ele>
        <time>2020-05-10T11:35:31Z</time>
      </trkpt>
      <trkpt lat="48.76693" lon="7.33337">
        <ele>333.3</ele>
        <time>2020-05-10T11:35:32Z</time>
      </trkpt>
      <trkpt lat="48.76693" lon="7.33333">
        <ele>333.5</ele>
        <time>2020-05-10T11:35:34Z</time>
      </trkpt>
      <trkpt lat="48.76694" lon="7.33328">
        <ele>333.9</ele>
        <time>2020-05-10T11:35:35Z</time>
      </trkpt>
      <trkpt lat="48.76694" lon="7.33326">
        <ele>334</ele>
        <time>2020-05-10T11:35:36Z</time>
      </trkpt>
      <trkpt lat="48.76694" lon="7.33321">
        <ele>334.3</ele>
        <time>2020-05-10T11:35:38Z</time>
      </trkpt>
      <trkpt lat="48.76693" lon="7.33317">
        <ele>334.5</ele>
        <time>2020-05-10T11:35:39Z</time>
      </trkpt>
      <trkpt lat="48.76692" lon="7.33311">
        <ele>334.9</ele>
        <time>2020-05-10T11:35:41Z</time>
      </trkpt>
      <trkpt lat="48.76689" lon="7.33307">
        <ele>335.2</ele>
        <time>2020-05-10T11:35:42Z</time>
      </trkpt>
      <trkpt lat="48.76687" lon="7.333">
        <ele>335.7</ele>
        <time>2020-05-10T11:35:44Z</time>
      </trkpt>
      <trkpt lat="48.76686" lon="7.33294">
        <ele>336.1</ele>
        <time>2020-05-10T11:35:45Z</time>
      </trkpt>
      <trkpt lat="48.76686" lon="7.33292">
        <ele>336.2</ele>
        <time>2020-05-10T11:35:46Z</time>
      </trkpt>
      <trkpt lat="48.76686" lon="7.33286">
        <ele>336.5</ele>
        <time>2020-05-10T11:35:48Z</time>
      </trkpt>
      <trkpt lat="48.76686" lon="7.33283">
        <ele>336.8</ele>
        <time>2020-05-10T11:35:49Z</time>
      </trkpt>
      <trkpt lat="48.76684" lon="7.33277">
        <ele>337.2</ele>
        <time>2020-05-10T11:35:51Z</time>
      </trkpt>
      <trkpt lat="48.76683" lon="7.33275">
        <ele>337.3</ele>
        <time>2020-05-10T11:35:52Z</time>
      </trkpt>
      <trkpt lat="48.76683" lon="7.33268">
        <ele>337.7</ele>
        <time>2020-05-10T11:35:54Z</time>
      </trkpt>
      <trkpt lat="48.76683" lon="7.33265">
        <ele>337.9</ele>
        <time>2020-05-10T11:35:55Z</time>
      </trkpt>
      <trkpt lat="48.76685" lon="7.33259">
        <ele>338.2</ele>
        <time>2020-05-10T11:35:57Z</time>
      </trkpt>
      <trkpt lat="48.76685" lon="7.33258">
        <ele>338.4</ele>
        <time>2020-05-10T11:35:58Z</time>
      </trkpt>
      <trkpt lat="48.76685" lon="7.33254">
        <ele>338.5</ele>
        <time>2020-05-10T11:35:59Z</time>
      </trkpt>
      <trkpt lat="48.76683" lon="7.33248">
        <ele>338.9</ele>
        <time>2020-05-10T11:36:01Z</time>
      </trkpt>
      <trkpt lat="48.76681" lon="7.33244">
        <ele>339.2</ele>
        <time>2020-05-10T11:36:02Z</time>
      </trkpt>
      <trkpt lat="48.7668" lon="7.33241">
        <ele>339.4</ele>
        <time>2020-05-10T11:36:03Z</time>
      </trkpt>
      <trkpt lat="48.76678" lon="7.33238">
        <ele>339.6</ele>
        <time>2020-05-10T11:36:04Z</time>
      </trkpt>
      <trkpt lat="48.76676" lon="7.33232">
        <ele>340</ele>
        <time>2020-05-10T11:36:06Z</time>
      </trkpt>
      <trkpt lat="48.76675" lon="7.33227">
        <ele>340.2</ele>
        <time>2020-05-10T11:36:08Z</time>
      </trkpt>
      <trkpt lat="48.76675" lon="7.33225">
        <ele>340.4</ele>
        <time>2020-05-10T11:36:09Z</time>
      </trkpt>
      <trkpt lat="48.76673" lon="7.3322">
        <ele>340.6</ele>
        <time>2020-05-10T11:36:11Z</time>
      </trkpt>
      <trkpt lat="48.7667" lon="7.33214">
        <ele>341</ele>
        <time>2020-05-10T11:36:13Z</time>
      </trkpt>
      <trkpt lat="48.76668" lon="7.33209">
        <ele>341.3</ele>
        <time>2020-05-10T11:36:15Z</time>
      </trkpt>
      <trkpt lat="48.76667" lon="7.33204">
        <ele>341.6</ele>
        <time>2020-05-10T11:36:17Z</time>
      </trkpt>
      <trkpt lat="48.76668" lon="7.33199">
        <ele>341.9</ele>
        <time>2020-05-10T11:36:19Z</time>
      </trkpt>
      <trkpt lat="48.76669" lon="7.33191">
        <ele>342.3</ele>
        <time>2020-05-10T11:36:21Z</time>
      </trkpt>
      <trkpt lat="48.76669" lon="7.33189">
        <ele>342.5</ele>
        <time>2020-05-10T11:36:23Z</time>
      </trkpt>
      <trkpt lat="48.76669" lon="7.33187">
        <ele>342.6</ele>
        <time>2020-05-10T11:36:24Z</time>
      </trkpt>
      <trkpt lat="48.76669" lon="7.33181">
        <ele>342.9</ele>
        <time>2020-05-10T11:36:26Z</time>
      </trkpt>
      <trkpt lat="48.76669" lon="7.3318">
        <ele>343</ele>
        <time>2020-05-10T11:36:27Z</time>
      </trkpt>
      <trkpt lat="48.76667" lon="7.33175">
        <ele>343.3</ele>
        <time>2020-05-10T11:36:29Z</time>
      </trkpt>
      <trkpt lat="48.76666" lon="7.33172">
        <ele>343.5</ele>
        <time>2020-05-10T11:36:30Z</time>
      </trkpt>
      <trkpt lat="48.76665" lon="7.3317">
        <ele>343.6</ele>
        <time>2020-05-10T11:36:31Z</time>
      </trkpt>
      <trkpt lat="48.76664" lon="7.33165">
        <ele>343.9</ele>
        <time>2020-05-10T11:36:33Z</time>
      </trkpt>
      <trkpt lat="48.76663" lon="7.33162">
        <ele>344</ele>
        <time>2020-05-10T11:36:34Z</time>
      </trkpt>
      <trkpt lat="48.76662" lon="7.33156">
        <ele>344.3</ele>
        <time>2020-05-10T11:36:36Z</time>
      </trkpt>
      <trkpt lat="48.76661" lon="7.33151">
        <ele>344.6</ele>
        <time>2020-05-10T11:36:37Z</time>
      </trkpt>
      <trkpt lat="48.7666" lon="7.33149">
        <ele>344.7</ele>
        <time>2020-05-10T11:36:38Z</time>
      </trkpt>
      <trkpt lat="48.7666" lon="7.33146">
        <ele>344.8</ele>
        <time>2020-05-10T11:36:39Z</time>
      </trkpt>
      <trkpt lat="48.7666" lon="7.33139">
        <ele>345.1</ele>
        <time>2020-05-10T11:36:41Z</time>
      </trkpt>
      <trkpt lat="48.76661" lon="7.33136">
        <ele>345.3</ele>
        <time>2020-05-10T11:36:42Z</time>
      </trkpt>
      <trkpt lat="48.76664" lon="7.33131">
        <ele>345.6</ele>
        <time>2020-05-10T11:36:44Z</time>
      </trkpt>
      <trkpt lat="48.76664" lon="7.33126">
        <ele>345.9</ele>
        <time>2020-05-10T11:36:46Z</time>
      </trkpt>
      <trkpt lat="48.76664" lon="7.33122">
        <ele>346.1</ele>
        <time>2020-05-10T11:36:47Z</time>
      </trkpt>
      <trkpt lat="48.76664" lon="7.33117">
        <ele>346.4</ele>
        <time>2020-05-10T11:36:48Z</time>
      </trkpt>
      <trkpt lat="48.76664" lon="7.33114">
        <ele>346.5</ele>
        <time>2020-05-10T11:36:50Z</time>
      </trkpt>
      <trkpt lat="48.76661" lon="7.33107">
        <ele>346.9</ele>
        <time>2020-05-10T11:36:52Z</time>
      </trkpt>
      <trkpt lat="48.76658" lon="7.33103">
        <ele>347.2</ele>
        <time>2020-05-10T11:36:54Z</time>
      </trkpt>
      <trkpt lat="48.76655" lon="7.33097">
        <ele>347.6</ele>
        <time>2020-05-10T11:36:56Z</time>
      </trkpt>
      <trkpt lat="48.76653" lon="7.33092">
        <ele>347.9</ele>
        <time>2020-05-10T11:36:57Z</time>
      </trkpt>
      <trkpt lat="48.76651" lon="7.33089">
        <ele>348.2</ele>
        <time>2020-05-10T11:36:58Z</time>
      </trkpt>
      <trkpt lat="48.76649" lon="7.33086">
        <ele>348.4</ele>
        <time>2020-05-10T11:36:59Z</time>
      </trkpt>
      <trkpt lat="48.76649" lon="7.33081">
        <ele>348.6</ele>
        <time>2020-05-10T11:37:01Z</time>
      </trkpt>
      <trkpt lat="48.76648" lon="7.33079">
        <ele>348.7</ele>
        <time>2020-05-10T11:37:02Z</time>
      </trkpt>
      <trkpt lat="48.76649" lon="7.33076">
        <ele>348.9</ele>
        <time>2020-05-10T11:37:03Z</time>
      </trkpt>
      <trkpt lat="48.76649" lon="7.33069">
        <ele>349.3</ele>
        <time>2020-05-10T11:37:05Z</time>
      </trkpt>
      <trkpt lat="48.76649" lon="7.33066">
        <ele>349.5</ele>
        <time>2020-05-10T11:37:07Z</time>
      </trkpt>
      <trkpt lat="48.76648" lon="7.33063">
        <ele>349.6</ele>
        <time>2020-05-10T11:37:08Z</time>
      </trkpt>
      <trkpt lat="48.76648" lon="7.3306">
        <ele>349.8</ele>
        <time>2020-05-10T11:37:09Z</time>
      </trkpt>
      <trkpt lat="48.76647" lon="7.33053">
        <ele>350.2</ele>
        <time>2020-05-10T11:37:11Z</time>
      </trkpt>
      <trkpt lat="48.76646" lon="7.33045">
        <ele>350.6</ele>
        <time>2020-05-10T11:37:13Z</time>
      </trkpt>
      <trkpt lat="48.76643" lon="7.33038">
        <ele>351.1</ele>
        <time>2020-05-10T11:37:15Z</time>
      </trkpt>
      <trkpt lat="48.7664" lon="7.33032">
        <ele>351.5</ele>
        <time>2020-05-10T11:37:17Z</time>
      </trkpt>
      <trkpt lat="48.76639" lon="7.33028">
        <ele>351.7</ele>
        <time>2020-05-10T11:37:18Z</time>
      </trkpt>
      <trkpt lat="48.76638" lon="7.33026">
        <ele>351.8</ele>
        <time>2020-05-10T11:37:19Z</time>
      </trkpt>
      <trkpt lat="48.76637" lon="7.33019">
        <ele>352.2</ele>
        <time>2020-05-10T11:37:21Z</time>
      </trkpt>
      <trkpt lat="48.76636" lon="7.33013">
        <ele>352.5</ele>
        <time>2020-05-10T11:37:23Z</time>
      </trkpt>
      <trkpt lat="48.76635" lon="7.33009">
        <ele>352.7</ele>
        <time>2020-05-10T11:37:24Z</time>
      </trkpt>
      <trkpt lat="48.76632" lon="7.33002">
        <ele>353.1</ele>
        <time>2020-05-10T11:37:26Z</time>
      </trkpt>
      <trkpt lat="48.76631" lon="7.32998">
        <ele>353.3</ele>
        <time>2020-05-10T11:37:27Z</time>
      </trkpt>
      <trkpt lat="48.76629" lon="7.32992">
        <ele>353.6</ele>
        <time>2020-05-10T11:37:29Z</time>
      </trkpt>
      <trkpt lat="48.76629" lon="7.3299">
        <ele>353.7</ele>
        <time>2020-05-10T11:37:30Z</time>
      </trkpt>
      <trkpt lat="48.76626" lon="7.32983">
        <ele>354.2</ele>
        <time>2020-05-10T11:37:32Z</time>
      </trkpt>
      <trkpt lat="48.76626" lon="7.3298">
        <ele>354.3</ele>
        <time>2020-05-10T11:37:33Z</time>
      </trkpt>
      <trkpt lat="48.76626" lon="7.32975">
        <ele>354.5</ele>
        <time>2020-05-10T11:37:35Z</time>
      </trkpt>
      <trkpt lat="48.76626" lon="7.32972">
        <ele>354.7</ele>
        <time>2020-05-10T11:37:36Z</time>
      </trkpt>
      <trkpt lat="48.76626" lon="7.32965">
        <ele>355.1</ele>
        <time>2020-05-10T11:37:38Z</time>
      </trkpt>
      <trkpt lat="48.76625" lon="7.32961">
        <ele>355.3</ele>
        <time>2020-05-10T11:37:39Z</time>
      </trkpt>
      <trkpt lat="48.76624" lon="7.32954">
        <ele>355.7</ele>
        <time>2020-05-10T11:37:41Z</time>
      </trkpt>
      <trkpt lat="48.76624" lon="7.32952">
        <ele>355.9</ele>
        <time>2020-05-10T11:37:42Z</time>
      </trkpt>
      <trkpt lat="48.76624" lon="7.3295">
        <ele>356</ele>
        <time>2020-05-10T11:37:43Z</time>
      </trkpt>
      <trkpt lat="48.76624" lon="7.32942">
        <ele>356.5</ele>
        <time>2020-05-10T11:37:45Z</time>
      </trkpt>
      <trkpt lat="48.76624" lon="7.32938">
        <ele>356.7</ele>
        <time>2020-05-10T11:37:46Z</time>
      </trkpt>
      <trkpt lat="48.7662" lon="7.32934">
        <ele>357.2</ele>
        <time>2020-05-10T11:37:48Z</time>
      </trkpt>
      <trkpt lat="48.76616" lon="7.3293">
        <ele>357.6</ele>
        <time>2020-05-10T11:37:50Z</time>
      </trkpt>
      <trkpt lat="48.76615" lon="7.32924">
        <ele>358</ele>
        <time>2020-05-10T11:37:52Z</time>
      </trkpt>
      <trkpt lat="48.76611" lon="7.32917">
        <ele>358.5</ele>
        <time>2020-05-10T11:37:54Z</time>
      </trkpt>
      <trkpt lat="48.7661" lon="7.32915">
        <ele>358.7</ele>
        <time>2020-05-10T11:37:55Z</time>
      </trkpt>
      <trkpt lat="48.76607" lon="7.32909">
        <ele>359</ele>
        <time>2020-05-10T11:37:57Z</time>
      </trkpt>
      <trkpt lat="48.76606" lon="7.32904">
        <ele>359.3</ele>
        <time>2020-05-10T11:37:59Z</time>
      </trkpt>
      <trkpt lat="48.76604" lon="7.32899">
        <ele>359.6</ele>
        <time>2020-05-10T11:38:00Z</time>
      </trkpt>
      <trkpt lat="48.76603" lon="7.32895">
        <ele>359.8</ele>
        <time>2020-05-10T11:38:01Z</time>
      </trkpt>
      <trkpt lat="48.76603" lon="7.32893">
        <ele>359.8</ele>
        <time>2020-05-10T11:38:02Z</time>
      </trkpt>
      <trkpt lat="48.76604" lon="7.32888">
        <ele>359.9</ele>
        <time>2020-05-10T11:38:04Z</time>
      </trkpt>
      <trkpt lat="48.76604" lon="7.32885">
        <ele>360</ele>
        <time>2020-05-10T11:38:05Z</time>
      </trkpt>
      <trkpt lat="48.76603" lon="7.32883">
        <ele>360</ele>
        <time>2020-05-10T11:38:06Z</time>
      </trkpt>
      <trkpt lat="48.76602" lon="7.32876">
        <ele>360.2</ele>
        <time>2020-05-10T11:38:08Z</time>
      </trkpt>
      <trkpt lat="48.76601" lon="7.32873">
        <ele>360.2</ele>
        <time>2020-05-10T11:38:09Z</time>
      </trkpt>
      <trkpt lat="48.766" lon="7.32871">
        <ele>360.3</ele>
        <time>2020-05-10T11:38:10Z</time>
      </trkpt>
      <trkpt lat="48.766" lon="7.32867">
        <ele>360.4</ele>
        <time>2020-05-10T11:38:12Z</time>
      </trkpt>
      <trkpt lat="48.76601" lon="7.32865">
        <ele>360.4</ele>
        <time>2020-05-10T11:38:13Z</time>
      </trkpt>
      <trkpt lat="48.76601" lon="7.32859">
        <ele>360.5</ele>
        <time>2020-05-10T11:38:15Z</time>
      </trkpt>
      <trkpt lat="48.766" lon="7.32853">
        <ele>360.6</ele>
        <time>2020-05-10T11:38:17Z</time>
      </trkpt>
      <trkpt lat="48.76599" lon="7.32849">
        <ele>360.8</ele>
        <time>2020-05-10T11:38:18Z</time>
      </trkpt>
      <trkpt lat="48.76599" lon="7.32848">
        <ele>360.8</ele>
        <time>2020-05-10T11:38:19Z</time>
      </trkpt>
      <trkpt lat="48.76598" lon="7.32841">
        <ele>360.9</ele>
        <time>2020-05-10T11:38:21Z</time>
      </trkpt>
      <trkpt lat="48.76598" lon="7.32838">
        <ele>360.9</ele>
        <time>2020-05-10T11:38:23Z</time>
      </trkpt>
      <trkpt lat="48.76598" lon="7.32835">
        <ele>361</ele>
        <time>2020-05-10T11:38:24Z</time>
      </trkpt>
      <trkpt lat="48.76598" lon="7.32832">
        <ele>361</ele>
        <time>2020-05-10T11:38:25Z</time>
      </trkpt>
      <trkpt lat="48.76599" lon="7.32821">
        <ele>361.1</ele>
        <time>2020-05-10T11:38:27Z</time>
      </trkpt>
      <trkpt lat="48.766" lon="7.32814">
        <ele>361.2</ele>
        <time>2020-05-10T11:38:28Z</time>
      </trkpt>
      <trkpt lat="48.76601" lon="7.32807">
        <ele>361.2</ele>
        <time>2020-05-10T11:38:29Z</time>
      </trkpt>
      <trkpt lat="48.76601" lon="7.32801">
        <ele>361.3</ele>
        <time>2020-05-10T11:38:30Z</time>
      </trkpt>
      <trkpt lat="48.76602" lon="7.32792">
        <ele>361.3</ele>
        <time>2020-05-10T11:38:32Z</time>
      </trkpt>
      <trkpt lat="48.76602" lon="7.32786">
        <ele>361.4</ele>
        <time>2020-05-10T11:38:33Z</time>
      </trkpt>
      <trkpt lat="48.76603" lon="7.32783">
        <ele>361.4</ele>
        <time>2020-05-10T11:38:34Z</time>
      </trkpt>
      <trkpt lat="48.76605" lon="7.32772">
        <ele>361.4</ele>
        <time>2020-05-10T11:38:36Z</time>
      </trkpt>
      <trkpt lat="48.76607" lon="7.32768">
        <ele>361.5</ele>
        <time>2020-05-10T11:38:37Z</time>
      </trkpt>
      <trkpt lat="48.76612" lon="7.32753">
        <ele>361.6</ele>
        <time>2020-05-10T11:38:39Z</time>
      </trkpt>
      <trkpt lat="48.76618" lon="7.32741">
        <ele>361.7</ele>
        <time>2020-05-10T11:38:40Z</time>
      </trkpt>
      <trkpt lat="48.76632" lon="7.3273">
        <ele>362</ele>
        <time>2020-05-10T11:38:42Z</time>
      </trkpt>
      <trkpt lat="48.76639" lon="7.32729">
        <ele>362.2</ele>
        <time>2020-05-10T11:38:43Z</time>
      </trkpt>
      <trkpt lat="48.76643" lon="7.32727">
        <ele>362.4</ele>
        <time>2020-05-10T11:38:44Z</time>
      </trkpt>
      <trkpt lat="48.7665" lon="7.32732">
        <ele>362.6</ele>
        <time>2020-05-10T11:38:46Z</time>
      </trkpt>
      <trkpt lat="48.76657" lon="7.32737">
        <ele>362.9</ele>
        <time>2020-05-10T11:38:48Z</time>
      </trkpt>
      <trkpt lat="48.76664" lon="7.32741">
        <ele>363.1</ele>
        <time>2020-05-10T11:38:50Z</time>
      </trkpt>
      <trkpt lat="48.76667" lon="7.32745">
        <ele>363</ele>
        <time>2020-05-10T11:38:51Z</time>
      </trkpt>
      <trkpt lat="48.76668" lon="7.3275">
        <ele>363</ele>
        <time>2020-05-10T11:38:52Z</time>
      </trkpt>
      <trkpt lat="48.7667" lon="7.3276">
        <ele>362.9</ele>
        <time>2020-05-10T11:38:54Z</time>
      </trkpt>
      <trkpt lat="48.76671" lon="7.32764">
        <ele>362.9</ele>
        <time>2020-05-10T11:38:55Z</time>
      </trkpt>
      <trkpt lat="48.76674" lon="7.32769">
        <ele>362.9</ele>
        <time>2020-05-10T11:38:56Z</time>
      </trkpt>
      <trkpt lat="48.76675" lon="7.32771">
        <ele>362.9</ele>
        <time>2020-05-10T11:38:57Z</time>
      </trkpt>
      <trkpt lat="48.76677" lon="7.32776">
        <ele>362.9</ele>
        <time>2020-05-10T11:38:59Z</time>
      </trkpt>
      <trkpt lat="48.7668" lon="7.32779">
        <ele>363</ele>
        <time>2020-05-10T11:39:00Z</time>
      </trkpt>
      <trkpt lat="48.76685" lon="7.32786">
        <ele>363.1</ele>
        <time>2020-05-10T11:39:02Z</time>
      </trkpt>
      <trkpt lat="48.76686" lon="7.3279">
        <ele>363.2</ele>
        <time>2020-05-10T11:39:03Z</time>
      </trkpt>
      <trkpt lat="48.76688" lon="7.32796">
        <ele>363.3</ele>
        <time>2020-05-10T11:39:05Z</time>
      </trkpt>
      <trkpt lat="48.76691" lon="7.32799">
        <ele>363.3</ele>
        <time>2020-05-10T11:39:07Z</time>
      </trkpt>
      <trkpt lat="48.76693" lon="7.32804">
        <ele>363.4</ele>
        <time>2020-05-10T11:39:09Z</time>
      </trkpt>
      <trkpt lat="48.76693" lon="7.3281">
        <ele>363.5</ele>
        <time>2020-05-10T11:39:10Z</time>
      </trkpt>
      <trkpt lat="48.76694" lon="7.32812">
        <ele>363.5</ele>
        <time>2020-05-10T11:39:11Z</time>
      </trkpt>
      <trkpt lat="48.76695" lon="7.32816">
        <ele>363.6</ele>
        <time>2020-05-10T11:39:12Z</time>
      </trkpt>
      <trkpt lat="48.76696" lon="7.32817">
        <ele>363.6</ele>
        <time>2020-05-10T11:39:13Z</time>
      </trkpt>
      <trkpt lat="48.76697" lon="7.32821">
        <ele>363.6</ele>
        <time>2020-05-10T11:39:14Z</time>
      </trkpt>
      <trkpt lat="48.76699" lon="7.32828">
        <ele>363.6</ele>
        <time>2020-05-10T11:39:16Z</time>
      </trkpt>
      <trkpt lat="48.76701" lon="7.32832">
        <ele>363.6</ele>
        <time>2020-05-10T11:39:17Z</time>
      </trkpt>
      <trkpt lat="48.76703" lon="7.32839">
        <ele>363.6</ele>
        <time>2020-05-10T11:39:19Z</time>
      </trkpt>
      <trkpt lat="48.76703" lon="7.32843">
        <ele>363.5</ele>
        <time>2020-05-10T11:39:20Z</time>
      </trkpt>
      <trkpt lat="48.76705" lon="7.32851">
        <ele>363.4</ele>
        <time>2020-05-10T11:39:22Z</time>
      </trkpt>
      <trkpt lat="48.76709" lon="7.32859">
        <ele>363.3</ele>
        <time>2020-05-10T11:39:24Z</time>
      </trkpt>
      <trkpt lat="48.76712" lon="7.32863">
        <ele>363.2</ele>
        <time>2020-05-10T11:39:25Z</time>
      </trkpt>
      <trkpt lat="48.76715" lon="7.32868">
        <ele>363.1</ele>
        <time>2020-05-10T11:39:26Z</time>
      </trkpt>
      <trkpt lat="48.76718" lon="7.32875">
        <ele>362.9</ele>
        <time>2020-05-10T11:39:28Z</time>
      </trkpt>
      <trkpt lat="48.7672" lon="7.32881">
        <ele>362.8</ele>
        <time>2020-05-10T11:39:29Z</time>
      </trkpt>
      <trkpt lat="48.76722" lon="7.32888">
        <ele>362.7</ele>
        <time>2020-05-10T11:39:31Z</time>
      </trkpt>
      <trkpt lat="48.76724" lon="7.32895">
        <ele>362.6</ele>
        <time>2020-05-10T11:39:33Z</time>
      </trkpt>
      <trkpt lat="48.76725" lon="7.329">
        <ele>362.5</ele>
        <time>2020-05-10T11:39:34Z</time>
      </trkpt>
      <trkpt lat="48.76728" lon="7.3291">
        <ele>362.4</ele>
        <time>2020-05-10T11:39:36Z</time>
      </trkpt>
      <trkpt lat="48.76733" lon="7.32918">
        <ele>362.3</ele>
        <time>2020-05-10T11:39:38Z</time>
      </trkpt>
      <trkpt lat="48.76736" lon="7.32922">
        <ele>362.2</ele>
        <time>2020-05-10T11:39:39Z</time>
      </trkpt>
      <trkpt lat="48.7674" lon="7.32931">
        <ele>362.2</ele>
        <time>2020-05-10T11:39:41Z</time>
      </trkpt>
      <trkpt lat="48.76745" lon="7.32942">
        <ele>362.1</ele>
        <time>2020-05-10T11:39:43Z</time>
      </trkpt>
      <trkpt lat="48.76752" lon="7.32956">
        <ele>362</ele>
        <time>2020-05-10T11:39:45Z</time>
      </trkpt>
      <trkpt lat="48.76759" lon="7.3297">
        <ele>362</ele>
        <time>2020-05-10T11:39:47Z</time>
      </trkpt>
      <trkpt lat="48.7676" lon="7.32976">
        <ele>362</ele>
        <time>2020-05-10T11:39:48Z</time>
      </trkpt>
      <trkpt lat="48.76761" lon="7.32984">
        <ele>361.9</ele>
        <time>2020-05-10T11:39:50Z</time>
      </trkpt>
      <trkpt lat="48.76761" lon="7.32993">
        <ele>361.9</ele>
        <time>2020-05-10T11:39:52Z</time>
      </trkpt>
      <trkpt lat="48.76762" lon="7.32998">
        <ele>361.9</ele>
        <time>2020-05-10T11:39:53Z</time>
      </trkpt>
      <trkpt lat="48.76764" lon="7.33002">
        <ele>361.9</ele>
        <time>2020-05-10T11:39:54Z</time>
      </trkpt>
      <trkpt lat="48.76768" lon="7.33011">
        <ele>362</ele>
        <time>2020-05-10T11:39:56Z</time>
      </trkpt>
      <trkpt lat="48.76769" lon="7.33016">
        <ele>362</ele>
        <time>2020-05-10T11:39:57Z</time>
      </trkpt>
      <trkpt lat="48.7677" lon="7.33024">
        <ele>362</ele>
        <time>2020-05-10T11:39:59Z</time>
      </trkpt>
      <trkpt lat="48.76771" lon="7.33027">
        <ele>362.1</ele>
        <time>2020-05-10T11:40:00Z</time>
      </trkpt>
      <trkpt lat="48.76772" lon="7.33035">
        <ele>362.1</ele>
        <time>2020-05-10T11:40:02Z</time>
      </trkpt>
      <trkpt lat="48.76773" lon="7.33039">
        <ele>362.2</ele>
        <time>2020-05-10T11:40:03Z</time>
      </trkpt>
      <trkpt lat="48.76776" lon="7.33047">
        <ele>362.3</ele>
        <time>2020-05-10T11:40:05Z</time>
      </trkpt>
      <trkpt lat="48.76778" lon="7.33051">
        <ele>362.3</ele>
        <time>2020-05-10T11:40:06Z</time>
      </trkpt>
      <trkpt lat="48.76781" lon="7.33055">
        <ele>362.4</ele>
        <time>2020-05-10T11:40:08Z</time>
      </trkpt>
      <trkpt lat="48.76784" lon="7.33055">
        <ele>362.4</ele>
        <time>2020-05-10T11:40:09Z</time>
      </trkpt>
      <trkpt lat="48.76788" lon="7.33056">
        <ele>362.5</ele>
        <time>2020-05-10T11:40:11Z</time>
      </trkpt>
      <trkpt lat="48.76793" lon="7.33066">
        <ele>362.6</ele>
        <time>2020-05-10T11:40:13Z</time>
      </trkpt>
      <trkpt lat="48.76798" lon="7.33075">
        <ele>362.7</ele>
        <time>2020-05-10T11:40:15Z</time>
      </trkpt>
      <trkpt lat="48.76802" lon="7.33082">
        <ele>362.9</ele>
        <time>2020-05-10T11:40:17Z</time>
      </trkpt>
      <trkpt lat="48.76805" lon="7.3309">
        <ele>363</ele>
        <time>2020-05-10T11:40:19Z</time>
      </trkpt>
      <trkpt lat="48.76809" lon="7.33099">
        <ele>363.3</ele>
        <time>2020-05-10T11:40:21Z</time>
      </trkpt>
      <trkpt lat="48.76812" lon="7.33104">
        <ele>363.5</ele>
        <time>2020-05-10T11:40:23Z</time>
      </trkpt>
      <trkpt lat="48.76816" lon="7.33111">
        <ele>363.7</ele>
        <time>2020-05-10T11:40:25Z</time>
      </trkpt>
      <trkpt lat="48.76818" lon="7.33115">
        <ele>363.9</ele>
        <time>2020-05-10T11:40:26Z</time>
      </trkpt>
      <trkpt lat="48.76821" lon="7.33118">
        <ele>364</ele>
        <time>2020-05-10T11:40:27Z</time>
      </trkpt>
      <trkpt lat="48.76822" lon="7.3312">
        <ele>364.1</ele>
        <time>2020-05-10T11:40:28Z</time>
      </trkpt>
      <trkpt lat="48.76824" lon="7.33122">
        <ele>364.2</ele>
        <time>2020-05-10T11:40:29Z</time>
      </trkpt>
      <trkpt lat="48.76828" lon="7.33129">
        <ele>364.5</ele>
        <time>2020-05-10T11:40:31Z</time>
      </trkpt>
      <trkpt lat="48.76833" lon="7.33135">
        <ele>364.7</ele>
        <time>2020-05-10T11:40:33Z</time>
      </trkpt>
      <trkpt lat="48.76834" lon="7.33138">
        <ele>364.8</ele>
        <time>2020-05-10T11:40:34Z</time>
      </trkpt>
      <trkpt lat="48.76836" lon="7.33143">
        <ele>365</ele>
        <time>2020-05-10T11:40:36Z</time>
      </trkpt>
      <trkpt lat="48.76838" lon="7.33148">
        <ele>365.1</ele>
        <time>2020-05-10T11:40:38Z</time>
      </trkpt>
      <trkpt lat="48.76841" lon="7.33152">
        <ele>365.3</ele>
        <time>2020-05-10T11:40:40Z</time>
      </trkpt>
      <trkpt lat="48.76843" lon="7.33156">
        <ele>365.4</ele>
        <time>2020-05-10T11:40:41Z</time>
      </trkpt>
      <trkpt lat="48.76845" lon="7.3316">
        <ele>365.6</ele>
        <time>2020-05-10T11:40:43Z</time>
      </trkpt>
      <trkpt lat="48.76848" lon="7.33164">
        <ele>365.8</ele>
        <time>2020-05-10T11:40:44Z</time>
      </trkpt>
      <trkpt lat="48.7685" lon="7.33171">
        <ele>365.9</ele>
        <time>2020-05-10T11:40:46Z</time>
      </trkpt>
      <trkpt lat="48.76851" lon="7.33175">
        <ele>366.1</ele>
        <time>2020-05-10T11:40:47Z</time>
      </trkpt>
      <trkpt lat="48.76851" lon="7.33177">
        <ele>366.1</ele>
        <time>2020-05-10T11:40:48Z</time>
      </trkpt>
      <trkpt lat="48.76853" lon="7.33183">
        <ele>366.2</ele>
        <time>2020-05-10T11:40:50Z</time>
      </trkpt>
      <trkpt lat="48.76856" lon="7.33189">
        <ele>366.4</ele>
        <time>2020-05-10T11:40:52Z</time>
      </trkpt>
      <trkpt lat="48.76859" lon="7.33195">
        <ele>366.5</ele>
        <time>2020-05-10T11:40:54Z</time>
      </trkpt>
      <trkpt lat="48.76863" lon="7.33201">
        <ele>366.6</ele>
        <time>2020-05-10T11:40:56Z</time>
      </trkpt>
      <trkpt lat="48.76866" lon="7.33207">
        <ele>366.6</ele>
        <time>2020-05-10T11:40:58Z</time>
      </trkpt>
      <trkpt lat="48.76867" lon="7.33211">
        <ele>366.6</ele>
        <time>2020-05-10T11:40:59Z</time>
      </trkpt>
      <trkpt lat="48.76869" lon="7.33216">
        <ele>366.6</ele>
        <time>2020-05-10T11:41:01Z</time>
      </trkpt>
      <trkpt lat="48.76871" lon="7.33222">
        <ele>366.6</ele>
        <time>2020-05-10T11:41:02Z</time>
      </trkpt>
      <trkpt lat="48.76873" lon="7.33225">
        <ele>366.6</ele>
        <time>2020-05-10T11:41:03Z</time>
      </trkpt>
      <trkpt lat="48.76875" lon="7.33228">
        <ele>366.6</ele>
        <time>2020-05-10T11:41:04Z</time>
      </trkpt>
      <trkpt lat="48.76879" lon="7.33231">
        <ele>366.6</ele>
        <time>2020-05-10T11:41:06Z</time>
      </trkpt>
      <trkpt lat="48.76884" lon="7.33235">
        <ele>366.6</ele>
        <time>2020-05-10T11:41:08Z</time>
      </trkpt>
      <trkpt lat="48.76887" lon="7.33238">
        <ele>366.7</ele>
        <time>2020-05-10T11:41:09Z</time>
      </trkpt>
      <trkpt lat="48.76889" lon="7.33238">
        <ele>366.7</ele>
        <time>2020-05-10T11:41:10Z</time>
      </trkpt>
      <trkpt lat="48.76893" lon="7.33239">
        <ele>366.7</ele>
        <time>2020-05-10T11:41:12Z</time>
      </trkpt>
      <trkpt lat="48.76896" lon="7.33237">
        <ele>366.7</ele>
        <time>2020-05-10T11:41:14Z</time>
      </trkpt>
      <trkpt lat="48.76899" lon="7.33235">
        <ele>366.7</ele>
        <time>2020-05-10T11:41:15Z</time>
      </trkpt>
      <trkpt lat="48.76905" lon="7.33229">
        <ele>366.6</ele>
        <time>2020-05-10T11:41:17Z</time>
      </trkpt>
      <trkpt lat="48.76911" lon="7.33222">
        <ele>366.5</ele>
        <time>2020-05-10T11:41:19Z</time>
      </trkpt>
      <trkpt lat="48.76916" lon="7.33214">
        <ele>366.4</ele>
        <time>2020-05-10T11:41:21Z</time>
      </trkpt>
      <trkpt lat="48.76918" lon="7.3321">
        <ele>366.3</ele>
        <time>2020-05-10T11:41:22Z</time>
      </trkpt>
      <trkpt lat="48.76924" lon="7.33202">
        <ele>366.1</ele>
        <time>2020-05-10T11:41:24Z</time>
      </trkpt>
      <trkpt lat="48.7693" lon="7.33194">
        <ele>365.9</ele>
        <time>2020-05-10T11:41:26Z</time>
      </trkpt>
      <trkpt lat="48.76933" lon="7.33191">
        <ele>365.8</ele>
        <time>2020-05-10T11:41:27Z</time>
      </trkpt>
      <trkpt lat="48.76938" lon="7.33186">
        <ele>365.6</ele>
        <time>2020-05-10T11:41:29Z</time>
      </trkpt>
      <trkpt lat="48.76943" lon="7.33179">
        <ele>365.4</ele>
        <time>2020-05-10T11:41:31Z</time>
      </trkpt>
      <trkpt lat="48.7695" lon="7.33166">
        <ele>365</ele>
        <time>2020-05-10T11:41:33Z</time>
      </trkpt>
      <trkpt lat="48.76958" lon="7.33153">
        <ele>364.5</ele>
        <time>2020-05-10T11:41:35Z</time>
      </trkpt>
      <trkpt lat="48.76966" lon="7.33141">
        <ele>363.7</ele>
        <time>2020-05-10T11:41:37Z</time>
      </trkpt>
      <trkpt lat="48.76975" lon="7.33126">
        <ele>362.8</ele>
        <time>2020-05-10T11:41:39Z</time>
      </trkpt>
      <trkpt lat="48.7698" lon="7.33119">
        <ele>362.2</ele>
        <time>2020-05-10T11:41:40Z</time>
      </trkpt>
      <trkpt lat="48.7699" lon="7.33103">
        <ele>361.2</ele>
        <time>2020-05-10T11:41:42Z</time>
      </trkpt>
      <trkpt lat="48.76997" lon="7.3309">
        <ele>360.5</ele>
        <time>2020-05-10T11:41:43Z</time>
      </trkpt>
      <trkpt lat="48.77006" lon="7.33074">
        <ele>359.7</ele>
        <time>2020-05-10T11:41:45Z</time>
      </trkpt>
      <trkpt lat="48.77011" lon="7.33066">
        <ele>359.4</ele>
        <time>2020-05-10T11:41:46Z</time>
      </trkpt>
      <trkpt lat="48.77021" lon="7.33047">
        <ele>358.9</ele>
        <time>2020-05-10T11:41:48Z</time>
      </trkpt>
      <trkpt lat="48.77023" lon="7.33037">
        <ele>358.9</ele>
        <time>2020-05-10T11:41:49Z</time>
      </trkpt>
      <trkpt lat="48.77024" lon="7.33028">
        <ele>359</ele>
        <time>2020-05-10T11:41:50Z</time>
      </trkpt>
      <trkpt lat="48.77027" lon="7.33016">
        <ele>359.3</ele>
        <time>2020-05-10T11:41:52Z</time>
      </trkpt>
      <trkpt lat="48.7703" lon="7.33005">
        <ele>359.7</ele>
        <time>2020-05-10T11:41:54Z</time>
      </trkpt>
      <trkpt lat="48.77031" lon="7.32995">
        <ele>360</ele>
        <time>2020-05-10T11:41:56Z</time>
      </trkpt>
      <trkpt lat="48.77032" lon="7.32991">
        <ele>360.2</ele>
        <time>2020-05-10T11:41:57Z</time>
      </trkpt>
      <trkpt lat="48.77035" lon="7.32982">
        <ele>360.5</ele>
        <time>2020-05-10T11:41:59Z</time>
      </trkpt>
      <trkpt lat="48.77036" lon="7.32974">
        <ele>360.9</ele>
        <time>2020-05-10T11:42:01Z</time>
      </trkpt>
      <trkpt lat="48.77035" lon="7.32971">
        <ele>361</ele>
        <time>2020-05-10T11:42:02Z</time>
      </trkpt>
      <trkpt lat="48.77034" lon="7.32962">
        <ele>361.3</ele>
        <time>2020-05-10T11:42:04Z</time>
      </trkpt>
      <trkpt lat="48.77035" lon="7.32957">
        <ele>361.5</ele>
        <time>2020-05-10T11:42:05Z</time>
      </trkpt>
      <trkpt lat="48.77035" lon="7.32955">
        <ele>361.6</ele>
        <time>2020-05-10T11:42:06Z</time>
      </trkpt>
      <trkpt lat="48.77036" lon="7.32947">
        <ele>361.9</ele>
        <time>2020-05-10T11:42:08Z</time>
      </trkpt>
      <trkpt lat="48.77037" lon="7.32944">
        <ele>362</ele>
        <time>2020-05-10T11:42:09Z</time>
      </trkpt>
      <trkpt lat="48.77039" lon="7.32936">
        <ele>362.3</ele>
        <time>2020-05-10T11:42:11Z</time>
      </trkpt>
      <trkpt lat="48.77041" lon="7.32931">
        <ele>362.5</ele>
        <time>2020-05-10T11:42:12Z</time>
      </trkpt>
      <trkpt lat="48.77043" lon="7.32922">
        <ele>362.9</ele>
        <time>2020-05-10T11:42:14Z</time>
      </trkpt>
      <trkpt lat="48.77044" lon="7.32916">
        <ele>363.1</ele>
        <time>2020-05-10T11:42:16Z</time>
      </trkpt>
      <trkpt lat="48.77045" lon="7.32908">
        <ele>363.4</ele>
        <time>2020-05-10T11:42:18Z</time>
      </trkpt>
      <trkpt lat="48.77047" lon="7.32903">
        <ele>363.7</ele>
        <time>2020-05-10T11:42:19Z</time>
      </trkpt>
      <trkpt lat="48.77048" lon="7.32901">
        <ele>363.7</ele>
        <time>2020-05-10T11:42:20Z</time>
      </trkpt>
      <trkpt lat="48.7705" lon="7.32895">
        <ele>364</ele>
        <time>2020-05-10T11:42:22Z</time>
      </trkpt>
      <trkpt lat="48.77051" lon="7.32891">
        <ele>364.2</ele>
        <time>2020-05-10T11:42:23Z</time>
      </trkpt>
      <trkpt lat="48.77052" lon="7.32884">
        <ele>364.4</ele>
        <time>2020-05-10T11:42:25Z</time>
      </trkpt>
      <trkpt lat="48.77053" lon="7.3288">
        <ele>364.6</ele>
        <time>2020-05-10T11:42:26Z</time>
      </trkpt>
      <trkpt lat="48.77055" lon="7.32875">
        <ele>364.8</ele>
        <time>2020-05-10T11:42:28Z</time>
      </trkpt>
      <trkpt lat="48.77056" lon="7.32871">
        <ele>364.9</ele>
        <time>2020-05-10T11:42:29Z</time>
      </trkpt>
      <trkpt lat="48.77056" lon="7.32869">
        <ele>365</ele>
        <time>2020-05-10T11:42:30Z</time>
      </trkpt>
      <trkpt lat="48.77058" lon="7.32865">
        <ele>365.2</ele>
        <time>2020-05-10T11:42:31Z</time>
      </trkpt>
      <trkpt lat="48.77058" lon="7.32863">
        <ele>365.2</ele>
        <time>2020-05-10T11:42:32Z</time>
      </trkpt>
      <trkpt lat="48.77059" lon="7.3286">
        <ele>365.3</ele>
        <time>2020-05-10T11:42:33Z</time>
      </trkpt>
      <trkpt lat="48.77063" lon="7.32854">
        <ele>365.5</ele>
        <time>2020-05-10T11:42:35Z</time>
      </trkpt>
      <trkpt lat="48.77068" lon="7.32849">
        <ele>365.7</ele>
        <time>2020-05-10T11:42:37Z</time>
      </trkpt>
      <trkpt lat="48.7707" lon="7.32845">
        <ele>365.8</ele>
        <time>2020-05-10T11:42:38Z</time>
      </trkpt>
      <trkpt lat="48.77071" lon="7.32844">
        <ele>365.8</ele>
        <time>2020-05-10T11:42:39Z</time>
      </trkpt>
      <trkpt lat="48.77076" lon="7.32839">
        <ele>366</ele>
        <time>2020-05-10T11:42:41Z</time>
      </trkpt>
      <trkpt lat="48.77079" lon="7.32837">
        <ele>366.1</ele>
        <time>2020-05-10T11:42:43Z</time>
      </trkpt>
      <trkpt lat="48.77083" lon="7.32835">
        <ele>366.3</ele>
        <time>2020-05-10T11:42:44Z</time>
      </trkpt>
      <trkpt lat="48.77086" lon="7.32834">
        <ele>366.4</ele>
        <time>2020-05-10T11:42:45Z</time>
      </trkpt>
      <trkpt lat="48.77091" lon="7.32831">
        <ele>366.6</ele>
        <time>2020-05-10T11:42:47Z</time>
      </trkpt>
      <trkpt lat="48.77093" lon="7.3283">
        <ele>366.7</ele>
        <time>2020-05-10T11:42:48Z</time>
      </trkpt>
      <trkpt lat="48.77097" lon="7.32828">
        <ele>367</ele>
        <time>2020-05-10T11:42:50Z</time>
      </trkpt>
      <trkpt lat="48.77099" lon="7.32827">
        <ele>367.1</ele>
        <time>2020-05-10T11:42:51Z</time>
      </trkpt>
      <trkpt lat="48.77104" lon="7.32825">
        <ele>367.3</ele>
        <time>2020-05-10T11:42:53Z</time>
      </trkpt>
      <trkpt lat="48.77105" lon="7.32824">
        <ele>367.4</ele>
        <time>2020-05-10T11:42:54Z</time>
      </trkpt>
      <trkpt lat="48.77107" lon="7.32823">
        <ele>367.5</ele>
        <time>2020-05-10T11:42:56Z</time>
      </trkpt>
      <trkpt lat="48.77109" lon="7.32823">
        <ele>367.6</ele>
        <time>2020-05-10T11:42:57Z</time>
      </trkpt>
      <trkpt lat="48.77111" lon="7.32822">
        <ele>367.7</ele>
        <time>2020-05-10T11:42:58Z</time>
      </trkpt>
      <trkpt lat="48.77112" lon="7.32822">
        <ele>367.8</ele>
        <time>2020-05-10T11:42:59Z</time>
      </trkpt>
      <trkpt lat="48.77118" lon="7.3282">
        <ele>368</ele>
        <time>2020-05-10T11:43:01Z</time>
      </trkpt>
      <trkpt lat="48.77121" lon="7.3282">
        <ele>368.2</ele>
        <time>2020-05-10T11:43:02Z</time>
      </trkpt>
      <trkpt lat="48.77126" lon="7.3282">
        <ele>368.5</ele>
        <time>2020-05-10T11:43:04Z</time>
      </trkpt>
      <trkpt lat="48.77131" lon="7.32819">
        <ele>368.8</ele>
        <time>2020-05-10T11:43:06Z</time>
      </trkpt>
      <trkpt lat="48.77135" lon="7.32819">
        <ele>369</ele>
        <time>2020-05-10T11:43:07Z</time>
      </trkpt>
      <trkpt lat="48.77136" lon="7.32819">
        <ele>369</ele>
        <time>2020-05-10T11:43:08Z</time>
      </trkpt>
      <trkpt lat="48.77137" lon="7.32819">
        <ele>369.1</ele>
        <time>2020-05-10T11:43:09Z</time>
      </trkpt>
      <trkpt lat="48.77142" lon="7.32818">
        <ele>369.4</ele>
        <time>2020-05-10T11:43:11Z</time>
      </trkpt>
      <trkpt lat="48.77143" lon="7.32818">
        <ele>369.5</ele>
        <time>2020-05-10T11:43:12Z</time>
      </trkpt>
      <trkpt lat="48.77146" lon="7.32817">
        <ele>369.7</ele>
        <time>2020-05-10T11:43:14Z</time>
      </trkpt>
      <trkpt lat="48.7715" lon="7.32816">
        <ele>369.9</ele>
        <time>2020-05-10T11:43:15Z</time>
      </trkpt>
      <trkpt lat="48.77151" lon="7.32815">
        <ele>370</ele>
        <time>2020-05-10T11:43:16Z</time>
      </trkpt>
      <trkpt lat="48.77158" lon="7.32813">
        <ele>370.4</ele>
        <time>2020-05-10T11:43:18Z</time>
      </trkpt>
      <trkpt lat="48.77163" lon="7.32811">
        <ele>370.7</ele>
        <time>2020-05-10T11:43:20Z</time>
      </trkpt>
      <trkpt lat="48.77166" lon="7.32809">
        <ele>370.9</ele>
        <time>2020-05-10T11:43:21Z</time>
      </trkpt>
      <trkpt lat="48.77168" lon="7.32807">
        <ele>371.1</ele>
        <time>2020-05-10T11:43:22Z</time>
      </trkpt>
      <trkpt lat="48.77172" lon="7.32804">
        <ele>371.4</ele>
        <time>2020-05-10T11:43:24Z</time>
      </trkpt>
      <trkpt lat="48.77175" lon="7.32802">
        <ele>371.6</ele>
        <time>2020-05-10T11:43:26Z</time>
      </trkpt>
      <trkpt lat="48.77176" lon="7.32802">
        <ele>371.7</ele>
        <time>2020-05-10T11:43:27Z</time>
      </trkpt>
      <trkpt lat="48.7718" lon="7.32798">
        <ele>372</ele>
        <time>2020-05-10T11:43:29Z</time>
      </trkpt>
      <trkpt lat="48.77183" lon="7.32796">
        <ele>372.2</ele>
        <time>2020-05-10T11:43:30Z</time>
      </trkpt>
      <trkpt lat="48.77187" lon="7.32792">
        <ele>372.5</ele>
        <time>2020-05-10T11:43:32Z</time>
      </trkpt>
      <trkpt lat="48.77192" lon="7.32788">
        <ele>372.8</ele>
        <time>2020-05-10T11:43:34Z</time>
      </trkpt>
      <trkpt lat="48.77198" lon="7.32784">
        <ele>373.3</ele>
        <time>2020-05-10T11:43:36Z</time>
      </trkpt>
      <trkpt lat="48.77201" lon="7.32783">
        <ele>373.5</ele>
        <time>2020-05-10T11:43:37Z</time>
      </trkpt>
      <trkpt lat="48.77206" lon="7.32779">
        <ele>373.9</ele>
        <time>2020-05-10T11:43:39Z</time>
      </trkpt>
      <trkpt lat="48.77209" lon="7.32777">
        <ele>374.1</ele>
        <time>2020-05-10T11:43:41Z</time>
      </trkpt>
      <trkpt lat="48.77214" lon="7.32773">
        <ele>374.5</ele>
        <time>2020-05-10T11:43:43Z</time>
      </trkpt>
      <trkpt lat="48.77217" lon="7.32769">
        <ele>374.7</ele>
        <time>2020-05-10T11:43:44Z</time>
      </trkpt>
      <trkpt lat="48.77218" lon="7.32768">
        <ele>374.8</ele>
        <time>2020-05-10T11:43:45Z</time>
      </trkpt>
      <trkpt lat="48.7722" lon="7.32765">
        <ele>375</ele>
        <time>2020-05-10T11:43:46Z</time>
      </trkpt>
      <trkpt lat="48.77226" lon="7.3276">
        <ele>375.4</ele>
        <time>2020-05-10T11:43:48Z</time>
      </trkpt>
      <trkpt lat="48.77229" lon="7.32758">
        <ele>375.6</ele>
        <time>2020-05-10T11:43:49Z</time>
      </trkpt>
      <trkpt lat="48.77232" lon="7.32756">
        <ele>375.7</ele>
        <time>2020-05-10T11:43:50Z</time>
      </trkpt>
      <trkpt lat="48.77236" lon="7.32751">
        <ele>376</ele>
        <time>2020-05-10T11:43:52Z</time>
      </trkpt>
      <trkpt lat="48.77238" lon="7.32745">
        <ele>376.2</ele>
        <time>2020-05-10T11:43:54Z</time>
      </trkpt>
      <trkpt lat="48.77241" lon="7.3274">
        <ele>376.4</ele>
        <time>2020-05-10T11:43:56Z</time>
      </trkpt>
      <trkpt lat="48.77243" lon="7.32733">
        <ele>376.6</ele>
        <time>2020-05-10T11:43:58Z</time>
      </trkpt>
      <trkpt lat="48.77246" lon="7.32727">
        <ele>376.8</ele>
        <time>2020-05-10T11:44:00Z</time>
      </trkpt>
      <trkpt lat="48.77248" lon="7.32721">
        <ele>376.9</ele>
        <time>2020-05-10T11:44:02Z</time>
      </trkpt>
      <trkpt lat="48.7725" lon="7.32718">
        <ele>376.9</ele>
        <time>2020-05-10T11:44:03Z</time>
      </trkpt>
      <trkpt lat="48.77251" lon="7.32714">
        <ele>377</ele>
        <time>2020-05-10T11:44:05Z</time>
      </trkpt>
      <trkpt lat="48.77253" lon="7.32711">
        <ele>377</ele>
        <time>2020-05-10T11:44:07Z</time>
      </trkpt>
      <trkpt lat="48.77255" lon="7.32706">
        <ele>377.1</ele>
        <time>2020-05-10T11:44:09Z</time>
      </trkpt>
      <trkpt lat="48.7726" lon="7.32703">
        <ele>377.1</ele>
        <time>2020-05-10T11:44:11Z</time>
      </trkpt>
      <trkpt lat="48.77265" lon="7.32698">
        <ele>377.1</ele>
        <time>2020-05-10T11:44:13Z</time>
      </trkpt>
      <trkpt lat="48.77268" lon="7.32689">
        <ele>377.1</ele>
        <time>2020-05-10T11:44:15Z</time>
      </trkpt>
      <trkpt lat="48.77272" lon="7.32678">
        <ele>377.1</ele>
        <time>2020-05-10T11:44:17Z</time>
      </trkpt>
      <trkpt lat="48.77281" lon="7.32673">
        <ele>377.1</ele>
        <time>2020-05-10T11:44:19Z</time>
      </trkpt>
      <trkpt lat="48.77292" lon="7.32677">
        <ele>376.8</ele>
        <time>2020-05-10T11:44:21Z</time>
      </trkpt>
      <trkpt lat="48.77305" lon="7.3268">
        <ele>376.4</ele>
        <time>2020-05-10T11:44:23Z</time>
      </trkpt>
      <trkpt lat="48.77317" lon="7.32682">
        <ele>376</ele>
        <time>2020-05-10T11:44:25Z</time>
      </trkpt>
      <trkpt lat="48.77323" lon="7.32683">
        <ele>375.8</ele>
        <time>2020-05-10T11:44:26Z</time>
      </trkpt>
      <trkpt lat="48.77335" lon="7.32683">
        <ele>375.6</ele>
        <time>2020-05-10T11:44:28Z</time>
      </trkpt>
      <trkpt lat="48.77341" lon="7.32684">
        <ele>375.5</ele>
        <time>2020-05-10T11:44:29Z</time>
      </trkpt>
      <trkpt lat="48.77348" lon="7.32685">
        <ele>375.8</ele>
        <time>2020-05-10T11:44:31Z</time>
      </trkpt>
      <trkpt lat="48.77355" lon="7.32687">
        <ele>375.9</ele>
        <time>2020-05-10T11:44:33Z</time>
      </trkpt>
      <trkpt lat="48.7736" lon="7.32688">
        <ele>376</ele>
        <time>2020-05-10T11:44:35Z</time>
      </trkpt>
      <trkpt lat="48.77366" lon="7.32688">
        <ele>376</ele>
        <time>2020-05-10T11:44:37Z</time>
      </trkpt>
      <trkpt lat="48.77374" lon="7.32686">
        <ele>376.1</ele>
        <time>2020-05-10T11:44:39Z</time>
      </trkpt>
      <trkpt lat="48.77384" lon="7.32681">
        <ele>376.3</ele>
        <time>2020-05-10T11:44:41Z</time>
      </trkpt>
      <trkpt lat="48.77389" lon="7.32678">
        <ele>376.3</ele>
        <time>2020-05-10T11:44:42Z</time>
      </trkpt>
      <trkpt lat="48.77395" lon="7.32668">
        <ele>376.5</ele>
        <time>2020-05-10T11:44:44Z</time>
      </trkpt>
      <trkpt lat="48.77397" lon="7.3266">
        <ele>376.7</ele>
        <time>2020-05-10T11:44:45Z</time>
      </trkpt>
      <trkpt lat="48.77401" lon="7.32653">
        <ele>376.8</ele>
        <time>2020-05-10T11:44:47Z</time>
      </trkpt>
      <trkpt lat="48.77405" lon="7.32644">
        <ele>376.8</ele>
        <time>2020-05-10T11:44:49Z</time>
      </trkpt>
      <trkpt lat="48.77409" lon="7.32638">
        <ele>376.7</ele>
        <time>2020-05-10T11:44:50Z</time>
      </trkpt>
      <trkpt lat="48.77413" lon="7.3263">
        <ele>376.4</ele>
        <time>2020-05-10T11:44:51Z</time>
      </trkpt>
      <trkpt lat="48.77421" lon="7.32616">
        <ele>375.7</ele>
        <time>2020-05-10T11:44:53Z</time>
      </trkpt>
      <trkpt lat="48.77431" lon="7.3261">
        <ele>374.8</ele>
        <time>2020-05-10T11:44:55Z</time>
      </trkpt>
      <trkpt lat="48.77442" lon="7.326">
        <ele>373.8</ele>
        <time>2020-05-10T11:44:57Z</time>
      </trkpt>
      <trkpt lat="48.77452" lon="7.32593">
        <ele>372.8</ele>
        <time>2020-05-10T11:44:59Z</time>
      </trkpt>
      <trkpt lat="48.77459" lon="7.32584">
        <ele>372.1</ele>
        <time>2020-05-10T11:45:01Z</time>
      </trkpt>
      <trkpt lat="48.77466" lon="7.32572">
        <ele>371.3</ele>
        <time>2020-05-10T11:45:03Z</time>
      </trkpt>
      <trkpt lat="48.7747" lon="7.32568">
        <ele>371</ele>
        <time>2020-05-10T11:45:04Z</time>
      </trkpt>
      <trkpt lat="48.7748" lon="7.32562">
        <ele>370.4</ele>
        <time>2020-05-10T11:45:06Z</time>
      </trkpt>
      <trkpt lat="48.77486" lon="7.3256">
        <ele>370.3</ele>
        <time>2020-05-10T11:45:07Z</time>
      </trkpt>
      <trkpt lat="48.77491" lon="7.32558">
        <ele>370.2</ele>
        <time>2020-05-10T11:45:08Z</time>
      </trkpt>
      <trkpt lat="48.77497" lon="7.32557">
        <ele>370</ele>
        <time>2020-05-10T11:45:09Z</time>
      </trkpt>
      <trkpt lat="48.77503" lon="7.32557">
        <ele>369.7</ele>
        <time>2020-05-10T11:45:10Z</time>
      </trkpt>
      <trkpt lat="48.77508" lon="7.32556">
        <ele>369.5</ele>
        <time>2020-05-10T11:45:11Z</time>
      </trkpt>
      <trkpt lat="48.77519" lon="7.3255">
        <ele>369</ele>
        <time>2020-05-10T11:45:13Z</time>
      </trkpt>
      <trkpt lat="48.7753" lon="7.32544">
        <ele>368.5</ele>
        <time>2020-05-10T11:45:15Z</time>
      </trkpt>
      <trkpt lat="48.77541" lon="7.32541">
        <ele>368</ele>
        <time>2020-05-10T11:45:17Z</time>
      </trkpt>
      <trkpt lat="48.77552" lon="7.32539">
        <ele>367.5</ele>
        <time>2020-05-10T11:45:19Z</time>
      </trkpt>
      <trkpt lat="48.7756" lon="7.32537">
        <ele>367</ele>
        <time>2020-05-10T11:45:21Z</time>
      </trkpt>
      <trkpt lat="48.7757" lon="7.32537">
        <ele>366.2</ele>
        <time>2020-05-10T11:45:23Z</time>
      </trkpt>
      <trkpt lat="48.77576" lon="7.32537">
        <ele>365.6</ele>
        <time>2020-05-10T11:45:24Z</time>
      </trkpt>
      <trkpt lat="48.77586" lon="7.32533">
        <ele>364.5</ele>
        <time>2020-05-10T11:45:26Z</time>
      </trkpt>
      <trkpt lat="48.77597" lon="7.32532">
        <ele>363.6</ele>
        <time>2020-05-10T11:45:28Z</time>
      </trkpt>
      <trkpt lat="48.77604" lon="7.32532">
        <ele>363.2</ele>
        <time>2020-05-10T11:45:29Z</time>
      </trkpt>
      <trkpt lat="48.77617" lon="7.32535">
        <ele>362.7</ele>
        <time>2020-05-10T11:45:31Z</time>
      </trkpt>
      <trkpt lat="48.77623" lon="7.32538">
        <ele>362.6</ele>
        <time>2020-05-10T11:45:32Z</time>
      </trkpt>
      <trkpt lat="48.77629" lon="7.3254">
        <ele>362.5</ele>
        <time>2020-05-10T11:45:33Z</time>
      </trkpt>
      <trkpt lat="48.7764" lon="7.32546">
        <ele>362.4</ele>
        <time>2020-05-10T11:45:35Z</time>
      </trkpt>
      <trkpt lat="48.77648" lon="7.32552">
        <ele>362.2</ele>
        <time>2020-05-10T11:45:37Z</time>
      </trkpt>
      <trkpt lat="48.77658" lon="7.32559">
        <ele>362.1</ele>
        <time>2020-05-10T11:45:39Z</time>
      </trkpt>
      <trkpt lat="48.77669" lon="7.32567">
        <ele>361.9</ele>
        <time>2020-05-10T11:45:41Z</time>
      </trkpt>
      <trkpt lat="48.77674" lon="7.32572">
        <ele>361.8</ele>
        <time>2020-05-10T11:45:42Z</time>
      </trkpt>
      <trkpt lat="48.77679" lon="7.32576">
        <ele>361.8</ele>
        <time>2020-05-10T11:45:43Z</time>
      </trkpt>
      <trkpt lat="48.77687" lon="7.3258">
        <ele>361.7</ele>
        <time>2020-05-10T11:45:45Z</time>
      </trkpt>
      <trkpt lat="48.77688" lon="7.32577">
        <ele>361.7</ele>
        <time>2020-05-10T11:45:46Z</time>
      </trkpt>
      <trkpt lat="48.77695" lon="7.32573">
        <ele>361.6</ele>
        <time>2020-05-10T11:45:48Z</time>
      </trkpt>
      <trkpt lat="48.77699" lon="7.32577">
        <ele>361.3</ele>
        <time>2020-05-10T11:45:49Z</time>
      </trkpt>
      <trkpt lat="48.77712" lon="7.32586">
        <ele>360.6</ele>
        <time>2020-05-10T11:45:51Z</time>
      </trkpt>
      <trkpt lat="48.77718" lon="7.32589">
        <ele>360.3</ele>
        <time>2020-05-10T11:45:52Z</time>
      </trkpt>
      <trkpt lat="48.77723" lon="7.32591">
        <ele>360.1</ele>
        <time>2020-05-10T11:45:53Z</time>
      </trkpt>
      <trkpt lat="48.77736" lon="7.32594">
        <ele>359.5</ele>
        <time>2020-05-10T11:45:55Z</time>
      </trkpt>
      <trkpt lat="48.77749" lon="7.32595">
        <ele>359</ele>
        <time>2020-05-10T11:45:57Z</time>
      </trkpt>
      <trkpt lat="48.77762" lon="7.32598">
        <ele>358.4</ele>
        <time>2020-05-10T11:45:59Z</time>
      </trkpt>
      <trkpt lat="48.77774" lon="7.32598">
        <ele>357.9</ele>
        <time>2020-05-10T11:46:01Z</time>
      </trkpt>
      <trkpt lat="48.77784" lon="7.32598">
        <ele>357.5</ele>
        <time>2020-05-10T11:46:03Z</time>
      </trkpt>
      <trkpt lat="48.77789" lon="7.32596">
        <ele>357.3</ele>
        <time>2020-05-10T11:46:04Z</time>
      </trkpt>
      <trkpt lat="48.77794" lon="7.32594">
        <ele>357.1</ele>
        <time>2020-05-10T11:46:05Z</time>
      </trkpt>
      <trkpt lat="48.77802" lon="7.32593">
        <ele>356.9</ele>
        <time>2020-05-10T11:46:07Z</time>
      </trkpt>
      <trkpt lat="48.77806" lon="7.32595">
        <ele>356.6</ele>
        <time>2020-05-10T11:46:08Z</time>
      </trkpt>
      <trkpt lat="48.77815" lon="7.32598">
        <ele>355.8</ele>
        <time>2020-05-10T11:46:10Z</time>
      </trkpt>
      <trkpt lat="48.77828" lon="7.32598">
        <ele>354.4</ele>
        <time>2020-05-10T11:46:12Z</time>
      </trkpt>
      <trkpt lat="48.77835" lon="7.32599">
        <ele>353.6</ele>
        <time>2020-05-10T11:46:13Z</time>
      </trkpt>
      <trkpt lat="48.77845" lon="7.326">
        <ele>352.2</ele>
        <time>2020-05-10T11:46:15Z</time>
      </trkpt>
      <trkpt lat="48.77857" lon="7.32599">
        <ele>350.4</ele>
        <time>2020-05-10T11:46:17Z</time>
      </trkpt>
      <trkpt lat="48.77867" lon="7.32601">
        <ele>348.7</ele>
        <time>2020-05-10T11:46:19Z</time>
      </trkpt>
      <trkpt lat="48.7787" lon="7.32601">
        <ele>348.2</ele>
        <time>2020-05-10T11:46:20Z</time>
      </trkpt>
      <trkpt lat="48.77875" lon="7.326">
        <ele>347.6</ele>
        <time>2020-05-10T11:46:22Z</time>
      </trkpt>
      <trkpt lat="48.77878" lon="7.32601">
        <ele>347</ele>
        <time>2020-05-10T11:46:23Z</time>
      </trkpt>
      <trkpt lat="48.77884" lon="7.32601">
        <ele>346.2</ele>
        <time>2020-05-10T11:46:24Z</time>
      </trkpt>
      <trkpt lat="48.77889" lon="7.32601">
        <ele>345.5</ele>
        <time>2020-05-10T11:46:25Z</time>
      </trkpt>
      <trkpt lat="48.77893" lon="7.32602">
        <ele>344.9</ele>
        <time>2020-05-10T11:46:26Z</time>
      </trkpt>
      <trkpt lat="48.77902" lon="7.32605">
        <ele>343.7</ele>
        <time>2020-05-10T11:46:28Z</time>
      </trkpt>
      <trkpt lat="48.77911" lon="7.32607">
        <ele>342.4</ele>
        <time>2020-05-10T11:46:30Z</time>
      </trkpt>
      <trkpt lat="48.77918" lon="7.3261">
        <ele>341.5</ele>
        <time>2020-05-10T11:46:31Z</time>
      </trkpt>
      <trkpt lat="48.77931" lon="7.32615">
        <ele>340</ele>
        <time>2020-05-10T11:46:33Z</time>
      </trkpt>
      <trkpt lat="48.77942" lon="7.32623">
        <ele>339.1</ele>
        <time>2020-05-10T11:46:35Z</time>
      </trkpt>
      <trkpt lat="48.77946" lon="7.32631">
        <ele>338.8</ele>
        <time>2020-05-10T11:46:37Z</time>
      </trkpt>
      <trkpt lat="48.7795" lon="7.32635">
        <ele>338.6</ele>
        <time>2020-05-10T11:46:38Z</time>
      </trkpt>
      <trkpt lat="48.77959" lon="7.32642">
        <ele>337.8</ele>
        <time>2020-05-10T11:46:40Z</time>
      </trkpt>
      <trkpt lat="48.77966" lon="7.3265">
        <ele>337.1</ele>
        <time>2020-05-10T11:46:42Z</time>
      </trkpt>
      <trkpt lat="48.77972" lon="7.32654">
        <ele>336.6</ele>
        <time>2020-05-10T11:46:44Z</time>
      </trkpt>
      <trkpt lat="48.77974" lon="7.32656">
        <ele>336.3</ele>
        <time>2020-05-10T11:46:45Z</time>
      </trkpt>
      <trkpt lat="48.77981" lon="7.32672">
        <ele>335.5</ele>
        <time>2020-05-10T11:46:47Z</time>
      </trkpt>
      <trkpt lat="48.77988" lon="7.32686">
        <ele>335.1</ele>
        <time>2020-05-10T11:46:49Z</time>
      </trkpt>
      <trkpt lat="48.77992" lon="7.32699">
        <ele>334.9</ele>
        <time>2020-05-10T11:46:51Z</time>
      </trkpt>
      <trkpt lat="48.77994" lon="7.32703">
        <ele>334.8</ele>
        <time>2020-05-10T11:46:52Z</time>
      </trkpt>
      <trkpt lat="48.77995" lon="7.32704">
        <ele>334.8</ele>
        <time>2020-05-10T11:46:53Z</time>
      </trkpt>
      <trkpt lat="48.77997" lon="7.32707">
        <ele>334.8</ele>
        <time>2020-05-10T11:46:55Z</time>
      </trkpt>
      <trkpt lat="48.77999" lon="7.32708">
        <ele>334.9</ele>
        <time>2020-05-10T11:46:57Z</time>
      </trkpt>
      <trkpt lat="48.77999" lon="7.3271">
        <ele>334.9</ele>
        <time>2020-05-10T11:46:58Z</time>
      </trkpt>
      <trkpt lat="48.78" lon="7.32711">
        <ele>334.9</ele>
        <time>2020-05-10T11:46:59Z</time>
      </trkpt>
      <trkpt lat="48.78" lon="7.32714">
        <ele>335</ele>
        <time>2020-05-10T11:47:01Z</time>
      </trkpt>
      <trkpt lat="48.78" lon="7.32717">
        <ele>335</ele>
        <time>2020-05-10T11:47:03Z</time>
      </trkpt>
      <trkpt lat="48.77999" lon="7.32718">
        <ele>335</ele>
        <time>2020-05-10T11:47:04Z</time>
      </trkpt>
      <trkpt lat="48.77999" lon="7.32721">
        <ele>335</ele>
        <time>2020-05-10T11:47:05Z</time>
      </trkpt>
      <trkpt lat="48.77999" lon="7.32723">
        <ele>335</ele>
        <time>2020-05-10T11:47:07Z</time>
      </trkpt>
      <trkpt lat="48.77998" lon="7.32725">
        <ele>335.1</ele>
        <time>2020-05-10T11:47:09Z</time>
      </trkpt>
      <trkpt lat="48.77997" lon="7.32727">
        <ele>335.1</ele>
        <time>2020-05-10T11:47:10Z</time>
      </trkpt>
      <trkpt lat="48.77996" lon="7.3273">
        <ele>335.1</ele>
        <time>2020-05-10T11:47:12Z</time>
      </trkpt>
      <trkpt lat="48.77995" lon="7.32731">
        <ele>335.1</ele>
        <time>2020-05-10T11:47:13Z</time>
      </trkpt>
      <trkpt lat="48.77995" lon="7.32732">
        <ele>335.1</ele>
        <time>2020-05-10T11:47:14Z</time>
      </trkpt>
      <trkpt lat="48.77994" lon="7.32734">
        <ele>335.1</ele>
        <time>2020-05-10T11:47:15Z</time>
      </trkpt>
      <trkpt lat="48.77993" lon="7.32737">
        <ele>335.1</ele>
        <time>2020-05-10T11:47:17Z</time>
      </trkpt>
      <trkpt lat="48.77993" lon="7.32738">
        <ele>335.1</ele>
        <time>2020-05-10T11:47:18Z</time>
      </trkpt>
      <trkpt lat="48.77993" lon="7.3274">
        <ele>335.1</ele>
        <time>2020-05-10T11:47:19Z</time>
      </trkpt>
      <trkpt lat="48.77993" lon="7.32743">
        <ele>335.1</ele>
        <time>2020-05-10T11:47:21Z</time>
      </trkpt>
      <trkpt lat="48.77994" lon="7.32745">
        <ele>335.1</ele>
        <time>2020-05-10T11:47:23Z</time>
      </trkpt>
      <trkpt lat="48.77993" lon="7.32748">
        <ele>335.1</ele>
        <time>2020-05-10T11:47:25Z</time>
      </trkpt>
      <trkpt lat="48.77993" lon="7.32749">
        <ele>335.1</ele>
        <time>2020-05-10T11:47:26Z</time>
      </trkpt>
      <trkpt lat="48.77993" lon="7.3275">
        <ele>335.1</ele>
        <time>2020-05-10T11:47:27Z</time>
      </trkpt>
      <trkpt lat="48.77994" lon="7.32753">
        <ele>335.1</ele>
        <time>2020-05-10T11:47:29Z</time>
      </trkpt>
      <trkpt lat="48.77994" lon="7.32756">
        <ele>335.1</ele>
        <time>2020-05-10T11:47:31Z</time>
      </trkpt>
      <trkpt lat="48.77994" lon="7.32757">
        <ele>335.1</ele>
        <time>2020-05-10T11:47:32Z</time>
      </trkpt>
      <trkpt lat="48.77996" lon="7.3276">
        <ele>335.1</ele>
        <time>2020-05-10T11:47:34Z</time>
      </trkpt>
      <trkpt lat="48.77996" lon="7.32761">
        <ele>335.1</ele>
        <time>2020-05-10T11:47:35Z</time>
      </trkpt>
      <trkpt lat="48.77997" lon="7.32762">
        <ele>335.1</ele>
        <time>2020-05-10T11:47:36Z</time>
      </trkpt>
      <trkpt lat="48.77998" lon="7.32764">
        <ele>335.1</ele>
        <time>2020-05-10T11:47:38Z</time>
      </trkpt>
      <trkpt lat="48.78" lon="7.32767">
        <ele>335.1</ele>
        <time>2020-05-10T11:47:40Z</time>
      </trkpt>
      <trkpt lat="48.78" lon="7.32769">
        <ele>335.1</ele>
        <time>2020-05-10T11:47:41Z</time>
      </trkpt>
      <trkpt lat="48.78001" lon="7.32771">
        <ele>335.1</ele>
        <time>2020-05-10T11:47:42Z</time>
      </trkpt>
      <trkpt lat="48.78001" lon="7.32772">
        <ele>335.1</ele>
        <time>2020-05-10T11:47:43Z</time>
      </trkpt>
      <trkpt lat="48.78001" lon="7.32773">
        <ele>335.2</ele>
        <time>2020-05-10T11:47:44Z</time>
      </trkpt>
      <trkpt lat="48.78001" lon="7.32776">
        <ele>335.2</ele>
        <time>2020-05-10T11:47:46Z</time>
      </trkpt>
      <trkpt lat="48.78002" lon="7.32781">
        <ele>335.2</ele>
        <time>2020-05-10T11:47:48Z</time>
      </trkpt>
      <trkpt lat="48.78003" lon="7.32783">
        <ele>335.2</ele>
        <time>2020-05-10T11:47:50Z</time>
      </trkpt>
      <trkpt lat="48.78004" lon="7.32785">
        <ele>335.2</ele>
        <time>2020-05-10T11:47:52Z</time>
      </trkpt>
      <trkpt lat="48.78005" lon="7.32786">
        <ele>335.3</ele>
        <time>2020-05-10T11:47:54Z</time>
      </trkpt>
      <trkpt lat="48.78006" lon="7.32787">
        <ele>335.3</ele>
        <time>2020-05-10T11:47:55Z</time>
      </trkpt>
      <trkpt lat="48.78006" lon="7.32788">
        <ele>335.8</ele>
        <time>2020-05-10T11:47:57Z</time>
      </trkpt>
      <trkpt lat="48.78007" lon="7.3279">
        <ele>335.9</ele>
        <time>2020-05-10T11:47:58Z</time>
      </trkpt>
      <trkpt lat="48.78009" lon="7.32796">
        <ele>336.3</ele>
        <time>2020-05-10T11:48:00Z</time>
      </trkpt>
      <trkpt lat="48.78011" lon="7.32797">
        <ele>336.4</ele>
        <time>2020-05-10T11:48:01Z</time>
      </trkpt>
      <trkpt lat="48.78013" lon="7.32799">
        <ele>336.6</ele>
        <time>2020-05-10T11:48:03Z</time>
      </trkpt>
      <trkpt lat="48.78014" lon="7.32802">
        <ele>336.8</ele>
        <time>2020-05-10T11:48:05Z</time>
      </trkpt>
      <trkpt lat="48.78014" lon="7.32802">
        <ele>336.9</ele>
        <time>2020-05-10T11:48:06Z</time>
      </trkpt>
      <trkpt lat="48.78015" lon="7.32803">
        <ele>336.9</ele>
        <time>2020-05-10T11:48:07Z</time>
      </trkpt>
      <trkpt lat="48.78015" lon="7.32803">
        <ele>336.9</ele>
        <time>2020-05-10T11:48:08Z</time>
      </trkpt>
      <trkpt lat="48.78018" lon="7.32808">
        <ele>337.3</ele>
        <time>2020-05-10T11:48:10Z</time>
      </trkpt>
      <trkpt lat="48.7802" lon="7.32812">
        <ele>337.5</ele>
        <time>2020-05-10T11:48:12Z</time>
      </trkpt>
      <trkpt lat="48.7802" lon="7.32814">
        <ele>337.6</ele>
        <time>2020-05-10T11:48:13Z</time>
      </trkpt>
      <trkpt lat="48.78021" lon="7.32817">
        <ele>337.8</ele>
        <time>2020-05-10T11:48:15Z</time>
      </trkpt>
      <trkpt lat="48.78022" lon="7.32818">
        <ele>337.8</ele>
        <time>2020-05-10T11:48:17Z</time>
      </trkpt>
      <trkpt lat="48.78022" lon="7.3282">
        <ele>337.9</ele>
        <time>2020-05-10T11:48:19Z</time>
      </trkpt>
      <trkpt lat="48.78023" lon="7.3282">
        <ele>338</ele>
        <time>2020-05-10T11:48:20Z</time>
      </trkpt>
      <trkpt lat="48.78023" lon="7.32821">
        <ele>338</ele>
        <time>2020-05-10T11:48:21Z</time>
      </trkpt>
      <trkpt lat="48.78026" lon="7.32823">
        <ele>338.2</ele>
        <time>2020-05-10T11:48:23Z</time>
      </trkpt>
      <trkpt lat="48.78031" lon="7.32829">
        <ele>338.4</ele>
        <time>2020-05-10T11:48:25Z</time>
      </trkpt>
      <trkpt lat="48.78038" lon="7.32836">
        <ele>338.7</ele>
        <time>2020-05-10T11:48:27Z</time>
      </trkpt>
      <trkpt lat="48.78042" lon="7.3284">
        <ele>338.8</ele>
        <time>2020-05-10T11:48:28Z</time>
      </trkpt>
      <trkpt lat="48.78048" lon="7.32846">
        <ele>338.9</ele>
        <time>2020-05-10T11:48:30Z</time>
      </trkpt>
      <trkpt lat="48.78054" lon="7.3285">
        <ele>338.9</ele>
        <time>2020-05-10T11:48:32Z</time>
      </trkpt>
      <trkpt lat="48.7806" lon="7.32855">
        <ele>338.9</ele>
        <time>2020-05-10T11:48:34Z</time>
      </trkpt>
      <trkpt lat="48.78065" lon="7.32859">
        <ele>338.8</ele>
        <time>2020-05-10T11:48:36Z</time>
      </trkpt>
      <trkpt lat="48.78068" lon="7.32861">
        <ele>338.8</ele>
        <time>2020-05-10T11:48:37Z</time>
      </trkpt>
      <trkpt lat="48.78076" lon="7.32865">
        <ele>338.7</ele>
        <time>2020-05-10T11:48:39Z</time>
      </trkpt>
      <trkpt lat="48.7808" lon="7.32867">
        <ele>338.7</ele>
        <time>2020-05-10T11:48:40Z</time>
      </trkpt>
      <trkpt lat="48.78085" lon="7.32868">
        <ele>338.6</ele>
        <time>2020-05-10T11:48:41Z</time>
      </trkpt>
      <trkpt lat="48.78089" lon="7.3287">
        <ele>338.6</ele>
        <time>2020-05-10T11:48:42Z</time>
      </trkpt>
      <trkpt lat="48.78095" lon="7.32873">
        <ele>338.6</ele>
        <time>2020-05-10T11:48:43Z</time>
      </trkpt>
      <trkpt lat="48.78103" lon="7.32877">
        <ele>338.6</ele>
        <time>2020-05-10T11:48:45Z</time>
      </trkpt>
      <trkpt lat="48.78113" lon="7.32881">
        <ele>338.6</ele>
        <time>2020-05-10T11:48:47Z</time>
      </trkpt>
      <trkpt lat="48.78122" lon="7.32883">
        <ele>338.7</ele>
        <time>2020-05-10T11:48:49Z</time>
      </trkpt>
      <trkpt lat="48.78131" lon="7.32889">
        <ele>338.8</ele>
        <time>2020-05-10T11:48:51Z</time>
      </trkpt>
      <trkpt lat="48.78136" lon="7.32895">
        <ele>338.9</ele>
        <time>2020-05-10T11:48:52Z</time>
      </trkpt>
      <trkpt lat="48.78146" lon="7.32896">
        <ele>339.2</ele>
        <time>2020-05-10T11:48:54Z</time>
      </trkpt>
      <trkpt lat="48.7815" lon="7.32898">
        <ele>339.3</ele>
        <time>2020-05-10T11:48:55Z</time>
      </trkpt>
      <trkpt lat="48.78155" lon="7.32901">
        <ele>339.5</ele>
        <time>2020-05-10T11:48:56Z</time>
      </trkpt>
      <trkpt lat="48.7816" lon="7.32903">
        <ele>339.6</ele>
        <time>2020-05-10T11:48:57Z</time>
      </trkpt>
      <trkpt lat="48.78171" lon="7.32906">
        <ele>340</ele>
        <time>2020-05-10T11:48:59Z</time>
      </trkpt>
      <trkpt lat="48.78179" lon="7.32908">
        <ele>340.3</ele>
        <time>2020-05-10T11:49:01Z</time>
      </trkpt>
      <trkpt lat="48.78186" lon="7.32916">
        <ele>340.7</ele>
        <time>2020-05-10T11:49:03Z</time>
      </trkpt>
      <trkpt lat="48.78193" lon="7.32922">
        <ele>341.1</ele>
        <time>2020-05-10T11:49:05Z</time>
      </trkpt>
      <trkpt lat="48.78202" lon="7.32928">
        <ele>341.5</ele>
        <time>2020-05-10T11:49:07Z</time>
      </trkpt>
      <trkpt lat="48.78207" lon="7.32932">
        <ele>341.8</ele>
        <time>2020-05-10T11:49:09Z</time>
      </trkpt>
      <trkpt lat="48.78209" lon="7.32933">
        <ele>341.9</ele>
        <time>2020-05-10T11:49:10Z</time>
      </trkpt>
      <trkpt lat="48.78213" lon="7.32936">
        <ele>342.1</ele>
        <time>2020-05-10T11:49:12Z</time>
      </trkpt>
      <trkpt lat="48.78213" lon="7.32937">
        <ele>342.1</ele>
        <time>2020-05-10T11:49:13Z</time>
      </trkpt>
      <trkpt lat="48.78217" lon="7.32942">
        <ele>342.3</ele>
        <time>2020-05-10T11:49:15Z</time>
      </trkpt>
      <trkpt lat="48.78223" lon="7.32947">
        <ele>342.2</ele>
        <time>2020-05-10T11:49:17Z</time>
      </trkpt>
      <trkpt lat="48.78227" lon="7.32951">
        <ele>342.1</ele>
        <time>2020-05-10T11:49:18Z</time>
      </trkpt>
      <trkpt lat="48.78234" lon="7.32961">
        <ele>342</ele>
        <time>2020-05-10T11:49:20Z</time>
      </trkpt>
      <trkpt lat="48.78237" lon="7.32965">
        <ele>341.9</ele>
        <time>2020-05-10T11:49:21Z</time>
      </trkpt>
      <trkpt lat="48.78245" lon="7.32973">
        <ele>341.9</ele>
        <time>2020-05-10T11:49:23Z</time>
      </trkpt>
      <trkpt lat="48.78251" lon="7.3298">
        <ele>341.8</ele>
        <time>2020-05-10T11:49:25Z</time>
      </trkpt>
      <trkpt lat="48.78254" lon="7.32984">
        <ele>341.8</ele>
        <time>2020-05-10T11:49:26Z</time>
      </trkpt>
      <trkpt lat="48.78259" lon="7.32992">
        <ele>341.7</ele>
        <time>2020-05-10T11:49:28Z</time>
      </trkpt>
      <trkpt lat="48.78262" lon="7.32997">
        <ele>341.7</ele>
        <time>2020-05-10T11:49:29Z</time>
      </trkpt>
      <trkpt lat="48.78266" lon="7.33002">
        <ele>341.6</ele>
        <time>2020-05-10T11:49:31Z</time>
      </trkpt>
      <trkpt lat="48.7827" lon="7.33008">
        <ele>341.6</ele>
        <time>2020-05-10T11:49:33Z</time>
      </trkpt>
      <trkpt lat="48.78273" lon="7.33012">
        <ele>341.5</ele>
        <time>2020-05-10T11:49:34Z</time>
      </trkpt>
      <trkpt lat="48.78274" lon="7.33016">
        <ele>341.5</ele>
        <time>2020-05-10T11:49:35Z</time>
      </trkpt>
      <trkpt lat="48.78276" lon="7.33021">
        <ele>341.5</ele>
        <time>2020-05-10T11:49:36Z</time>
      </trkpt>
      <trkpt lat="48.78279" lon="7.33031">
        <ele>341.4</ele>
        <time>2020-05-10T11:49:38Z</time>
      </trkpt>
      <trkpt lat="48.78281" lon="7.33035">
        <ele>341.4</ele>
        <time>2020-05-10T11:49:39Z</time>
      </trkpt>
      <trkpt lat="48.78286" lon="7.33044">
        <ele>341.4</ele>
        <time>2020-05-10T11:49:41Z</time>
      </trkpt>
      <trkpt lat="48.78288" lon="7.33048">
        <ele>341.4</ele>
        <time>2020-05-10T11:49:42Z</time>
      </trkpt>
      <trkpt lat="48.78293" lon="7.33055">
        <ele>341.4</ele>
        <time>2020-05-10T11:49:44Z</time>
      </trkpt>
      <trkpt lat="48.78305" lon="7.33062">
        <ele>341.4</ele>
        <time>2020-05-10T11:49:46Z</time>
      </trkpt>
      <trkpt lat="48.78311" lon="7.3307">
        <ele>341.4</ele>
        <time>2020-05-10T11:49:48Z</time>
      </trkpt>
      <trkpt lat="48.78313" lon="7.33075">
        <ele>341.5</ele>
        <time>2020-05-10T11:49:49Z</time>
      </trkpt>
      <trkpt lat="48.78316" lon="7.3308">
        <ele>341.6</ele>
        <time>2020-05-10T11:49:50Z</time>
      </trkpt>
      <trkpt lat="48.78318" lon="7.33089">
        <ele>341.7</ele>
        <time>2020-05-10T11:49:52Z</time>
      </trkpt>
      <trkpt lat="48.7832" lon="7.33096">
        <ele>341.9</ele>
        <time>2020-05-10T11:49:54Z</time>
      </trkpt>
      <trkpt lat="48.78323" lon="7.33103">
        <ele>342</ele>
        <time>2020-05-10T11:49:56Z</time>
      </trkpt>
      <trkpt lat="48.78325" lon="7.33108">
        <ele>342.2</ele>
        <time>2020-05-10T11:49:57Z</time>
      </trkpt>
      <trkpt lat="48.78326" lon="7.33109">
        <ele>342.2</ele>
        <time>2020-05-10T11:49:58Z</time>
      </trkpt>
      <trkpt lat="48.78328" lon="7.33113">
        <ele>342.4</ele>
        <time>2020-05-10T11:50:00Z</time>
      </trkpt>
      <trkpt lat="48.7833" lon="7.33116">
        <ele>342.5</ele>
        <time>2020-05-10T11:50:01Z</time>
      </trkpt>
      <trkpt lat="48.78335" lon="7.33122">
        <ele>342.8</ele>
        <time>2020-05-10T11:50:03Z</time>
      </trkpt>
      <trkpt lat="48.78337" lon="7.33126">
        <ele>343</ele>
        <time>2020-05-10T11:50:04Z</time>
      </trkpt>
      <trkpt lat="48.78339" lon="7.33129">
        <ele>343.2</ele>
        <time>2020-05-10T11:50:05Z</time>
      </trkpt>
      <trkpt lat="48.78343" lon="7.33136">
        <ele>343.6</ele>
        <time>2020-05-10T11:50:07Z</time>
      </trkpt>
      <trkpt lat="48.78346" lon="7.33141">
        <ele>343.9</ele>
        <time>2020-05-10T11:50:08Z</time>
      </trkpt>
      <trkpt lat="48.78347" lon="7.33147">
        <ele>344.2</ele>
        <time>2020-05-10T11:50:10Z</time>
      </trkpt>
      <trkpt lat="48.78349" lon="7.3315">
        <ele>344.3</ele>
        <time>2020-05-10T11:50:11Z</time>
      </trkpt>
      <trkpt lat="48.78351" lon="7.33158">
        <ele>344.6</ele>
        <time>2020-05-10T11:50:13Z</time>
      </trkpt>
      <trkpt lat="48.78353" lon="7.33166">
        <ele>344.9</ele>
        <time>2020-05-10T11:50:15Z</time>
      </trkpt>
      <trkpt lat="48.78354" lon="7.3317">
        <ele>345.1</ele>
        <time>2020-05-10T11:50:16Z</time>
      </trkpt>
      <trkpt lat="48.78356" lon="7.33178">
        <ele>345.3</ele>
        <time>2020-05-10T11:50:18Z</time>
      </trkpt>
      <trkpt lat="48.78357" lon="7.33189">
        <ele>345.5</ele>
        <time>2020-05-10T11:50:20Z</time>
      </trkpt>
      <trkpt lat="48.7836" lon="7.332">
        <ele>345.6</ele>
        <time>2020-05-10T11:50:22Z</time>
      </trkpt>
      <trkpt lat="48.78362" lon="7.33211">
        <ele>345.8</ele>
        <time>2020-05-10T11:50:24Z</time>
      </trkpt>
      <trkpt lat="48.78362" lon="7.33216">
        <ele>345.9</ele>
        <time>2020-05-10T11:50:25Z</time>
      </trkpt>
      <trkpt lat="48.78363" lon="7.33223">
        <ele>346.1</ele>
        <time>2020-05-10T11:50:27Z</time>
      </trkpt>
      <trkpt lat="48.78363" lon="7.33228">
        <ele>346.3</ele>
        <time>2020-05-10T11:50:28Z</time>
      </trkpt>
      <trkpt lat="48.78364" lon="7.33231">
        <ele>346.4</ele>
        <time>2020-05-10T11:50:29Z</time>
      </trkpt>
      <trkpt lat="48.78364" lon="7.33235">
        <ele>346.6</ele>
        <time>2020-05-10T11:50:30Z</time>
      </trkpt>
      <trkpt lat="48.78364" lon="7.33243">
        <ele>347</ele>
        <time>2020-05-10T11:50:32Z</time>
      </trkpt>
      <trkpt lat="48.78363" lon="7.33251">
        <ele>347.4</ele>
        <time>2020-05-10T11:50:34Z</time>
      </trkpt>
      <trkpt lat="48.78361" lon="7.3326">
        <ele>348</ele>
        <time>2020-05-10T11:50:36Z</time>
      </trkpt>
      <trkpt lat="48.78359" lon="7.33265">
        <ele>348.4</ele>
        <time>2020-05-10T11:50:38Z</time>
      </trkpt>
      <trkpt lat="48.78356" lon="7.33269">
        <ele>348.9</ele>
        <time>2020-05-10T11:50:40Z</time>
      </trkpt>
      <trkpt lat="48.78355" lon="7.33269">
        <ele>349</ele>
        <time>2020-05-10T11:50:41Z</time>
      </trkpt>
      <trkpt lat="48.78351" lon="7.33269">
        <ele>349.6</ele>
        <time>2020-05-10T11:50:43Z</time>
      </trkpt>
      <trkpt lat="48.78348" lon="7.33268">
        <ele>350</ele>
        <time>2020-05-10T11:50:44Z</time>
      </trkpt>
      <trkpt lat="48.78345" lon="7.33268">
        <ele>350.5</ele>
        <time>2020-05-10T11:50:46Z</time>
      </trkpt>
      <trkpt lat="48.78343" lon="7.33267">
        <ele>350.8</ele>
        <time>2020-05-10T11:50:47Z</time>
      </trkpt>
      <trkpt lat="48.78339" lon="7.33265">
        <ele>351.4</ele>
        <time>2020-05-10T11:50:49Z</time>
      </trkpt>
      <trkpt lat="48.78336" lon="7.33262">
        <ele>352</ele>
        <time>2020-05-10T11:50:51Z</time>
      </trkpt>
      <trkpt lat="48.78334" lon="7.33259">
        <ele>352.4</ele>
        <time>2020-05-10T11:50:52Z</time>
      </trkpt>
      <trkpt lat="48.78329" lon="7.33257">
        <ele>353.2</ele>
        <time>2020-05-10T11:50:54Z</time>
      </trkpt>
      <trkpt lat="48.78327" lon="7.33257">
        <ele>353.4</ele>
        <time>2020-05-10T11:50:56Z</time>
      </trkpt>
      <trkpt lat="48.78325" lon="7.33256">
        <ele>353.7</ele>
        <time>2020-05-10T11:50:58Z</time>
      </trkpt>
      <trkpt lat="48.78324" lon="7.33256">
        <ele>353.9</ele>
        <time>2020-05-10T11:50:59Z</time>
      </trkpt>
      <trkpt lat="48.78323" lon="7.33256">
        <ele>354.1</ele>
        <time>2020-05-10T11:51:00Z</time>
      </trkpt>
      <trkpt lat="48.78317" lon="7.33255">
        <ele>354.8</ele>
        <time>2020-05-10T11:51:03Z</time>
      </trkpt>
      <trkpt lat="48.78314" lon="7.33256">
        <ele>355.2</ele>
        <time>2020-05-10T11:51:04Z</time>
      </trkpt>
      <trkpt lat="48.78313" lon="7.33256">
        <ele>355.4</ele>
        <time>2020-05-10T11:51:05Z</time>
      </trkpt>
      <trkpt lat="48.78309" lon="7.33257">
        <ele>356</ele>
        <time>2020-05-10T11:51:07Z</time>
      </trkpt>
      <trkpt lat="48.78303" lon="7.33256">
        <ele>356.6</ele>
        <time>2020-05-10T11:51:09Z</time>
      </trkpt>
      <trkpt lat="48.78299" lon="7.33255">
        <ele>357</ele>
        <time>2020-05-10T11:51:10Z</time>
      </trkpt>
      <trkpt lat="48.78298" lon="7.33255">
        <ele>357.1</ele>
        <time>2020-05-10T11:51:11Z</time>
      </trkpt>
      <trkpt lat="48.78296" lon="7.33254">
        <ele>357.3</ele>
        <time>2020-05-10T11:51:12Z</time>
      </trkpt>
      <trkpt lat="48.78292" lon="7.33253">
        <ele>357.6</ele>
        <time>2020-05-10T11:51:14Z</time>
      </trkpt>
      <trkpt lat="48.7829" lon="7.33253">
        <ele>357.7</ele>
        <time>2020-05-10T11:51:15Z</time>
      </trkpt>
      <trkpt lat="48.78285" lon="7.33255">
        <ele>358.2</ele>
        <time>2020-05-10T11:51:17Z</time>
      </trkpt>
      <trkpt lat="48.78282" lon="7.33259">
        <ele>358.4</ele>
        <time>2020-05-10T11:51:18Z</time>
      </trkpt>
      <trkpt lat="48.78281" lon="7.3326">
        <ele>358.4</ele>
        <time>2020-05-10T11:51:19Z</time>
      </trkpt>
      <trkpt lat="48.78278" lon="7.33265">
        <ele>358.6</ele>
        <time>2020-05-10T11:51:21Z</time>
      </trkpt>
      <trkpt lat="48.78275" lon="7.33269">
        <ele>358.8</ele>
        <time>2020-05-10T11:51:23Z</time>
      </trkpt>
      <trkpt lat="48.78273" lon="7.33273">
        <ele>359</ele>
        <time>2020-05-10T11:51:24Z</time>
      </trkpt>
      <trkpt lat="48.78272" lon="7.33274">
        <ele>359</ele>
        <time>2020-05-10T11:51:25Z</time>
      </trkpt>
      <trkpt lat="48.78267" lon="7.3328">
        <ele>359.4</ele>
        <time>2020-05-10T11:51:27Z</time>
      </trkpt>
      <trkpt lat="48.78263" lon="7.33284">
        <ele>359.7</ele>
        <time>2020-05-10T11:51:29Z</time>
      </trkpt>
      <trkpt lat="48.7826" lon="7.33285">
        <ele>359.8</ele>
        <time>2020-05-10T11:51:30Z</time>
      </trkpt>
      <trkpt lat="48.78259" lon="7.33286">
        <ele>359.9</ele>
        <time>2020-05-10T11:51:31Z</time>
      </trkpt>
      <trkpt lat="48.78254" lon="7.33289">
        <ele>360.2</ele>
        <time>2020-05-10T11:51:33Z</time>
      </trkpt>
      <trkpt lat="48.7825" lon="7.33289">
        <ele>360.4</ele>
        <time>2020-05-10T11:51:35Z</time>
      </trkpt>
      <trkpt lat="48.78247" lon="7.3329">
        <ele>360.6</ele>
        <time>2020-05-10T11:51:36Z</time>
      </trkpt>
      <trkpt lat="48.78246" lon="7.3329">
        <ele>360.6</ele>
        <time>2020-05-10T11:51:37Z</time>
      </trkpt>
      <trkpt lat="48.78241" lon="7.33291">
        <ele>360.9</ele>
        <time>2020-05-10T11:51:39Z</time>
      </trkpt>
      <trkpt lat="48.78237" lon="7.33292">
        <ele>361.2</ele>
        <time>2020-05-10T11:51:41Z</time>
      </trkpt>
      <trkpt lat="48.78233" lon="7.33293">
        <ele>361.4</ele>
        <time>2020-05-10T11:51:42Z</time>
      </trkpt>
      <trkpt lat="48.78232" lon="7.33293">
        <ele>361.4</ele>
        <time>2020-05-10T11:51:43Z</time>
      </trkpt>
      <trkpt lat="48.78228" lon="7.33294">
        <ele>361.6</ele>
        <time>2020-05-10T11:51:44Z</time>
      </trkpt>
      <trkpt lat="48.78222" lon="7.33294">
        <ele>362</ele>
        <time>2020-05-10T11:51:46Z</time>
      </trkpt>
      <trkpt lat="48.78219" lon="7.33295">
        <ele>362.1</ele>
        <time>2020-05-10T11:51:47Z</time>
      </trkpt>
      <trkpt lat="48.78212" lon="7.33294">
        <ele>362.5</ele>
        <time>2020-05-10T11:51:49Z</time>
      </trkpt>
      <trkpt lat="48.78206" lon="7.33293">
        <ele>362.8</ele>
        <time>2020-05-10T11:51:51Z</time>
      </trkpt>
      <trkpt lat="48.782" lon="7.33292">
        <ele>363.1</ele>
        <time>2020-05-10T11:51:53Z</time>
      </trkpt>
      <trkpt lat="48.78194" lon="7.3329">
        <ele>363.3</ele>
        <time>2020-05-10T11:51:55Z</time>
      </trkpt>
      <trkpt lat="48.78191" lon="7.33289">
        <ele>363.5</ele>
        <time>2020-05-10T11:51:56Z</time>
      </trkpt>
      <trkpt lat="48.78184" lon="7.33287">
        <ele>363.8</ele>
        <time>2020-05-10T11:51:58Z</time>
      </trkpt>
      <trkpt lat="48.78182" lon="7.33286">
        <ele>363.9</ele>
        <time>2020-05-10T11:51:59Z</time>
      </trkpt>
      <trkpt lat="48.78177" lon="7.33282">
        <ele>364.2</ele>
        <time>2020-05-10T11:52:01Z</time>
      </trkpt>
      <trkpt lat="48.78174" lon="7.3328">
        <ele>364.3</ele>
        <time>2020-05-10T11:52:02Z</time>
      </trkpt>
      <trkpt lat="48.7817" lon="7.33278">
        <ele>364.5</ele>
        <time>2020-05-10T11:52:03Z</time>
      </trkpt>
      <trkpt lat="48.78169" lon="7.33278">
        <ele>364.5</ele>
        <time>2020-05-10T11:52:04Z</time>
      </trkpt>
      <trkpt lat="48.78167" lon="7.33276">
        <ele>364.6</ele>
        <time>2020-05-10T11:52:05Z</time>
      </trkpt>
      <trkpt lat="48.78164" lon="7.33275">
        <ele>364.8</ele>
        <time>2020-05-10T11:52:06Z</time>
      </trkpt>
      <trkpt lat="48.78159" lon="7.33272">
        <ele>365</ele>
        <time>2020-05-10T11:52:08Z</time>
      </trkpt>
      <trkpt lat="48.78157" lon="7.33272">
        <ele>365.1</ele>
        <time>2020-05-10T11:52:09Z</time>
      </trkpt>
      <trkpt lat="48.78152" lon="7.33272">
        <ele>365.3</ele>
        <time>2020-05-10T11:52:11Z</time>
      </trkpt>
      <trkpt lat="48.78148" lon="7.33271">
        <ele>365.4</ele>
        <time>2020-05-10T11:52:12Z</time>
      </trkpt>
      <trkpt lat="48.78145" lon="7.33271">
        <ele>365.5</ele>
        <time>2020-05-10T11:52:13Z</time>
      </trkpt>
      <trkpt lat="48.7814" lon="7.33269">
        <ele>365.7</ele>
        <time>2020-05-10T11:52:15Z</time>
      </trkpt>
      <trkpt lat="48.78137" lon="7.33267">
        <ele>365.8</ele>
        <time>2020-05-10T11:52:16Z</time>
      </trkpt>
      <trkpt lat="48.7813" lon="7.33263">
        <ele>366</ele>
        <time>2020-05-10T11:52:18Z</time>
      </trkpt>
      <trkpt lat="48.78128" lon="7.33262">
        <ele>366.1</ele>
        <time>2020-05-10T11:52:19Z</time>
      </trkpt>
      <trkpt lat="48.78122" lon="7.3326">
        <ele>366.2</ele>
        <time>2020-05-10T11:52:21Z</time>
      </trkpt>
      <trkpt lat="48.78119" lon="7.33259">
        <ele>366.3</ele>
        <time>2020-05-10T11:52:22Z</time>
      </trkpt>
      <trkpt lat="48.78115" lon="7.33259">
        <ele>366.3</ele>
        <time>2020-05-10T11:52:23Z</time>
      </trkpt>
      <trkpt lat="48.78113" lon="7.3326">
        <ele>366.4</ele>
        <time>2020-05-10T11:52:24Z</time>
      </trkpt>
      <trkpt lat="48.78111" lon="7.33261">
        <ele>366.4</ele>
        <time>2020-05-10T11:52:25Z</time>
      </trkpt>
      <trkpt lat="48.78108" lon="7.33261">
        <ele>366.5</ele>
        <time>2020-05-10T11:52:26Z</time>
      </trkpt>
      <trkpt lat="48.78103" lon="7.33259">
        <ele>366.6</ele>
        <time>2020-05-10T11:52:28Z</time>
      </trkpt>
      <trkpt lat="48.78101" lon="7.33258">
        <ele>366.7</ele>
        <time>2020-05-10T11:52:29Z</time>
      </trkpt>
      <trkpt lat="48.78097" lon="7.33258">
        <ele>366.8</ele>
        <time>2020-05-10T11:52:31Z</time>
      </trkpt>
      <trkpt lat="48.7809" lon="7.33257">
        <ele>366.9</ele>
        <time>2020-05-10T11:52:33Z</time>
      </trkpt>
      <trkpt lat="48.78086" lon="7.33256">
        <ele>367</ele>
        <time>2020-05-10T11:52:34Z</time>
      </trkpt>
      <trkpt lat="48.78079" lon="7.33255">
        <ele>367</ele>
        <time>2020-05-10T11:52:36Z</time>
      </trkpt>
      <trkpt lat="48.78075" lon="7.33255">
        <ele>367.1</ele>
        <time>2020-05-10T11:52:37Z</time>
      </trkpt>
      <trkpt lat="48.78066" lon="7.33254">
        <ele>367.1</ele>
        <time>2020-05-10T11:52:39Z</time>
      </trkpt>
      <trkpt lat="48.78056" lon="7.33255">
        <ele>367.2</ele>
        <time>2020-05-10T11:52:41Z</time>
      </trkpt>
      <trkpt lat="48.78047" lon="7.33257">
        <ele>367.2</ele>
        <time>2020-05-10T11:52:43Z</time>
      </trkpt>
      <trkpt lat="48.78044" lon="7.33258">
        <ele>367.2</ele>
        <time>2020-05-10T11:52:44Z</time>
      </trkpt>
      <trkpt lat="48.78037" lon="7.3326">
        <ele>367.2</ele>
        <time>2020-05-10T11:52:46Z</time>
      </trkpt>
      <trkpt lat="48.78032" lon="7.33263">
        <ele>367.2</ele>
        <time>2020-05-10T11:52:47Z</time>
      </trkpt>
      <trkpt lat="48.78028" lon="7.33265">
        <ele>367.2</ele>
        <time>2020-05-10T11:52:48Z</time>
      </trkpt>
      <trkpt lat="48.78021" lon="7.3327">
        <ele>367.2</ele>
        <time>2020-05-10T11:52:50Z</time>
      </trkpt>
      <trkpt lat="48.78017" lon="7.33273">
        <ele>367.2</ele>
        <time>2020-05-10T11:52:51Z</time>
      </trkpt>
      <trkpt lat="48.78013" lon="7.33276">
        <ele>367.2</ele>
        <time>2020-05-10T11:52:52Z</time>
      </trkpt>
      <trkpt lat="48.78005" lon="7.33281">
        <ele>367.2</ele>
        <time>2020-05-10T11:52:54Z</time>
      </trkpt>
      <trkpt lat="48.78001" lon="7.33284">
        <ele>367.2</ele>
        <time>2020-05-10T11:52:55Z</time>
      </trkpt>
      <trkpt lat="48.77991" lon="7.33292">
        <ele>367.2</ele>
        <time>2020-05-10T11:52:57Z</time>
      </trkpt>
      <trkpt lat="48.77986" lon="7.33297">
        <ele>367.2</ele>
        <time>2020-05-10T11:52:58Z</time>
      </trkpt>
      <trkpt lat="48.77982" lon="7.33301">
        <ele>367.3</ele>
        <time>2020-05-10T11:52:59Z</time>
      </trkpt>
      <trkpt lat="48.77977" lon="7.33312">
        <ele>367.3</ele>
        <time>2020-05-10T11:53:01Z</time>
      </trkpt>
      <trkpt lat="48.7797" lon="7.33323">
        <ele>367.4</ele>
        <time>2020-05-10T11:53:03Z</time>
      </trkpt>
      <trkpt lat="48.77968" lon="7.33328">
        <ele>367.4</ele>
        <time>2020-05-10T11:53:04Z</time>
      </trkpt>
      <trkpt lat="48.77963" lon="7.33338">
        <ele>367.5</ele>
        <time>2020-05-10T11:53:06Z</time>
      </trkpt>
      <trkpt lat="48.77959" lon="7.33349">
        <ele>367.6</ele>
        <time>2020-05-10T11:53:08Z</time>
      </trkpt>
      <trkpt lat="48.77954" lon="7.33359">
        <ele>367.7</ele>
        <time>2020-05-10T11:53:10Z</time>
      </trkpt>
      <trkpt lat="48.77948" lon="7.33371">
        <ele>368</ele>
        <time>2020-05-10T11:53:12Z</time>
      </trkpt>
      <trkpt lat="48.77946" lon="7.33378">
        <ele>368.2</ele>
        <time>2020-05-10T11:53:13Z</time>
      </trkpt>
      <trkpt lat="48.77942" lon="7.33389">
        <ele>368.5</ele>
        <time>2020-05-10T11:53:15Z</time>
      </trkpt>
      <trkpt lat="48.77938" lon="7.334">
        <ele>368.8</ele>
        <time>2020-05-10T11:53:17Z</time>
      </trkpt>
      <trkpt lat="48.77934" lon="7.33408">
        <ele>369.1</ele>
        <time>2020-05-10T11:53:19Z</time>
      </trkpt>
      <trkpt lat="48.77931" lon="7.33413">
        <ele>369.3</ele>
        <time>2020-05-10T11:53:20Z</time>
      </trkpt>
      <trkpt lat="48.7793" lon="7.33418">
        <ele>369.5</ele>
        <time>2020-05-10T11:53:21Z</time>
      </trkpt>
      <trkpt lat="48.77927" lon="7.33426">
        <ele>369.8</ele>
        <time>2020-05-10T11:53:23Z</time>
      </trkpt>
      <trkpt lat="48.77925" lon="7.3343">
        <ele>369.9</ele>
        <time>2020-05-10T11:53:24Z</time>
      </trkpt>
      <trkpt lat="48.77924" lon="7.33434">
        <ele>370.1</ele>
        <time>2020-05-10T11:53:25Z</time>
      </trkpt>
      <trkpt lat="48.77921" lon="7.33441">
        <ele>370.4</ele>
        <time>2020-05-10T11:53:27Z</time>
      </trkpt>
      <trkpt lat="48.77919" lon="7.33444">
        <ele>370.6</ele>
        <time>2020-05-10T11:53:28Z</time>
      </trkpt>
      <trkpt lat="48.77917" lon="7.33448">
        <ele>370.8</ele>
        <time>2020-05-10T11:53:29Z</time>
      </trkpt>
      <trkpt lat="48.77916" lon="7.3346">
        <ele>371.2</ele>
        <time>2020-05-10T11:53:31Z</time>
      </trkpt>
      <trkpt lat="48.77917" lon="7.33465">
        <ele>371.4</ele>
        <time>2020-05-10T11:53:32Z</time>
      </trkpt>
      <trkpt lat="48.77917" lon="7.33471">
        <ele>371.6</ele>
        <time>2020-05-10T11:53:33Z</time>
      </trkpt>
      <trkpt lat="48.77916" lon="7.33481">
        <ele>372</ele>
        <time>2020-05-10T11:53:35Z</time>
      </trkpt>
      <trkpt lat="48.77915" lon="7.33491">
        <ele>372.3</ele>
        <time>2020-05-10T11:53:37Z</time>
      </trkpt>
      <trkpt lat="48.77914" lon="7.33501">
        <ele>372.7</ele>
        <time>2020-05-10T11:53:39Z</time>
      </trkpt>
      <trkpt lat="48.77913" lon="7.33506">
        <ele>372.9</ele>
        <time>2020-05-10T11:53:40Z</time>
      </trkpt>
      <trkpt lat="48.77911" lon="7.33514">
        <ele>373.2</ele>
        <time>2020-05-10T11:53:42Z</time>
      </trkpt>
      <trkpt lat="48.77909" lon="7.33519">
        <ele>373.4</ele>
        <time>2020-05-10T11:53:43Z</time>
      </trkpt>
      <trkpt lat="48.77908" lon="7.33523">
        <ele>373.5</ele>
        <time>2020-05-10T11:53:44Z</time>
      </trkpt>
      <trkpt lat="48.77907" lon="7.33528">
        <ele>373.7</ele>
        <time>2020-05-10T11:53:45Z</time>
      </trkpt>
      <trkpt lat="48.77901" lon="7.33536">
        <ele>374.1</ele>
        <time>2020-05-10T11:53:47Z</time>
      </trkpt>
      <trkpt lat="48.77898" lon="7.33544">
        <ele>374.5</ele>
        <time>2020-05-10T11:53:49Z</time>
      </trkpt>
      <trkpt lat="48.77893" lon="7.33554">
        <ele>374.9</ele>
        <time>2020-05-10T11:53:51Z</time>
      </trkpt>
      <trkpt lat="48.77889" lon="7.33562">
        <ele>375.1</ele>
        <time>2020-05-10T11:53:53Z</time>
      </trkpt>
      <trkpt lat="48.77884" lon="7.3357">
        <ele>375.4</ele>
        <time>2020-05-10T11:53:55Z</time>
      </trkpt>
      <trkpt lat="48.77882" lon="7.33572">
        <ele>375.6</ele>
        <time>2020-05-10T11:53:56Z</time>
      </trkpt>
      <trkpt lat="48.77877" lon="7.33578">
        <ele>375.8</ele>
        <time>2020-05-10T11:53:58Z</time>
      </trkpt>
      <trkpt lat="48.77874" lon="7.33582">
        <ele>376</ele>
        <time>2020-05-10T11:53:59Z</time>
      </trkpt>
      <trkpt lat="48.77869" lon="7.33587">
        <ele>376.2</ele>
        <time>2020-05-10T11:54:01Z</time>
      </trkpt>
      <trkpt lat="48.77866" lon="7.3359">
        <ele>376.3</ele>
        <time>2020-05-10T11:54:02Z</time>
      </trkpt>
      <trkpt lat="48.77861" lon="7.33594">
        <ele>376.5</ele>
        <time>2020-05-10T11:54:04Z</time>
      </trkpt>
      <trkpt lat="48.77858" lon="7.33598">
        <ele>376.6</ele>
        <time>2020-05-10T11:54:05Z</time>
      </trkpt>
      <trkpt lat="48.77857" lon="7.33599">
        <ele>376.7</ele>
        <time>2020-05-10T11:54:06Z</time>
      </trkpt>
      <trkpt lat="48.77851" lon="7.33603">
        <ele>376.9</ele>
        <time>2020-05-10T11:54:08Z</time>
      </trkpt>
      <trkpt lat="48.77847" lon="7.33607">
        <ele>377.1</ele>
        <time>2020-05-10T11:54:10Z</time>
      </trkpt>
      <trkpt lat="48.77842" lon="7.33612">
        <ele>377.3</ele>
        <time>2020-05-10T11:54:12Z</time>
      </trkpt>
      <trkpt lat="48.7784" lon="7.33615">
        <ele>377.3</ele>
        <time>2020-05-10T11:54:13Z</time>
      </trkpt>
      <trkpt lat="48.77835" lon="7.33621">
        <ele>377.6</ele>
        <time>2020-05-10T11:54:15Z</time>
      </trkpt>
      <trkpt lat="48.77832" lon="7.33623">
        <ele>377.6</ele>
        <time>2020-05-10T11:54:16Z</time>
      </trkpt>
      <trkpt lat="48.77828" lon="7.33624">
        <ele>377.8</ele>
        <time>2020-05-10T11:54:17Z</time>
      </trkpt>
      <trkpt lat="48.77826" lon="7.33625">
        <ele>377.9</ele>
        <time>2020-05-10T11:54:18Z</time>
      </trkpt>
      <trkpt lat="48.77819" lon="7.33628">
        <ele>378.1</ele>
        <time>2020-05-10T11:54:20Z</time>
      </trkpt>
      <trkpt lat="48.77813" lon="7.3363">
        <ele>378.3</ele>
        <time>2020-05-10T11:54:22Z</time>
      </trkpt>
      <trkpt lat="48.7781" lon="7.33631">
        <ele>378.3</ele>
        <time>2020-05-10T11:54:23Z</time>
      </trkpt>
      <trkpt lat="48.77804" lon="7.33635">
        <ele>378.5</ele>
        <time>2020-05-10T11:54:25Z</time>
      </trkpt>
      <trkpt lat="48.77797" lon="7.3364">
        <ele>378.8</ele>
        <time>2020-05-10T11:54:27Z</time>
      </trkpt>
      <trkpt lat="48.77792" lon="7.33646">
        <ele>379</ele>
        <time>2020-05-10T11:54:29Z</time>
      </trkpt>
      <trkpt lat="48.77786" lon="7.33652">
        <ele>379.2</ele>
        <time>2020-05-10T11:54:31Z</time>
      </trkpt>
      <trkpt lat="48.7778" lon="7.33658">
        <ele>379.4</ele>
        <time>2020-05-10T11:54:33Z</time>
      </trkpt>
      <trkpt lat="48.77776" lon="7.33661">
        <ele>379.5</ele>
        <time>2020-05-10T11:54:35Z</time>
      </trkpt>
      <trkpt lat="48.77772" lon="7.33664">
        <ele>379.7</ele>
        <time>2020-05-10T11:54:36Z</time>
      </trkpt>
      <trkpt lat="48.77764" lon="7.33666">
        <ele>379.9</ele>
        <time>2020-05-10T11:54:38Z</time>
      </trkpt>
      <trkpt lat="48.77761" lon="7.33667">
        <ele>380</ele>
        <time>2020-05-10T11:54:39Z</time>
      </trkpt>
      <trkpt lat="48.77753" lon="7.3367">
        <ele>380.3</ele>
        <time>2020-05-10T11:54:41Z</time>
      </trkpt>
      <trkpt lat="48.77747" lon="7.33675">
        <ele>380.5</ele>
        <time>2020-05-10T11:54:43Z</time>
      </trkpt>
      <trkpt lat="48.7774" lon="7.33681">
        <ele>380.7</ele>
        <time>2020-05-10T11:54:45Z</time>
      </trkpt>
      <trkpt lat="48.77735" lon="7.33687">
        <ele>380.9</ele>
        <time>2020-05-10T11:54:47Z</time>
      </trkpt>
      <trkpt lat="48.7773" lon="7.33695">
        <ele>381.2</ele>
        <time>2020-05-10T11:54:49Z</time>
      </trkpt>
      <trkpt lat="48.77728" lon="7.337">
        <ele>381.4</ele>
        <time>2020-05-10T11:54:50Z</time>
      </trkpt>
      <trkpt lat="48.77726" lon="7.33705">
        <ele>381.5</ele>
        <time>2020-05-10T11:54:51Z</time>
      </trkpt>
      <trkpt lat="48.77723" lon="7.33717">
        <ele>381.8</ele>
        <time>2020-05-10T11:54:53Z</time>
      </trkpt>
      <trkpt lat="48.77721" lon="7.33723">
        <ele>382</ele>
        <time>2020-05-10T11:54:54Z</time>
      </trkpt>
      <trkpt lat="48.77718" lon="7.33729">
        <ele>382.1</ele>
        <time>2020-05-10T11:54:55Z</time>
      </trkpt>
      <trkpt lat="48.77714" lon="7.33739">
        <ele>382.3</ele>
        <time>2020-05-10T11:54:57Z</time>
      </trkpt>
      <trkpt lat="48.77712" lon="7.33743">
        <ele>382.4</ele>
        <time>2020-05-10T11:54:58Z</time>
      </trkpt>
      <trkpt lat="48.77711" lon="7.33748">
        <ele>382.5</ele>
        <time>2020-05-10T11:54:59Z</time>
      </trkpt>
      <trkpt lat="48.7771" lon="7.33753">
        <ele>382.6</ele>
        <time>2020-05-10T11:55:00Z</time>
      </trkpt>
      <trkpt lat="48.77709" lon="7.33759">
        <ele>382.7</ele>
        <time>2020-05-10T11:55:01Z</time>
      </trkpt>
      <trkpt lat="48.77708" lon="7.33771">
        <ele>383</ele>
        <time>2020-05-10T11:55:03Z</time>
      </trkpt>
      <trkpt lat="48.77708" lon="7.33777">
        <ele>383.1</ele>
        <time>2020-05-10T11:55:04Z</time>
      </trkpt>
      <trkpt lat="48.77707" lon="7.33788">
        <ele>383.3</ele>
        <time>2020-05-10T11:55:06Z</time>
      </trkpt>
      <trkpt lat="48.77707" lon="7.33793">
        <ele>383.4</ele>
        <time>2020-05-10T11:55:07Z</time>
      </trkpt>
      <trkpt lat="48.77706" lon="7.33798">
        <ele>383.5</ele>
        <time>2020-05-10T11:55:08Z</time>
      </trkpt>
      <trkpt lat="48.77702" lon="7.33808">
        <ele>383.7</ele>
        <time>2020-05-10T11:55:10Z</time>
      </trkpt>
      <trkpt lat="48.777" lon="7.33813">
        <ele>383.8</ele>
        <time>2020-05-10T11:55:11Z</time>
      </trkpt>
      <trkpt lat="48.77697" lon="7.33823">
        <ele>384</ele>
        <time>2020-05-10T11:55:13Z</time>
      </trkpt>
      <trkpt lat="48.77694" lon="7.33833">
        <ele>384.1</ele>
        <time>2020-05-10T11:55:15Z</time>
      </trkpt>
      <trkpt lat="48.77693" lon="7.33839">
        <ele>384.2</ele>
        <time>2020-05-10T11:55:16Z</time>
      </trkpt>
      <trkpt lat="48.77691" lon="7.33849">
        <ele>384.4</ele>
        <time>2020-05-10T11:55:18Z</time>
      </trkpt>
      <trkpt lat="48.77689" lon="7.33854">
        <ele>384.5</ele>
        <time>2020-05-10T11:55:19Z</time>
      </trkpt>
      <trkpt lat="48.77687" lon="7.33865">
        <ele>384.7</ele>
        <time>2020-05-10T11:55:21Z</time>
      </trkpt>
      <trkpt lat="48.77687" lon="7.33877">
        <ele>384.9</ele>
        <time>2020-05-10T11:55:23Z</time>
      </trkpt>
      <trkpt lat="48.77686" lon="7.33883">
        <ele>385</ele>
        <time>2020-05-10T11:55:24Z</time>
      </trkpt>
      <trkpt lat="48.77687" lon="7.33896">
        <ele>385.3</ele>
        <time>2020-05-10T11:55:26Z</time>
      </trkpt>
      <trkpt lat="48.77689" lon="7.33907">
        <ele>385.5</ele>
        <time>2020-05-10T11:55:28Z</time>
      </trkpt>
      <trkpt lat="48.7769" lon="7.33914">
        <ele>385.6</ele>
        <time>2020-05-10T11:55:29Z</time>
      </trkpt>
      <trkpt lat="48.77691" lon="7.33919">
        <ele>385.7</ele>
        <time>2020-05-10T11:55:30Z</time>
      </trkpt>
      <trkpt lat="48.77693" lon="7.3393">
        <ele>385.9</ele>
        <time>2020-05-10T11:55:32Z</time>
      </trkpt>
      <trkpt lat="48.77694" lon="7.33935">
        <ele>385.9</ele>
        <time>2020-05-10T11:55:33Z</time>
      </trkpt>
      <trkpt lat="48.77693" lon="7.33944">
        <ele>386.1</ele>
        <time>2020-05-10T11:55:35Z</time>
      </trkpt>
      <trkpt lat="48.77692" lon="7.33947">
        <ele>386.1</ele>
        <time>2020-05-10T11:55:36Z</time>
      </trkpt>
      <trkpt lat="48.77692" lon="7.33957">
        <ele>386.3</ele>
        <time>2020-05-10T11:55:38Z</time>
      </trkpt>
      <trkpt lat="48.77693" lon="7.33967">
        <ele>386.4</ele>
        <time>2020-05-10T11:55:40Z</time>
      </trkpt>
      <trkpt lat="48.77694" lon="7.33973">
        <ele>386.5</ele>
        <time>2020-05-10T11:55:41Z</time>
      </trkpt>
      <trkpt lat="48.77696" lon="7.33985">
        <ele>386.8</ele>
        <time>2020-05-10T11:55:43Z</time>
      </trkpt>
      <trkpt lat="48.77698" lon="7.33997">
        <ele>387</ele>
        <time>2020-05-10T11:55:45Z</time>
      </trkpt>
      <trkpt lat="48.77699" lon="7.34002">
        <ele>387.1</ele>
        <time>2020-05-10T11:55:46Z</time>
      </trkpt>
      <trkpt lat="48.77702" lon="7.34015">
        <ele>387.3</ele>
        <time>2020-05-10T11:55:48Z</time>
      </trkpt>
      <trkpt lat="48.77704" lon="7.34026">
        <ele>387.5</ele>
        <time>2020-05-10T11:55:50Z</time>
      </trkpt>
      <trkpt lat="48.77705" lon="7.34032">
        <ele>387.6</ele>
        <time>2020-05-10T11:55:51Z</time>
      </trkpt>
      <trkpt lat="48.77707" lon="7.34038">
        <ele>387.7</ele>
        <time>2020-05-10T11:55:52Z</time>
      </trkpt>
      <trkpt lat="48.77709" lon="7.34049">
        <ele>387.8</ele>
        <time>2020-05-10T11:55:54Z</time>
      </trkpt>
      <trkpt lat="48.7771" lon="7.34054">
        <ele>387.9</ele>
        <time>2020-05-10T11:55:55Z</time>
      </trkpt>
      <trkpt lat="48.7771" lon="7.3406">
        <ele>388</ele>
        <time>2020-05-10T11:55:56Z</time>
      </trkpt>
      <trkpt lat="48.7771" lon="7.34071">
        <ele>388.2</ele>
        <time>2020-05-10T11:55:58Z</time>
      </trkpt>
      <trkpt lat="48.7771" lon="7.34075">
        <ele>388.3</ele>
        <time>2020-05-10T11:55:59Z</time>
      </trkpt>
      <trkpt lat="48.77711" lon="7.34086">
        <ele>388.5</ele>
        <time>2020-05-10T11:56:01Z</time>
      </trkpt>
      <trkpt lat="48.77711" lon="7.34091">
        <ele>388.6</ele>
        <time>2020-05-10T11:56:02Z</time>
      </trkpt>
      <trkpt lat="48.77713" lon="7.34102">
        <ele>388.9</ele>
        <time>2020-05-10T11:56:04Z</time>
      </trkpt>
      <trkpt lat="48.77714" lon="7.34111">
        <ele>389.1</ele>
        <time>2020-05-10T11:56:06Z</time>
      </trkpt>
      <trkpt lat="48.77716" lon="7.34116">
        <ele>389.1</ele>
        <time>2020-05-10T11:56:07Z</time>
      </trkpt>
      <trkpt lat="48.77718" lon="7.34124">
        <ele>389.3</ele>
        <time>2020-05-10T11:56:09Z</time>
      </trkpt>
      <trkpt lat="48.77719" lon="7.34129">
        <ele>389.4</ele>
        <time>2020-05-10T11:56:10Z</time>
      </trkpt>
      <trkpt lat="48.7772" lon="7.34142">
        <ele>389.6</ele>
        <time>2020-05-10T11:56:12Z</time>
      </trkpt>
      <trkpt lat="48.77722" lon="7.3415">
        <ele>389.8</ele>
        <time>2020-05-10T11:56:14Z</time>
      </trkpt>
      <trkpt lat="48.77722" lon="7.34156">
        <ele>389.9</ele>
        <time>2020-05-10T11:56:15Z</time>
      </trkpt>
      <trkpt lat="48.77723" lon="7.34167">
        <ele>390</ele>
        <time>2020-05-10T11:56:17Z</time>
      </trkpt>
      <trkpt lat="48.77724" lon="7.34174">
        <ele>390.1</ele>
        <time>2020-05-10T11:56:18Z</time>
      </trkpt>
      <trkpt lat="48.77724" lon="7.3418">
        <ele>390.1</ele>
        <time>2020-05-10T11:56:19Z</time>
      </trkpt>
      <trkpt lat="48.77725" lon="7.34192">
        <ele>390.3</ele>
        <time>2020-05-10T11:56:21Z</time>
      </trkpt>
      <trkpt lat="48.77725" lon="7.34204">
        <ele>390.4</ele>
        <time>2020-05-10T11:56:23Z</time>
      </trkpt>
      <trkpt lat="48.77725" lon="7.3421">
        <ele>390.5</ele>
        <time>2020-05-10T11:56:24Z</time>
      </trkpt>
      <trkpt lat="48.77725" lon="7.34216">
        <ele>390.6</ele>
        <time>2020-05-10T11:56:25Z</time>
      </trkpt>
      <trkpt lat="48.77725" lon="7.34228">
        <ele>390.8</ele>
        <time>2020-05-10T11:56:27Z</time>
      </trkpt>
      <trkpt lat="48.77724" lon="7.34234">
        <ele>390.9</ele>
        <time>2020-05-10T11:56:28Z</time>
      </trkpt>
      <trkpt lat="48.77723" lon="7.34246">
        <ele>391.2</ele>
        <time>2020-05-10T11:56:30Z</time>
      </trkpt>
      <trkpt lat="48.77722" lon="7.34252">
        <ele>391.3</ele>
        <time>2020-05-10T11:56:31Z</time>
      </trkpt>
      <trkpt lat="48.77722" lon="7.34264">
        <ele>391.6</ele>
        <time>2020-05-10T11:56:33Z</time>
      </trkpt>
      <trkpt lat="48.77722" lon="7.3427">
        <ele>391.7</ele>
        <time>2020-05-10T11:56:34Z</time>
      </trkpt>
      <trkpt lat="48.77722" lon="7.3428">
        <ele>392</ele>
        <time>2020-05-10T11:56:36Z</time>
      </trkpt>
      <trkpt lat="48.77722" lon="7.34286">
        <ele>392.1</ele>
        <time>2020-05-10T11:56:37Z</time>
      </trkpt>
      <trkpt lat="48.7772" lon="7.34296">
        <ele>392.3</ele>
        <time>2020-05-10T11:56:39Z</time>
      </trkpt>
      <trkpt lat="48.77719" lon="7.34306">
        <ele>392.5</ele>
        <time>2020-05-10T11:56:41Z</time>
      </trkpt>
      <trkpt lat="48.77718" lon="7.34316">
        <ele>392.7</ele>
        <time>2020-05-10T11:56:43Z</time>
      </trkpt>
      <trkpt lat="48.77717" lon="7.34324">
        <ele>392.9</ele>
        <time>2020-05-10T11:56:45Z</time>
      </trkpt>
      <trkpt lat="48.77716" lon="7.34329">
        <ele>393</ele>
        <time>2020-05-10T11:56:46Z</time>
      </trkpt>
      <trkpt lat="48.77716" lon="7.3434">
        <ele>393.2</ele>
        <time>2020-05-10T11:56:48Z</time>
      </trkpt>
      <trkpt lat="48.77716" lon="7.34346">
        <ele>393.3</ele>
        <time>2020-05-10T11:56:49Z</time>
      </trkpt>
      <trkpt lat="48.77716" lon="7.34358">
        <ele>393.6</ele>
        <time>2020-05-10T11:56:51Z</time>
      </trkpt>
      <trkpt lat="48.77716" lon="7.34363">
        <ele>393.7</ele>
        <time>2020-05-10T11:56:52Z</time>
      </trkpt>
      <trkpt lat="48.77715" lon="7.34373">
        <ele>394</ele>
        <time>2020-05-10T11:56:54Z</time>
      </trkpt>
      <trkpt lat="48.77714" lon="7.3438">
        <ele>394.1</ele>
        <time>2020-05-10T11:56:55Z</time>
      </trkpt>
      <trkpt lat="48.77712" lon="7.34385">
        <ele>394.3</ele>
        <time>2020-05-10T11:56:56Z</time>
      </trkpt>
      <trkpt lat="48.77711" lon="7.3439">
        <ele>394.4</ele>
        <time>2020-05-10T11:56:57Z</time>
      </trkpt>
      <trkpt lat="48.7771" lon="7.34395">
        <ele>394.5</ele>
        <time>2020-05-10T11:56:58Z</time>
      </trkpt>
      <trkpt lat="48.77709" lon="7.34405">
        <ele>394.8</ele>
        <time>2020-05-10T11:57:00Z</time>
      </trkpt>
      <trkpt lat="48.77708" lon="7.34409">
        <ele>394.9</ele>
        <time>2020-05-10T11:57:01Z</time>
      </trkpt>
      <trkpt lat="48.77707" lon="7.34414">
        <ele>395.1</ele>
        <time>2020-05-10T11:57:02Z</time>
      </trkpt>
      <trkpt lat="48.77706" lon="7.34424">
        <ele>395.4</ele>
        <time>2020-05-10T11:57:04Z</time>
      </trkpt>
      <trkpt lat="48.77706" lon="7.34435">
        <ele>395.7</ele>
        <time>2020-05-10T11:57:06Z</time>
      </trkpt>
      <trkpt lat="48.77705" lon="7.34444">
        <ele>395.9</ele>
        <time>2020-05-10T11:57:08Z</time>
      </trkpt>
      <trkpt lat="48.77705" lon="7.34453">
        <ele>396.2</ele>
        <time>2020-05-10T11:57:10Z</time>
      </trkpt>
      <trkpt lat="48.77704" lon="7.34459">
        <ele>396.3</ele>
        <time>2020-05-10T11:57:11Z</time>
      </trkpt>
      <trkpt lat="48.77704" lon="7.34467">
        <ele>396.5</ele>
        <time>2020-05-10T11:57:13Z</time>
      </trkpt>
      <trkpt lat="48.77704" lon="7.34471">
        <ele>396.6</ele>
        <time>2020-05-10T11:57:14Z</time>
      </trkpt>
      <trkpt lat="48.77704" lon="7.34478">
        <ele>396.8</ele>
        <time>2020-05-10T11:57:16Z</time>
      </trkpt>
      <trkpt lat="48.77704" lon="7.34482">
        <ele>396.9</ele>
        <time>2020-05-10T11:57:17Z</time>
      </trkpt>
      <trkpt lat="48.77704" lon="7.3449">
        <ele>397</ele>
        <time>2020-05-10T11:57:19Z</time>
      </trkpt>
      <trkpt lat="48.77704" lon="7.34493">
        <ele>397.1</ele>
        <time>2020-05-10T11:57:20Z</time>
      </trkpt>
      <trkpt lat="48.77704" lon="7.34501">
        <ele>397.2</ele>
        <time>2020-05-10T11:57:22Z</time>
      </trkpt>
      <trkpt lat="48.77704" lon="7.34513">
        <ele>397.5</ele>
        <time>2020-05-10T11:57:24Z</time>
      </trkpt>
      <trkpt lat="48.77704" lon="7.34518">
        <ele>397.6</ele>
        <time>2020-05-10T11:57:25Z</time>
      </trkpt>
      <trkpt lat="48.77703" lon="7.34524">
        <ele>397.7</ele>
        <time>2020-05-10T11:57:26Z</time>
      </trkpt>
      <trkpt lat="48.77702" lon="7.34537">
        <ele>397.9</ele>
        <time>2020-05-10T11:57:28Z</time>
      </trkpt>
      <trkpt lat="48.77701" lon="7.34544">
        <ele>398</ele>
        <time>2020-05-10T11:57:29Z</time>
      </trkpt>
      <trkpt lat="48.77701" lon="7.34549">
        <ele>398.1</ele>
        <time>2020-05-10T11:57:30Z</time>
      </trkpt>
      <trkpt lat="48.777" lon="7.34559">
        <ele>398.3</ele>
        <time>2020-05-10T11:57:32Z</time>
      </trkpt>
      <trkpt lat="48.77699" lon="7.34565">
        <ele>398.4</ele>
        <time>2020-05-10T11:57:33Z</time>
      </trkpt>
      <trkpt lat="48.77698" lon="7.34575">
        <ele>398.6</ele>
        <time>2020-05-10T11:57:35Z</time>
      </trkpt>
      <trkpt lat="48.77696" lon="7.34585">
        <ele>398.8</ele>
        <time>2020-05-10T11:57:37Z</time>
      </trkpt>
      <trkpt lat="48.77695" lon="7.3459">
        <ele>398.8</ele>
        <time>2020-05-10T11:57:38Z</time>
      </trkpt>
      <trkpt lat="48.77693" lon="7.34599">
        <ele>399</ele>
        <time>2020-05-10T11:57:40Z</time>
      </trkpt>
      <trkpt lat="48.77693" lon="7.34605">
        <ele>399.1</ele>
        <time>2020-05-10T11:57:41Z</time>
      </trkpt>
      <trkpt lat="48.77692" lon="7.3461">
        <ele>399.2</ele>
        <time>2020-05-10T11:57:42Z</time>
      </trkpt>
      <trkpt lat="48.77691" lon="7.34615">
        <ele>399.3</ele>
        <time>2020-05-10T11:57:43Z</time>
      </trkpt>
      <trkpt lat="48.7769" lon="7.34624">
        <ele>399.5</ele>
        <time>2020-05-10T11:57:45Z</time>
      </trkpt>
      <trkpt lat="48.77688" lon="7.34634">
        <ele>399.6</ele>
        <time>2020-05-10T11:57:47Z</time>
      </trkpt>
      <trkpt lat="48.77687" lon="7.34638">
        <ele>399.7</ele>
        <time>2020-05-10T11:57:48Z</time>
      </trkpt>
      <trkpt lat="48.77686" lon="7.34642">
        <ele>399.8</ele>
        <time>2020-05-10T11:57:49Z</time>
      </trkpt>
      <trkpt lat="48.77682" lon="7.34649">
        <ele>400</ele>
        <time>2020-05-10T11:57:51Z</time>
      </trkpt>
      <trkpt lat="48.77677" lon="7.34656">
        <ele>400.1</ele>
        <time>2020-05-10T11:57:53Z</time>
      </trkpt>
      <trkpt lat="48.77674" lon="7.3466">
        <ele>400.3</ele>
        <time>2020-05-10T11:57:54Z</time>
      </trkpt>
      <trkpt lat="48.77671" lon="7.34664">
        <ele>400.4</ele>
        <time>2020-05-10T11:57:55Z</time>
      </trkpt>
      <trkpt lat="48.77668" lon="7.34672">
        <ele>400.6</ele>
        <time>2020-05-10T11:57:56Z</time>
      </trkpt>
      <trkpt lat="48.77666" lon="7.34679">
        <ele>400.7</ele>
        <time>2020-05-10T11:57:58Z</time>
      </trkpt>
      <trkpt lat="48.77666" lon="7.34681">
        <ele>400.8</ele>
        <time>2020-05-10T11:57:59Z</time>
      </trkpt>
      <trkpt lat="48.77664" lon="7.34689">
        <ele>400.9</ele>
        <time>2020-05-10T11:58:01Z</time>
      </trkpt>
      <trkpt lat="48.77664" lon="7.34706">
        <ele>401.3</ele>
        <time>2020-05-10T11:58:03Z</time>
      </trkpt>
      <trkpt lat="48.77666" lon="7.34713">
        <ele>401.4</ele>
        <time>2020-05-10T11:58:04Z</time>
      </trkpt>
      <trkpt lat="48.77668" lon="7.34721">
        <ele>401.6</ele>
        <time>2020-05-10T11:58:05Z</time>
      </trkpt>
      <trkpt lat="48.77671" lon="7.34735">
        <ele>401.9</ele>
        <time>2020-05-10T11:58:07Z</time>
      </trkpt>
      <trkpt lat="48.77673" lon="7.34742">
        <ele>402</ele>
        <time>2020-05-10T11:58:08Z</time>
      </trkpt>
      <trkpt lat="48.77676" lon="7.34754">
        <ele>402.3</ele>
        <time>2020-05-10T11:58:10Z</time>
      </trkpt>
      <trkpt lat="48.77678" lon="7.34761">
        <ele>402.4</ele>
        <time>2020-05-10T11:58:11Z</time>
      </trkpt>
      <trkpt lat="48.77681" lon="7.34772">
        <ele>402.7</ele>
        <time>2020-05-10T11:58:13Z</time>
      </trkpt>
      <trkpt lat="48.77682" lon="7.34777">
        <ele>402.9</ele>
        <time>2020-05-10T11:58:14Z</time>
      </trkpt>
      <trkpt lat="48.77684" lon="7.34788">
        <ele>403.1</ele>
        <time>2020-05-10T11:58:16Z</time>
      </trkpt>
      <trkpt lat="48.77684" lon="7.34799">
        <ele>403.4</ele>
        <time>2020-05-10T11:58:18Z</time>
      </trkpt>
      <trkpt lat="48.77684" lon="7.34803">
        <ele>403.6</ele>
        <time>2020-05-10T11:58:19Z</time>
      </trkpt>
      <trkpt lat="48.77685" lon="7.34813">
        <ele>403.8</ele>
        <time>2020-05-10T11:58:21Z</time>
      </trkpt>
      <trkpt lat="48.77685" lon="7.34818">
        <ele>404</ele>
        <time>2020-05-10T11:58:22Z</time>
      </trkpt>
      <trkpt lat="48.77686" lon="7.34822">
        <ele>404.1</ele>
        <time>2020-05-10T11:58:23Z</time>
      </trkpt>
      <trkpt lat="48.77688" lon="7.34827">
        <ele>404.2</ele>
        <time>2020-05-10T11:58:24Z</time>
      </trkpt>
      <trkpt lat="48.77689" lon="7.34831">
        <ele>404.4</ele>
        <time>2020-05-10T11:58:25Z</time>
      </trkpt>
      <trkpt lat="48.7769" lon="7.34841">
        <ele>404.6</ele>
        <time>2020-05-10T11:58:27Z</time>
      </trkpt>
      <trkpt lat="48.77689" lon="7.34846">
        <ele>404.8</ele>
        <time>2020-05-10T11:58:28Z</time>
      </trkpt>
      <trkpt lat="48.77689" lon="7.34855">
        <ele>405</ele>
        <time>2020-05-10T11:58:30Z</time>
      </trkpt>
      <trkpt lat="48.7769" lon="7.34865">
        <ele>405.2</ele>
        <time>2020-05-10T11:58:32Z</time>
      </trkpt>
      <trkpt lat="48.77691" lon="7.34871">
        <ele>405.4</ele>
        <time>2020-05-10T11:58:33Z</time>
      </trkpt>
      <trkpt lat="48.77692" lon="7.34875">
        <ele>405.5</ele>
        <time>2020-05-10T11:58:34Z</time>
      </trkpt>
      <trkpt lat="48.77695" lon="7.34884">
        <ele>405.8</ele>
        <time>2020-05-10T11:58:36Z</time>
      </trkpt>
      <trkpt lat="48.77698" lon="7.34891">
        <ele>406</ele>
        <time>2020-05-10T11:58:38Z</time>
      </trkpt>
      <trkpt lat="48.77699" lon="7.34896">
        <ele>406.1</ele>
        <time>2020-05-10T11:58:39Z</time>
      </trkpt>
      <trkpt lat="48.777" lon="7.34907">
        <ele>406.4</ele>
        <time>2020-05-10T11:58:41Z</time>
      </trkpt>
      <trkpt lat="48.777" lon="7.34916">
        <ele>406.7</ele>
        <time>2020-05-10T11:58:43Z</time>
      </trkpt>
      <trkpt lat="48.77702" lon="7.34923">
        <ele>406.9</ele>
        <time>2020-05-10T11:58:44Z</time>
      </trkpt>
      <trkpt lat="48.77705" lon="7.34932">
        <ele>407.2</ele>
        <time>2020-05-10T11:58:46Z</time>
      </trkpt>
      <trkpt lat="48.77707" lon="7.34939">
        <ele>407.5</ele>
        <time>2020-05-10T11:58:48Z</time>
      </trkpt>
      <trkpt lat="48.7771" lon="7.34948">
        <ele>407.8</ele>
        <time>2020-05-10T11:58:50Z</time>
      </trkpt>
      <trkpt lat="48.77711" lon="7.34953">
        <ele>408</ele>
        <time>2020-05-10T11:58:51Z</time>
      </trkpt>
      <trkpt lat="48.77713" lon="7.34962">
        <ele>408.3</ele>
        <time>2020-05-10T11:58:53Z</time>
      </trkpt>
      <trkpt lat="48.77713" lon="7.34972">
        <ele>408.7</ele>
        <time>2020-05-10T11:58:55Z</time>
      </trkpt>
      <trkpt lat="48.77714" lon="7.34981">
        <ele>409</ele>
        <time>2020-05-10T11:58:57Z</time>
      </trkpt>
      <trkpt lat="48.77714" lon="7.34984">
        <ele>409.1</ele>
        <time>2020-05-10T11:58:58Z</time>
      </trkpt>
      <trkpt lat="48.77715" lon="7.34993">
        <ele>409.4</ele>
        <time>2020-05-10T11:59:00Z</time>
      </trkpt>
      <trkpt lat="48.77715" lon="7.34999">
        <ele>409.7</ele>
        <time>2020-05-10T11:59:02Z</time>
      </trkpt>
      <trkpt lat="48.77714" lon="7.35009">
        <ele>410.1</ele>
        <time>2020-05-10T11:59:04Z</time>
      </trkpt>
      <trkpt lat="48.77713" lon="7.35016">
        <ele>410.4</ele>
        <time>2020-05-10T11:59:06Z</time>
      </trkpt>
      <trkpt lat="48.77711" lon="7.35025">
        <ele>410.7</ele>
        <time>2020-05-10T11:59:08Z</time>
      </trkpt>
      <trkpt lat="48.7771" lon="7.35029">
        <ele>410.8</ele>
        <time>2020-05-10T11:59:09Z</time>
      </trkpt>
      <trkpt lat="48.77712" lon="7.35038">
        <ele>411.1</ele>
        <time>2020-05-10T11:59:11Z</time>
      </trkpt>
      <trkpt lat="48.77718" lon="7.35046">
        <ele>405.1</ele>
        <time>2020-05-10T11:59:13Z</time>
      </trkpt>
      <trkpt lat="48.77722" lon="7.3505">
        <ele>406.4</ele>
        <time>2020-05-10T11:59:14Z</time>
      </trkpt>
      <trkpt lat="48.77727" lon="7.35054">
        <ele>407.8</ele>
        <time>2020-05-10T11:59:15Z</time>
      </trkpt>
      <trkpt lat="48.77731" lon="7.35057">
        <ele>411.3</ele>
        <time>2020-05-10T11:59:16Z</time>
      </trkpt>
      <trkpt lat="48.7774" lon="7.35066">
        <ele>411.3</ele>
        <time>2020-05-10T11:59:18Z</time>
      </trkpt>
      <trkpt lat="48.77745" lon="7.35073">
        <ele>411.3</ele>
        <time>2020-05-10T11:59:19Z</time>
      </trkpt>
      <trkpt lat="48.77751" lon="7.35083">
        <ele>410.9</ele>
        <time>2020-05-10T11:59:21Z</time>
      </trkpt>
      <trkpt lat="48.77753" lon="7.35087">
        <ele>410.9</ele>
        <time>2020-05-10T11:59:22Z</time>
      </trkpt>
      <trkpt lat="48.77755" lon="7.35089">
        <ele>410.8</ele>
        <time>2020-05-10T11:59:23Z</time>
      </trkpt>
      <trkpt lat="48.77761" lon="7.35096">
        <ele>410.8</ele>
        <time>2020-05-10T11:59:25Z</time>
      </trkpt>
      <trkpt lat="48.77768" lon="7.351">
        <ele>410.8</ele>
        <time>2020-05-10T11:59:27Z</time>
      </trkpt>
      <trkpt lat="48.77774" lon="7.35106">
        <ele>410.8</ele>
        <time>2020-05-10T11:59:29Z</time>
      </trkpt>
      <trkpt lat="48.77778" lon="7.35109">
        <ele>410.8</ele>
        <time>2020-05-10T11:59:30Z</time>
      </trkpt>
      <trkpt lat="48.77785" lon="7.35113">
        <ele>410.9</ele>
        <time>2020-05-10T11:59:32Z</time>
      </trkpt>
      <trkpt lat="48.77789" lon="7.35117">
        <ele>410.9</ele>
        <time>2020-05-10T11:59:33Z</time>
      </trkpt>
      <trkpt lat="48.77795" lon="7.35126">
        <ele>410.9</ele>
        <time>2020-05-10T11:59:35Z</time>
      </trkpt>
      <trkpt lat="48.77798" lon="7.3513">
        <ele>410.9</ele>
        <time>2020-05-10T11:59:36Z</time>
      </trkpt>
      <trkpt lat="48.77804" lon="7.35139">
        <ele>410.8</ele>
        <time>2020-05-10T11:59:38Z</time>
      </trkpt>
      <trkpt lat="48.77806" lon="7.35143">
        <ele>410.8</ele>
        <time>2020-05-10T11:59:39Z</time>
      </trkpt>
      <trkpt lat="48.7781" lon="7.35151">
        <ele>410.8</ele>
        <time>2020-05-10T11:59:41Z</time>
      </trkpt>
      <trkpt lat="48.77815" lon="7.3516">
        <ele>410.8</ele>
        <time>2020-05-10T11:59:43Z</time>
      </trkpt>
      <trkpt lat="48.77816" lon="7.35164">
        <ele>410.8</ele>
        <time>2020-05-10T11:59:44Z</time>
      </trkpt>
      <trkpt lat="48.77823" lon="7.35173">
        <ele>410.8</ele>
        <time>2020-05-10T11:59:46Z</time>
      </trkpt>
      <trkpt lat="48.77825" lon="7.35179">
        <ele>410.8</ele>
        <time>2020-05-10T11:59:47Z</time>
      </trkpt>
      <trkpt lat="48.7783" lon="7.35191">
        <ele>410.7</ele>
        <time>2020-05-10T11:59:49Z</time>
      </trkpt>
      <trkpt lat="48.77832" lon="7.35196">
        <ele>410.7</ele>
        <time>2020-05-10T11:59:50Z</time>
      </trkpt>
      <trkpt lat="48.77834" lon="7.35201">
        <ele>410.7</ele>
        <time>2020-05-10T11:59:51Z</time>
      </trkpt>
      <trkpt lat="48.77838" lon="7.35208">
        <ele>410.7</ele>
        <time>2020-05-10T11:59:53Z</time>
      </trkpt>
      <trkpt lat="48.77844" lon="7.35215">
        <ele>410.6</ele>
        <time>2020-05-10T11:59:55Z</time>
      </trkpt>
      <trkpt lat="48.77847" lon="7.3522">
        <ele>410.5</ele>
        <time>2020-05-10T11:59:56Z</time>
      </trkpt>
      <trkpt lat="48.77848" lon="7.35222">
        <ele>410.5</ele>
        <time>2020-05-10T11:59:57Z</time>
      </trkpt>
      <trkpt lat="48.7785" lon="7.35228">
        <ele>410.4</ele>
        <time>2020-05-10T11:59:58Z</time>
      </trkpt>
      <trkpt lat="48.77855" lon="7.35236">
        <ele>410.3</ele>
        <time>2020-05-10T12:00:00Z</time>
      </trkpt>
      <trkpt lat="48.77858" lon="7.3524">
        <ele>410.3</ele>
        <time>2020-05-10T12:00:01Z</time>
      </trkpt>
      <trkpt lat="48.77864" lon="7.35248">
        <ele>410.2</ele>
        <time>2020-05-10T12:00:03Z</time>
      </trkpt>
      <trkpt lat="48.77869" lon="7.35258">
        <ele>410</ele>
        <time>2020-05-10T12:00:05Z</time>
      </trkpt>
      <trkpt lat="48.7787" lon="7.35263">
        <ele>410</ele>
        <time>2020-05-10T12:00:06Z</time>
      </trkpt>
      <trkpt lat="48.77877" lon="7.35273">
        <ele>409.7</ele>
        <time>2020-05-10T12:00:08Z</time>
      </trkpt>
      <trkpt lat="48.77882" lon="7.35284">
        <ele>409.4</ele>
        <time>2020-05-10T12:00:10Z</time>
      </trkpt>
      <trkpt lat="48.77885" lon="7.35288">
        <ele>409.3</ele>
        <time>2020-05-10T12:00:11Z</time>
      </trkpt>
      <trkpt lat="48.77891" lon="7.35297">
        <ele>409.1</ele>
        <time>2020-05-10T12:00:13Z</time>
      </trkpt>
      <trkpt lat="48.77894" lon="7.35307">
        <ele>408.9</ele>
        <time>2020-05-10T12:00:15Z</time>
      </trkpt>
      <trkpt lat="48.77897" lon="7.35314">
        <ele>408.7</ele>
        <time>2020-05-10T12:00:16Z</time>
      </trkpt>
      <trkpt lat="48.77902" lon="7.35322">
        <ele>408.5</ele>
        <time>2020-05-10T12:00:18Z</time>
      </trkpt>
      <trkpt lat="48.77907" lon="7.35335">
        <ele>408.3</ele>
        <time>2020-05-10T12:00:20Z</time>
      </trkpt>
      <trkpt lat="48.7791" lon="7.35343">
        <ele>408.1</ele>
        <time>2020-05-10T12:00:21Z</time>
      </trkpt>
      <trkpt lat="48.77915" lon="7.35356">
        <ele>407.9</ele>
        <time>2020-05-10T12:00:23Z</time>
      </trkpt>
      <trkpt lat="48.77921" lon="7.35366">
        <ele>407.6</ele>
        <time>2020-05-10T12:00:25Z</time>
      </trkpt>
      <trkpt lat="48.77924" lon="7.35378">
        <ele>407.5</ele>
        <time>2020-05-10T12:00:27Z</time>
      </trkpt>
      <trkpt lat="48.77927" lon="7.35384">
        <ele>407.4</ele>
        <time>2020-05-10T12:00:28Z</time>
      </trkpt>
      <trkpt lat="48.77928" lon="7.3539">
        <ele>407.3</ele>
        <time>2020-05-10T12:00:29Z</time>
      </trkpt>
      <trkpt lat="48.77932" lon="7.35404">
        <ele>407.1</ele>
        <time>2020-05-10T12:00:31Z</time>
      </trkpt>
      <trkpt lat="48.77933" lon="7.35418">
        <ele>407</ele>
        <time>2020-05-10T12:00:33Z</time>
      </trkpt>
      <trkpt lat="48.77936" lon="7.35429">
        <ele>406.9</ele>
        <time>2020-05-10T12:00:35Z</time>
      </trkpt>
      <trkpt lat="48.77936" lon="7.35443">
        <ele>406.8</ele>
        <time>2020-05-10T12:00:37Z</time>
      </trkpt>
      <trkpt lat="48.77937" lon="7.3545">
        <ele>406.7</ele>
        <time>2020-05-10T12:00:38Z</time>
      </trkpt>
      <trkpt lat="48.77938" lon="7.35459">
        <ele>406.6</ele>
        <time>2020-05-10T12:00:39Z</time>
      </trkpt>
      <trkpt lat="48.77939" lon="7.35467">
        <ele>406.4</ele>
        <time>2020-05-10T12:00:40Z</time>
      </trkpt>
      <trkpt lat="48.77944" lon="7.35477">
        <ele>406.3</ele>
        <time>2020-05-10T12:00:42Z</time>
      </trkpt>
      <trkpt lat="48.7795" lon="7.35492">
        <ele>405.9</ele>
        <time>2020-05-10T12:00:44Z</time>
      </trkpt>
      <trkpt lat="48.77956" lon="7.35508">
        <ele>405.6</ele>
        <time>2020-05-10T12:00:46Z</time>
      </trkpt>
      <trkpt lat="48.77961" lon="7.35523">
        <ele>405.3</ele>
        <time>2020-05-10T12:00:48Z</time>
      </trkpt>
      <trkpt lat="48.77963" lon="7.3553">
        <ele>405.1</ele>
        <time>2020-05-10T12:00:49Z</time>
      </trkpt>
      <trkpt lat="48.77969" lon="7.35544">
        <ele>404.9</ele>
        <time>2020-05-10T12:00:51Z</time>
      </trkpt>
      <trkpt lat="48.77971" lon="7.35551">
        <ele>404.8</ele>
        <time>2020-05-10T12:00:52Z</time>
      </trkpt>
      <trkpt lat="48.77971" lon="7.3556">
        <ele>404.7</ele>
        <time>2020-05-10T12:00:53Z</time>
      </trkpt>
      <trkpt lat="48.77974" lon="7.35576">
        <ele>404.5</ele>
        <time>2020-05-10T12:00:55Z</time>
      </trkpt>
      <trkpt lat="48.77976" lon="7.35593">
        <ele>404.2</ele>
        <time>2020-05-10T12:00:57Z</time>
      </trkpt>
      <trkpt lat="48.77978" lon="7.35608">
        <ele>404</ele>
        <time>2020-05-10T12:00:59Z</time>
      </trkpt>
      <trkpt lat="48.77979" lon="7.35617">
        <ele>403.9</ele>
        <time>2020-05-10T12:01:00Z</time>
      </trkpt>
      <trkpt lat="48.77983" lon="7.35633">
        <ele>403.6</ele>
        <time>2020-05-10T12:01:02Z</time>
      </trkpt>
      <trkpt lat="48.77986" lon="7.35648">
        <ele>403.4</ele>
        <time>2020-05-10T12:01:04Z</time>
      </trkpt>
      <trkpt lat="48.77989" lon="7.35669">
        <ele>403</ele>
        <time>2020-05-10T12:01:06Z</time>
      </trkpt>
      <trkpt lat="48.77995" lon="7.35687">
        <ele>402.7</ele>
        <time>2020-05-10T12:01:08Z</time>
      </trkpt>
      <trkpt lat="48.77999" lon="7.35703">
        <ele>402.3</ele>
        <time>2020-05-10T12:01:10Z</time>
      </trkpt>
      <trkpt lat="48.78002" lon="7.3571">
        <ele>402.2</ele>
        <time>2020-05-10T12:01:11Z</time>
      </trkpt>
      <trkpt lat="48.78008" lon="7.35725">
        <ele>401.8</ele>
        <time>2020-05-10T12:01:13Z</time>
      </trkpt>
      <trkpt lat="48.78017" lon="7.35741">
        <ele>401.3</ele>
        <time>2020-05-10T12:01:15Z</time>
      </trkpt>
      <trkpt lat="48.78026" lon="7.35756">
        <ele>400.8</ele>
        <time>2020-05-10T12:01:17Z</time>
      </trkpt>
      <trkpt lat="48.7803" lon="7.35774">
        <ele>400.3</ele>
        <time>2020-05-10T12:01:19Z</time>
      </trkpt>
      <trkpt lat="48.78032" lon="7.35782">
        <ele>400.1</ele>
        <time>2020-05-10T12:01:20Z</time>
      </trkpt>
      <trkpt lat="48.78034" lon="7.35792">
        <ele>399.8</ele>
        <time>2020-05-10T12:01:21Z</time>
      </trkpt>
      <trkpt lat="48.78037" lon="7.35812">
        <ele>399.3</ele>
        <time>2020-05-10T12:01:23Z</time>
      </trkpt>
      <trkpt lat="48.78038" lon="7.35823">
        <ele>399.1</ele>
        <time>2020-05-10T12:01:24Z</time>
      </trkpt>
      <trkpt lat="48.78039" lon="7.35835">
        <ele>398.8</ele>
        <time>2020-05-10T12:01:25Z</time>
      </trkpt>
      <trkpt lat="48.7804" lon="7.35846">
        <ele>398.5</ele>
        <time>2020-05-10T12:01:26Z</time>
      </trkpt>
      <trkpt lat="48.7804" lon="7.35857">
        <ele>398.3</ele>
        <time>2020-05-10T12:01:27Z</time>
      </trkpt>
      <trkpt lat="48.78041" lon="7.35868">
        <ele>398</ele>
        <time>2020-05-10T12:01:28Z</time>
      </trkpt>
      <trkpt lat="48.78043" lon="7.3589">
        <ele>397.5</ele>
        <time>2020-05-10T12:01:30Z</time>
      </trkpt>
      <trkpt lat="48.78044" lon="7.359">
        <ele>397.2</ele>
        <time>2020-05-10T12:01:31Z</time>
      </trkpt>
      <trkpt lat="48.78045" lon="7.3592">
        <ele>396.6</ele>
        <time>2020-05-10T12:01:33Z</time>
      </trkpt>
      <trkpt lat="48.78048" lon="7.35929">
        <ele>396.3</ele>
        <time>2020-05-10T12:01:34Z</time>
      </trkpt>
      <trkpt lat="48.78052" lon="7.35951">
        <ele>395.7</ele>
        <time>2020-05-10T12:01:36Z</time>
      </trkpt>
      <trkpt lat="48.78057" lon="7.35973">
        <ele>395.2</ele>
        <time>2020-05-10T12:01:38Z</time>
      </trkpt>
      <trkpt lat="48.7806" lon="7.35984">
        <ele>395.2</ele>
        <time>2020-05-10T12:01:39Z</time>
      </trkpt>
      <trkpt lat="48.78063" lon="7.35993">
        <ele>395.2</ele>
        <time>2020-05-10T12:01:40Z</time>
      </trkpt>
      <trkpt lat="48.78065" lon="7.36013">
        <ele>395.4</ele>
        <time>2020-05-10T12:01:42Z</time>
      </trkpt>
      <trkpt lat="48.78066" lon="7.36023">
        <ele>395.5</ele>
        <time>2020-05-10T12:01:43Z</time>
      </trkpt>
      <trkpt lat="48.78071" lon="7.36042">
        <ele>395.8</ele>
        <time>2020-05-10T12:01:45Z</time>
      </trkpt>
      <trkpt lat="48.78073" lon="7.36051">
        <ele>395.9</ele>
        <time>2020-05-10T12:01:46Z</time>
      </trkpt>
      <trkpt lat="48.78076" lon="7.3606">
        <ele>396</ele>
        <time>2020-05-10T12:01:47Z</time>
      </trkpt>
      <trkpt lat="48.78081" lon="7.36072">
        <ele>396.2</ele>
        <time>2020-05-10T12:01:49Z</time>
      </trkpt>
      <trkpt lat="48.78085" lon="7.36088">
        <ele>396.4</ele>
        <time>2020-05-10T12:01:51Z</time>
      </trkpt>
      <trkpt lat="48.78086" lon="7.36096">
        <ele>396.4</ele>
        <time>2020-05-10T12:01:52Z</time>
      </trkpt>
      <trkpt lat="48.78081" lon="7.36104">
        <ele>396.4</ele>
        <time>2020-05-10T12:01:54Z</time>
      </trkpt>
      <trkpt lat="48.78078" lon="7.36104">
        <ele>396.4</ele>
        <time>2020-05-10T12:01:55Z</time>
      </trkpt>
      <trkpt lat="48.78075" lon="7.36102">
        <ele>396.3</ele>
        <time>2020-05-10T12:01:56Z</time>
      </trkpt>
      <trkpt lat="48.78068" lon="7.361">
        <ele>396.2</ele>
        <time>2020-05-10T12:01:58Z</time>
      </trkpt>
      <trkpt lat="48.78064" lon="7.361">
        <ele>396.1</ele>
        <time>2020-05-10T12:01:59Z</time>
      </trkpt>
      <trkpt lat="48.78056" lon="7.36107">
        <ele>395.7</ele>
        <time>2020-05-10T12:02:01Z</time>
      </trkpt>
      <trkpt lat="48.78048" lon="7.36111">
        <ele>395.2</ele>
        <time>2020-05-10T12:02:03Z</time>
      </trkpt>
      <trkpt lat="48.78039" lon="7.3612">
        <ele>394.4</ele>
        <time>2020-05-10T12:02:05Z</time>
      </trkpt>
      <trkpt lat="48.78031" lon="7.36128">
        <ele>393.7</ele>
        <time>2020-05-10T12:02:07Z</time>
      </trkpt>
      <trkpt lat="48.78027" lon="7.36134">
        <ele>393.2</ele>
        <time>2020-05-10T12:02:08Z</time>
      </trkpt>
      <trkpt lat="48.78022" lon="7.36141">
        <ele>392.7</ele>
        <time>2020-05-10T12:02:09Z</time>
      </trkpt>
      <trkpt lat="48.7802" lon="7.36162">
        <ele>391.5</ele>
        <time>2020-05-10T12:02:11Z</time>
      </trkpt>
      <trkpt lat="48.78021" lon="7.36182">
        <ele>390.5</ele>
        <time>2020-05-10T12:02:13Z</time>
      </trkpt>
      <trkpt lat="48.78021" lon="7.36193">
        <ele>390.1</ele>
        <time>2020-05-10T12:02:14Z</time>
      </trkpt>
      <trkpt lat="48.78021" lon="7.36216">
        <ele>389.5</ele>
        <time>2020-05-10T12:02:16Z</time>
      </trkpt>
      <trkpt lat="48.78021" lon="7.36226">
        <ele>389.7</ele>
        <time>2020-05-10T12:02:17Z</time>
      </trkpt>
      <trkpt lat="48.7802" lon="7.36241">
        <ele>389.8</ele>
        <time>2020-05-10T12:02:19Z</time>
      </trkpt>
      <trkpt lat="48.78022" lon="7.3625">
        <ele>389.9</ele>
        <time>2020-05-10T12:02:20Z</time>
      </trkpt>
      <trkpt lat="48.78026" lon="7.36264">
        <ele>390.1</ele>
        <time>2020-05-10T12:02:22Z</time>
      </trkpt>
      <trkpt lat="48.78028" lon="7.36273">
        <ele>390.3</ele>
        <time>2020-05-10T12:02:23Z</time>
      </trkpt>
      <trkpt lat="48.78032" lon="7.3629">
        <ele>390.7</ele>
        <time>2020-05-10T12:02:25Z</time>
      </trkpt>
      <trkpt lat="48.78036" lon="7.36305">
        <ele>391.3</ele>
        <time>2020-05-10T12:02:27Z</time>
      </trkpt>
      <trkpt lat="48.78038" lon="7.36312">
        <ele>391.5</ele>
        <time>2020-05-10T12:02:28Z</time>
      </trkpt>
      <trkpt lat="48.78039" lon="7.36319">
        <ele>391.8</ele>
        <time>2020-05-10T12:02:29Z</time>
      </trkpt>
      <trkpt lat="48.78043" lon="7.3633">
        <ele>392.1</ele>
        <time>2020-05-10T12:02:31Z</time>
      </trkpt>
      <trkpt lat="48.78045" lon="7.36345">
        <ele>392.5</ele>
        <time>2020-05-10T12:02:33Z</time>
      </trkpt>
      <trkpt lat="48.78047" lon="7.3636">
        <ele>392.8</ele>
        <time>2020-05-10T12:02:35Z</time>
      </trkpt>
      <trkpt lat="48.78049" lon="7.36375">
        <ele>393.1</ele>
        <time>2020-05-10T12:02:37Z</time>
      </trkpt>
      <trkpt lat="48.78049" lon="7.36383">
        <ele>393.3</ele>
        <time>2020-05-10T12:02:38Z</time>
      </trkpt>
      <trkpt lat="48.78052" lon="7.36397">
        <ele>393.6</ele>
        <time>2020-05-10T12:02:40Z</time>
      </trkpt>
      <trkpt lat="48.78053" lon="7.36413">
        <ele>394.1</ele>
        <time>2020-05-10T12:02:42Z</time>
      </trkpt>
      <trkpt lat="48.78056" lon="7.36426">
        <ele>394.7</ele>
        <time>2020-05-10T12:02:44Z</time>
      </trkpt>
      <trkpt lat="48.78057" lon="7.36432">
        <ele>394.9</ele>
        <time>2020-05-10T12:02:45Z</time>
      </trkpt>
      <trkpt lat="48.78058" lon="7.36446">
        <ele>395.5</ele>
        <time>2020-05-10T12:02:47Z</time>
      </trkpt>
      <trkpt lat="48.78061" lon="7.3646">
        <ele>396</ele>
        <time>2020-05-10T12:02:49Z</time>
      </trkpt>
      <trkpt lat="48.78066" lon="7.36469">
        <ele>396.4</ele>
        <time>2020-05-10T12:02:51Z</time>
      </trkpt>
      <trkpt lat="48.78066" lon="7.36473">
        <ele>396.5</ele>
        <time>2020-05-10T12:02:52Z</time>
      </trkpt>
      <trkpt lat="48.78068" lon="7.36485">
        <ele>396.8</ele>
        <time>2020-05-10T12:02:54Z</time>
      </trkpt>
      <trkpt lat="48.78068" lon="7.36491">
        <ele>396.7</ele>
        <time>2020-05-10T12:02:55Z</time>
      </trkpt>
      <trkpt lat="48.78067" lon="7.36498">
        <ele>396.6</ele>
        <time>2020-05-10T12:02:56Z</time>
      </trkpt>
      <trkpt lat="48.78066" lon="7.36513">
        <ele>396.2</ele>
        <time>2020-05-10T12:02:58Z</time>
      </trkpt>
      <trkpt lat="48.78066" lon="7.36521">
        <ele>395.9</ele>
        <time>2020-05-10T12:02:59Z</time>
      </trkpt>
      <trkpt lat="48.78065" lon="7.36534">
        <ele>395.5</ele>
        <time>2020-05-10T12:03:00Z</time>
      </trkpt>
      <trkpt lat="48.78066" lon="7.36549">
        <ele>395.1</ele>
        <time>2020-05-10T12:03:02Z</time>
      </trkpt>
      <trkpt lat="48.78066" lon="7.36566">
        <ele>394.7</ele>
        <time>2020-05-10T12:03:04Z</time>
      </trkpt>
      <trkpt lat="48.78069" lon="7.3658">
        <ele>394.5</ele>
        <time>2020-05-10T12:03:06Z</time>
      </trkpt>
      <trkpt lat="48.7807" lon="7.36599">
        <ele>394.3</ele>
        <time>2020-05-10T12:03:08Z</time>
      </trkpt>
      <trkpt lat="48.78069" lon="7.36609">
        <ele>394.1</ele>
        <time>2020-05-10T12:03:09Z</time>
      </trkpt>
      <trkpt lat="48.78065" lon="7.36625">
        <ele>393.7</ele>
        <time>2020-05-10T12:03:11Z</time>
      </trkpt>
      <trkpt lat="48.78064" lon="7.36631">
        <ele>393.5</ele>
        <time>2020-05-10T12:03:12Z</time>
      </trkpt>
      <trkpt lat="48.7806" lon="7.36637">
        <ele>393.3</ele>
        <time>2020-05-10T12:03:13Z</time>
      </trkpt>
      <trkpt lat="48.78054" lon="7.36648">
        <ele>392.8</ele>
        <time>2020-05-10T12:03:15Z</time>
      </trkpt>
      <trkpt lat="48.7805" lon="7.36667">
        <ele>392.2</ele>
        <time>2020-05-10T12:03:17Z</time>
      </trkpt>
      <trkpt lat="48.78047" lon="7.36688">
        <ele>391.6</ele>
        <time>2020-05-10T12:03:19Z</time>
      </trkpt>
      <trkpt lat="48.78044" lon="7.36696">
        <ele>391.4</ele>
        <time>2020-05-10T12:03:20Z</time>
      </trkpt>
      <trkpt lat="48.78042" lon="7.36704">
        <ele>391.2</ele>
        <time>2020-05-10T12:03:21Z</time>
      </trkpt>
      <trkpt lat="48.78041" lon="7.36713">
        <ele>391</ele>
        <time>2020-05-10T12:03:22Z</time>
      </trkpt>
      <trkpt lat="48.7804" lon="7.36729">
        <ele>390.8</ele>
        <time>2020-05-10T12:03:24Z</time>
      </trkpt>
      <trkpt lat="48.78037" lon="7.36747">
        <ele>390.7</ele>
        <time>2020-05-10T12:03:26Z</time>
      </trkpt>
      <trkpt lat="48.78037" lon="7.36764">
        <ele>390.7</ele>
        <time>2020-05-10T12:03:28Z</time>
      </trkpt>
      <trkpt lat="48.78037" lon="7.36771">
        <ele>390.7</ele>
        <time>2020-05-10T12:03:29Z</time>
      </trkpt>
      <trkpt lat="48.78039" lon="7.3678">
        <ele>390.7</ele>
        <time>2020-05-10T12:03:30Z</time>
      </trkpt>
      <trkpt lat="48.7804" lon="7.36795">
        <ele>390.8</ele>
        <time>2020-05-10T12:03:32Z</time>
      </trkpt>
      <trkpt lat="48.78041" lon="7.36801">
        <ele>390.8</ele>
        <time>2020-05-10T12:03:33Z</time>
      </trkpt>
      <trkpt lat="48.78042" lon="7.36806">
        <ele>390.8</ele>
        <time>2020-05-10T12:03:34Z</time>
      </trkpt>
      <trkpt lat="48.78042" lon="7.36822">
        <ele>390.8</ele>
        <time>2020-05-10T12:03:36Z</time>
      </trkpt>
      <trkpt lat="48.78043" lon="7.36829">
        <ele>390.8</ele>
        <time>2020-05-10T12:03:37Z</time>
      </trkpt>
      <trkpt lat="48.78046" lon="7.36842">
        <ele>390.8</ele>
        <time>2020-05-10T12:03:39Z</time>
      </trkpt>
      <trkpt lat="48.78048" lon="7.36849">
        <ele>390.8</ele>
        <time>2020-05-10T12:03:40Z</time>
      </trkpt>
      <trkpt lat="48.78049" lon="7.36855">
        <ele>390.7</ele>
        <time>2020-05-10T12:03:41Z</time>
      </trkpt>
      <trkpt lat="48.7805" lon="7.3686">
        <ele>390.7</ele>
        <time>2020-05-10T12:03:42Z</time>
      </trkpt>
      <trkpt lat="48.78051" lon="7.36872">
        <ele>390.7</ele>
        <time>2020-05-10T12:03:44Z</time>
      </trkpt>
      <trkpt lat="48.78052" lon="7.36885">
        <ele>390.6</ele>
        <time>2020-05-10T12:03:46Z</time>
      </trkpt>
      <trkpt lat="48.78053" lon="7.36889">
        <ele>390.5</ele>
        <time>2020-05-10T12:03:47Z</time>
      </trkpt>
      <trkpt lat="48.78054" lon="7.36893">
        <ele>390.5</ele>
        <time>2020-05-10T12:03:49Z</time>
      </trkpt>
      <trkpt lat="48.78055" lon="7.36898">
        <ele>390.4</ele>
        <time>2020-05-10T12:03:50Z</time>
      </trkpt>
      <trkpt lat="48.78056" lon="7.36904">
        <ele>390.3</ele>
        <time>2020-05-10T12:03:51Z</time>
      </trkpt>
      <trkpt lat="48.78057" lon="7.36909">
        <ele>390.2</ele>
        <time>2020-05-10T12:03:52Z</time>
      </trkpt>
      <trkpt lat="48.78059" lon="7.36933">
        <ele>389.2</ele>
        <time>2020-05-10T12:03:54Z</time>
      </trkpt>
      <trkpt lat="48.78059" lon="7.36945">
        <ele>386.4</ele>
        <time>2020-05-10T12:03:55Z</time>
      </trkpt>
      <trkpt lat="48.78058" lon="7.36951">
        <ele>386.4</ele>
        <time>2020-05-10T12:03:56Z</time>
      </trkpt>
      <trkpt lat="48.7806" lon="7.36959">
        <ele>386.4</ele>
        <time>2020-05-10T12:03:58Z</time>
      </trkpt>
      <trkpt lat="48.78062" lon="7.36966">
        <ele>386.4</ele>
        <time>2020-05-10T12:04:00Z</time>
      </trkpt>
      <trkpt lat="48.78065" lon="7.3697">
        <ele>386.3</ele>
        <time>2020-05-10T12:04:01Z</time>
      </trkpt>
      <trkpt lat="48.78068" lon="7.36973">
        <ele>386.3</ele>
        <time>2020-05-10T12:04:03Z</time>
      </trkpt>
      <trkpt lat="48.78075" lon="7.36979">
        <ele>386.1</ele>
        <time>2020-05-10T12:04:05Z</time>
      </trkpt>
      <trkpt lat="48.78079" lon="7.3699">
        <ele>385.7</ele>
        <time>2020-05-10T12:04:07Z</time>
      </trkpt>
      <trkpt lat="48.7808" lon="7.36992">
        <ele>385.6</ele>
        <time>2020-05-10T12:04:08Z</time>
      </trkpt>
      <trkpt lat="48.7808" lon="7.36992">
        <ele>385.6</ele>
        <time>2020-05-10T12:04:10Z</time>
      </trkpt>
      <trkpt lat="48.7808" lon="7.36994">
        <ele>385.5</ele>
        <time>2020-05-10T12:04:12Z</time>
      </trkpt>
      <trkpt lat="48.7808" lon="7.36995">
        <ele>385.5</ele>
        <time>2020-05-10T12:04:13Z</time>
      </trkpt>
      <trkpt lat="48.78081" lon="7.36996">
        <ele>385.4</ele>
        <time>2020-05-10T12:04:14Z</time>
      </trkpt>
      <trkpt lat="48.78082" lon="7.36998">
        <ele>385.3</ele>
        <time>2020-05-10T12:04:16Z</time>
      </trkpt>
      <trkpt lat="48.78082" lon="7.36999">
        <ele>385.2</ele>
        <time>2020-05-10T12:04:18Z</time>
      </trkpt>
      <trkpt lat="48.78082" lon="7.37">
        <ele>385.1</ele>
        <time>2020-05-10T12:04:19Z</time>
      </trkpt>
      <trkpt lat="48.78082" lon="7.37001">
        <ele>385.1</ele>
        <time>2020-05-10T12:04:20Z</time>
      </trkpt>
      <trkpt lat="48.78082" lon="7.37002">
        <ele>385</ele>
        <time>2020-05-10T12:04:21Z</time>
      </trkpt>
      <trkpt lat="48.78083" lon="7.37002">
        <ele>385</ele>
        <time>2020-05-10T12:04:22Z</time>
      </trkpt>
      <trkpt lat="48.78083" lon="7.37004">
        <ele>384.8</ele>
        <time>2020-05-10T12:04:24Z</time>
      </trkpt>
      <trkpt lat="48.78083" lon="7.37004">
        <ele>384.8</ele>
        <time>2020-05-10T12:04:25Z</time>
      </trkpt>
      <trkpt lat="48.78083" lon="7.37005">
        <ele>384.8</ele>
        <time>2020-05-10T12:04:26Z</time>
      </trkpt>
      <trkpt lat="48.78082" lon="7.37006">
        <ele>384.7</ele>
        <time>2020-05-10T12:04:28Z</time>
      </trkpt>
      <trkpt lat="48.78082" lon="7.37009">
        <ele>384.5</ele>
        <time>2020-05-10T12:04:30Z</time>
      </trkpt>
      <trkpt lat="48.78082" lon="7.3701">
        <ele>384.4</ele>
        <time>2020-05-10T12:04:31Z</time>
      </trkpt>
      <trkpt lat="48.78083" lon="7.3701">
        <ele>384.4</ele>
        <time>2020-05-10T12:04:32Z</time>
      </trkpt>
      <trkpt lat="48.78082" lon="7.37011">
        <ele>384.3</ele>
        <time>2020-05-10T12:04:34Z</time>
      </trkpt>
      <trkpt lat="48.78083" lon="7.37013">
        <ele>384.2</ele>
        <time>2020-05-10T12:04:36Z</time>
      </trkpt>
      <trkpt lat="48.78085" lon="7.3702">
        <ele>383.5</ele>
        <time>2020-05-10T12:04:38Z</time>
      </trkpt>
      <trkpt lat="48.78086" lon="7.37025">
        <ele>383</ele>
        <time>2020-05-10T12:04:39Z</time>
      </trkpt>
      <trkpt lat="48.7809" lon="7.37034">
        <ele>382.1</ele>
        <time>2020-05-10T12:04:41Z</time>
      </trkpt>
      <trkpt lat="48.78091" lon="7.37035">
        <ele>381.9</ele>
        <time>2020-05-10T12:04:42Z</time>
      </trkpt>
      <trkpt lat="48.78091" lon="7.37038">
        <ele>381.7</ele>
        <time>2020-05-10T12:04:43Z</time>
      </trkpt>
      <trkpt lat="48.78092" lon="7.37041">
        <ele>381.4</ele>
        <time>2020-05-10T12:04:45Z</time>
      </trkpt>
      <trkpt lat="48.78095" lon="7.37045">
        <ele>380.9</ele>
        <time>2020-05-10T12:04:47Z</time>
      </trkpt>
      <trkpt lat="48.78097" lon="7.37048">
        <ele>380.6</ele>
        <time>2020-05-10T12:04:49Z</time>
      </trkpt>
      <trkpt lat="48.78099" lon="7.37054">
        <ele>379.9</ele>
        <time>2020-05-10T12:04:51Z</time>
      </trkpt>
      <trkpt lat="48.78099" lon="7.37057">
        <ele>379.7</ele>
        <time>2020-05-10T12:04:53Z</time>
      </trkpt>
      <trkpt lat="48.78099" lon="7.37058">
        <ele>379.6</ele>
        <time>2020-05-10T12:04:55Z</time>
      </trkpt>
      <trkpt lat="48.78099" lon="7.37059">
        <ele>379.5</ele>
        <time>2020-05-10T12:04:57Z</time>
      </trkpt>
      <trkpt lat="48.78099" lon="7.37061">
        <ele>379.3</ele>
        <time>2020-05-10T12:04:58Z</time>
      </trkpt>
      <trkpt lat="48.78098" lon="7.37062">
        <ele>379.1</ele>
        <time>2020-05-10T12:04:59Z</time>
      </trkpt>
      <trkpt lat="48.78096" lon="7.37063">
        <ele>378.9</ele>
        <time>2020-05-10T12:05:01Z</time>
      </trkpt>
      <trkpt lat="48.78095" lon="7.37064">
        <ele>378.7</ele>
        <time>2020-05-10T12:05:02Z</time>
      </trkpt>
      <trkpt lat="48.78094" lon="7.37063">
        <ele>378.6</ele>
        <time>2020-05-10T12:05:04Z</time>
      </trkpt>
      <trkpt lat="48.78092" lon="7.37063">
        <ele>378.3</ele>
        <time>2020-05-10T12:05:06Z</time>
      </trkpt>
      <trkpt lat="48.7809" lon="7.37062">
        <ele>378</ele>
        <time>2020-05-10T12:05:08Z</time>
      </trkpt>
      <trkpt lat="48.78089" lon="7.37062">
        <ele>377.8</ele>
        <time>2020-05-10T12:05:09Z</time>
      </trkpt>
      <trkpt lat="48.78088" lon="7.37062">
        <ele>377.7</ele>
        <time>2020-05-10T12:05:10Z</time>
      </trkpt>
      <trkpt lat="48.78087" lon="7.37062">
        <ele>377.6</ele>
        <time>2020-05-10T12:05:12Z</time>
      </trkpt>
      <trkpt lat="48.78087" lon="7.37063">
        <ele>377.4</ele>
        <time>2020-05-10T12:05:14Z</time>
      </trkpt>
      <trkpt lat="48.78087" lon="7.37064">
        <ele>377.4</ele>
        <time>2020-05-10T12:05:15Z</time>
      </trkpt>
      <trkpt lat="48.78088" lon="7.37065">
        <ele>377.2</ele>
        <time>2020-05-10T12:05:17Z</time>
      </trkpt>
      <trkpt lat="48.78088" lon="7.37065">
        <ele>377.2</ele>
        <time>2020-05-10T12:05:18Z</time>
      </trkpt>
      <trkpt lat="48.78088" lon="7.37064">
        <ele>377.2</ele>
        <time>2020-05-10T12:05:19Z</time>
      </trkpt>
      <trkpt lat="48.78089" lon="7.37065">
        <ele>377</ele>
        <time>2020-05-10T12:05:21Z</time>
      </trkpt>
      <trkpt lat="48.78091" lon="7.37066">
        <ele>376.8</ele>
        <time>2020-05-10T12:05:22Z</time>
      </trkpt>
      <trkpt lat="48.78094" lon="7.37074">
        <ele>374.5</ele>
        <time>2020-05-10T12:05:24Z</time>
      </trkpt>
      <trkpt lat="48.78095" lon="7.37078">
        <ele>374.5</ele>
        <time>2020-05-10T12:05:25Z</time>
      </trkpt>
      <trkpt lat="48.781" lon="7.37083">
        <ele>374.4</ele>
        <time>2020-05-10T12:05:27Z</time>
      </trkpt>
      <trkpt lat="48.78102" lon="7.37084">
        <ele>374.4</ele>
        <time>2020-05-10T12:05:28Z</time>
      </trkpt>
      <trkpt lat="48.78107" lon="7.37084">
        <ele>374.3</ele>
        <time>2020-05-10T12:05:30Z</time>
      </trkpt>
      <trkpt lat="48.78111" lon="7.37086">
        <ele>374.4</ele>
        <time>2020-05-10T12:05:31Z</time>
      </trkpt>
      <trkpt lat="48.78113" lon="7.37088">
        <ele>374.4</ele>
        <time>2020-05-10T12:05:32Z</time>
      </trkpt>
      <trkpt lat="48.78118" lon="7.37092">
        <ele>374.4</ele>
        <time>2020-05-10T12:05:34Z</time>
      </trkpt>
      <trkpt lat="48.78121" lon="7.37098">
        <ele>374.3</ele>
        <time>2020-05-10T12:05:36Z</time>
      </trkpt>
      <trkpt lat="48.78123" lon="7.37101">
        <ele>374.3</ele>
        <time>2020-05-10T12:05:37Z</time>
      </trkpt>
      <trkpt lat="48.78126" lon="7.37105">
        <ele>374.1</ele>
        <time>2020-05-10T12:05:39Z</time>
      </trkpt>
      <trkpt lat="48.7813" lon="7.3711">
        <ele>374</ele>
        <time>2020-05-10T12:05:41Z</time>
      </trkpt>
      <trkpt lat="48.78132" lon="7.37112">
        <ele>375</ele>
        <time>2020-05-10T12:05:42Z</time>
      </trkpt>
      <trkpt lat="48.78139" lon="7.37115">
        <ele>375.5</ele>
        <time>2020-05-10T12:05:44Z</time>
      </trkpt>
      <trkpt lat="48.78145" lon="7.37119">
        <ele>376.3</ele>
        <time>2020-05-10T12:05:46Z</time>
      </trkpt>
      <trkpt lat="48.78149" lon="7.3712">
        <ele>377.4</ele>
        <time>2020-05-10T12:05:47Z</time>
      </trkpt>
      <trkpt lat="48.78154" lon="7.37123">
        <ele>378.6</ele>
        <time>2020-05-10T12:05:49Z</time>
      </trkpt>
      <trkpt lat="48.78159" lon="7.37125">
        <ele>378.8</ele>
        <time>2020-05-10T12:05:51Z</time>
      </trkpt>
      <trkpt lat="48.7816" lon="7.37126">
        <ele>379.8</ele>
        <time>2020-05-10T12:05:52Z</time>
      </trkpt>
      <trkpt lat="48.78165" lon="7.37127">
        <ele>381.1</ele>
        <time>2020-05-10T12:05:54Z</time>
      </trkpt>
      <trkpt lat="48.78169" lon="7.37125">
        <ele>382.1</ele>
        <time>2020-05-10T12:05:56Z</time>
      </trkpt>
      <trkpt lat="48.78171" lon="7.37123">
        <ele>383.1</ele>
        <time>2020-05-10T12:05:57Z</time>
      </trkpt>
      <trkpt lat="48.78175" lon="7.37122">
        <ele>384.9</ele>
        <time>2020-05-10T12:05:58Z</time>
      </trkpt>
      <trkpt lat="48.7818" lon="7.37123">
        <ele>385.3</ele>
        <time>2020-05-10T12:06:00Z</time>
      </trkpt>
      <trkpt lat="48.78182" lon="7.37124">
        <ele>386.2</ele>
        <time>2020-05-10T12:06:01Z</time>
      </trkpt>
      <trkpt lat="48.78186" lon="7.37124">
        <ele>387.2</ele>
        <time>2020-05-10T12:06:03Z</time>
      </trkpt>
      <trkpt lat="48.78189" lon="7.37126">
        <ele>388.2</ele>
        <time>2020-05-10T12:06:04Z</time>
      </trkpt>
      <trkpt lat="48.7819" lon="7.37126">
        <ele>389</ele>
        <time>2020-05-10T12:06:05Z</time>
      </trkpt>
      <trkpt lat="48.78193" lon="7.37128">
        <ele>389.4</ele>
        <time>2020-05-10T12:06:06Z</time>
      </trkpt>
      <trkpt lat="48.78194" lon="7.37128">
        <ele>390.1</ele>
        <time>2020-05-10T12:06:07Z</time>
      </trkpt>
      <trkpt lat="48.78198" lon="7.37129">
        <ele>391.1</ele>
        <time>2020-05-10T12:06:09Z</time>
      </trkpt>
      <trkpt lat="48.78202" lon="7.3713">
        <ele>392.5</ele>
        <time>2020-05-10T12:06:11Z</time>
      </trkpt>
      <trkpt lat="48.78205" lon="7.37131">
        <ele>392.6</ele>
        <time>2020-05-10T12:06:12Z</time>
      </trkpt>
      <trkpt lat="48.78208" lon="7.37131">
        <ele>392.8</ele>
        <time>2020-05-10T12:06:14Z</time>
      </trkpt>
      <trkpt lat="48.78212" lon="7.37133">
        <ele>393.1</ele>
        <time>2020-05-10T12:06:16Z</time>
      </trkpt>
      <trkpt lat="48.78216" lon="7.37134">
        <ele>393.3</ele>
        <time>2020-05-10T12:06:17Z</time>
      </trkpt>
      <trkpt lat="48.78217" lon="7.37134">
        <ele>393.4</ele>
        <time>2020-05-10T12:06:18Z</time>
      </trkpt>
      <trkpt lat="48.78222" lon="7.37134">
        <ele>393.7</ele>
        <time>2020-05-10T12:06:20Z</time>
      </trkpt>
      <trkpt lat="48.78223" lon="7.37134">
        <ele>393.8</ele>
        <time>2020-05-10T12:06:21Z</time>
      </trkpt>
      <trkpt lat="48.78228" lon="7.37133">
        <ele>394.1</ele>
        <time>2020-05-10T12:06:23Z</time>
      </trkpt>
      <trkpt lat="48.78232" lon="7.37132">
        <ele>394.3</ele>
        <time>2020-05-10T12:06:25Z</time>
      </trkpt>
      <trkpt lat="48.78234" lon="7.37132">
        <ele>394.4</ele>
        <time>2020-05-10T12:06:26Z</time>
      </trkpt>
      <trkpt lat="48.78235" lon="7.37133">
        <ele>394.4</ele>
        <time>2020-05-10T12:06:27Z</time>
      </trkpt>
      <trkpt lat="48.7824" lon="7.37133">
        <ele>394.7</ele>
        <time>2020-05-10T12:06:29Z</time>
      </trkpt>
      <trkpt lat="48.78242" lon="7.37132">
        <ele>394.7</ele>
        <time>2020-05-10T12:06:30Z</time>
      </trkpt>
      <trkpt lat="48.78246" lon="7.37132">
        <ele>394.9</ele>
        <time>2020-05-10T12:06:32Z</time>
      </trkpt>
      <trkpt lat="48.78247" lon="7.37131">
        <ele>394.9</ele>
        <time>2020-05-10T12:06:33Z</time>
      </trkpt>
      <trkpt lat="48.7825" lon="7.37129">
        <ele>395.1</ele>
        <time>2020-05-10T12:06:35Z</time>
      </trkpt>
      <trkpt lat="48.78252" lon="7.37128">
        <ele>395.1</ele>
        <time>2020-05-10T12:06:36Z</time>
      </trkpt>
      <trkpt lat="48.78254" lon="7.37127">
        <ele>395.2</ele>
        <time>2020-05-10T12:06:37Z</time>
      </trkpt>
      <trkpt lat="48.78256" lon="7.37127">
        <ele>395.2</ele>
        <time>2020-05-10T12:06:38Z</time>
      </trkpt>
      <trkpt lat="48.7826" lon="7.37128">
        <ele>395.3</ele>
        <time>2020-05-10T12:06:40Z</time>
      </trkpt>
      <trkpt lat="48.78262" lon="7.37128">
        <ele>395.4</ele>
        <time>2020-05-10T12:06:41Z</time>
      </trkpt>
      <trkpt lat="48.78264" lon="7.37128">
        <ele>395.4</ele>
        <time>2020-05-10T12:06:42Z</time>
      </trkpt>
      <trkpt lat="48.78268" lon="7.37127">
        <ele>395.5</ele>
        <time>2020-05-10T12:06:44Z</time>
      </trkpt>
      <trkpt lat="48.7827" lon="7.37126">
        <ele>395.5</ele>
        <time>2020-05-10T12:06:45Z</time>
      </trkpt>
      <trkpt lat="48.78271" lon="7.37125">
        <ele>395.5</ele>
        <time>2020-05-10T12:06:46Z</time>
      </trkpt>
      <trkpt lat="48.78274" lon="7.37124">
        <ele>395.6</ele>
        <time>2020-05-10T12:06:48Z</time>
      </trkpt>
      <trkpt lat="48.78277" lon="7.37123">
        <ele>395.6</ele>
        <time>2020-05-10T12:06:50Z</time>
      </trkpt>
      <trkpt lat="48.78279" lon="7.37121">
        <ele>395.6</ele>
        <time>2020-05-10T12:06:51Z</time>
      </trkpt>
      <trkpt lat="48.7828" lon="7.3712">
        <ele>395.7</ele>
        <time>2020-05-10T12:06:53Z</time>
      </trkpt>
      <trkpt lat="48.78282" lon="7.37117">
        <ele>395.7</ele>
        <time>2020-05-10T12:06:55Z</time>
      </trkpt>
      <trkpt lat="48.78285" lon="7.37115">
        <ele>395.7</ele>
        <time>2020-05-10T12:06:57Z</time>
      </trkpt>
      <trkpt lat="48.78288" lon="7.37113">
        <ele>395.8</ele>
        <time>2020-05-10T12:06:59Z</time>
      </trkpt>
      <trkpt lat="48.78291" lon="7.37112">
        <ele>395.8</ele>
        <time>2020-05-10T12:07:00Z</time>
      </trkpt>
      <trkpt lat="48.78294" lon="7.37111">
        <ele>395.9</ele>
        <time>2020-05-10T12:07:01Z</time>
      </trkpt>
      <trkpt lat="48.78294" lon="7.37111">
        <ele>395.9</ele>
        <time>2020-05-10T12:07:02Z</time>
      </trkpt>
      <trkpt lat="48.78297" lon="7.37111">
        <ele>395.9</ele>
        <time>2020-05-10T12:07:04Z</time>
      </trkpt>
      <trkpt lat="48.78302" lon="7.3711">
        <ele>395.9</ele>
        <time>2020-05-10T12:07:06Z</time>
      </trkpt>
      <trkpt lat="48.78305" lon="7.37109">
        <ele>396</ele>
        <time>2020-05-10T12:07:07Z</time>
      </trkpt>
      <trkpt lat="48.78309" lon="7.37107">
        <ele>396</ele>
        <time>2020-05-10T12:07:09Z</time>
      </trkpt>
      <trkpt lat="48.78312" lon="7.37105">
        <ele>395.9</ele>
        <time>2020-05-10T12:07:11Z</time>
      </trkpt>
      <trkpt lat="48.78314" lon="7.37104">
        <ele>395.9</ele>
        <time>2020-05-10T12:07:12Z</time>
      </trkpt>
      <trkpt lat="48.78318" lon="7.371">
        <ele>395.9</ele>
        <time>2020-05-10T12:07:14Z</time>
      </trkpt>
      <trkpt lat="48.7832" lon="7.37099">
        <ele>395.9</ele>
        <time>2020-05-10T12:07:15Z</time>
      </trkpt>
      <trkpt lat="48.78321" lon="7.371">
        <ele>395.8</ele>
        <time>2020-05-10T12:07:17Z</time>
      </trkpt>
      <trkpt lat="48.78324" lon="7.371">
        <ele>395.8</ele>
        <time>2020-05-10T12:07:19Z</time>
      </trkpt>
      <trkpt lat="48.78327" lon="7.37102">
        <ele>395.8</ele>
        <time>2020-05-10T12:07:21Z</time>
      </trkpt>
      <trkpt lat="48.78328" lon="7.37102">
        <ele>395.7</ele>
        <time>2020-05-10T12:07:22Z</time>
      </trkpt>
      <trkpt lat="48.7833" lon="7.37102">
        <ele>395.7</ele>
        <time>2020-05-10T12:07:24Z</time>
      </trkpt>
      <trkpt lat="48.78332" lon="7.37102">
        <ele>395.7</ele>
        <time>2020-05-10T12:07:25Z</time>
      </trkpt>
      <trkpt lat="48.78335" lon="7.37101">
        <ele>395.6</ele>
        <time>2020-05-10T12:07:27Z</time>
      </trkpt>
      <trkpt lat="48.78339" lon="7.37101">
        <ele>395.6</ele>
        <time>2020-05-10T12:07:29Z</time>
      </trkpt>
      <trkpt lat="48.7834" lon="7.37102">
        <ele>395.5</ele>
        <time>2020-05-10T12:07:30Z</time>
      </trkpt>
      <trkpt lat="48.78343" lon="7.37102">
        <ele>395.5</ele>
        <time>2020-05-10T12:07:32Z</time>
      </trkpt>
      <trkpt lat="48.78344" lon="7.37103">
        <ele>395.5</ele>
        <time>2020-05-10T12:07:33Z</time>
      </trkpt>
      <trkpt lat="48.78346" lon="7.37103">
        <ele>395.4</ele>
        <time>2020-05-10T12:07:35Z</time>
      </trkpt>
      <trkpt lat="48.78348" lon="7.37103">
        <ele>395.4</ele>
        <time>2020-05-10T12:07:37Z</time>
      </trkpt>
      <trkpt lat="48.78349" lon="7.37103">
        <ele>395.4</ele>
        <time>2020-05-10T12:07:38Z</time>
      </trkpt>
      <trkpt lat="48.7835" lon="7.37103">
        <ele>395.4</ele>
        <time>2020-05-10T12:07:39Z</time>
      </trkpt>
      <trkpt lat="48.7835" lon="7.37102">
        <ele>395.4</ele>
        <time>2020-05-10T12:07:40Z</time>
      </trkpt>
      <trkpt lat="48.78351" lon="7.37102">
        <ele>395.4</ele>
        <time>2020-05-10T12:07:41Z</time>
      </trkpt>
      <trkpt lat="48.78352" lon="7.371">
        <ele>395.3</ele>
        <time>2020-05-10T12:07:43Z</time>
      </trkpt>
      <trkpt lat="48.78353" lon="7.371">
        <ele>395.3</ele>
        <time>2020-05-10T12:07:45Z</time>
      </trkpt>
      <trkpt lat="48.78354" lon="7.37101">
        <ele>395.4</ele>
        <time>2020-05-10T12:07:47Z</time>
      </trkpt>
      <trkpt lat="48.78354" lon="7.37101">
        <ele>395.4</ele>
        <time>2020-05-10T12:07:49Z</time>
      </trkpt>
      <trkpt lat="48.78354" lon="7.37102">
        <ele>395.4</ele>
        <time>2020-05-10T12:07:51Z</time>
      </trkpt>
      <trkpt lat="48.78354" lon="7.37102">
        <ele>395.4</ele>
        <time>2020-05-10T12:07:53Z</time>
      </trkpt>
      <trkpt lat="48.78354" lon="7.37102">
        <ele>395.4</ele>
        <time>2020-05-10T12:07:54Z</time>
      </trkpt>
      <trkpt lat="48.78355" lon="7.37102">
        <ele>395.4</ele>
        <time>2020-05-10T12:07:56Z</time>
      </trkpt>
      <trkpt lat="48.78355" lon="7.37103">
        <ele>395.5</ele>
        <time>2020-05-10T12:07:58Z</time>
      </trkpt>
      <trkpt lat="48.78355" lon="7.37103">
        <ele>395.5</ele>
        <time>2020-05-10T12:08:00Z</time>
      </trkpt>
      <trkpt lat="48.78355" lon="7.37103">
        <ele>395.5</ele>
        <time>2020-05-10T12:08:00Z</time>
      </trkpt>
      <trkpt lat="48.78356" lon="7.37102">
        <ele>395.6</ele>
        <time>2020-05-10T12:08:02Z</time>
      </trkpt>
      <trkpt lat="48.78357" lon="7.37101">
        <ele>395.6</ele>
        <time>2020-05-10T12:08:04Z</time>
      </trkpt>
      <trkpt lat="48.78357" lon="7.371">
        <ele>395.7</ele>
        <time>2020-05-10T12:08:05Z</time>
      </trkpt>
      <trkpt lat="48.78358" lon="7.371">
        <ele>395.7</ele>
        <time>2020-05-10T12:08:07Z</time>
      </trkpt>
      <trkpt lat="48.78359" lon="7.37099">
        <ele>395.8</ele>
        <time>2020-05-10T12:08:09Z</time>
      </trkpt>
      <trkpt lat="48.78359" lon="7.37098">
        <ele>395.9</ele>
        <time>2020-05-10T12:08:11Z</time>
      </trkpt>
      <trkpt lat="48.7836" lon="7.37097">
        <ele>395.9</ele>
        <time>2020-05-10T12:08:12Z</time>
      </trkpt>
      <trkpt lat="48.78361" lon="7.37097">
        <ele>396</ele>
        <time>2020-05-10T12:08:13Z</time>
      </trkpt>
      <trkpt lat="48.78361" lon="7.37096">
        <ele>396</ele>
        <time>2020-05-10T12:08:15Z</time>
      </trkpt>
      <trkpt lat="48.78362" lon="7.37095">
        <ele>396.1</ele>
        <time>2020-05-10T12:08:16Z</time>
      </trkpt>
      <trkpt lat="48.78362" lon="7.37094">
        <ele>396.1</ele>
        <time>2020-05-10T12:08:18Z</time>
      </trkpt>
      <trkpt lat="48.78363" lon="7.37094">
        <ele>396.2</ele>
        <time>2020-05-10T12:08:19Z</time>
      </trkpt>
      <trkpt lat="48.78364" lon="7.37093">
        <ele>396.2</ele>
        <time>2020-05-10T12:08:21Z</time>
      </trkpt>
      <trkpt lat="48.78364" lon="7.37092">
        <ele>396.3</ele>
        <time>2020-05-10T12:08:22Z</time>
      </trkpt>
      <trkpt lat="48.78365" lon="7.37092">
        <ele>396.4</ele>
        <time>2020-05-10T12:08:23Z</time>
      </trkpt>
      <trkpt lat="48.78367" lon="7.37091">
        <ele>396.5</ele>
        <time>2020-05-10T12:08:25Z</time>
      </trkpt>
      <trkpt lat="48.78368" lon="7.3709">
        <ele>396.6</ele>
        <time>2020-05-10T12:08:26Z</time>
      </trkpt>
      <trkpt lat="48.78371" lon="7.37083">
        <ele>396.6</ele>
        <time>2020-05-10T12:08:28Z</time>
      </trkpt>
      <trkpt lat="48.78372" lon="7.37075">
        <ele>396.8</ele>
        <time>2020-05-10T12:08:30Z</time>
      </trkpt>
      <trkpt lat="48.78374" lon="7.37069">
        <ele>397</ele>
        <time>2020-05-10T12:08:32Z</time>
      </trkpt>
      <trkpt lat="48.78376" lon="7.37062">
        <ele>397.3</ele>
        <time>2020-05-10T12:08:34Z</time>
      </trkpt>
      <trkpt lat="48.78376" lon="7.37059">
        <ele>397.5</ele>
        <time>2020-05-10T12:08:36Z</time>
      </trkpt>
      <trkpt lat="48.78376" lon="7.37056">
        <ele>397.6</ele>
        <time>2020-05-10T12:08:38Z</time>
      </trkpt>
      <trkpt lat="48.78376" lon="7.37053">
        <ele>397.7</ele>
        <time>2020-05-10T12:08:39Z</time>
      </trkpt>
      <trkpt lat="48.78378" lon="7.37047">
        <ele>398.1</ele>
        <time>2020-05-10T12:08:41Z</time>
      </trkpt>
      <trkpt lat="48.78381" lon="7.37044">
        <ele>398.4</ele>
        <time>2020-05-10T12:08:43Z</time>
      </trkpt>
      <trkpt lat="48.78385" lon="7.37039">
        <ele>398.8</ele>
        <time>2020-05-10T12:08:45Z</time>
      </trkpt>
      <trkpt lat="48.78388" lon="7.37034">
        <ele>399.1</ele>
        <time>2020-05-10T12:08:47Z</time>
      </trkpt>
      <trkpt lat="48.78389" lon="7.37032">
        <ele>399.2</ele>
        <time>2020-05-10T12:08:49Z</time>
      </trkpt>
      <trkpt lat="48.7839" lon="7.3703">
        <ele>399.3</ele>
        <time>2020-05-10T12:08:50Z</time>
      </trkpt>
      <trkpt lat="48.78391" lon="7.37029">
        <ele>399.4</ele>
        <time>2020-05-10T12:08:51Z</time>
      </trkpt>
      <trkpt lat="48.78392" lon="7.37028">
        <ele>399.4</ele>
        <time>2020-05-10T12:08:52Z</time>
      </trkpt>
      <trkpt lat="48.78395" lon="7.37026">
        <ele>399.5</ele>
        <time>2020-05-10T12:08:54Z</time>
      </trkpt>
      <trkpt lat="48.78398" lon="7.37027">
        <ele>399.6</ele>
        <time>2020-05-10T12:08:55Z</time>
      </trkpt>
      <trkpt lat="48.78399" lon="7.37029">
        <ele>399.7</ele>
        <time>2020-05-10T12:08:56Z</time>
      </trkpt>
      <trkpt lat="48.78404" lon="7.3703">
        <ele>399.8</ele>
        <time>2020-05-10T12:08:58Z</time>
      </trkpt>
      <trkpt lat="48.78406" lon="7.37029">
        <ele>399.8</ele>
        <time>2020-05-10T12:08:59Z</time>
      </trkpt>
      <trkpt lat="48.78408" lon="7.37027">
        <ele>399.8</ele>
        <time>2020-05-10T12:09:01Z</time>
      </trkpt>
      <trkpt lat="48.78411" lon="7.37026">
        <ele>399.8</ele>
        <time>2020-05-10T12:09:02Z</time>
      </trkpt>
      <trkpt lat="48.78412" lon="7.37025">
        <ele>399.8</ele>
        <time>2020-05-10T12:09:03Z</time>
      </trkpt>
      <trkpt lat="48.78415" lon="7.37026">
        <ele>399.8</ele>
        <time>2020-05-10T12:09:05Z</time>
      </trkpt>
      <trkpt lat="48.7842" lon="7.37029">
        <ele>399.9</ele>
        <time>2020-05-10T12:09:07Z</time>
      </trkpt>
      <trkpt lat="48.78424" lon="7.37031">
        <ele>399.9</ele>
        <time>2020-05-10T12:09:09Z</time>
      </trkpt>
      <trkpt lat="48.78427" lon="7.37032">
        <ele>399.9</ele>
        <time>2020-05-10T12:09:10Z</time>
      </trkpt>
      <trkpt lat="48.78428" lon="7.37033">
        <ele>399.9</ele>
        <time>2020-05-10T12:09:11Z</time>
      </trkpt>
      <trkpt lat="48.78434" lon="7.37035">
        <ele>400</ele>
        <time>2020-05-10T12:09:13Z</time>
      </trkpt>
      <trkpt lat="48.7844" lon="7.37038">
        <ele>400.1</ele>
        <time>2020-05-10T12:09:15Z</time>
      </trkpt>
      <trkpt lat="48.78444" lon="7.37038">
        <ele>400.1</ele>
        <time>2020-05-10T12:09:17Z</time>
      </trkpt>
      <trkpt lat="48.78447" lon="7.37037">
        <ele>400.2</ele>
        <time>2020-05-10T12:09:18Z</time>
      </trkpt>
      <trkpt lat="48.78448" lon="7.37037">
        <ele>400.2</ele>
        <time>2020-05-10T12:09:19Z</time>
      </trkpt>
      <trkpt lat="48.78453" lon="7.37037">
        <ele>400.3</ele>
        <time>2020-05-10T12:09:21Z</time>
      </trkpt>
      <trkpt lat="48.78458" lon="7.37037">
        <ele>400.5</ele>
        <time>2020-05-10T12:09:23Z</time>
      </trkpt>
      <trkpt lat="48.7846" lon="7.37038">
        <ele>400.5</ele>
        <time>2020-05-10T12:09:24Z</time>
      </trkpt>
      <trkpt lat="48.78461" lon="7.37039">
        <ele>400.6</ele>
        <time>2020-05-10T12:09:25Z</time>
      </trkpt>
      <trkpt lat="48.78467" lon="7.37042">
        <ele>400.7</ele>
        <time>2020-05-10T12:09:27Z</time>
      </trkpt>
      <trkpt lat="48.7847" lon="7.37043">
        <ele>400.8</ele>
        <time>2020-05-10T12:09:28Z</time>
      </trkpt>
      <trkpt lat="48.78474" lon="7.37044">
        <ele>400.9</ele>
        <time>2020-05-10T12:09:30Z</time>
      </trkpt>
      <trkpt lat="48.78476" lon="7.37045">
        <ele>401</ele>
        <time>2020-05-10T12:09:31Z</time>
      </trkpt>
      <trkpt lat="48.78482" lon="7.3705">
        <ele>401.1</ele>
        <time>2020-05-10T12:09:33Z</time>
      </trkpt>
      <trkpt lat="48.78487" lon="7.37058">
        <ele>401.4</ele>
        <time>2020-05-10T12:09:35Z</time>
      </trkpt>
      <trkpt lat="48.78488" lon="7.3706">
        <ele>401.5</ele>
        <time>2020-05-10T12:09:36Z</time>
      </trkpt>
      <trkpt lat="48.78492" lon="7.37064">
        <ele>401.7</ele>
        <time>2020-05-10T12:09:38Z</time>
      </trkpt>
      <trkpt lat="48.78497" lon="7.37067">
        <ele>402.2</ele>
        <time>2020-05-10T12:09:40Z</time>
      </trkpt>
      <trkpt lat="48.785" lon="7.37069">
        <ele>402.4</ele>
        <time>2020-05-10T12:09:41Z</time>
      </trkpt>
      <trkpt lat="48.78502" lon="7.37071">
        <ele>402.6</ele>
        <time>2020-05-10T12:09:42Z</time>
      </trkpt>
      <trkpt lat="48.78505" lon="7.37073">
        <ele>402.9</ele>
        <time>2020-05-10T12:09:43Z</time>
      </trkpt>
      <trkpt lat="48.78506" lon="7.37073">
        <ele>403</ele>
        <time>2020-05-10T12:09:44Z</time>
      </trkpt>
      <trkpt lat="48.78511" lon="7.37076">
        <ele>403.5</ele>
        <time>2020-05-10T12:09:46Z</time>
      </trkpt>
      <trkpt lat="48.78516" lon="7.37078">
        <ele>403.9</ele>
        <time>2020-05-10T12:09:48Z</time>
      </trkpt>
      <trkpt lat="48.78519" lon="7.37078">
        <ele>404.2</ele>
        <time>2020-05-10T12:09:49Z</time>
      </trkpt>
      <trkpt lat="48.78524" lon="7.37079">
        <ele>404.7</ele>
        <time>2020-05-10T12:09:51Z</time>
      </trkpt>
      <trkpt lat="48.78527" lon="7.3708">
        <ele>404.9</ele>
        <time>2020-05-10T12:09:52Z</time>
      </trkpt>
      <trkpt lat="48.78529" lon="7.37082">
        <ele>405.1</ele>
        <time>2020-05-10T12:09:53Z</time>
      </trkpt>
      <trkpt lat="48.78532" lon="7.37088">
        <ele>405.4</ele>
        <time>2020-05-10T12:09:55Z</time>
      </trkpt>
      <trkpt lat="48.78534" lon="7.37091">
        <ele>405.5</ele>
        <time>2020-05-10T12:09:56Z</time>
      </trkpt>
      <trkpt lat="48.78536" lon="7.37096">
        <ele>405.7</ele>
        <time>2020-05-10T12:09:57Z</time>
      </trkpt>
      <trkpt lat="48.78538" lon="7.371">
        <ele>405.9</ele>
        <time>2020-05-10T12:09:58Z</time>
      </trkpt>
      <trkpt lat="48.78539" lon="7.37102">
        <ele>406</ele>
        <time>2020-05-10T12:09:59Z</time>
      </trkpt>
      <trkpt lat="48.78542" lon="7.37107">
        <ele>406.2</ele>
        <time>2020-05-10T12:10:01Z</time>
      </trkpt>
      <trkpt lat="48.78547" lon="7.37112">
        <ele>406.4</ele>
        <time>2020-05-10T12:10:03Z</time>
      </trkpt>
      <trkpt lat="48.78551" lon="7.37116">
        <ele>406.7</ele>
        <time>2020-05-10T12:10:05Z</time>
      </trkpt>
      <trkpt lat="48.78554" lon="7.37119">
        <ele>406.8</ele>
        <time>2020-05-10T12:10:06Z</time>
      </trkpt>
      <trkpt lat="48.7856" lon="7.37124">
        <ele>407.1</ele>
        <time>2020-05-10T12:10:08Z</time>
      </trkpt>
      <trkpt lat="48.78565" lon="7.37131">
        <ele>407.4</ele>
        <time>2020-05-10T12:10:10Z</time>
      </trkpt>
      <trkpt lat="48.78569" lon="7.37138">
        <ele>407.7</ele>
        <time>2020-05-10T12:10:12Z</time>
      </trkpt>
      <trkpt lat="48.78572" lon="7.37141">
        <ele>407.8</ele>
        <time>2020-05-10T12:10:13Z</time>
      </trkpt>
      <trkpt lat="48.78578" lon="7.37146">
        <ele>408</ele>
        <time>2020-05-10T12:10:15Z</time>
      </trkpt>
      <trkpt lat="48.78583" lon="7.37151">
        <ele>408.2</ele>
        <time>2020-05-10T12:10:17Z</time>
      </trkpt>
      <trkpt lat="48.78588" lon="7.37156">
        <ele>408.4</ele>
        <time>2020-05-10T12:10:19Z</time>
      </trkpt>
      <trkpt lat="48.78593" lon="7.37161">
        <ele>408.7</ele>
        <time>2020-05-10T12:10:21Z</time>
      </trkpt>
      <trkpt lat="48.78597" lon="7.37164">
        <ele>408.8</ele>
        <time>2020-05-10T12:10:23Z</time>
      </trkpt>
      <trkpt lat="48.78603" lon="7.37167">
        <ele>409.1</ele>
        <time>2020-05-10T12:10:25Z</time>
      </trkpt>
      <trkpt lat="48.78606" lon="7.3717">
        <ele>409.2</ele>
        <time>2020-05-10T12:10:26Z</time>
      </trkpt>
      <trkpt lat="48.78612" lon="7.37176">
        <ele>409.5</ele>
        <time>2020-05-10T12:10:28Z</time>
      </trkpt>
      <trkpt lat="48.78622" lon="7.37189">
        <ele>409.7</ele>
        <time>2020-05-10T12:10:30Z</time>
      </trkpt>
      <trkpt lat="48.78627" lon="7.37194">
        <ele>409.8</ele>
        <time>2020-05-10T12:10:31Z</time>
      </trkpt>
      <trkpt lat="48.78635" lon="7.37203">
        <ele>409.5</ele>
        <time>2020-05-10T12:10:33Z</time>
      </trkpt>
      <trkpt lat="48.78644" lon="7.3721">
        <ele>409.3</ele>
        <time>2020-05-10T12:10:35Z</time>
      </trkpt>
      <trkpt lat="48.78649" lon="7.37213">
        <ele>409.2</ele>
        <time>2020-05-10T12:10:36Z</time>
      </trkpt>
      <trkpt lat="48.78658" lon="7.37221">
        <ele>409.1</ele>
        <time>2020-05-10T12:10:38Z</time>
      </trkpt>
      <trkpt lat="48.78666" lon="7.37225">
        <ele>409.1</ele>
        <time>2020-05-10T12:10:40Z</time>
      </trkpt>
      <trkpt lat="48.7867" lon="7.37227">
        <ele>409.2</ele>
        <time>2020-05-10T12:10:41Z</time>
      </trkpt>
      <trkpt lat="48.78677" lon="7.37232">
        <ele>409.3</ele>
        <time>2020-05-10T12:10:43Z</time>
      </trkpt>
      <trkpt lat="48.7868" lon="7.37234">
        <ele>409.3</ele>
        <time>2020-05-10T12:10:44Z</time>
      </trkpt>
      <trkpt lat="48.78684" lon="7.37235">
        <ele>409.4</ele>
        <time>2020-05-10T12:10:45Z</time>
      </trkpt>
      <trkpt lat="48.78688" lon="7.37235">
        <ele>409.4</ele>
        <time>2020-05-10T12:10:47Z</time>
      </trkpt>
      <trkpt lat="48.78692" lon="7.37237">
        <ele>409.4</ele>
        <time>2020-05-10T12:10:48Z</time>
      </trkpt>
      <trkpt lat="48.78695" lon="7.3724">
        <ele>409.5</ele>
        <time>2020-05-10T12:10:49Z</time>
      </trkpt>
      <trkpt lat="48.78704" lon="7.37247">
        <ele>409.3</ele>
        <time>2020-05-10T12:10:51Z</time>
      </trkpt>
      <trkpt lat="48.78709" lon="7.37252">
        <ele>409.2</ele>
        <time>2020-05-10T12:10:52Z</time>
      </trkpt>
      <trkpt lat="48.78718" lon="7.37255">
        <ele>409</ele>
        <time>2020-05-10T12:10:54Z</time>
      </trkpt>
      <trkpt lat="48.78723" lon="7.37258">
        <ele>408.9</ele>
        <time>2020-05-10T12:10:55Z</time>
      </trkpt>
      <trkpt lat="48.78731" lon="7.37263">
        <ele>408.7</ele>
        <time>2020-05-10T12:10:57Z</time>
      </trkpt>
      <trkpt lat="48.78742" lon="7.37265">
        <ele>408.6</ele>
        <time>2020-05-10T12:10:59Z</time>
      </trkpt>
      <trkpt lat="48.78751" lon="7.37267">
        <ele>408.4</ele>
        <time>2020-05-10T12:11:01Z</time>
      </trkpt>
      <trkpt lat="48.7876" lon="7.37271">
        <ele>408.1</ele>
        <time>2020-05-10T12:11:03Z</time>
      </trkpt>
      <trkpt lat="48.78767" lon="7.37269">
        <ele>407.9</ele>
        <time>2020-05-10T12:11:05Z</time>
      </trkpt>
      <trkpt lat="48.78771" lon="7.3727">
        <ele>407.7</ele>
        <time>2020-05-10T12:11:06Z</time>
      </trkpt>
      <trkpt lat="48.78781" lon="7.37277">
        <ele>407.3</ele>
        <time>2020-05-10T12:11:08Z</time>
      </trkpt>
      <trkpt lat="48.78786" lon="7.37279">
        <ele>407</ele>
        <time>2020-05-10T12:11:09Z</time>
      </trkpt>
      <trkpt lat="48.78795" lon="7.37277">
        <ele>406.6</ele>
        <time>2020-05-10T12:11:11Z</time>
      </trkpt>
      <trkpt lat="48.78799" lon="7.37276">
        <ele>406.3</ele>
        <time>2020-05-10T12:11:12Z</time>
      </trkpt>
      <trkpt lat="48.78803" lon="7.37273">
        <ele>406.1</ele>
        <time>2020-05-10T12:11:13Z</time>
      </trkpt>
      <trkpt lat="48.78808" lon="7.37269">
        <ele>405.7</ele>
        <time>2020-05-10T12:11:14Z</time>
      </trkpt>
      <trkpt lat="48.78819" lon="7.37258">
        <ele>405.1</ele>
        <time>2020-05-10T12:11:16Z</time>
      </trkpt>
      <trkpt lat="48.78823" lon="7.37253">
        <ele>404.9</ele>
        <time>2020-05-10T12:11:17Z</time>
      </trkpt>
      <trkpt lat="48.78834" lon="7.37247">
        <ele>403.8</ele>
        <time>2020-05-10T12:11:19Z</time>
      </trkpt>
      <trkpt lat="48.78844" lon="7.37247">
        <ele>403.1</ele>
        <time>2020-05-10T12:11:21Z</time>
      </trkpt>
      <trkpt lat="48.78853" lon="7.37253">
        <ele>402.4</ele>
        <time>2020-05-10T12:11:23Z</time>
      </trkpt>
      <trkpt lat="48.78859" lon="7.37257">
        <ele>401.8</ele>
        <time>2020-05-10T12:11:25Z</time>
      </trkpt>
      <trkpt lat="48.78867" lon="7.37262">
        <ele>401.1</ele>
        <time>2020-05-10T12:11:27Z</time>
      </trkpt>
      <trkpt lat="48.78871" lon="7.37262">
        <ele>400.8</ele>
        <time>2020-05-10T12:11:29Z</time>
      </trkpt>
      <trkpt lat="48.78874" lon="7.37263">
        <ele>400.5</ele>
        <time>2020-05-10T12:11:31Z</time>
      </trkpt>
      <trkpt lat="48.78876" lon="7.37264">
        <ele>400.3</ele>
        <time>2020-05-10T12:11:32Z</time>
      </trkpt>
      <trkpt lat="48.78883" lon="7.37267">
        <ele>399.6</ele>
        <time>2020-05-10T12:11:34Z</time>
      </trkpt>
      <trkpt lat="48.78886" lon="7.3727">
        <ele>399.1</ele>
        <time>2020-05-10T12:11:35Z</time>
      </trkpt>
      <trkpt lat="48.7889" lon="7.37273">
        <ele>398.5</ele>
        <time>2020-05-10T12:11:37Z</time>
      </trkpt>
      <trkpt lat="48.78897" lon="7.37277">
        <ele>397.6</ele>
        <time>2020-05-10T12:11:39Z</time>
      </trkpt>
      <trkpt lat="48.78901" lon="7.37281">
        <ele>396.5</ele>
        <time>2020-05-10T12:11:41Z</time>
      </trkpt>
      <trkpt lat="48.78903" lon="7.37282">
        <ele>396.5</ele>
        <time>2020-05-10T12:11:42Z</time>
      </trkpt>
      <trkpt lat="48.78904" lon="7.37285">
        <ele>396.5</ele>
        <time>2020-05-10T12:11:44Z</time>
      </trkpt>
      <trkpt lat="48.78907" lon="7.37287">
        <ele>396.4</ele>
        <time>2020-05-10T12:11:46Z</time>
      </trkpt>
      <trkpt lat="48.78908" lon="7.37286">
        <ele>396.4</ele>
        <time>2020-05-10T12:11:47Z</time>
      </trkpt>
      <trkpt lat="48.78912" lon="7.37291">
        <ele>395.3</ele>
        <time>2020-05-10T12:11:49Z</time>
      </trkpt>
      <trkpt lat="48.78913" lon="7.37292">
        <ele>395</ele>
        <time>2020-05-10T12:11:50Z</time>
      </trkpt>
      <trkpt lat="48.78915" lon="7.37293">
        <ele>394.7</ele>
        <time>2020-05-10T12:11:51Z</time>
      </trkpt>
      <trkpt lat="48.78918" lon="7.37295">
        <ele>394.3</ele>
        <time>2020-05-10T12:11:52Z</time>
      </trkpt>
      <trkpt lat="48.78924" lon="7.37305">
        <ele>392.9</ele>
        <time>2020-05-10T12:11:54Z</time>
      </trkpt>
      <trkpt lat="48.78928" lon="7.37312">
        <ele>392.1</ele>
        <time>2020-05-10T12:11:55Z</time>
      </trkpt>
      <trkpt lat="48.78935" lon="7.37325">
        <ele>391.1</ele>
        <time>2020-05-10T12:11:57Z</time>
      </trkpt>
      <trkpt lat="48.78942" lon="7.37331">
        <ele>390.6</ele>
        <time>2020-05-10T12:11:58Z</time>
      </trkpt>
      <trkpt lat="48.78953" lon="7.37342">
        <ele>390</ele>
        <time>2020-05-10T12:12:00Z</time>
      </trkpt>
      <trkpt lat="48.78957" lon="7.37353">
        <ele>389.5</ele>
        <time>2020-05-10T12:12:02Z</time>
      </trkpt>
      <trkpt lat="48.78959" lon="7.37357">
        <ele>389.2</ele>
        <time>2020-05-10T12:12:03Z</time>
      </trkpt>
      <trkpt lat="48.78964" lon="7.37362">
        <ele>388.5</ele>
        <time>2020-05-10T12:12:05Z</time>
      </trkpt>
      <trkpt lat="48.78969" lon="7.37363">
        <ele>387.6</ele>
        <time>2020-05-10T12:12:07Z</time>
      </trkpt>
      <trkpt lat="48.78973" lon="7.37365">
        <ele>387</ele>
        <time>2020-05-10T12:12:08Z</time>
      </trkpt>
      <trkpt lat="48.78976" lon="7.37368">
        <ele>386.2</ele>
        <time>2020-05-10T12:12:10Z</time>
      </trkpt>
      <trkpt lat="48.78979" lon="7.37371">
        <ele>385.4</ele>
        <time>2020-05-10T12:12:12Z</time>
      </trkpt>
      <trkpt lat="48.78983" lon="7.37375">
        <ele>384.3</ele>
        <time>2020-05-10T12:12:14Z</time>
      </trkpt>
      <trkpt lat="48.78987" lon="7.37378">
        <ele>383.3</ele>
        <time>2020-05-10T12:12:16Z</time>
      </trkpt>
      <trkpt lat="48.78989" lon="7.37379">
        <ele>382.9</ele>
        <time>2020-05-10T12:12:17Z</time>
      </trkpt>
      <trkpt lat="48.78991" lon="7.37382">
        <ele>382.3</ele>
        <time>2020-05-10T12:12:19Z</time>
      </trkpt>
      <trkpt lat="48.78993" lon="7.37386">
        <ele>381.5</ele>
        <time>2020-05-10T12:12:21Z</time>
      </trkpt>
      <trkpt lat="48.78994" lon="7.37388">
        <ele>381.1</ele>
        <time>2020-05-10T12:12:22Z</time>
      </trkpt>
      <trkpt lat="48.78995" lon="7.37388">
        <ele>380.9</ele>
        <time>2020-05-10T12:12:23Z</time>
      </trkpt>
      <trkpt lat="48.78996" lon="7.3739">
        <ele>380.5</ele>
        <time>2020-05-10T12:12:25Z</time>
      </trkpt>
      <trkpt lat="48.78997" lon="7.37391">
        <ele>380.3</ele>
        <time>2020-05-10T12:12:26Z</time>
      </trkpt>
      <trkpt lat="48.79" lon="7.37393">
        <ele>379.5</ele>
        <time>2020-05-10T12:12:28Z</time>
      </trkpt>
      <trkpt lat="48.79003" lon="7.37394">
        <ele>378.9</ele>
        <time>2020-05-10T12:12:30Z</time>
      </trkpt>
      <trkpt lat="48.79005" lon="7.37394">
        <ele>378.4</ele>
        <time>2020-05-10T12:12:32Z</time>
      </trkpt>
      <trkpt lat="48.79006" lon="7.37394">
        <ele>378.1</ele>
        <time>2020-05-10T12:12:33Z</time>
      </trkpt>
      <trkpt lat="48.79009" lon="7.37395">
        <ele>377.5</ele>
        <time>2020-05-10T12:12:35Z</time>
      </trkpt>
      <trkpt lat="48.7901" lon="7.37398">
        <ele>376.9</ele>
        <time>2020-05-10T12:12:37Z</time>
      </trkpt>
      <trkpt lat="48.79014" lon="7.37408">
        <ele>375.4</ele>
        <time>2020-05-10T12:12:39Z</time>
      </trkpt>
      <trkpt lat="48.79024" lon="7.37417">
        <ele>373.2</ele>
        <time>2020-05-10T12:12:41Z</time>
      </trkpt>
      <trkpt lat="48.7903" lon="7.3742">
        <ele>372.1</ele>
        <time>2020-05-10T12:12:42Z</time>
      </trkpt>
      <trkpt lat="48.79044" lon="7.37422">
        <ele>370.9</ele>
        <time>2020-05-10T12:12:44Z</time>
      </trkpt>
      <trkpt lat="48.79056" lon="7.37428">
        <ele>370.7</ele>
        <time>2020-05-10T12:12:46Z</time>
      </trkpt>
      <trkpt lat="48.7906" lon="7.3743">
        <ele>370.6</ele>
        <time>2020-05-10T12:12:47Z</time>
      </trkpt>
      <trkpt lat="48.79064" lon="7.37432">
        <ele>370.5</ele>
        <time>2020-05-10T12:12:48Z</time>
      </trkpt>
      <trkpt lat="48.7907" lon="7.37434">
        <ele>370.4</ele>
        <time>2020-05-10T12:12:50Z</time>
      </trkpt>
      <trkpt lat="48.79075" lon="7.37434">
        <ele>370.9</ele>
        <time>2020-05-10T12:12:52Z</time>
      </trkpt>
      <trkpt lat="48.79078" lon="7.37434">
        <ele>371.3</ele>
        <time>2020-05-10T12:12:53Z</time>
      </trkpt>
      <trkpt lat="48.7908" lon="7.37435">
        <ele>371.4</ele>
        <time>2020-05-10T12:12:54Z</time>
      </trkpt>
      <trkpt lat="48.79087" lon="7.37437">
        <ele>372.3</ele>
        <time>2020-05-10T12:12:56Z</time>
      </trkpt>
      <trkpt lat="48.7909" lon="7.37437">
        <ele>372.6</ele>
        <time>2020-05-10T12:12:57Z</time>
      </trkpt>
      <trkpt lat="48.79095" lon="7.37439">
        <ele>373.2</ele>
        <time>2020-05-10T12:12:59Z</time>
      </trkpt>
      <trkpt lat="48.79099" lon="7.3744">
        <ele>373.7</ele>
        <time>2020-05-10T12:13:01Z</time>
      </trkpt>
      <trkpt lat="48.79101" lon="7.37442">
        <ele>374</ele>
        <time>2020-05-10T12:13:02Z</time>
      </trkpt>
      <trkpt lat="48.79106" lon="7.37444">
        <ele>374.6</ele>
        <time>2020-05-10T12:13:04Z</time>
      </trkpt>
      <trkpt lat="48.7911" lon="7.37444">
        <ele>375.2</ele>
        <time>2020-05-10T12:13:06Z</time>
      </trkpt>
      <trkpt lat="48.79116" lon="7.37444">
        <ele>376.2</ele>
        <time>2020-05-10T12:13:08Z</time>
      </trkpt>
      <trkpt lat="48.7912" lon="7.37444">
        <ele>376.8</ele>
        <time>2020-05-10T12:13:10Z</time>
      </trkpt>
      <trkpt lat="48.79123" lon="7.37445">
        <ele>377.5</ele>
        <time>2020-05-10T12:13:12Z</time>
      </trkpt>
      <trkpt lat="48.79126" lon="7.37446">
        <ele>378</ele>
        <time>2020-05-10T12:13:13Z</time>
      </trkpt>
      <trkpt lat="48.79131" lon="7.37449">
        <ele>379</ele>
        <time>2020-05-10T12:13:15Z</time>
      </trkpt>
      <trkpt lat="48.79134" lon="7.37452">
        <ele>379.8</ele>
        <time>2020-05-10T12:13:17Z</time>
      </trkpt>
      <trkpt lat="48.79138" lon="7.37458">
        <ele>380.2</ele>
        <time>2020-05-10T12:13:19Z</time>
      </trkpt>
      <trkpt lat="48.79139" lon="7.3746">
        <ele>380.4</ele>
        <time>2020-05-10T12:13:20Z</time>
      </trkpt>
      <trkpt lat="48.79144" lon="7.37467">
        <ele>381.1</ele>
        <time>2020-05-10T12:13:22Z</time>
      </trkpt>
      <trkpt lat="48.79147" lon="7.37469">
        <ele>381.4</ele>
        <time>2020-05-10T12:13:23Z</time>
      </trkpt>
      <trkpt lat="48.7915" lon="7.37471">
        <ele>382</ele>
        <time>2020-05-10T12:13:25Z</time>
      </trkpt>
      <trkpt lat="48.79151" lon="7.37472">
        <ele>382.1</ele>
        <time>2020-05-10T12:13:26Z</time>
      </trkpt>
      <trkpt lat="48.79154" lon="7.37475">
        <ele>382.6</ele>
        <time>2020-05-10T12:13:28Z</time>
      </trkpt>
      <trkpt lat="48.79155" lon="7.37476">
        <ele>382.7</ele>
        <time>2020-05-10T12:13:29Z</time>
      </trkpt>
      <trkpt lat="48.79157" lon="7.37478">
        <ele>383.1</ele>
        <time>2020-05-10T12:13:31Z</time>
      </trkpt>
      <trkpt lat="48.7916" lon="7.3748">
        <ele>383.6</ele>
        <time>2020-05-10T12:13:32Z</time>
      </trkpt>
      <trkpt lat="48.79161" lon="7.37481">
        <ele>383.7</ele>
        <time>2020-05-10T12:13:33Z</time>
      </trkpt>
      <trkpt lat="48.79165" lon="7.37483">
        <ele>384.2</ele>
        <time>2020-05-10T12:13:35Z</time>
      </trkpt>
      <trkpt lat="48.79166" lon="7.37484">
        <ele>384.4</ele>
        <time>2020-05-10T12:13:36Z</time>
      </trkpt>
      <trkpt lat="48.79167" lon="7.37484">
        <ele>384.6</ele>
        <time>2020-05-10T12:13:37Z</time>
      </trkpt>
      <trkpt lat="48.79168" lon="7.37484">
        <ele>384.7</ele>
        <time>2020-05-10T12:13:38Z</time>
      </trkpt>
      <trkpt lat="48.79172" lon="7.37485">
        <ele>385.1</ele>
        <time>2020-05-10T12:13:40Z</time>
      </trkpt>
      <trkpt lat="48.79175" lon="7.37485">
        <ele>385.5</ele>
        <time>2020-05-10T12:13:41Z</time>
      </trkpt>
      <trkpt lat="48.79176" lon="7.37485">
        <ele>385.6</ele>
        <time>2020-05-10T12:13:42Z</time>
      </trkpt>
      <trkpt lat="48.7918" lon="7.37486">
        <ele>386.1</ele>
        <time>2020-05-10T12:13:44Z</time>
      </trkpt>
      <trkpt lat="48.79182" lon="7.37487">
        <ele>386.4</ele>
        <time>2020-05-10T12:13:45Z</time>
      </trkpt>
      <trkpt lat="48.79187" lon="7.37491">
        <ele>387.2</ele>
        <time>2020-05-10T12:13:47Z</time>
      </trkpt>
      <trkpt lat="48.79191" lon="7.37493">
        <ele>387.7</ele>
        <time>2020-05-10T12:13:48Z</time>
      </trkpt>
      <trkpt lat="48.79192" lon="7.37493">
        <ele>387.9</ele>
        <time>2020-05-10T12:13:49Z</time>
      </trkpt>
      <trkpt lat="48.79195" lon="7.37496">
        <ele>388.4</ele>
        <time>2020-05-10T12:13:51Z</time>
      </trkpt>
      <trkpt lat="48.79198" lon="7.37502">
        <ele>389.2</ele>
        <time>2020-05-10T12:13:53Z</time>
      </trkpt>
      <trkpt lat="48.79201" lon="7.37504">
        <ele>389.6</ele>
        <time>2020-05-10T12:13:55Z</time>
      </trkpt>
      <trkpt lat="48.79202" lon="7.37505">
        <ele>389.7</ele>
        <time>2020-05-10T12:13:56Z</time>
      </trkpt>
      <trkpt lat="48.79203" lon="7.37506">
        <ele>390</ele>
        <time>2020-05-10T12:13:57Z</time>
      </trkpt>
      <trkpt lat="48.79208" lon="7.37509">
        <ele>390.7</ele>
        <time>2020-05-10T12:13:59Z</time>
      </trkpt>
      <trkpt lat="48.79209" lon="7.3751">
        <ele>390.9</ele>
        <time>2020-05-10T12:14:00Z</time>
      </trkpt>
      <trkpt lat="48.79213" lon="7.37512">
        <ele>391.5</ele>
        <time>2020-05-10T12:14:02Z</time>
      </trkpt>
      <trkpt lat="48.79216" lon="7.37514">
        <ele>392</ele>
        <time>2020-05-10T12:14:04Z</time>
      </trkpt>
      <trkpt lat="48.7922" lon="7.37513">
        <ele>392.5</ele>
        <time>2020-05-10T12:14:06Z</time>
      </trkpt>
      <trkpt lat="48.79223" lon="7.37512">
        <ele>393</ele>
        <time>2020-05-10T12:14:08Z</time>
      </trkpt>
      <trkpt lat="48.79225" lon="7.37513">
        <ele>393.2</ele>
        <time>2020-05-10T12:14:09Z</time>
      </trkpt>
      <trkpt lat="48.79229" lon="7.37516">
        <ele>393.8</ele>
        <time>2020-05-10T12:14:11Z</time>
      </trkpt>
      <trkpt lat="48.79232" lon="7.3752">
        <ele>394.2</ele>
        <time>2020-05-10T12:14:13Z</time>
      </trkpt>
      <trkpt lat="48.79235" lon="7.37524">
        <ele>394.5</ele>
        <time>2020-05-10T12:14:15Z</time>
      </trkpt>
      <trkpt lat="48.79238" lon="7.3753">
        <ele>394.9</ele>
        <time>2020-05-10T12:14:17Z</time>
      </trkpt>
      <trkpt lat="48.7924" lon="7.37533">
        <ele>395.1</ele>
        <time>2020-05-10T12:14:19Z</time>
      </trkpt>
      <trkpt lat="48.79241" lon="7.37533">
        <ele>395.2</ele>
        <time>2020-05-10T12:14:20Z</time>
      </trkpt>
      <trkpt lat="48.79247" lon="7.37532">
        <ele>395.5</ele>
        <time>2020-05-10T12:14:22Z</time>
      </trkpt>
      <trkpt lat="48.79251" lon="7.37531">
        <ele>395.7</ele>
        <time>2020-05-10T12:14:24Z</time>
      </trkpt>
      <trkpt lat="48.79257" lon="7.3753">
        <ele>395.9</ele>
        <time>2020-05-10T12:14:26Z</time>
      </trkpt>
      <trkpt lat="48.7926" lon="7.37529">
        <ele>395.9</ele>
        <time>2020-05-10T12:14:27Z</time>
      </trkpt>
      <trkpt lat="48.79262" lon="7.37527">
        <ele>396</ele>
        <time>2020-05-10T12:14:28Z</time>
      </trkpt>
      <trkpt lat="48.79268" lon="7.37526">
        <ele>396.2</ele>
        <time>2020-05-10T12:14:30Z</time>
      </trkpt>
      <trkpt lat="48.79271" lon="7.37527">
        <ele>396.3</ele>
        <time>2020-05-10T12:14:31Z</time>
      </trkpt>
      <trkpt lat="48.79274" lon="7.37527">
        <ele>396.4</ele>
        <time>2020-05-10T12:14:33Z</time>
      </trkpt>
      <trkpt lat="48.79276" lon="7.37527">
        <ele>396.5</ele>
        <time>2020-05-10T12:14:34Z</time>
      </trkpt>
      <trkpt lat="48.79281" lon="7.37529">
        <ele>396.7</ele>
        <time>2020-05-10T12:14:36Z</time>
      </trkpt>
      <trkpt lat="48.79285" lon="7.37532">
        <ele>396.8</ele>
        <time>2020-05-10T12:14:37Z</time>
      </trkpt>
      <trkpt lat="48.79286" lon="7.37533">
        <ele>396.9</ele>
        <time>2020-05-10T12:14:38Z</time>
      </trkpt>
      <trkpt lat="48.79291" lon="7.37537">
        <ele>397.1</ele>
        <time>2020-05-10T12:14:40Z</time>
      </trkpt>
      <trkpt lat="48.79292" lon="7.37537">
        <ele>397.2</ele>
        <time>2020-05-10T12:14:41Z</time>
      </trkpt>
      <trkpt lat="48.79297" lon="7.37539">
        <ele>397.4</ele>
        <time>2020-05-10T12:14:43Z</time>
      </trkpt>
      <trkpt lat="48.79302" lon="7.37541">
        <ele>397.5</ele>
        <time>2020-05-10T12:14:45Z</time>
      </trkpt>
      <trkpt lat="48.79304" lon="7.37541">
        <ele>397.6</ele>
        <time>2020-05-10T12:14:46Z</time>
      </trkpt>
      <trkpt lat="48.79307" lon="7.37542">
        <ele>397.6</ele>
        <time>2020-05-10T12:14:47Z</time>
      </trkpt>
      <trkpt lat="48.79311" lon="7.37544">
        <ele>397.7</ele>
        <time>2020-05-10T12:14:49Z</time>
      </trkpt>
      <trkpt lat="48.79314" lon="7.37545">
        <ele>397.8</ele>
        <time>2020-05-10T12:14:50Z</time>
      </trkpt>
      <trkpt lat="48.79319" lon="7.37545">
        <ele>398</ele>
        <time>2020-05-10T12:14:52Z</time>
      </trkpt>
      <trkpt lat="48.79325" lon="7.37544">
        <ele>398</ele>
        <time>2020-05-10T12:14:54Z</time>
      </trkpt>
      <trkpt lat="48.7933" lon="7.37539">
        <ele>398.1</ele>
        <time>2020-05-10T12:14:56Z</time>
      </trkpt>
      <trkpt lat="48.79333" lon="7.37537">
        <ele>398.1</ele>
        <time>2020-05-10T12:14:57Z</time>
      </trkpt>
      <trkpt lat="48.79338" lon="7.37531">
        <ele>398.1</ele>
        <time>2020-05-10T12:14:59Z</time>
      </trkpt>
      <trkpt lat="48.79343" lon="7.37526">
        <ele>398</ele>
        <time>2020-05-10T12:15:01Z</time>
      </trkpt>
      <trkpt lat="48.79346" lon="7.37523">
        <ele>398</ele>
        <time>2020-05-10T12:15:02Z</time>
      </trkpt>
      <trkpt lat="48.79349" lon="7.37521">
        <ele>398</ele>
        <time>2020-05-10T12:15:04Z</time>
      </trkpt>
      <trkpt lat="48.79352" lon="7.3752">
        <ele>398</ele>
        <time>2020-05-10T12:15:05Z</time>
      </trkpt>
      <trkpt lat="48.7936" lon="7.37521">
        <ele>397.6</ele>
        <time>2020-05-10T12:15:07Z</time>
      </trkpt>
      <trkpt lat="48.79363" lon="7.37527">
        <ele>397.1</ele>
        <time>2020-05-10T12:15:08Z</time>
      </trkpt>
      <trkpt lat="48.79368" lon="7.37533">
        <ele>396.4</ele>
        <time>2020-05-10T12:15:09Z</time>
      </trkpt>
      <trkpt lat="48.79377" lon="7.37542">
        <ele>395.5</ele>
        <time>2020-05-10T12:15:11Z</time>
      </trkpt>
      <trkpt lat="48.79382" lon="7.37545">
        <ele>395.2</ele>
        <time>2020-05-10T12:15:12Z</time>
      </trkpt>
      <trkpt lat="48.79387" lon="7.37549">
        <ele>394.9</ele>
        <time>2020-05-10T12:15:13Z</time>
      </trkpt>
      <trkpt lat="48.79396" lon="7.37558">
        <ele>394.2</ele>
        <time>2020-05-10T12:15:15Z</time>
      </trkpt>
      <trkpt lat="48.79399" lon="7.37563">
        <ele>394.1</ele>
        <time>2020-05-10T12:15:16Z</time>
      </trkpt>
      <trkpt lat="48.79403" lon="7.3757">
        <ele>394</ele>
        <time>2020-05-10T12:15:17Z</time>
      </trkpt>
      <trkpt lat="48.79407" lon="7.37579">
        <ele>394</ele>
        <time>2020-05-10T12:15:18Z</time>
      </trkpt>
      <trkpt lat="48.7941" lon="7.37588">
        <ele>394.2</ele>
        <time>2020-05-10T12:15:19Z</time>
      </trkpt>
      <trkpt lat="48.79412" lon="7.37596">
        <ele>394.3</ele>
        <time>2020-05-10T12:15:21Z</time>
      </trkpt>
      <trkpt lat="48.79416" lon="7.376">
        <ele>394.5</ele>
        <time>2020-05-10T12:15:23Z</time>
      </trkpt>
      <trkpt lat="48.79418" lon="7.37602">
        <ele>394.6</ele>
        <time>2020-05-10T12:15:24Z</time>
      </trkpt>
      <trkpt lat="48.79423" lon="7.37608">
        <ele>394.8</ele>
        <time>2020-05-10T12:15:26Z</time>
      </trkpt>
      <trkpt lat="48.79429" lon="7.37616">
        <ele>395</ele>
        <time>2020-05-10T12:15:28Z</time>
      </trkpt>
      <trkpt lat="48.79432" lon="7.37621">
        <ele>395.2</ele>
        <time>2020-05-10T12:15:29Z</time>
      </trkpt>
      <trkpt lat="48.79437" lon="7.37629">
        <ele>395.4</ele>
        <time>2020-05-10T12:15:31Z</time>
      </trkpt>
      <trkpt lat="48.7944" lon="7.37634">
        <ele>395.5</ele>
        <time>2020-05-10T12:15:33Z</time>
      </trkpt>
      <trkpt lat="48.79444" lon="7.37633">
        <ele>395.4</ele>
        <time>2020-05-10T12:15:35Z</time>
      </trkpt>
      <trkpt lat="48.79449" lon="7.37637">
        <ele>395.3</ele>
        <time>2020-05-10T12:15:37Z</time>
      </trkpt>
      <trkpt lat="48.79457" lon="7.37643">
        <ele>395</ele>
        <time>2020-05-10T12:15:39Z</time>
      </trkpt>
      <trkpt lat="48.79463" lon="7.37646">
        <ele>394.8</ele>
        <time>2020-05-10T12:15:41Z</time>
      </trkpt>
      <trkpt lat="48.79467" lon="7.37651">
        <ele>394.6</ele>
        <time>2020-05-10T12:15:42Z</time>
      </trkpt>
      <trkpt lat="48.79469" lon="7.37654">
        <ele>394.4</ele>
        <time>2020-05-10T12:15:43Z</time>
      </trkpt>
      <trkpt lat="48.79476" lon="7.37664">
        <ele>393.8</ele>
        <time>2020-05-10T12:15:45Z</time>
      </trkpt>
      <trkpt lat="48.79481" lon="7.37672">
        <ele>393.2</ele>
        <time>2020-05-10T12:15:47Z</time>
      </trkpt>
      <trkpt lat="48.79483" lon="7.37677">
        <ele>392.9</ele>
        <time>2020-05-10T12:15:48Z</time>
      </trkpt>
      <trkpt lat="48.79486" lon="7.37681">
        <ele>392.5</ele>
        <time>2020-05-10T12:15:49Z</time>
      </trkpt>
      <trkpt lat="48.79492" lon="7.37685">
        <ele>391.7</ele>
        <time>2020-05-10T12:15:51Z</time>
      </trkpt>
      <trkpt lat="48.795" lon="7.3769">
        <ele>390.7</ele>
        <time>2020-05-10T12:15:53Z</time>
      </trkpt>
      <trkpt lat="48.79504" lon="7.37692">
        <ele>390.1</ele>
        <time>2020-05-10T12:15:54Z</time>
      </trkpt>
      <trkpt lat="48.79515" lon="7.37706">
        <ele>387.8</ele>
        <time>2020-05-10T12:15:56Z</time>
      </trkpt>
      <trkpt lat="48.79521" lon="7.37721">
        <ele>385.8</ele>
        <time>2020-05-10T12:15:58Z</time>
      </trkpt>
      <trkpt lat="48.79524" lon="7.37729">
        <ele>385.5</ele>
        <time>2020-05-10T12:15:59Z</time>
      </trkpt>
      <trkpt lat="48.79526" lon="7.37736">
        <ele>385.5</ele>
        <time>2020-05-10T12:16:00Z</time>
      </trkpt>
      <trkpt lat="48.7953" lon="7.37742">
        <ele>382.7</ele>
        <time>2020-05-10T12:16:01Z</time>
      </trkpt>
      <trkpt lat="48.79534" lon="7.37753">
        <ele>381.4</ele>
        <time>2020-05-10T12:16:03Z</time>
      </trkpt>
      <trkpt lat="48.79535" lon="7.37759">
        <ele>380.7</ele>
        <time>2020-05-10T12:16:04Z</time>
      </trkpt>
      <trkpt lat="48.79538" lon="7.37765">
        <ele>380</ele>
        <time>2020-05-10T12:16:06Z</time>
      </trkpt>
      <trkpt lat="48.7954" lon="7.37767">
        <ele>379.7</ele>
        <time>2020-05-10T12:16:07Z</time>
      </trkpt>
      <trkpt lat="48.79542" lon="7.37769">
        <ele>379.5</ele>
        <time>2020-05-10T12:16:08Z</time>
      </trkpt>
      <trkpt lat="48.79547" lon="7.37775">
        <ele>378.8</ele>
        <time>2020-05-10T12:16:10Z</time>
      </trkpt>
      <trkpt lat="48.7955" lon="7.37778">
        <ele>378.2</ele>
        <time>2020-05-10T12:16:11Z</time>
      </trkpt>
      <trkpt lat="48.79553" lon="7.37782">
        <ele>377.5</ele>
        <time>2020-05-10T12:16:13Z</time>
      </trkpt>
      <trkpt lat="48.79556" lon="7.37784">
        <ele>377</ele>
        <time>2020-05-10T12:16:14Z</time>
      </trkpt>
      <trkpt lat="48.7956" lon="7.37791">
        <ele>375.8</ele>
        <time>2020-05-10T12:16:16Z</time>
      </trkpt>
      <trkpt lat="48.79562" lon="7.37792">
        <ele>375.5</ele>
        <time>2020-05-10T12:16:17Z</time>
      </trkpt>
      <trkpt lat="48.79564" lon="7.37798">
        <ele>374.5</ele>
        <time>2020-05-10T12:16:19Z</time>
      </trkpt>
      <trkpt lat="48.79569" lon="7.37803">
        <ele>373.2</ele>
        <time>2020-05-10T12:16:21Z</time>
      </trkpt>
      <trkpt lat="48.79576" lon="7.3781">
        <ele>371.4</ele>
        <time>2020-05-10T12:16:23Z</time>
      </trkpt>
      <trkpt lat="48.79581" lon="7.3782">
        <ele>369.7</ele>
        <time>2020-05-10T12:16:25Z</time>
      </trkpt>
      <trkpt lat="48.79586" lon="7.3783">
        <ele>368.3</ele>
        <time>2020-05-10T12:16:27Z</time>
      </trkpt>
      <trkpt lat="48.79589" lon="7.37834">
        <ele>367.6</ele>
        <time>2020-05-10T12:16:28Z</time>
      </trkpt>
      <trkpt lat="48.79597" lon="7.3784">
        <ele>366.2</ele>
        <time>2020-05-10T12:16:30Z</time>
      </trkpt>
      <trkpt lat="48.79603" lon="7.37849">
        <ele>364.7</ele>
        <time>2020-05-10T12:16:32Z</time>
      </trkpt>
      <trkpt lat="48.79608" lon="7.37851">
        <ele>364</ele>
        <time>2020-05-10T12:16:34Z</time>
      </trkpt>
      <trkpt lat="48.7961" lon="7.37853">
        <ele>363.5</ele>
        <time>2020-05-10T12:16:35Z</time>
      </trkpt>
      <trkpt lat="48.79611" lon="7.37854">
        <ele>363.3</ele>
        <time>2020-05-10T12:16:36Z</time>
      </trkpt>
      <trkpt lat="48.79612" lon="7.37856">
        <ele>363</ele>
        <time>2020-05-10T12:16:37Z</time>
      </trkpt>
      <trkpt lat="48.79616" lon="7.37859">
        <ele>362.2</ele>
        <time>2020-05-10T12:16:39Z</time>
      </trkpt>
      <trkpt lat="48.79619" lon="7.37866">
        <ele>361.1</ele>
        <time>2020-05-10T12:16:41Z</time>
      </trkpt>
      <trkpt lat="48.79625" lon="7.37871">
        <ele>359.6</ele>
        <time>2020-05-10T12:16:43Z</time>
      </trkpt>
      <trkpt lat="48.79628" lon="7.37874">
        <ele>358.8</ele>
        <time>2020-05-10T12:16:44Z</time>
      </trkpt>
      <trkpt lat="48.79629" lon="7.37875">
        <ele>358.5</ele>
        <time>2020-05-10T12:16:45Z</time>
      </trkpt>
      <trkpt lat="48.79634" lon="7.37881">
        <ele>357</ele>
        <time>2020-05-10T12:16:47Z</time>
      </trkpt>
      <trkpt lat="48.79639" lon="7.37885">
        <ele>355.6</ele>
        <time>2020-05-10T12:16:49Z</time>
      </trkpt>
      <trkpt lat="48.79642" lon="7.37888">
        <ele>354.8</ele>
        <time>2020-05-10T12:16:50Z</time>
      </trkpt>
      <trkpt lat="48.79646" lon="7.37892">
        <ele>353.8</ele>
        <time>2020-05-10T12:16:52Z</time>
      </trkpt>
      <trkpt lat="48.79648" lon="7.37895">
        <ele>353.1</ele>
        <time>2020-05-10T12:16:53Z</time>
      </trkpt>
      <trkpt lat="48.79653" lon="7.37903">
        <ele>351.8</ele>
        <time>2020-05-10T12:16:55Z</time>
      </trkpt>
      <trkpt lat="48.79655" lon="7.37912">
        <ele>350.6</ele>
        <time>2020-05-10T12:16:57Z</time>
      </trkpt>
      <trkpt lat="48.79656" lon="7.37917">
        <ele>349.9</ele>
        <time>2020-05-10T12:16:58Z</time>
      </trkpt>
      <trkpt lat="48.79656" lon="7.37918">
        <ele>349.7</ele>
        <time>2020-05-10T12:16:59Z</time>
      </trkpt>
      <trkpt lat="48.79657" lon="7.37925">
        <ele>348.9</ele>
        <time>2020-05-10T12:17:01Z</time>
      </trkpt>
      <trkpt lat="48.79659" lon="7.37928">
        <ele>348.4</ele>
        <time>2020-05-10T12:17:02Z</time>
      </trkpt>
      <trkpt lat="48.7966" lon="7.37931">
        <ele>347.9</ele>
        <time>2020-05-10T12:17:03Z</time>
      </trkpt>
      <trkpt lat="48.79662" lon="7.37935">
        <ele>347.3</ele>
        <time>2020-05-10T12:17:05Z</time>
      </trkpt>
      <trkpt lat="48.79665" lon="7.37943">
        <ele>346.3</ele>
        <time>2020-05-10T12:17:07Z</time>
      </trkpt>
      <trkpt lat="48.79667" lon="7.37948">
        <ele>345.6</ele>
        <time>2020-05-10T12:17:08Z</time>
      </trkpt>
      <trkpt lat="48.7967" lon="7.37952">
        <ele>344.9</ele>
        <time>2020-05-10T12:17:09Z</time>
      </trkpt>
      <trkpt lat="48.79673" lon="7.37957">
        <ele>344.1</ele>
        <time>2020-05-10T12:17:11Z</time>
      </trkpt>
      <trkpt lat="48.79677" lon="7.37961">
        <ele>343.4</ele>
        <time>2020-05-10T12:17:12Z</time>
      </trkpt>
      <trkpt lat="48.79681" lon="7.37962">
        <ele>342.7</ele>
        <time>2020-05-10T12:17:14Z</time>
      </trkpt>
      <trkpt lat="48.79683" lon="7.37964">
        <ele>342.3</ele>
        <time>2020-05-10T12:17:15Z</time>
      </trkpt>
      <trkpt lat="48.79687" lon="7.37966">
        <ele>341.7</ele>
        <time>2020-05-10T12:17:17Z</time>
      </trkpt>
      <trkpt lat="48.7969" lon="7.37967">
        <ele>341.1</ele>
        <time>2020-05-10T12:17:19Z</time>
      </trkpt>
      <trkpt lat="48.79693" lon="7.37967">
        <ele>340.7</ele>
        <time>2020-05-10T12:17:20Z</time>
      </trkpt>
      <trkpt lat="48.79698" lon="7.37971">
        <ele>339.6</ele>
        <time>2020-05-10T12:17:22Z</time>
      </trkpt>
      <trkpt lat="48.797" lon="7.37975">
        <ele>338.9</ele>
        <time>2020-05-10T12:17:23Z</time>
      </trkpt>
      <trkpt lat="48.79703" lon="7.3798">
        <ele>338.1</ele>
        <time>2020-05-10T12:17:24Z</time>
      </trkpt>
      <trkpt lat="48.79705" lon="7.37985">
        <ele>337.4</ele>
        <time>2020-05-10T12:17:25Z</time>
      </trkpt>
      <trkpt lat="48.79708" lon="7.37993">
        <ele>336.3</ele>
        <time>2020-05-10T12:17:26Z</time>
      </trkpt>
      <trkpt lat="48.79713" lon="7.38001">
        <ele>335.4</ele>
        <time>2020-05-10T12:17:27Z</time>
      </trkpt>
      <trkpt lat="48.79716" lon="7.38009">
        <ele>334.3</ele>
        <time>2020-05-10T12:17:28Z</time>
      </trkpt>
      <trkpt lat="48.79724" lon="7.38028">
        <ele>331.4</ele>
        <time>2020-05-10T12:17:30Z</time>
      </trkpt>
      <trkpt lat="48.7973" lon="7.38038">
        <ele>329.8</ele>
        <time>2020-05-10T12:17:31Z</time>
      </trkpt>
      <trkpt lat="48.79736" lon="7.38046">
        <ele>328.6</ele>
        <time>2020-05-10T12:17:32Z</time>
      </trkpt>
      <trkpt lat="48.79746" lon="7.38059">
        <ele>326.9</ele>
        <time>2020-05-10T12:17:34Z</time>
      </trkpt>
      <trkpt lat="48.79752" lon="7.3807">
        <ele>326.1</ele>
        <time>2020-05-10T12:17:36Z</time>
      </trkpt>
      <trkpt lat="48.79753" lon="7.38075">
        <ele>325.7</ele>
        <time>2020-05-10T12:17:37Z</time>
      </trkpt>
      <trkpt lat="48.79755" lon="7.3808">
        <ele>325.3</ele>
        <time>2020-05-10T12:17:38Z</time>
      </trkpt>
      <trkpt lat="48.79759" lon="7.38087">
        <ele>324.6</ele>
        <time>2020-05-10T12:17:40Z</time>
      </trkpt>
      <trkpt lat="48.79763" lon="7.38093">
        <ele>324</ele>
        <time>2020-05-10T12:17:42Z</time>
      </trkpt>
      <trkpt lat="48.79765" lon="7.38097">
        <ele>323.5</ele>
        <time>2020-05-10T12:17:43Z</time>
      </trkpt>
      <trkpt lat="48.79769" lon="7.38108">
        <ele>322.2</ele>
        <time>2020-05-10T12:17:45Z</time>
      </trkpt>
      <trkpt lat="48.79772" lon="7.38117">
        <ele>321.2</ele>
        <time>2020-05-10T12:17:47Z</time>
      </trkpt>
      <trkpt lat="48.79773" lon="7.38121">
        <ele>320.8</ele>
        <time>2020-05-10T12:17:48Z</time>
      </trkpt>
      <trkpt lat="48.79776" lon="7.38128">
        <ele>319.9</ele>
        <time>2020-05-10T12:17:50Z</time>
      </trkpt>
      <trkpt lat="48.79778" lon="7.38133">
        <ele>319.3</ele>
        <time>2020-05-10T12:17:51Z</time>
      </trkpt>
      <trkpt lat="48.79782" lon="7.38137">
        <ele>318.6</ele>
        <time>2020-05-10T12:17:53Z</time>
      </trkpt>
      <trkpt lat="48.79783" lon="7.38141">
        <ele>318.3</ele>
        <time>2020-05-10T12:17:54Z</time>
      </trkpt>
      <trkpt lat="48.79784" lon="7.38142">
        <ele>318.2</ele>
        <time>2020-05-10T12:17:55Z</time>
      </trkpt>
      <trkpt lat="48.79786" lon="7.38148">
        <ele>317.8</ele>
        <time>2020-05-10T12:17:57Z</time>
      </trkpt>
      <trkpt lat="48.79786" lon="7.38151">
        <ele>317.7</ele>
        <time>2020-05-10T12:17:58Z</time>
      </trkpt>
      <trkpt lat="48.79787" lon="7.38153">
        <ele>317.5</ele>
        <time>2020-05-10T12:17:59Z</time>
      </trkpt>
      <trkpt lat="48.79789" lon="7.38157">
        <ele>317.2</ele>
        <time>2020-05-10T12:18:01Z</time>
      </trkpt>
      <trkpt lat="48.79791" lon="7.38161">
        <ele>316.8</ele>
        <time>2020-05-10T12:18:03Z</time>
      </trkpt>
      <trkpt lat="48.79794" lon="7.38165">
        <ele>316.3</ele>
        <time>2020-05-10T12:18:05Z</time>
      </trkpt>
      <trkpt lat="48.79797" lon="7.38169">
        <ele>315.8</ele>
        <time>2020-05-10T12:18:07Z</time>
      </trkpt>
      <trkpt lat="48.79798" lon="7.3817">
        <ele>315.6</ele>
        <time>2020-05-10T12:18:08Z</time>
      </trkpt>
      <trkpt lat="48.79802" lon="7.38174">
        <ele>314.9</ele>
        <time>2020-05-10T12:18:10Z</time>
      </trkpt>
      <trkpt lat="48.79803" lon="7.38175">
        <ele>314.8</ele>
        <time>2020-05-10T12:18:11Z</time>
      </trkpt>
      <trkpt lat="48.79804" lon="7.38175">
        <ele>314.6</ele>
        <time>2020-05-10T12:18:12Z</time>
      </trkpt>
      <trkpt lat="48.79806" lon="7.38177">
        <ele>314.3</ele>
        <time>2020-05-10T12:18:14Z</time>
      </trkpt>
      <trkpt lat="48.79806" lon="7.38177">
        <ele>314.3</ele>
        <time>2020-05-10T12:18:15Z</time>
      </trkpt>
      <trkpt lat="48.79806" lon="7.38178">
        <ele>314.2</ele>
        <time>2020-05-10T12:18:17Z</time>
      </trkpt>
      <trkpt lat="48.79806" lon="7.38178">
        <ele>314.1</ele>
        <time>2020-05-10T12:18:18Z</time>
      </trkpt>
      <trkpt lat="48.79806" lon="7.38179">
        <ele>314.1</ele>
        <time>2020-05-10T12:18:20Z</time>
      </trkpt>
      <trkpt lat="48.79806" lon="7.38179">
        <ele>314.1</ele>
        <time>2020-05-10T12:18:21Z</time>
      </trkpt>
      <trkpt lat="48.79806" lon="7.38179">
        <ele>314</ele>
        <time>2020-05-10T12:18:22Z</time>
      </trkpt>
      <trkpt lat="48.79806" lon="7.38178">
        <ele>314</ele>
        <time>2020-05-10T12:18:24Z</time>
      </trkpt>
      <trkpt lat="48.79806" lon="7.38178">
        <ele>313.9</ele>
        <time>2020-05-10T12:18:25Z</time>
      </trkpt>
      <trkpt lat="48.79804" lon="7.38176">
        <ele>313.6</ele>
        <time>2020-05-10T12:18:27Z</time>
      </trkpt>
      <trkpt lat="48.79803" lon="7.38176">
        <ele>313.4</ele>
        <time>2020-05-10T12:18:28Z</time>
      </trkpt>
      <trkpt lat="48.79802" lon="7.38176">
        <ele>313.3</ele>
        <time>2020-05-10T12:18:30Z</time>
      </trkpt>
      <trkpt lat="48.79802" lon="7.38176">
        <ele>313.2</ele>
        <time>2020-05-10T12:18:31Z</time>
      </trkpt>
      <trkpt lat="48.79802" lon="7.38176">
        <ele>313.2</ele>
        <time>2020-05-10T12:18:32Z</time>
      </trkpt>
      <trkpt lat="48.79802" lon="7.38177">
        <ele>313.2</ele>
        <time>2020-05-10T12:18:33Z</time>
      </trkpt>
      <trkpt lat="48.79802" lon="7.38179">
        <ele>312.9</ele>
        <time>2020-05-10T12:18:34Z</time>
      </trkpt>
      <trkpt lat="48.79801" lon="7.38185">
        <ele>312.3</ele>
        <time>2020-05-10T12:18:36Z</time>
      </trkpt>
      <trkpt lat="48.79802" lon="7.38191">
        <ele>311.8</ele>
        <time>2020-05-10T12:18:37Z</time>
      </trkpt>
      <trkpt lat="48.79802" lon="7.38192">
        <ele>311.6</ele>
        <time>2020-05-10T12:18:38Z</time>
      </trkpt>
      <trkpt lat="48.79806" lon="7.38198">
        <ele>310.9</ele>
        <time>2020-05-10T12:18:40Z</time>
      </trkpt>
      <trkpt lat="48.79808" lon="7.38202">
        <ele>310.3</ele>
        <time>2020-05-10T12:18:42Z</time>
      </trkpt>
      <trkpt lat="48.79809" lon="7.38204">
        <ele>310</ele>
        <time>2020-05-10T12:18:43Z</time>
      </trkpt>
      <trkpt lat="48.7981" lon="7.38205">
        <ele>309.9</ele>
        <time>2020-05-10T12:18:44Z</time>
      </trkpt>
      <trkpt lat="48.79813" lon="7.38209">
        <ele>309.3</ele>
        <time>2020-05-10T12:18:46Z</time>
      </trkpt>
      <trkpt lat="48.79815" lon="7.38211">
        <ele>308.9</ele>
        <time>2020-05-10T12:18:47Z</time>
      </trkpt>
      <trkpt lat="48.79819" lon="7.38219">
        <ele>307.9</ele>
        <time>2020-05-10T12:18:49Z</time>
      </trkpt>
      <trkpt lat="48.79822" lon="7.38224">
        <ele>307.1</ele>
        <time>2020-05-10T12:18:51Z</time>
      </trkpt>
      <trkpt lat="48.79823" lon="7.38226">
        <ele>306.8</ele>
        <time>2020-05-10T12:18:52Z</time>
      </trkpt>
      <trkpt lat="48.79826" lon="7.38232">
        <ele>306.1</ele>
        <time>2020-05-10T12:18:54Z</time>
      </trkpt>
      <trkpt lat="48.79827" lon="7.38239">
        <ele>305.2</ele>
        <time>2020-05-10T12:18:56Z</time>
      </trkpt>
      <trkpt lat="48.79827" lon="7.38244">
        <ele>304.8</ele>
        <time>2020-05-10T12:18:57Z</time>
      </trkpt>
      <trkpt lat="48.79828" lon="7.38249">
        <ele>304.1</ele>
        <time>2020-05-10T12:18:58Z</time>
      </trkpt>
      <trkpt lat="48.79829" lon="7.38251">
        <ele>303.9</ele>
        <time>2020-05-10T12:18:59Z</time>
      </trkpt>
      <trkpt lat="48.7983" lon="7.38253">
        <ele>303.6</ele>
        <time>2020-05-10T12:19:00Z</time>
      </trkpt>
      <trkpt lat="48.79833" lon="7.38257">
        <ele>303</ele>
        <time>2020-05-10T12:19:02Z</time>
      </trkpt>
      <trkpt lat="48.79835" lon="7.3826">
        <ele>302.7</ele>
        <time>2020-05-10T12:19:03Z</time>
      </trkpt>
      <trkpt lat="48.79836" lon="7.38262">
        <ele>302.4</ele>
        <time>2020-05-10T12:19:05Z</time>
      </trkpt>
      <trkpt lat="48.79836" lon="7.38262">
        <ele>302.4</ele>
        <time>2020-05-10T12:19:06Z</time>
      </trkpt>
      <trkpt lat="48.79837" lon="7.38263">
        <ele>302.2</ele>
        <time>2020-05-10T12:19:08Z</time>
      </trkpt>
      <trkpt lat="48.79838" lon="7.38263">
        <ele>302.1</ele>
        <time>2020-05-10T12:19:10Z</time>
      </trkpt>
      <trkpt lat="48.79838" lon="7.38263">
        <ele>302.1</ele>
        <time>2020-05-10T12:19:11Z</time>
      </trkpt>
      <trkpt lat="48.79839" lon="7.38263">
        <ele>302</ele>
        <time>2020-05-10T12:19:13Z</time>
      </trkpt>
      <trkpt lat="48.79839" lon="7.38264">
        <ele>301.9</ele>
        <time>2020-05-10T12:19:14Z</time>
      </trkpt>
      <trkpt lat="48.79839" lon="7.38264">
        <ele>301.9</ele>
        <time>2020-05-10T12:19:15Z</time>
      </trkpt>
      <trkpt lat="48.7984" lon="7.38266">
        <ele>301.7</ele>
        <time>2020-05-10T12:19:17Z</time>
      </trkpt>
      <trkpt lat="48.79841" lon="7.38268">
        <ele>301.6</ele>
        <time>2020-05-10T12:19:19Z</time>
      </trkpt>
      <trkpt lat="48.79841" lon="7.38268">
        <ele>301.6</ele>
        <time>2020-05-10T12:19:20Z</time>
      </trkpt>
      <trkpt lat="48.79841" lon="7.38268">
        <ele>301.5</ele>
        <time>2020-05-10T12:19:22Z</time>
      </trkpt>
      <trkpt lat="48.79842" lon="7.38268">
        <ele>301.4</ele>
        <time>2020-05-10T12:19:23Z</time>
      </trkpt>
      <trkpt lat="48.79844" lon="7.38268">
        <ele>300.9</ele>
        <time>2020-05-10T12:19:25Z</time>
      </trkpt>
      <trkpt lat="48.79845" lon="7.38268">
        <ele>300.8</ele>
        <time>2020-05-10T12:19:26Z</time>
      </trkpt>
      <trkpt lat="48.79846" lon="7.38268">
        <ele>300.7</ele>
        <time>2020-05-10T12:19:27Z</time>
      </trkpt>
      <trkpt lat="48.79847" lon="7.38268">
        <ele>300.7</ele>
        <time>2020-05-10T12:19:28Z</time>
      </trkpt>
      <trkpt lat="48.79847" lon="7.38268">
        <ele>300.6</ele>
        <time>2020-05-10T12:19:29Z</time>
      </trkpt>
      <trkpt lat="48.79848" lon="7.38268">
        <ele>300.6</ele>
        <time>2020-05-10T12:19:30Z</time>
      </trkpt>
      <trkpt lat="48.79849" lon="7.38268">
        <ele>300.5</ele>
        <time>2020-05-10T12:19:31Z</time>
      </trkpt>
      <trkpt lat="48.7985" lon="7.38268">
        <ele>300.5</ele>
        <time>2020-05-10T12:19:33Z</time>
      </trkpt>
      <trkpt lat="48.79851" lon="7.38269">
        <ele>300.4</ele>
        <time>2020-05-10T12:19:35Z</time>
      </trkpt>
      <trkpt lat="48.79851" lon="7.38269">
        <ele>300.4</ele>
        <time>2020-05-10T12:19:36Z</time>
      </trkpt>
      <trkpt lat="48.79851" lon="7.3827">
        <ele>300.4</ele>
        <time>2020-05-10T12:19:37Z</time>
      </trkpt>
      <trkpt lat="48.79852" lon="7.38271">
        <ele>300.3</ele>
        <time>2020-05-10T12:19:39Z</time>
      </trkpt>
      <trkpt lat="48.79852" lon="7.38271">
        <ele>300.3</ele>
        <time>2020-05-10T12:19:41Z</time>
      </trkpt>
      <trkpt lat="48.79853" lon="7.3827">
        <ele>300.3</ele>
        <time>2020-05-10T12:19:43Z</time>
      </trkpt>
      <trkpt lat="48.79854" lon="7.38271">
        <ele>298.7</ele>
        <time>2020-05-10T12:19:45Z</time>
      </trkpt>
      <trkpt lat="48.79858" lon="7.38275">
        <ele>298</ele>
        <time>2020-05-10T12:19:47Z</time>
      </trkpt>
      <trkpt lat="48.7986" lon="7.38278">
        <ele>297.6</ele>
        <time>2020-05-10T12:19:48Z</time>
      </trkpt>
      <trkpt lat="48.79862" lon="7.38283">
        <ele>297.1</ele>
        <time>2020-05-10T12:19:50Z</time>
      </trkpt>
      <trkpt lat="48.79864" lon="7.38286">
        <ele>296.7</ele>
        <time>2020-05-10T12:19:51Z</time>
      </trkpt>
      <trkpt lat="48.79866" lon="7.3829">
        <ele>296.3</ele>
        <time>2020-05-10T12:19:53Z</time>
      </trkpt>
      <trkpt lat="48.79866" lon="7.38291">
        <ele>296.2</ele>
        <time>2020-05-10T12:19:54Z</time>
      </trkpt>
      <trkpt lat="48.79871" lon="7.38291">
        <ele>295.6</ele>
        <time>2020-05-10T12:19:56Z</time>
      </trkpt>
      <trkpt lat="48.79872" lon="7.38291">
        <ele>295.5</ele>
        <time>2020-05-10T12:19:57Z</time>
      </trkpt>
      <trkpt lat="48.79873" lon="7.3829">
        <ele>295.5</ele>
        <time>2020-05-10T12:19:58Z</time>
      </trkpt>
      <trkpt lat="48.79878" lon="7.38285">
        <ele>295</ele>
        <time>2020-05-10T12:20:00Z</time>
      </trkpt>
      <trkpt lat="48.79881" lon="7.38285">
        <ele>294.7</ele>
        <time>2020-05-10T12:20:01Z</time>
      </trkpt>
      <trkpt lat="48.79884" lon="7.38289">
        <ele>294.2</ele>
        <time>2020-05-10T12:20:03Z</time>
      </trkpt>
      <trkpt lat="48.79886" lon="7.38291">
        <ele>293.9</ele>
        <time>2020-05-10T12:20:04Z</time>
      </trkpt>
      <trkpt lat="48.7989" lon="7.38293">
        <ele>293.5</ele>
        <time>2020-05-10T12:20:06Z</time>
      </trkpt>
      <trkpt lat="48.79893" lon="7.38294">
        <ele>293.1</ele>
        <time>2020-05-10T12:20:08Z</time>
      </trkpt>
      <trkpt lat="48.79896" lon="7.38295">
        <ele>292.8</ele>
        <time>2020-05-10T12:20:09Z</time>
      </trkpt>
      <trkpt lat="48.799" lon="7.38296">
        <ele>292</ele>
        <time>2020-05-10T12:20:11Z</time>
      </trkpt>
      <trkpt lat="48.79904" lon="7.38299">
        <ele>291.5</ele>
        <time>2020-05-10T12:20:13Z</time>
      </trkpt>
      <trkpt lat="48.79908" lon="7.38301">
        <ele>290.9</ele>
        <time>2020-05-10T12:20:15Z</time>
      </trkpt>
      <trkpt lat="48.79913" lon="7.38305">
        <ele>289.9</ele>
        <time>2020-05-10T12:20:17Z</time>
      </trkpt>
      <trkpt lat="48.79915" lon="7.38306">
        <ele>289.6</ele>
        <time>2020-05-10T12:20:18Z</time>
      </trkpt>
      <trkpt lat="48.79918" lon="7.38308">
        <ele>289.1</ele>
        <time>2020-05-10T12:20:20Z</time>
      </trkpt>
      <trkpt lat="48.7992" lon="7.38309">
        <ele>288.9</ele>
        <time>2020-05-10T12:20:21Z</time>
      </trkpt>
      <trkpt lat="48.79922" lon="7.38312">
        <ele>288.5</ele>
        <time>2020-05-10T12:20:23Z</time>
      </trkpt>
      <trkpt lat="48.79923" lon="7.38316">
        <ele>288.1</ele>
        <time>2020-05-10T12:20:24Z</time>
      </trkpt>
      <trkpt lat="48.79924" lon="7.38318">
        <ele>287.9</ele>
        <time>2020-05-10T12:20:25Z</time>
      </trkpt>
      <trkpt lat="48.79926" lon="7.38322">
        <ele>287.4</ele>
        <time>2020-05-10T12:20:26Z</time>
      </trkpt>
      <trkpt lat="48.79927" lon="7.38328">
        <ele>287.4</ele>
        <time>2020-05-10T12:20:28Z</time>
      </trkpt>
      <trkpt lat="48.79926" lon="7.38331">
        <ele>287.5</ele>
        <time>2020-05-10T12:20:29Z</time>
      </trkpt>
      <trkpt lat="48.79926" lon="7.38332">
        <ele>287.5</ele>
        <time>2020-05-10T12:20:30Z</time>
      </trkpt>
      <trkpt lat="48.79925" lon="7.38334">
        <ele>287.5</ele>
        <time>2020-05-10T12:20:31Z</time>
      </trkpt>
      <trkpt lat="48.79926" lon="7.3834">
        <ele>287.6</ele>
        <time>2020-05-10T12:20:32Z</time>
      </trkpt>
      <trkpt lat="48.79926" lon="7.38342">
        <ele>287.6</ele>
        <time>2020-05-10T12:20:33Z</time>
      </trkpt>
      <trkpt lat="48.79925" lon="7.38347">
        <ele>287.7</ele>
        <time>2020-05-10T12:20:35Z</time>
      </trkpt>
      <trkpt lat="48.79925" lon="7.3835">
        <ele>287.7</ele>
        <time>2020-05-10T12:20:36Z</time>
      </trkpt>
      <trkpt lat="48.79924" lon="7.38354">
        <ele>287.8</ele>
        <time>2020-05-10T12:20:38Z</time>
      </trkpt>
      <trkpt lat="48.79923" lon="7.38361">
        <ele>287.9</ele>
        <time>2020-05-10T12:20:40Z</time>
      </trkpt>
      <trkpt lat="48.79922" lon="7.38368">
        <ele>288</ele>
        <time>2020-05-10T12:20:42Z</time>
      </trkpt>
      <trkpt lat="48.79921" lon="7.38375">
        <ele>288</ele>
        <time>2020-05-10T12:20:44Z</time>
      </trkpt>
      <trkpt lat="48.79919" lon="7.38382">
        <ele>288.1</ele>
        <time>2020-05-10T12:20:46Z</time>
      </trkpt>
      <trkpt lat="48.79916" lon="7.38389">
        <ele>288.1</ele>
        <time>2020-05-10T12:20:48Z</time>
      </trkpt>
      <trkpt lat="48.79915" lon="7.38392">
        <ele>288.1</ele>
        <time>2020-05-10T12:20:49Z</time>
      </trkpt>
      <trkpt lat="48.79911" lon="7.38397">
        <ele>288.4</ele>
        <time>2020-05-10T12:20:51Z</time>
      </trkpt>
      <trkpt lat="48.79907" lon="7.38398">
        <ele>288.7</ele>
        <time>2020-05-10T12:20:52Z</time>
      </trkpt>
      <trkpt lat="48.79904" lon="7.38397">
        <ele>288.9</ele>
        <time>2020-05-10T12:20:53Z</time>
      </trkpt>
      <trkpt lat="48.79901" lon="7.38396">
        <ele>289.2</ele>
        <time>2020-05-10T12:20:55Z</time>
      </trkpt>
      <trkpt lat="48.79898" lon="7.38394">
        <ele>289.5</ele>
        <time>2020-05-10T12:20:56Z</time>
      </trkpt>
      <trkpt lat="48.79898" lon="7.38393">
        <ele>289.5</ele>
        <time>2020-05-10T12:20:58Z</time>
      </trkpt>
      <trkpt lat="48.79898" lon="7.38393">
        <ele>289.5</ele>
        <time>2020-05-10T12:21:00Z</time>
      </trkpt>
      <trkpt lat="48.79898" lon="7.38393">
        <ele>289.6</ele>
        <time>2020-05-10T12:21:02Z</time>
      </trkpt>
      <trkpt lat="48.79897" lon="7.38393">
        <ele>289.6</ele>
        <time>2020-05-10T12:21:04Z</time>
      </trkpt>
      <trkpt lat="48.79897" lon="7.38393">
        <ele>289.6</ele>
        <time>2020-05-10T12:21:05Z</time>
      </trkpt>
      <trkpt lat="48.79897" lon="7.38392">
        <ele>289.6</ele>
        <time>2020-05-10T12:21:06Z</time>
      </trkpt>
      <trkpt lat="48.79897" lon="7.38392">
        <ele>289.7</ele>
        <time>2020-05-10T12:21:08Z</time>
      </trkpt>
      <trkpt lat="48.79896" lon="7.38392">
        <ele>289.7</ele>
        <time>2020-05-10T12:21:09Z</time>
      </trkpt>
      <trkpt lat="48.79896" lon="7.38392">
        <ele>289.7</ele>
        <time>2020-05-10T12:21:10Z</time>
      </trkpt>
      <trkpt lat="48.79896" lon="7.38392">
        <ele>289.8</ele>
        <time>2020-05-10T12:21:11Z</time>
      </trkpt>
      <trkpt lat="48.79895" lon="7.38391">
        <ele>289.8</ele>
        <time>2020-05-10T12:21:15Z</time>
      </trkpt>
      <trkpt lat="48.79895" lon="7.38391">
        <ele>289.8</ele>
        <time>2020-05-10T12:21:29Z</time>
      </trkpt>
      <trkpt lat="48.79895" lon="7.38391">
        <ele>289.9</ele>
        <time>2020-05-10T12:21:31Z</time>
      </trkpt>
      <trkpt lat="48.79895" lon="7.38391">
        <ele>289.9</ele>
        <time>2020-05-10T12:21:32Z</time>
      </trkpt>
      <trkpt lat="48.79894" lon="7.38389">
        <ele>290</ele>
        <time>2020-05-10T12:21:33Z</time>
      </trkpt>
      <trkpt lat="48.79892" lon="7.38387">
        <ele>290.3</ele>
        <time>2020-05-10T12:21:35Z</time>
      </trkpt>
      <trkpt lat="48.79888" lon="7.38384">
        <ele>290.7</ele>
        <time>2020-05-10T12:21:37Z</time>
      </trkpt>
      <trkpt lat="48.79886" lon="7.38381">
        <ele>291</ele>
        <time>2020-05-10T12:21:39Z</time>
      </trkpt>
      <trkpt lat="48.79886" lon="7.3838">
        <ele>291</ele>
        <time>2020-05-10T12:21:40Z</time>
      </trkpt>
      <trkpt lat="48.79884" lon="7.38376">
        <ele>291.4</ele>
        <time>2020-05-10T12:21:42Z</time>
      </trkpt>
      <trkpt lat="48.79881" lon="7.3837">
        <ele>291.8</ele>
        <time>2020-05-10T12:21:44Z</time>
      </trkpt>
      <trkpt lat="48.79879" lon="7.38366">
        <ele>292.2</ele>
        <time>2020-05-10T12:21:45Z</time>
      </trkpt>
      <trkpt lat="48.79878" lon="7.38365">
        <ele>292.3</ele>
        <time>2020-05-10T12:21:46Z</time>
      </trkpt>
      <trkpt lat="48.79876" lon="7.38363">
        <ele>292.4</ele>
        <time>2020-05-10T12:21:47Z</time>
      </trkpt>
      <trkpt lat="48.79872" lon="7.38358">
        <ele>293</ele>
        <time>2020-05-10T12:21:49Z</time>
      </trkpt>
      <trkpt lat="48.7987" lon="7.38356">
        <ele>293.3</ele>
        <time>2020-05-10T12:21:50Z</time>
      </trkpt>
      <trkpt lat="48.79868" lon="7.38354">
        <ele>293.4</ele>
        <time>2020-05-10T12:21:51Z</time>
      </trkpt>
      <trkpt lat="48.79863" lon="7.38348">
        <ele>294</ele>
        <time>2020-05-10T12:21:53Z</time>
      </trkpt>
      <trkpt lat="48.79861" lon="7.38346">
        <ele>294.3</ele>
        <time>2020-05-10T12:21:54Z</time>
      </trkpt>
      <trkpt lat="48.79859" lon="7.38343">
        <ele>294.6</ele>
        <time>2020-05-10T12:21:55Z</time>
      </trkpt>
      <trkpt lat="48.79854" lon="7.38338">
        <ele>295.2</ele>
        <time>2020-05-10T12:21:57Z</time>
      </trkpt>
      <trkpt lat="48.79852" lon="7.38337">
        <ele>295.4</ele>
        <time>2020-05-10T12:21:58Z</time>
      </trkpt>
      <trkpt lat="48.79849" lon="7.38333">
        <ele>295.8</ele>
        <time>2020-05-10T12:22:00Z</time>
      </trkpt>
      <trkpt lat="48.79845" lon="7.38329">
        <ele>296.3</ele>
        <time>2020-05-10T12:22:02Z</time>
      </trkpt>
      <trkpt lat="48.79842" lon="7.38325">
        <ele>296.7</ele>
        <time>2020-05-10T12:22:03Z</time>
      </trkpt>
      <trkpt lat="48.79841" lon="7.38324">
        <ele>296.8</ele>
        <time>2020-05-10T12:22:04Z</time>
      </trkpt>
      <trkpt lat="48.79837" lon="7.38318">
        <ele>297.3</ele>
        <time>2020-05-10T12:22:06Z</time>
      </trkpt>
      <trkpt lat="48.79833" lon="7.38311">
        <ele>298</ele>
        <time>2020-05-10T12:22:08Z</time>
      </trkpt>
      <trkpt lat="48.7983" lon="7.38307">
        <ele>298.3</ele>
        <time>2020-05-10T12:22:09Z</time>
      </trkpt>
      <trkpt lat="48.79829" lon="7.38305">
        <ele>298.5</ele>
        <time>2020-05-10T12:22:10Z</time>
      </trkpt>
      <trkpt lat="48.79825" lon="7.383">
        <ele>299</ele>
        <time>2020-05-10T12:22:12Z</time>
      </trkpt>
      <trkpt lat="48.79822" lon="7.38297">
        <ele>299.3</ele>
        <time>2020-05-10T12:22:13Z</time>
      </trkpt>
      <trkpt lat="48.79819" lon="7.38291">
        <ele>299.8</ele>
        <time>2020-05-10T12:22:15Z</time>
      </trkpt>
      <trkpt lat="48.79817" lon="7.38287">
        <ele>300.1</ele>
        <time>2020-05-10T12:22:16Z</time>
      </trkpt>
      <trkpt lat="48.79816" lon="7.38284">
        <ele>300.3</ele>
        <time>2020-05-10T12:22:17Z</time>
      </trkpt>
      <trkpt lat="48.79812" lon="7.38277">
        <ele>300.9</ele>
        <time>2020-05-10T12:22:19Z</time>
      </trkpt>
      <trkpt lat="48.79809" lon="7.38274">
        <ele>301.3</ele>
        <time>2020-05-10T12:22:20Z</time>
      </trkpt>
      <trkpt lat="48.79808" lon="7.38272">
        <ele>301.4</ele>
        <time>2020-05-10T12:22:21Z</time>
      </trkpt>
      <trkpt lat="48.79805" lon="7.38269">
        <ele>301.7</ele>
        <time>2020-05-10T12:22:22Z</time>
      </trkpt>
      <trkpt lat="48.79803" lon="7.38265">
        <ele>302.1</ele>
        <time>2020-05-10T12:22:23Z</time>
      </trkpt>
      <trkpt lat="48.79802" lon="7.38264">
        <ele>302.2</ele>
        <time>2020-05-10T12:22:24Z</time>
      </trkpt>
      <trkpt lat="48.79798" lon="7.38259">
        <ele>302.7</ele>
        <time>2020-05-10T12:22:26Z</time>
      </trkpt>
      <trkpt lat="48.79794" lon="7.38255">
        <ele>303.2</ele>
        <time>2020-05-10T12:22:28Z</time>
      </trkpt>
      <trkpt lat="48.79791" lon="7.38251">
        <ele>303.6</ele>
        <time>2020-05-10T12:22:30Z</time>
      </trkpt>
      <trkpt lat="48.7979" lon="7.38249">
        <ele>303.8</ele>
        <time>2020-05-10T12:22:31Z</time>
      </trkpt>
      <trkpt lat="48.79787" lon="7.38245">
        <ele>304.1</ele>
        <time>2020-05-10T12:22:33Z</time>
      </trkpt>
      <trkpt lat="48.79786" lon="7.38242">
        <ele>304.4</ele>
        <time>2020-05-10T12:22:34Z</time>
      </trkpt>
      <trkpt lat="48.79782" lon="7.38235">
        <ele>304.9</ele>
        <time>2020-05-10T12:22:36Z</time>
      </trkpt>
      <trkpt lat="48.7978" lon="7.38232">
        <ele>305.2</ele>
        <time>2020-05-10T12:22:37Z</time>
      </trkpt>
      <trkpt lat="48.79777" lon="7.38225">
        <ele>305.8</ele>
        <time>2020-05-10T12:22:39Z</time>
      </trkpt>
      <trkpt lat="48.79775" lon="7.38221">
        <ele>306.1</ele>
        <time>2020-05-10T12:22:40Z</time>
      </trkpt>
      <trkpt lat="48.79771" lon="7.38215">
        <ele>306.6</ele>
        <time>2020-05-10T12:22:42Z</time>
      </trkpt>
      <trkpt lat="48.79769" lon="7.38212">
        <ele>306.9</ele>
        <time>2020-05-10T12:22:43Z</time>
      </trkpt>
      <trkpt lat="48.79766" lon="7.38209">
        <ele>307.2</ele>
        <time>2020-05-10T12:22:44Z</time>
      </trkpt>
      <trkpt lat="48.79762" lon="7.38204">
        <ele>307.6</ele>
        <time>2020-05-10T12:22:46Z</time>
      </trkpt>
      <trkpt lat="48.79761" lon="7.38201">
        <ele>307.8</ele>
        <time>2020-05-10T12:22:47Z</time>
      </trkpt>
      <trkpt lat="48.79756" lon="7.38195">
        <ele>308.3</ele>
        <time>2020-05-10T12:22:49Z</time>
      </trkpt>
      <trkpt lat="48.79754" lon="7.38193">
        <ele>308.6</ele>
        <time>2020-05-10T12:22:50Z</time>
      </trkpt>
      <trkpt lat="48.79752" lon="7.38191">
        <ele>308.8</ele>
        <time>2020-05-10T12:22:51Z</time>
      </trkpt>
      <trkpt lat="48.79748" lon="7.38188">
        <ele>309.1</ele>
        <time>2020-05-10T12:22:53Z</time>
      </trkpt>
      <trkpt lat="48.79744" lon="7.38185">
        <ele>309.5</ele>
        <time>2020-05-10T12:22:54Z</time>
      </trkpt>
      <trkpt lat="48.7974" lon="7.3818">
        <ele>309.9</ele>
        <time>2020-05-10T12:22:56Z</time>
      </trkpt>
      <trkpt lat="48.79737" lon="7.38177">
        <ele>310.2</ele>
        <time>2020-05-10T12:22:57Z</time>
      </trkpt>
      <trkpt lat="48.79736" lon="7.38176">
        <ele>310.3</ele>
        <time>2020-05-10T12:22:58Z</time>
      </trkpt>
      <trkpt lat="48.79734" lon="7.38174">
        <ele>310.4</ele>
        <time>2020-05-10T12:22:59Z</time>
      </trkpt>
      <trkpt lat="48.7973" lon="7.38168">
        <ele>310.8</ele>
        <time>2020-05-10T12:23:01Z</time>
      </trkpt>
      <trkpt lat="48.79726" lon="7.38162">
        <ele>311.2</ele>
        <time>2020-05-10T12:23:03Z</time>
      </trkpt>
      <trkpt lat="48.79724" lon="7.38159">
        <ele>311.4</ele>
        <time>2020-05-10T12:23:04Z</time>
      </trkpt>
      <trkpt lat="48.79722" lon="7.38154">
        <ele>311.6</ele>
        <time>2020-05-10T12:23:05Z</time>
      </trkpt>
      <trkpt lat="48.79721" lon="7.38152">
        <ele>311.7</ele>
        <time>2020-05-10T12:23:06Z</time>
      </trkpt>
      <trkpt lat="48.79719" lon="7.38149">
        <ele>311.8</ele>
        <time>2020-05-10T12:23:07Z</time>
      </trkpt>
      <trkpt lat="48.79714" lon="7.38143">
        <ele>312.1</ele>
        <time>2020-05-10T12:23:09Z</time>
      </trkpt>
      <trkpt lat="48.79712" lon="7.38141">
        <ele>312.3</ele>
        <time>2020-05-10T12:23:10Z</time>
      </trkpt>
      <trkpt lat="48.79708" lon="7.38137">
        <ele>312.5</ele>
        <time>2020-05-10T12:23:12Z</time>
      </trkpt>
      <trkpt lat="48.79706" lon="7.38133">
        <ele>312.6</ele>
        <time>2020-05-10T12:23:13Z</time>
      </trkpt>
      <trkpt lat="48.79704" lon="7.3813">
        <ele>312.8</ele>
        <time>2020-05-10T12:23:14Z</time>
      </trkpt>
      <trkpt lat="48.79699" lon="7.38124">
        <ele>313</ele>
        <time>2020-05-10T12:23:16Z</time>
      </trkpt>
      <trkpt lat="48.79695" lon="7.38116">
        <ele>313.3</ele>
        <time>2020-05-10T12:23:18Z</time>
      </trkpt>
      <trkpt lat="48.79692" lon="7.38112">
        <ele>313.4</ele>
        <time>2020-05-10T12:23:19Z</time>
      </trkpt>
      <trkpt lat="48.7969" lon="7.38109">
        <ele>313.5</ele>
        <time>2020-05-10T12:23:20Z</time>
      </trkpt>
      <trkpt lat="48.79686" lon="7.38105">
        <ele>313.7</ele>
        <time>2020-05-10T12:23:22Z</time>
      </trkpt>
      <trkpt lat="48.79681" lon="7.38099">
        <ele>314</ele>
        <time>2020-05-10T12:23:24Z</time>
      </trkpt>
      <trkpt lat="48.79676" lon="7.38094">
        <ele>314.2</ele>
        <time>2020-05-10T12:23:26Z</time>
      </trkpt>
      <trkpt lat="48.79674" lon="7.38091">
        <ele>314.3</ele>
        <time>2020-05-10T12:23:27Z</time>
      </trkpt>
      <trkpt lat="48.79671" lon="7.38088">
        <ele>314.4</ele>
        <time>2020-05-10T12:23:28Z</time>
      </trkpt>
      <trkpt lat="48.79665" lon="7.38081">
        <ele>314.7</ele>
        <time>2020-05-10T12:23:30Z</time>
      </trkpt>
      <trkpt lat="48.79659" lon="7.38075">
        <ele>314.9</ele>
        <time>2020-05-10T12:23:32Z</time>
      </trkpt>
      <trkpt lat="48.79654" lon="7.38071">
        <ele>315</ele>
        <time>2020-05-10T12:23:33Z</time>
      </trkpt>
      <trkpt lat="48.79646" lon="7.38067">
        <ele>315.2</ele>
        <time>2020-05-10T12:23:35Z</time>
      </trkpt>
      <trkpt lat="48.79638" lon="7.38062">
        <ele>315.4</ele>
        <time>2020-05-10T12:23:37Z</time>
      </trkpt>
      <trkpt lat="48.7963" lon="7.38056">
        <ele>315.6</ele>
        <time>2020-05-10T12:23:39Z</time>
      </trkpt>
      <trkpt lat="48.79625" lon="7.38052">
        <ele>315.7</ele>
        <time>2020-05-10T12:23:40Z</time>
      </trkpt>
      <trkpt lat="48.79616" lon="7.38044">
        <ele>315.9</ele>
        <time>2020-05-10T12:23:42Z</time>
      </trkpt>
      <trkpt lat="48.79608" lon="7.38036">
        <ele>316.1</ele>
        <time>2020-05-10T12:23:44Z</time>
      </trkpt>
      <trkpt lat="48.79603" lon="7.38033">
        <ele>316.2</ele>
        <time>2020-05-10T12:23:45Z</time>
      </trkpt>
      <trkpt lat="48.79599" lon="7.3803">
        <ele>316.3</ele>
        <time>2020-05-10T12:23:46Z</time>
      </trkpt>
      <trkpt lat="48.79589" lon="7.38023">
        <ele>316.6</ele>
        <time>2020-05-10T12:23:48Z</time>
      </trkpt>
      <trkpt lat="48.79585" lon="7.3802">
        <ele>316.7</ele>
        <time>2020-05-10T12:23:49Z</time>
      </trkpt>
      <trkpt lat="48.79576" lon="7.38014">
        <ele>317</ele>
        <time>2020-05-10T12:23:51Z</time>
      </trkpt>
      <trkpt lat="48.7957" lon="7.38011">
        <ele>317.1</ele>
        <time>2020-05-10T12:23:52Z</time>
      </trkpt>
      <trkpt lat="48.79559" lon="7.38003">
        <ele>317.5</ele>
        <time>2020-05-10T12:23:54Z</time>
      </trkpt>
      <trkpt lat="48.7955" lon="7.37997">
        <ele>317.7</ele>
        <time>2020-05-10T12:23:56Z</time>
      </trkpt>
      <trkpt lat="48.7954" lon="7.3799">
        <ele>318</ele>
        <time>2020-05-10T12:23:58Z</time>
      </trkpt>
      <trkpt lat="48.79535" lon="7.37987">
        <ele>318.1</ele>
        <time>2020-05-10T12:23:59Z</time>
      </trkpt>
      <trkpt lat="48.79531" lon="7.37984">
        <ele>318.2</ele>
        <time>2020-05-10T12:24:00Z</time>
      </trkpt>
      <trkpt lat="48.79526" lon="7.37981">
        <ele>318.3</ele>
        <time>2020-05-10T12:24:01Z</time>
      </trkpt>
      <trkpt lat="48.79515" lon="7.37975">
        <ele>318.6</ele>
        <time>2020-05-10T12:24:03Z</time>
      </trkpt>
      <trkpt lat="48.79505" lon="7.37966">
        <ele>318.9</ele>
        <time>2020-05-10T12:24:05Z</time>
      </trkpt>
      <trkpt lat="48.79499" lon="7.37962">
        <ele>319</ele>
        <time>2020-05-10T12:24:06Z</time>
      </trkpt>
      <trkpt lat="48.79489" lon="7.37961">
        <ele>319.3</ele>
        <time>2020-05-10T12:24:08Z</time>
      </trkpt>
      <trkpt lat="48.79484" lon="7.37959">
        <ele>319.4</ele>
        <time>2020-05-10T12:24:09Z</time>
      </trkpt>
      <trkpt lat="48.79478" lon="7.37957">
        <ele>319.6</ele>
        <time>2020-05-10T12:24:10Z</time>
      </trkpt>
      <trkpt lat="48.79469" lon="7.37952">
        <ele>319.8</ele>
        <time>2020-05-10T12:24:12Z</time>
      </trkpt>
      <trkpt lat="48.79465" lon="7.37948">
        <ele>320</ele>
        <time>2020-05-10T12:24:13Z</time>
      </trkpt>
      <trkpt lat="48.7946" lon="7.37945">
        <ele>320.1</ele>
        <time>2020-05-10T12:24:14Z</time>
      </trkpt>
      <trkpt lat="48.7945" lon="7.37941">
        <ele>320.4</ele>
        <time>2020-05-10T12:24:16Z</time>
      </trkpt>
      <trkpt lat="48.79439" lon="7.37934">
        <ele>320.7</ele>
        <time>2020-05-10T12:24:18Z</time>
      </trkpt>
      <trkpt lat="48.79427" lon="7.37927">
        <ele>321</ele>
        <time>2020-05-10T12:24:20Z</time>
      </trkpt>
      <trkpt lat="48.79422" lon="7.37924">
        <ele>321.2</ele>
        <time>2020-05-10T12:24:21Z</time>
      </trkpt>
      <trkpt lat="48.79411" lon="7.37918">
        <ele>321.5</ele>
        <time>2020-05-10T12:24:23Z</time>
      </trkpt>
      <trkpt lat="48.79404" lon="7.37915">
        <ele>321.7</ele>
        <time>2020-05-10T12:24:24Z</time>
      </trkpt>
      <trkpt lat="48.79393" lon="7.37908">
        <ele>322.1</ele>
        <time>2020-05-10T12:24:26Z</time>
      </trkpt>
      <trkpt lat="48.79387" lon="7.37905">
        <ele>322.2</ele>
        <time>2020-05-10T12:24:27Z</time>
      </trkpt>
      <trkpt lat="48.79379" lon="7.379">
        <ele>322.5</ele>
        <time>2020-05-10T12:24:29Z</time>
      </trkpt>
      <trkpt lat="48.79369" lon="7.37895">
        <ele>322.8</ele>
        <time>2020-05-10T12:24:31Z</time>
      </trkpt>
      <trkpt lat="48.79364" lon="7.37891">
        <ele>322.9</ele>
        <time>2020-05-10T12:24:32Z</time>
      </trkpt>
      <trkpt lat="48.79358" lon="7.37887">
        <ele>323.1</ele>
        <time>2020-05-10T12:24:33Z</time>
      </trkpt>
      <trkpt lat="48.79352" lon="7.37884">
        <ele>323.2</ele>
        <time>2020-05-10T12:24:34Z</time>
      </trkpt>
      <trkpt lat="48.79342" lon="7.37877">
        <ele>323.5</ele>
        <time>2020-05-10T12:24:36Z</time>
      </trkpt>
      <trkpt lat="48.79336" lon="7.37872">
        <ele>323.6</ele>
        <time>2020-05-10T12:24:37Z</time>
      </trkpt>
      <trkpt lat="48.79331" lon="7.3787">
        <ele>323.7</ele>
        <time>2020-05-10T12:24:38Z</time>
      </trkpt>
      <trkpt lat="48.7932" lon="7.37866">
        <ele>324.1</ele>
        <time>2020-05-10T12:24:40Z</time>
      </trkpt>
      <trkpt lat="48.79308" lon="7.37857">
        <ele>324.4</ele>
        <time>2020-05-10T12:24:42Z</time>
      </trkpt>
      <trkpt lat="48.79303" lon="7.37852">
        <ele>324.6</ele>
        <time>2020-05-10T12:24:43Z</time>
      </trkpt>
      <trkpt lat="48.79295" lon="7.37843">
        <ele>324.9</ele>
        <time>2020-05-10T12:24:45Z</time>
      </trkpt>
      <trkpt lat="48.7929" lon="7.37838">
        <ele>325</ele>
        <time>2020-05-10T12:24:46Z</time>
      </trkpt>
      <trkpt lat="48.79279" lon="7.37828">
        <ele>325.3</ele>
        <time>2020-05-10T12:24:48Z</time>
      </trkpt>
      <trkpt lat="48.79273" lon="7.37824">
        <ele>325.4</ele>
        <time>2020-05-10T12:24:49Z</time>
      </trkpt>
      <trkpt lat="48.79267" lon="7.3782">
        <ele>325.6</ele>
        <time>2020-05-10T12:24:50Z</time>
      </trkpt>
      <trkpt lat="48.79255" lon="7.37813">
        <ele>325.9</ele>
        <time>2020-05-10T12:24:52Z</time>
      </trkpt>
      <trkpt lat="48.7925" lon="7.37809">
        <ele>326</ele>
        <time>2020-05-10T12:24:53Z</time>
      </trkpt>
      <trkpt lat="48.79245" lon="7.37806">
        <ele>326.2</ele>
        <time>2020-05-10T12:24:54Z</time>
      </trkpt>
      <trkpt lat="48.79236" lon="7.378">
        <ele>326.4</ele>
        <time>2020-05-10T12:24:56Z</time>
      </trkpt>
      <trkpt lat="48.79231" lon="7.37797">
        <ele>326.5</ele>
        <time>2020-05-10T12:24:57Z</time>
      </trkpt>
      <trkpt lat="48.79219" lon="7.37789">
        <ele>326.7</ele>
        <time>2020-05-10T12:24:59Z</time>
      </trkpt>
      <trkpt lat="48.79206" lon="7.37784">
        <ele>326.9</ele>
        <time>2020-05-10T12:25:01Z</time>
      </trkpt>
      <trkpt lat="48.792" lon="7.37781">
        <ele>327</ele>
        <time>2020-05-10T12:25:02Z</time>
      </trkpt>
      <trkpt lat="48.79196" lon="7.37777">
        <ele>327.1</ele>
        <time>2020-05-10T12:25:03Z</time>
      </trkpt>
      <trkpt lat="48.79192" lon="7.37772">
        <ele>327.2</ele>
        <time>2020-05-10T12:25:04Z</time>
      </trkpt>
      <trkpt lat="48.79187" lon="7.37767">
        <ele>327.3</ele>
        <time>2020-05-10T12:25:05Z</time>
      </trkpt>
      <trkpt lat="48.79179" lon="7.37758">
        <ele>327.6</ele>
        <time>2020-05-10T12:25:07Z</time>
      </trkpt>
      <trkpt lat="48.79167" lon="7.37747">
        <ele>327.9</ele>
        <time>2020-05-10T12:25:09Z</time>
      </trkpt>
      <trkpt lat="48.7916" lon="7.37743">
        <ele>328.1</ele>
        <time>2020-05-10T12:25:10Z</time>
      </trkpt>
      <trkpt lat="48.79148" lon="7.37733">
        <ele>328.5</ele>
        <time>2020-05-10T12:25:12Z</time>
      </trkpt>
      <trkpt lat="48.79142" lon="7.37728">
        <ele>328.7</ele>
        <time>2020-05-10T12:25:13Z</time>
      </trkpt>
      <trkpt lat="48.79137" lon="7.37725">
        <ele>328.8</ele>
        <time>2020-05-10T12:25:14Z</time>
      </trkpt>
      <trkpt lat="48.79126" lon="7.37721">
        <ele>329.1</ele>
        <time>2020-05-10T12:25:16Z</time>
      </trkpt>
      <trkpt lat="48.79121" lon="7.37718">
        <ele>329.2</ele>
        <time>2020-05-10T12:25:17Z</time>
      </trkpt>
      <trkpt lat="48.79115" lon="7.37716">
        <ele>329.4</ele>
        <time>2020-05-10T12:25:18Z</time>
      </trkpt>
      <trkpt lat="48.79109" lon="7.37715">
        <ele>329.6</ele>
        <time>2020-05-10T12:25:19Z</time>
      </trkpt>
      <trkpt lat="48.79103" lon="7.37711">
        <ele>329.7</ele>
        <time>2020-05-10T12:25:20Z</time>
      </trkpt>
      <trkpt lat="48.79098" lon="7.37707">
        <ele>329.9</ele>
        <time>2020-05-10T12:25:21Z</time>
      </trkpt>
      <trkpt lat="48.79087" lon="7.37699">
        <ele>330.4</ele>
        <time>2020-05-10T12:25:23Z</time>
      </trkpt>
      <trkpt lat="48.79082" lon="7.37695">
        <ele>330.6</ele>
        <time>2020-05-10T12:25:24Z</time>
      </trkpt>
      <trkpt lat="48.79072" lon="7.37693">
        <ele>330.2</ele>
        <time>2020-05-10T12:25:26Z</time>
      </trkpt>
      <trkpt lat="48.79061" lon="7.37688">
        <ele>329.9</ele>
        <time>2020-05-10T12:25:28Z</time>
      </trkpt>
      <trkpt lat="48.79049" lon="7.37687">
        <ele>329.7</ele>
        <time>2020-05-10T12:25:30Z</time>
      </trkpt>
      <trkpt lat="48.79042" lon="7.37686">
        <ele>329.5</ele>
        <time>2020-05-10T12:25:31Z</time>
      </trkpt>
      <trkpt lat="48.79036" lon="7.37683">
        <ele>329.4</ele>
        <time>2020-05-10T12:25:32Z</time>
      </trkpt>
      <trkpt lat="48.79026" lon="7.37676">
        <ele>329.2</ele>
        <time>2020-05-10T12:25:34Z</time>
      </trkpt>
      <trkpt lat="48.79019" lon="7.37678">
        <ele>329.1</ele>
        <time>2020-05-10T12:25:35Z</time>
      </trkpt>
      <trkpt lat="48.79008" lon="7.37676">
        <ele>328.9</ele>
        <time>2020-05-10T12:25:37Z</time>
      </trkpt>
      <trkpt lat="48.79002" lon="7.37675">
        <ele>328.8</ele>
        <time>2020-05-10T12:25:38Z</time>
      </trkpt>
      <trkpt lat="48.78996" lon="7.37672">
        <ele>328.7</ele>
        <time>2020-05-10T12:25:39Z</time>
      </trkpt>
      <trkpt lat="48.78986" lon="7.37668">
        <ele>328.5</ele>
        <time>2020-05-10T12:25:41Z</time>
      </trkpt>
      <trkpt lat="48.78981" lon="7.37664">
        <ele>328.4</ele>
        <time>2020-05-10T12:25:42Z</time>
      </trkpt>
      <trkpt lat="48.78975" lon="7.37662">
        <ele>328.3</ele>
        <time>2020-05-10T12:25:43Z</time>
      </trkpt>
      <trkpt lat="48.78965" lon="7.37656">
        <ele>328</ele>
        <time>2020-05-10T12:25:45Z</time>
      </trkpt>
      <trkpt lat="48.7896" lon="7.37652">
        <ele>327.9</ele>
        <time>2020-05-10T12:25:46Z</time>
      </trkpt>
      <trkpt lat="48.78948" lon="7.37648">
        <ele>327.6</ele>
        <time>2020-05-10T12:25:48Z</time>
      </trkpt>
      <trkpt lat="48.78942" lon="7.37645">
        <ele>327.5</ele>
        <time>2020-05-10T12:25:49Z</time>
      </trkpt>
      <trkpt lat="48.78932" lon="7.37642">
        <ele>327.3</ele>
        <time>2020-05-10T12:25:51Z</time>
      </trkpt>
      <trkpt lat="48.78927" lon="7.37639">
        <ele>327.2</ele>
        <time>2020-05-10T12:25:52Z</time>
      </trkpt>
      <trkpt lat="48.78921" lon="7.37637">
        <ele>327.1</ele>
        <time>2020-05-10T12:25:53Z</time>
      </trkpt>
      <trkpt lat="48.78909" lon="7.37635">
        <ele>327</ele>
        <time>2020-05-10T12:25:55Z</time>
      </trkpt>
      <trkpt lat="48.78902" lon="7.37635">
        <ele>326.9</ele>
        <time>2020-05-10T12:25:56Z</time>
      </trkpt>
      <trkpt lat="48.78895" lon="7.37634">
        <ele>326.8</ele>
        <time>2020-05-10T12:25:57Z</time>
      </trkpt>
      <trkpt lat="48.78884" lon="7.37628">
        <ele>326.5</ele>
        <time>2020-05-10T12:25:59Z</time>
      </trkpt>
      <trkpt lat="48.78879" lon="7.37626">
        <ele>326.4</ele>
        <time>2020-05-10T12:26:00Z</time>
      </trkpt>
      <trkpt lat="48.78874" lon="7.37623">
        <ele>326.3</ele>
        <time>2020-05-10T12:26:01Z</time>
      </trkpt>
      <trkpt lat="48.78869" lon="7.37621">
        <ele>326.2</ele>
        <time>2020-05-10T12:26:02Z</time>
      </trkpt>
      <trkpt lat="48.78858" lon="7.37613">
        <ele>326</ele>
        <time>2020-05-10T12:26:04Z</time>
      </trkpt>
      <trkpt lat="48.78848" lon="7.37606">
        <ele>325.9</ele>
        <time>2020-05-10T12:26:06Z</time>
      </trkpt>
      <trkpt lat="48.78842" lon="7.37603">
        <ele>325.8</ele>
        <time>2020-05-10T12:26:07Z</time>
      </trkpt>
      <trkpt lat="48.78836" lon="7.376">
        <ele>325.7</ele>
        <time>2020-05-10T12:26:08Z</time>
      </trkpt>
      <trkpt lat="48.78825" lon="7.37595">
        <ele>325.6</ele>
        <time>2020-05-10T12:26:10Z</time>
      </trkpt>
      <trkpt lat="48.78815" lon="7.37591">
        <ele>325.5</ele>
        <time>2020-05-10T12:26:12Z</time>
      </trkpt>
      <trkpt lat="48.78809" lon="7.37588">
        <ele>325.4</ele>
        <time>2020-05-10T12:26:13Z</time>
      </trkpt>
      <trkpt lat="48.78803" lon="7.37586">
        <ele>325.4</ele>
        <time>2020-05-10T12:26:14Z</time>
      </trkpt>
      <trkpt lat="48.78791" lon="7.3758">
        <ele>325.4</ele>
        <time>2020-05-10T12:26:16Z</time>
      </trkpt>
      <trkpt lat="48.78781" lon="7.37576">
        <ele>325.4</ele>
        <time>2020-05-10T12:26:18Z</time>
      </trkpt>
      <trkpt lat="48.78772" lon="7.37568">
        <ele>325.4</ele>
        <time>2020-05-10T12:26:20Z</time>
      </trkpt>
      <trkpt lat="48.78765" lon="7.37563">
        <ele>325.4</ele>
        <time>2020-05-10T12:26:21Z</time>
      </trkpt>
      <trkpt lat="48.78757" lon="7.37558">
        <ele>325</ele>
        <time>2020-05-10T12:26:23Z</time>
      </trkpt>
      <trkpt lat="48.78754" lon="7.37556">
        <ele>324.1</ele>
        <time>2020-05-10T12:26:24Z</time>
      </trkpt>
      <trkpt lat="48.78743" lon="7.37555">
        <ele>321.5</ele>
        <time>2020-05-10T12:26:26Z</time>
      </trkpt>
      <trkpt lat="48.78732" lon="7.37559">
        <ele>319.2</ele>
        <time>2020-05-10T12:26:28Z</time>
      </trkpt>
      <trkpt lat="48.78729" lon="7.37556">
        <ele>319.2</ele>
        <time>2020-05-10T12:26:29Z</time>
      </trkpt>
      <trkpt lat="48.78725" lon="7.37553">
        <ele>319.2</ele>
        <time>2020-05-10T12:26:30Z</time>
      </trkpt>
      <trkpt lat="48.78723" lon="7.3755">
        <ele>319.2</ele>
        <time>2020-05-10T12:26:31Z</time>
      </trkpt>
      <trkpt lat="48.78719" lon="7.37546">
        <ele>319.3</ele>
        <time>2020-05-10T12:26:33Z</time>
      </trkpt>
      <trkpt lat="48.78716" lon="7.37545">
        <ele>319.4</ele>
        <time>2020-05-10T12:26:34Z</time>
      </trkpt>
      <trkpt lat="48.78712" lon="7.37543">
        <ele>319.6</ele>
        <time>2020-05-10T12:26:36Z</time>
      </trkpt>
      <trkpt lat="48.78708" lon="7.37543">
        <ele>319.9</ele>
        <time>2020-05-10T12:26:38Z</time>
      </trkpt>
      <trkpt lat="48.78704" lon="7.37541">
        <ele>320.1</ele>
        <time>2020-05-10T12:26:40Z</time>
      </trkpt>
      <trkpt lat="48.78702" lon="7.3754">
        <ele>320.2</ele>
        <time>2020-05-10T12:26:41Z</time>
      </trkpt>
      <trkpt lat="48.78698" lon="7.37539">
        <ele>320.4</ele>
        <time>2020-05-10T12:26:43Z</time>
      </trkpt>
      <trkpt lat="48.78696" lon="7.37539">
        <ele>320.5</ele>
        <time>2020-05-10T12:26:44Z</time>
      </trkpt>
      <trkpt lat="48.78694" lon="7.37539">
        <ele>320.6</ele>
        <time>2020-05-10T12:26:45Z</time>
      </trkpt>
      <trkpt lat="48.78693" lon="7.37537">
        <ele>320.7</ele>
        <time>2020-05-10T12:26:46Z</time>
      </trkpt>
      <trkpt lat="48.7869" lon="7.37534">
        <ele>320.8</ele>
        <time>2020-05-10T12:26:48Z</time>
      </trkpt>
      <trkpt lat="48.78689" lon="7.37533">
        <ele>320.9</ele>
        <time>2020-05-10T12:26:49Z</time>
      </trkpt>
      <trkpt lat="48.78685" lon="7.37531">
        <ele>321</ele>
        <time>2020-05-10T12:26:51Z</time>
      </trkpt>
      <trkpt lat="48.78683" lon="7.3753">
        <ele>321.2</ele>
        <time>2020-05-10T12:26:53Z</time>
      </trkpt>
      <trkpt lat="48.78682" lon="7.37529">
        <ele>321.2</ele>
        <time>2020-05-10T12:26:54Z</time>
      </trkpt>
      <trkpt lat="48.78678" lon="7.37526">
        <ele>321.4</ele>
        <time>2020-05-10T12:26:56Z</time>
      </trkpt>
      <trkpt lat="48.78675" lon="7.37522">
        <ele>321.5</ele>
        <time>2020-05-10T12:26:58Z</time>
      </trkpt>
      <trkpt lat="48.7867" lon="7.3752">
        <ele>321.8</ele>
        <time>2020-05-10T12:27:00Z</time>
      </trkpt>
      <trkpt lat="48.78666" lon="7.37519">
        <ele>321.9</ele>
        <time>2020-05-10T12:27:01Z</time>
      </trkpt>
      <trkpt lat="48.78665" lon="7.37519">
        <ele>321.9</ele>
        <time>2020-05-10T12:27:02Z</time>
      </trkpt>
      <trkpt lat="48.78662" lon="7.37516">
        <ele>322.1</ele>
        <time>2020-05-10T12:27:04Z</time>
      </trkpt>
      <trkpt lat="48.78659" lon="7.37514">
        <ele>322.3</ele>
        <time>2020-05-10T12:27:06Z</time>
      </trkpt>
      <trkpt lat="48.78656" lon="7.37513">
        <ele>322.4</ele>
        <time>2020-05-10T12:27:08Z</time>
      </trkpt>
      <trkpt lat="48.78654" lon="7.37512">
        <ele>322.5</ele>
        <time>2020-05-10T12:27:09Z</time>
      </trkpt>
      <trkpt lat="48.78651" lon="7.3751">
        <ele>322.6</ele>
        <time>2020-05-10T12:27:11Z</time>
      </trkpt>
      <trkpt lat="48.78647" lon="7.37508">
        <ele>322.7</ele>
        <time>2020-05-10T12:27:13Z</time>
      </trkpt>
      <trkpt lat="48.78643" lon="7.37505">
        <ele>322.7</ele>
        <time>2020-05-10T12:27:15Z</time>
      </trkpt>
      <trkpt lat="48.78639" lon="7.37504">
        <ele>322.8</ele>
        <time>2020-05-10T12:27:16Z</time>
      </trkpt>
      <trkpt lat="48.78637" lon="7.37503">
        <ele>322.8</ele>
        <time>2020-05-10T12:27:17Z</time>
      </trkpt>
      <trkpt lat="48.78634" lon="7.37502">
        <ele>322.8</ele>
        <time>2020-05-10T12:27:19Z</time>
      </trkpt>
      <trkpt lat="48.78633" lon="7.37502">
        <ele>322.7</ele>
        <time>2020-05-10T12:27:21Z</time>
      </trkpt>
      <trkpt lat="48.78632" lon="7.37501">
        <ele>322.7</ele>
        <time>2020-05-10T12:27:23Z</time>
      </trkpt>
      <trkpt lat="48.78631" lon="7.37501">
        <ele>322.7</ele>
        <time>2020-05-10T12:27:25Z</time>
      </trkpt>
      <trkpt lat="48.78631" lon="7.37501">
        <ele>322.7</ele>
        <time>2020-05-10T12:27:26Z</time>
      </trkpt>
      <trkpt lat="48.78631" lon="7.37501">
        <ele>322.7</ele>
        <time>2020-05-10T12:27:28Z</time>
      </trkpt>
      <trkpt lat="48.78631" lon="7.37501">
        <ele>322.7</ele>
        <time>2020-05-10T12:27:29Z</time>
      </trkpt>
      <trkpt lat="48.78631" lon="7.375">
        <ele>322.7</ele>
        <time>2020-05-10T12:27:31Z</time>
      </trkpt>
      <trkpt lat="48.78631" lon="7.375">
        <ele>322.7</ele>
        <time>2020-05-10T12:27:32Z</time>
      </trkpt>
      <trkpt lat="48.78631" lon="7.37499">
        <ele>322.7</ele>
        <time>2020-05-10T12:27:33Z</time>
      </trkpt>
      <trkpt lat="48.78628" lon="7.37495">
        <ele>322.6</ele>
        <time>2020-05-10T12:27:35Z</time>
      </trkpt>
      <trkpt lat="48.78625" lon="7.37493">
        <ele>322.6</ele>
        <time>2020-05-10T12:27:36Z</time>
      </trkpt>
      <trkpt lat="48.7862" lon="7.37488">
        <ele>322.6</ele>
        <time>2020-05-10T12:27:38Z</time>
      </trkpt>
      <trkpt lat="48.78618" lon="7.37486">
        <ele>322.6</ele>
        <time>2020-05-10T12:27:39Z</time>
      </trkpt>
      <trkpt lat="48.78613" lon="7.37481">
        <ele>322.6</ele>
        <time>2020-05-10T12:27:41Z</time>
      </trkpt>
      <trkpt lat="48.78608" lon="7.37475">
        <ele>322.5</ele>
        <time>2020-05-10T12:27:43Z</time>
      </trkpt>
      <trkpt lat="48.78604" lon="7.37469">
        <ele>322.5</ele>
        <time>2020-05-10T12:27:45Z</time>
      </trkpt>
      <trkpt lat="48.78602" lon="7.37467">
        <ele>322.5</ele>
        <time>2020-05-10T12:27:46Z</time>
      </trkpt>
      <trkpt lat="48.78599" lon="7.37464">
        <ele>322.5</ele>
        <time>2020-05-10T12:27:47Z</time>
      </trkpt>
      <trkpt lat="48.78595" lon="7.37461">
        <ele>322.4</ele>
        <time>2020-05-10T12:27:48Z</time>
      </trkpt>
      <trkpt lat="48.78592" lon="7.3746">
        <ele>322.4</ele>
        <time>2020-05-10T12:27:49Z</time>
      </trkpt>
      <trkpt lat="48.78585" lon="7.37456">
        <ele>322.4</ele>
        <time>2020-05-10T12:27:51Z</time>
      </trkpt>
      <trkpt lat="48.78578" lon="7.37452">
        <ele>322.3</ele>
        <time>2020-05-10T12:27:53Z</time>
      </trkpt>
      <trkpt lat="48.78574" lon="7.37449">
        <ele>322.2</ele>
        <time>2020-05-10T12:27:54Z</time>
      </trkpt>
      <trkpt lat="48.78566" lon="7.37447">
        <ele>322.1</ele>
        <time>2020-05-10T12:27:56Z</time>
      </trkpt>
      <trkpt lat="48.78562" lon="7.37446">
        <ele>322</ele>
        <time>2020-05-10T12:27:57Z</time>
      </trkpt>
      <trkpt lat="48.78557" lon="7.37443">
        <ele>322</ele>
        <time>2020-05-10T12:27:58Z</time>
      </trkpt>
      <trkpt lat="48.78549" lon="7.37437">
        <ele>321.8</ele>
        <time>2020-05-10T12:27:59Z</time>
      </trkpt>
      <trkpt lat="48.78542" lon="7.37432">
        <ele>321.7</ele>
        <time>2020-05-10T12:28:01Z</time>
      </trkpt>
      <trkpt lat="48.78534" lon="7.37429">
        <ele>321.5</ele>
        <time>2020-05-10T12:28:03Z</time>
      </trkpt>
      <trkpt lat="48.78525" lon="7.37427">
        <ele>321.3</ele>
        <time>2020-05-10T12:28:05Z</time>
      </trkpt>
      <trkpt lat="48.78522" lon="7.37424">
        <ele>321.3</ele>
        <time>2020-05-10T12:28:06Z</time>
      </trkpt>
      <trkpt lat="48.78515" lon="7.37419">
        <ele>321.1</ele>
        <time>2020-05-10T12:28:08Z</time>
      </trkpt>
      <trkpt lat="48.78508" lon="7.37416">
        <ele>321</ele>
        <time>2020-05-10T12:28:10Z</time>
      </trkpt>
      <trkpt lat="48.78503" lon="7.37413">
        <ele>320.9</ele>
        <time>2020-05-10T12:28:11Z</time>
      </trkpt>
      <trkpt lat="48.78493" lon="7.37409">
        <ele>320.8</ele>
        <time>2020-05-10T12:28:13Z</time>
      </trkpt>
      <trkpt lat="48.78489" lon="7.37406">
        <ele>320.7</ele>
        <time>2020-05-10T12:28:14Z</time>
      </trkpt>
      <trkpt lat="48.78481" lon="7.37403">
        <ele>320.5</ele>
        <time>2020-05-10T12:28:16Z</time>
      </trkpt>
      <trkpt lat="48.78468" lon="7.37399">
        <ele>320.3</ele>
        <time>2020-05-10T12:28:18Z</time>
      </trkpt>
      <trkpt lat="48.7846" lon="7.37395">
        <ele>320.3</ele>
        <time>2020-05-10T12:28:20Z</time>
      </trkpt>
      <trkpt lat="48.78452" lon="7.3739">
        <ele>320.3</ele>
        <time>2020-05-10T12:28:22Z</time>
      </trkpt>
      <trkpt lat="48.78445" lon="7.37378">
        <ele>320.3</ele>
        <time>2020-05-10T12:28:24Z</time>
      </trkpt>
      <trkpt lat="48.78441" lon="7.37373">
        <ele>320.3</ele>
        <time>2020-05-10T12:28:25Z</time>
      </trkpt>
      <trkpt lat="48.78435" lon="7.37371">
        <ele>320.3</ele>
        <time>2020-05-10T12:28:26Z</time>
      </trkpt>
      <trkpt lat="48.78426" lon="7.37366">
        <ele>320.4</ele>
        <time>2020-05-10T12:28:28Z</time>
      </trkpt>
      <trkpt lat="48.78417" lon="7.37363">
        <ele>320.4</ele>
        <time>2020-05-10T12:28:30Z</time>
      </trkpt>
      <trkpt lat="48.78412" lon="7.37363">
        <ele>320.4</ele>
        <time>2020-05-10T12:28:31Z</time>
      </trkpt>
      <trkpt lat="48.78401" lon="7.37363">
        <ele>320.3</ele>
        <time>2020-05-10T12:28:33Z</time>
      </trkpt>
      <trkpt lat="48.78396" lon="7.37362">
        <ele>320.3</ele>
        <time>2020-05-10T12:28:34Z</time>
      </trkpt>
      <trkpt lat="48.78388" lon="7.37356">
        <ele>320.2</ele>
        <time>2020-05-10T12:28:36Z</time>
      </trkpt>
      <trkpt lat="48.78383" lon="7.37354">
        <ele>320.1</ele>
        <time>2020-05-10T12:28:37Z</time>
      </trkpt>
      <trkpt lat="48.78379" lon="7.37351">
        <ele>320</ele>
        <time>2020-05-10T12:28:38Z</time>
      </trkpt>
      <trkpt lat="48.78369" lon="7.37346">
        <ele>319.9</ele>
        <time>2020-05-10T12:28:40Z</time>
      </trkpt>
      <trkpt lat="48.78365" lon="7.37346">
        <ele>319.8</ele>
        <time>2020-05-10T12:28:42Z</time>
      </trkpt>
      <trkpt lat="48.78362" lon="7.37346">
        <ele>319.8</ele>
        <time>2020-05-10T12:28:43Z</time>
      </trkpt>
      <trkpt lat="48.78361" lon="7.37346">
        <ele>319.7</ele>
        <time>2020-05-10T12:28:44Z</time>
      </trkpt>
      <trkpt lat="48.78357" lon="7.37343">
        <ele>319.7</ele>
        <time>2020-05-10T12:28:45Z</time>
      </trkpt>
      <trkpt lat="48.78356" lon="7.37342">
        <ele>319.7</ele>
        <time>2020-05-10T12:28:46Z</time>
      </trkpt>
      <trkpt lat="48.78348" lon="7.37336">
        <ele>319.6</ele>
        <time>2020-05-10T12:28:48Z</time>
      </trkpt>
      <trkpt lat="48.78342" lon="7.37334">
        <ele>319.5</ele>
        <time>2020-05-10T12:28:49Z</time>
      </trkpt>
      <trkpt lat="48.78329" lon="7.37332">
        <ele>319.2</ele>
        <time>2020-05-10T12:28:51Z</time>
      </trkpt>
      <trkpt lat="48.78317" lon="7.3733">
        <ele>318.9</ele>
        <time>2020-05-10T12:28:53Z</time>
      </trkpt>
      <trkpt lat="48.78308" lon="7.37324">
        <ele>318.6</ele>
        <time>2020-05-10T12:28:55Z</time>
      </trkpt>
      <trkpt lat="48.78302" lon="7.37323">
        <ele>318.5</ele>
        <time>2020-05-10T12:28:56Z</time>
      </trkpt>
      <trkpt lat="48.78295" lon="7.3732">
        <ele>318.3</ele>
        <time>2020-05-10T12:28:57Z</time>
      </trkpt>
      <trkpt lat="48.78286" lon="7.37322">
        <ele>318</ele>
        <time>2020-05-10T12:28:59Z</time>
      </trkpt>
      <trkpt lat="48.78281" lon="7.37324">
        <ele>317.8</ele>
        <time>2020-05-10T12:29:00Z</time>
      </trkpt>
      <trkpt lat="48.78271" lon="7.37323">
        <ele>317.5</ele>
        <time>2020-05-10T12:29:02Z</time>
      </trkpt>
      <trkpt lat="48.78265" lon="7.37321">
        <ele>317.4</ele>
        <time>2020-05-10T12:29:03Z</time>
      </trkpt>
      <trkpt lat="48.78252" lon="7.37322">
        <ele>317.1</ele>
        <time>2020-05-10T12:29:05Z</time>
      </trkpt>
      <trkpt lat="48.7824" lon="7.37319">
        <ele>316.8</ele>
        <time>2020-05-10T12:29:07Z</time>
      </trkpt>
      <trkpt lat="48.78235" lon="7.37317">
        <ele>316.6</ele>
        <time>2020-05-10T12:29:08Z</time>
      </trkpt>
      <trkpt lat="48.78225" lon="7.37314">
        <ele>316.4</ele>
        <time>2020-05-10T12:29:10Z</time>
      </trkpt>
      <trkpt lat="48.78215" lon="7.37313">
        <ele>316.1</ele>
        <time>2020-05-10T12:29:12Z</time>
      </trkpt>
      <trkpt lat="48.78209" lon="7.37311">
        <ele>316</ele>
        <time>2020-05-10T12:29:13Z</time>
      </trkpt>
      <trkpt lat="48.78202" lon="7.37311">
        <ele>315.8</ele>
        <time>2020-05-10T12:29:14Z</time>
      </trkpt>
      <trkpt lat="48.78195" lon="7.37313">
        <ele>315.5</ele>
        <time>2020-05-10T12:29:15Z</time>
      </trkpt>
      <trkpt lat="48.78181" lon="7.37313">
        <ele>315.1</ele>
        <time>2020-05-10T12:29:17Z</time>
      </trkpt>
      <trkpt lat="48.78175" lon="7.37312">
        <ele>315</ele>
        <time>2020-05-10T12:29:18Z</time>
      </trkpt>
      <trkpt lat="48.78165" lon="7.37307">
        <ele>314.8</ele>
        <time>2020-05-10T12:29:20Z</time>
      </trkpt>
      <trkpt lat="48.78153" lon="7.37306">
        <ele>314.6</ele>
        <time>2020-05-10T12:29:22Z</time>
      </trkpt>
      <trkpt lat="48.78148" lon="7.37306">
        <ele>314.6</ele>
        <time>2020-05-10T12:29:23Z</time>
      </trkpt>
      <trkpt lat="48.78137" lon="7.37302">
        <ele>314.4</ele>
        <time>2020-05-10T12:29:25Z</time>
      </trkpt>
      <trkpt lat="48.78126" lon="7.37303">
        <ele>314.3</ele>
        <time>2020-05-10T12:29:27Z</time>
      </trkpt>
      <trkpt lat="48.78119" lon="7.37303">
        <ele>314.2</ele>
        <time>2020-05-10T12:29:28Z</time>
      </trkpt>
      <trkpt lat="48.78114" lon="7.37302">
        <ele>314.1</ele>
        <time>2020-05-10T12:29:29Z</time>
      </trkpt>
      <trkpt lat="48.7811" lon="7.37298">
        <ele>314</ele>
        <time>2020-05-10T12:29:30Z</time>
      </trkpt>
      <trkpt lat="48.78105" lon="7.37294">
        <ele>313.9</ele>
        <time>2020-05-10T12:29:31Z</time>
      </trkpt>
      <trkpt lat="48.78093" lon="7.37287">
        <ele>313.6</ele>
        <time>2020-05-10T12:29:33Z</time>
      </trkpt>
      <trkpt lat="48.78081" lon="7.3728">
        <ele>313.4</ele>
        <time>2020-05-10T12:29:35Z</time>
      </trkpt>
      <trkpt lat="48.78076" lon="7.37277">
        <ele>313.4</ele>
        <time>2020-05-10T12:29:36Z</time>
      </trkpt>
      <trkpt lat="48.7807" lon="7.37273">
        <ele>313.3</ele>
        <time>2020-05-10T12:29:37Z</time>
      </trkpt>
      <trkpt lat="48.78063" lon="7.37271">
        <ele>313.3</ele>
        <time>2020-05-10T12:29:38Z</time>
      </trkpt>
      <trkpt lat="48.78052" lon="7.37263">
        <ele>313</ele>
        <time>2020-05-10T12:29:40Z</time>
      </trkpt>
      <trkpt lat="48.78046" lon="7.37259">
        <ele>312.9</ele>
        <time>2020-05-10T12:29:41Z</time>
      </trkpt>
      <trkpt lat="48.78035" lon="7.37249">
        <ele>312.4</ele>
        <time>2020-05-10T12:29:43Z</time>
      </trkpt>
      <trkpt lat="48.78028" lon="7.37246">
        <ele>312.2</ele>
        <time>2020-05-10T12:29:44Z</time>
      </trkpt>
      <trkpt lat="48.78014" lon="7.37238">
        <ele>311.7</ele>
        <time>2020-05-10T12:29:46Z</time>
      </trkpt>
      <trkpt lat="48.78004" lon="7.37228">
        <ele>311.5</ele>
        <time>2020-05-10T12:29:48Z</time>
      </trkpt>
      <trkpt lat="48.77999" lon="7.37225">
        <ele>311.3</ele>
        <time>2020-05-10T12:29:49Z</time>
      </trkpt>
      <trkpt lat="48.77988" lon="7.37215">
        <ele>311.1</ele>
        <time>2020-05-10T12:29:51Z</time>
      </trkpt>
      <trkpt lat="48.77983" lon="7.37209">
        <ele>311</ele>
        <time>2020-05-10T12:29:52Z</time>
      </trkpt>
      <trkpt lat="48.77973" lon="7.37198">
        <ele>310.8</ele>
        <time>2020-05-10T12:29:54Z</time>
      </trkpt>
      <trkpt lat="48.77968" lon="7.37192">
        <ele>310.7</ele>
        <time>2020-05-10T12:29:55Z</time>
      </trkpt>
      <trkpt lat="48.77964" lon="7.37185">
        <ele>310.6</ele>
        <time>2020-05-10T12:29:56Z</time>
      </trkpt>
      <trkpt lat="48.77956" lon="7.37172">
        <ele>310.5</ele>
        <time>2020-05-10T12:29:58Z</time>
      </trkpt>
      <trkpt lat="48.77951" lon="7.37165">
        <ele>310.4</ele>
        <time>2020-05-10T12:29:59Z</time>
      </trkpt>
      <trkpt lat="48.7794" lon="7.37162">
        <ele>310.3</ele>
        <time>2020-05-10T12:30:01Z</time>
      </trkpt>
      <trkpt lat="48.77934" lon="7.37141">
        <ele>310.2</ele>
        <time>2020-05-10T12:30:03Z</time>
      </trkpt>
      <trkpt lat="48.7793" lon="7.37131">
        <ele>310</ele>
        <time>2020-05-10T12:30:04Z</time>
      </trkpt>
      <trkpt lat="48.77927" lon="7.37123">
        <ele>309.8</ele>
        <time>2020-05-10T12:30:05Z</time>
      </trkpt>
      <trkpt lat="48.77921" lon="7.37107">
        <ele>309.4</ele>
        <time>2020-05-10T12:30:07Z</time>
      </trkpt>
      <trkpt lat="48.77913" lon="7.37093">
        <ele>308.9</ele>
        <time>2020-05-10T12:30:09Z</time>
      </trkpt>
      <trkpt lat="48.7791" lon="7.37086">
        <ele>308.6</ele>
        <time>2020-05-10T12:30:10Z</time>
      </trkpt>
      <trkpt lat="48.77909" lon="7.3708">
        <ele>308.4</ele>
        <time>2020-05-10T12:30:11Z</time>
      </trkpt>
      <trkpt lat="48.77906" lon="7.37071">
        <ele>308</ele>
        <time>2020-05-10T12:30:13Z</time>
      </trkpt>
      <trkpt lat="48.77904" lon="7.37069">
        <ele>307.8</ele>
        <time>2020-05-10T12:30:14Z</time>
      </trkpt>
      <trkpt lat="48.77896" lon="7.37067">
        <ele>307.3</ele>
        <time>2020-05-10T12:30:16Z</time>
      </trkpt>
      <trkpt lat="48.77892" lon="7.37067">
        <ele>307.1</ele>
        <time>2020-05-10T12:30:17Z</time>
      </trkpt>
      <trkpt lat="48.77891" lon="7.37067">
        <ele>307</ele>
        <time>2020-05-10T12:30:19Z</time>
      </trkpt>
      <trkpt lat="48.77891" lon="7.37067">
        <ele>307</ele>
        <time>2020-05-10T12:30:20Z</time>
      </trkpt>
      <trkpt lat="48.77891" lon="7.37067">
        <ele>307</ele>
        <time>2020-05-10T12:30:21Z</time>
      </trkpt>
      <trkpt lat="48.77891" lon="7.37066">
        <ele>307</ele>
        <time>2020-05-10T12:30:23Z</time>
      </trkpt>
      <trkpt lat="48.77891" lon="7.37066">
        <ele>306.9</ele>
        <time>2020-05-10T12:30:24Z</time>
      </trkpt>
      <trkpt lat="48.77891" lon="7.37066">
        <ele>306.9</ele>
        <time>2020-05-10T12:30:26Z</time>
      </trkpt>
      <trkpt lat="48.77891" lon="7.37066">
        <ele>306.9</ele>
        <time>2020-05-10T12:30:28Z</time>
      </trkpt>
      <trkpt lat="48.77891" lon="7.37066">
        <ele>306.9</ele>
        <time>2020-05-10T12:30:29Z</time>
      </trkpt>
      <trkpt lat="48.77891" lon="7.37066">
        <ele>306.5</ele>
        <time>2020-05-10T12:30:31Z</time>
      </trkpt>
      <trkpt lat="48.77886" lon="7.37068">
        <ele>306</ele>
        <time>2020-05-10T12:30:37Z</time>
      </trkpt>
      <trkpt lat="48.77881" lon="7.37067">
        <ele>305.6</ele>
        <time>2020-05-10T12:30:38Z</time>
      </trkpt>
      <trkpt lat="48.77878" lon="7.37066">
        <ele>305.6</ele>
        <time>2020-05-10T12:30:39Z</time>
      </trkpt>
      <trkpt lat="48.77876" lon="7.37063">
        <ele>305.6</ele>
        <time>2020-05-10T12:30:41Z</time>
      </trkpt>
      <trkpt lat="48.77876" lon="7.37062">
        <ele>305.6</ele>
        <time>2020-05-10T12:30:43Z</time>
      </trkpt>
      <trkpt lat="48.77877" lon="7.37062">
        <ele>305.6</ele>
        <time>2020-05-10T12:30:44Z</time>
      </trkpt>
      <trkpt lat="48.77877" lon="7.37062">
        <ele>305.6</ele>
        <time>2020-05-10T12:30:46Z</time>
      </trkpt>
      <trkpt lat="48.77878" lon="7.37062">
        <ele>305.6</ele>
        <time>2020-05-10T12:30:47Z</time>
      </trkpt>
      <trkpt lat="48.77878" lon="7.37062">
        <ele>305.6</ele>
        <time>2020-05-10T12:30:49Z</time>
      </trkpt>
      <trkpt lat="48.77878" lon="7.37062">
        <ele>305.6</ele>
        <time>2020-05-10T12:30:51Z</time>
      </trkpt>
      <trkpt lat="48.77878" lon="7.37062">
        <ele>305.6</ele>
        <time>2020-05-10T12:30:52Z</time>
      </trkpt>
      <trkpt lat="48.77878" lon="7.37062">
        <ele>305.6</ele>
        <time>2020-05-10T12:30:53Z</time>
      </trkpt>
      <trkpt lat="48.77879" lon="7.37064">
        <ele>305.7</ele>
        <time>2020-05-10T12:30:55Z</time>
      </trkpt>
      <trkpt lat="48.7788" lon="7.37065">
        <ele>305.7</ele>
        <time>2020-05-10T12:30:57Z</time>
      </trkpt>
      <trkpt lat="48.77882" lon="7.37067">
        <ele>305.7</ele>
        <time>2020-05-10T12:30:59Z</time>
      </trkpt>
      <trkpt lat="48.77882" lon="7.37069">
        <ele>305.7</ele>
        <time>2020-05-10T12:31:00Z</time>
      </trkpt>
      <trkpt lat="48.77884" lon="7.37069">
        <ele>307</ele>
        <time>2020-05-10T12:31:02Z</time>
      </trkpt>
      <trkpt lat="48.77887" lon="7.37069">
        <ele>307.1</ele>
        <time>2020-05-10T12:31:04Z</time>
      </trkpt>
      <trkpt lat="48.7789" lon="7.37068">
        <ele>307.3</ele>
        <time>2020-05-10T12:31:06Z</time>
      </trkpt>
      <trkpt lat="48.77891" lon="7.37067">
        <ele>307.3</ele>
        <time>2020-05-10T12:31:07Z</time>
      </trkpt>
      <trkpt lat="48.77892" lon="7.37063">
        <ele>307.5</ele>
        <time>2020-05-10T12:31:09Z</time>
      </trkpt>
      <trkpt lat="48.77892" lon="7.37059">
        <ele>307.6</ele>
        <time>2020-05-10T12:31:11Z</time>
      </trkpt>
      <trkpt lat="48.77891" lon="7.3706">
        <ele>307.7</ele>
        <time>2020-05-10T12:31:13Z</time>
      </trkpt>
      <trkpt lat="48.7789" lon="7.3706">
        <ele>307.7</ele>
        <time>2020-05-10T12:31:14Z</time>
      </trkpt>
      <trkpt lat="48.77891" lon="7.37059">
        <ele>307.8</ele>
        <time>2020-05-10T12:31:16Z</time>
      </trkpt>
      <trkpt lat="48.77891" lon="7.37058">
        <ele>307.8</ele>
        <time>2020-05-10T12:31:17Z</time>
      </trkpt>
      <trkpt lat="48.77891" lon="7.37058">
        <ele>307.8</ele>
        <time>2020-05-10T12:31:18Z</time>
      </trkpt>
      <trkpt lat="48.77891" lon="7.37057">
        <ele>307.9</ele>
        <time>2020-05-10T12:31:20Z</time>
      </trkpt>
      <trkpt lat="48.77892" lon="7.37054">
        <ele>308</ele>
        <time>2020-05-10T12:31:22Z</time>
      </trkpt>
      <trkpt lat="48.77891" lon="7.37053">
        <ele>308.1</ele>
        <time>2020-05-10T12:31:23Z</time>
      </trkpt>
      <trkpt lat="48.77891" lon="7.37052">
        <ele>308.2</ele>
        <time>2020-05-10T12:31:24Z</time>
      </trkpt>
      <trkpt lat="48.77889" lon="7.37049">
        <ele>308.3</ele>
        <time>2020-05-10T12:31:26Z</time>
      </trkpt>
      <trkpt lat="48.77889" lon="7.37046">
        <ele>308.5</ele>
        <time>2020-05-10T12:31:27Z</time>
      </trkpt>
      <trkpt lat="48.77889" lon="7.37046">
        <ele>308.5</ele>
        <time>2020-05-10T12:31:28Z</time>
      </trkpt>
      <trkpt lat="48.77889" lon="7.37045">
        <ele>308.5</ele>
        <time>2020-05-10T12:31:30Z</time>
      </trkpt>
      <trkpt lat="48.77888" lon="7.37044">
        <ele>308.6</ele>
        <time>2020-05-10T12:31:32Z</time>
      </trkpt>
      <trkpt lat="48.77888" lon="7.37043">
        <ele>308.6</ele>
        <time>2020-05-10T12:31:33Z</time>
      </trkpt>
      <trkpt lat="48.77888" lon="7.37042">
        <ele>308.7</ele>
        <time>2020-05-10T12:31:34Z</time>
      </trkpt>
      <trkpt lat="48.77888" lon="7.37041">
        <ele>308.7</ele>
        <time>2020-05-10T12:31:35Z</time>
      </trkpt>
      <trkpt lat="48.77888" lon="7.3704">
        <ele>308.8</ele>
        <time>2020-05-10T12:31:37Z</time>
      </trkpt>
      <trkpt lat="48.77887" lon="7.37039">
        <ele>308.8</ele>
        <time>2020-05-10T12:31:38Z</time>
      </trkpt>
      <trkpt lat="48.77887" lon="7.37038">
        <ele>308.9</ele>
        <time>2020-05-10T12:31:39Z</time>
      </trkpt>
      <trkpt lat="48.77887" lon="7.37037">
        <ele>308.9</ele>
        <time>2020-05-10T12:31:40Z</time>
      </trkpt>
      <trkpt lat="48.77887" lon="7.3703">
        <ele>309.3</ele>
        <time>2020-05-10T12:31:42Z</time>
      </trkpt>
      <trkpt lat="48.77884" lon="7.37021">
        <ele>309.7</ele>
        <time>2020-05-10T12:31:44Z</time>
      </trkpt>
      <trkpt lat="48.77882" lon="7.37012">
        <ele>310.2</ele>
        <time>2020-05-10T12:31:46Z</time>
      </trkpt>
      <trkpt lat="48.77882" lon="7.37004">
        <ele>310.6</ele>
        <time>2020-05-10T12:31:48Z</time>
      </trkpt>
      <trkpt lat="48.77882" lon="7.36999">
        <ele>310.7</ele>
        <time>2020-05-10T12:31:49Z</time>
      </trkpt>
      <trkpt lat="48.77882" lon="7.36995">
        <ele>310.9</ele>
        <time>2020-05-10T12:31:50Z</time>
      </trkpt>
      <trkpt lat="48.77882" lon="7.36986">
        <ele>311.6</ele>
        <time>2020-05-10T12:31:52Z</time>
      </trkpt>
      <trkpt lat="48.77883" lon="7.36982">
        <ele>311.7</ele>
        <time>2020-05-10T12:31:53Z</time>
      </trkpt>
      <trkpt lat="48.77883" lon="7.3698">
        <ele>311.8</ele>
        <time>2020-05-10T12:31:54Z</time>
      </trkpt>
      <trkpt lat="48.77884" lon="7.36976">
        <ele>312</ele>
        <time>2020-05-10T12:31:55Z</time>
      </trkpt>
      <trkpt lat="48.77885" lon="7.36965">
        <ele>312.4</ele>
        <time>2020-05-10T12:31:57Z</time>
      </trkpt>
      <trkpt lat="48.77886" lon="7.36959">
        <ele>312.7</ele>
        <time>2020-05-10T12:31:58Z</time>
      </trkpt>
      <trkpt lat="48.77886" lon="7.36951">
        <ele>313.2</ele>
        <time>2020-05-10T12:32:00Z</time>
      </trkpt>
      <trkpt lat="48.77886" lon="7.36949">
        <ele>313.3</ele>
        <time>2020-05-10T12:32:01Z</time>
      </trkpt>
      <trkpt lat="48.77886" lon="7.36946">
        <ele>313.5</ele>
        <time>2020-05-10T12:32:02Z</time>
      </trkpt>
      <trkpt lat="48.77887" lon="7.36938">
        <ele>314</ele>
        <time>2020-05-10T12:32:04Z</time>
      </trkpt>
      <trkpt lat="48.77888" lon="7.36931">
        <ele>314.4</ele>
        <time>2020-05-10T12:32:06Z</time>
      </trkpt>
      <trkpt lat="48.77889" lon="7.36926">
        <ele>314.7</ele>
        <time>2020-05-10T12:32:07Z</time>
      </trkpt>
      <trkpt lat="48.77889" lon="7.36925">
        <ele>314.7</ele>
        <time>2020-05-10T12:32:08Z</time>
      </trkpt>
      <trkpt lat="48.77889" lon="7.36922">
        <ele>314.9</ele>
        <time>2020-05-10T12:32:09Z</time>
      </trkpt>
      <trkpt lat="48.77889" lon="7.36916">
        <ele>315.2</ele>
        <time>2020-05-10T12:32:11Z</time>
      </trkpt>
      <trkpt lat="48.7789" lon="7.36909">
        <ele>315.6</ele>
        <time>2020-05-10T12:32:13Z</time>
      </trkpt>
      <trkpt lat="48.7789" lon="7.36905">
        <ele>315.8</ele>
        <time>2020-05-10T12:32:14Z</time>
      </trkpt>
      <trkpt lat="48.7789" lon="7.36897">
        <ele>316.2</ele>
        <time>2020-05-10T12:32:16Z</time>
      </trkpt>
      <trkpt lat="48.77891" lon="7.36888">
        <ele>316.6</ele>
        <time>2020-05-10T12:32:18Z</time>
      </trkpt>
      <trkpt lat="48.77891" lon="7.36884">
        <ele>316.9</ele>
        <time>2020-05-10T12:32:19Z</time>
      </trkpt>
      <trkpt lat="48.77891" lon="7.36877">
        <ele>317.2</ele>
        <time>2020-05-10T12:32:21Z</time>
      </trkpt>
      <trkpt lat="48.7789" lon="7.36874">
        <ele>317.4</ele>
        <time>2020-05-10T12:32:22Z</time>
      </trkpt>
      <trkpt lat="48.77891" lon="7.36864">
        <ele>317.9</ele>
        <time>2020-05-10T12:32:24Z</time>
      </trkpt>
      <trkpt lat="48.77893" lon="7.36859">
        <ele>318.2</ele>
        <time>2020-05-10T12:32:25Z</time>
      </trkpt>
      <trkpt lat="48.77893" lon="7.36857">
        <ele>318.2</ele>
        <time>2020-05-10T12:32:26Z</time>
      </trkpt>
      <trkpt lat="48.77893" lon="7.36855">
        <ele>318.4</ele>
        <time>2020-05-10T12:32:27Z</time>
      </trkpt>
      <trkpt lat="48.77893" lon="7.36845">
        <ele>318.8</ele>
        <time>2020-05-10T12:32:29Z</time>
      </trkpt>
      <trkpt lat="48.77893" lon="7.3684">
        <ele>319.1</ele>
        <time>2020-05-10T12:32:30Z</time>
      </trkpt>
      <trkpt lat="48.77895" lon="7.3683">
        <ele>319.5</ele>
        <time>2020-05-10T12:32:32Z</time>
      </trkpt>
      <trkpt lat="48.77896" lon="7.36823">
        <ele>319.9</ele>
        <time>2020-05-10T12:32:33Z</time>
      </trkpt>
      <trkpt lat="48.77896" lon="7.3682">
        <ele>320</ele>
        <time>2020-05-10T12:32:34Z</time>
      </trkpt>
      <trkpt lat="48.77897" lon="7.3681">
        <ele>320.5</ele>
        <time>2020-05-10T12:32:36Z</time>
      </trkpt>
      <trkpt lat="48.77899" lon="7.36806">
        <ele>320.7</ele>
        <time>2020-05-10T12:32:37Z</time>
      </trkpt>
      <trkpt lat="48.77899" lon="7.36802">
        <ele>320.9</ele>
        <time>2020-05-10T12:32:38Z</time>
      </trkpt>
      <trkpt lat="48.779" lon="7.36795">
        <ele>321.2</ele>
        <time>2020-05-10T12:32:40Z</time>
      </trkpt>
      <trkpt lat="48.779" lon="7.36791">
        <ele>321.4</ele>
        <time>2020-05-10T12:32:41Z</time>
      </trkpt>
      <trkpt lat="48.77901" lon="7.36781">
        <ele>322</ele>
        <time>2020-05-10T12:32:43Z</time>
      </trkpt>
      <trkpt lat="48.77901" lon="7.36777">
        <ele>322.1</ele>
        <time>2020-05-10T12:32:44Z</time>
      </trkpt>
      <trkpt lat="48.77901" lon="7.36771">
        <ele>322.5</ele>
        <time>2020-05-10T12:32:46Z</time>
      </trkpt>
      <trkpt lat="48.77899" lon="7.36764">
        <ele>322.8</ele>
        <time>2020-05-10T12:32:48Z</time>
      </trkpt>
      <trkpt lat="48.77897" lon="7.36754">
        <ele>323.4</ele>
        <time>2020-05-10T12:32:50Z</time>
      </trkpt>
      <trkpt lat="48.77897" lon="7.36747">
        <ele>323.7</ele>
        <time>2020-05-10T12:32:51Z</time>
      </trkpt>
      <trkpt lat="48.77897" lon="7.3674">
        <ele>324</ele>
        <time>2020-05-10T12:32:52Z</time>
      </trkpt>
      <trkpt lat="48.77897" lon="7.36734">
        <ele>324.2</ele>
        <time>2020-05-10T12:32:53Z</time>
      </trkpt>
      <trkpt lat="48.77899" lon="7.36726">
        <ele>324.6</ele>
        <time>2020-05-10T12:32:55Z</time>
      </trkpt>
      <trkpt lat="48.77901" lon="7.36716">
        <ele>325.1</ele>
        <time>2020-05-10T12:32:57Z</time>
      </trkpt>
      <trkpt lat="48.77902" lon="7.36711">
        <ele>325.3</ele>
        <time>2020-05-10T12:32:58Z</time>
      </trkpt>
      <trkpt lat="48.77902" lon="7.36709">
        <ele>325.4</ele>
        <time>2020-05-10T12:32:59Z</time>
      </trkpt>
      <trkpt lat="48.77901" lon="7.36705">
        <ele>325.6</ele>
        <time>2020-05-10T12:33:00Z</time>
      </trkpt>
      <trkpt lat="48.77901" lon="7.36694">
        <ele>326</ele>
        <time>2020-05-10T12:33:02Z</time>
      </trkpt>
      <trkpt lat="48.77902" lon="7.3669">
        <ele>326.2</ele>
        <time>2020-05-10T12:33:03Z</time>
      </trkpt>
      <trkpt lat="48.77902" lon="7.36682">
        <ele>326.6</ele>
        <time>2020-05-10T12:33:05Z</time>
      </trkpt>
      <trkpt lat="48.77904" lon="7.36677">
        <ele>326.8</ele>
        <time>2020-05-10T12:33:06Z</time>
      </trkpt>
      <trkpt lat="48.77906" lon="7.36668">
        <ele>327.2</ele>
        <time>2020-05-10T12:33:08Z</time>
      </trkpt>
      <trkpt lat="48.77907" lon="7.3666">
        <ele>327.5</ele>
        <time>2020-05-10T12:33:10Z</time>
      </trkpt>
      <trkpt lat="48.77907" lon="7.36652">
        <ele>327.8</ele>
        <time>2020-05-10T12:33:12Z</time>
      </trkpt>
      <trkpt lat="48.77908" lon="7.36648">
        <ele>328</ele>
        <time>2020-05-10T12:33:13Z</time>
      </trkpt>
      <trkpt lat="48.77909" lon="7.36636">
        <ele>328.4</ele>
        <time>2020-05-10T12:33:15Z</time>
      </trkpt>
      <trkpt lat="48.77909" lon="7.3663">
        <ele>328.7</ele>
        <time>2020-05-10T12:33:16Z</time>
      </trkpt>
      <trkpt lat="48.7791" lon="7.36625">
        <ele>328.8</ele>
        <time>2020-05-10T12:33:17Z</time>
      </trkpt>
      <trkpt lat="48.77911" lon="7.36615">
        <ele>329.3</ele>
        <time>2020-05-10T12:33:19Z</time>
      </trkpt>
      <trkpt lat="48.7791" lon="7.36606">
        <ele>329.7</ele>
        <time>2020-05-10T12:33:21Z</time>
      </trkpt>
      <trkpt lat="48.7791" lon="7.36598">
        <ele>330</ele>
        <time>2020-05-10T12:33:23Z</time>
      </trkpt>
      <trkpt lat="48.77911" lon="7.36592">
        <ele>330.3</ele>
        <time>2020-05-10T12:33:24Z</time>
      </trkpt>
      <trkpt lat="48.77911" lon="7.36589">
        <ele>330.4</ele>
        <time>2020-05-10T12:33:25Z</time>
      </trkpt>
      <trkpt lat="48.77914" lon="7.36581">
        <ele>330.8</ele>
        <time>2020-05-10T12:33:27Z</time>
      </trkpt>
      <trkpt lat="48.77915" lon="7.36572">
        <ele>331.2</ele>
        <time>2020-05-10T12:33:29Z</time>
      </trkpt>
      <trkpt lat="48.77915" lon="7.36567">
        <ele>331.4</ele>
        <time>2020-05-10T12:33:30Z</time>
      </trkpt>
      <trkpt lat="48.77916" lon="7.36559">
        <ele>331.8</ele>
        <time>2020-05-10T12:33:32Z</time>
      </trkpt>
      <trkpt lat="48.77916" lon="7.36555">
        <ele>331.9</ele>
        <time>2020-05-10T12:33:33Z</time>
      </trkpt>
      <trkpt lat="48.77917" lon="7.36545">
        <ele>332.4</ele>
        <time>2020-05-10T12:33:35Z</time>
      </trkpt>
      <trkpt lat="48.77917" lon="7.36535">
        <ele>332.7</ele>
        <time>2020-05-10T12:33:37Z</time>
      </trkpt>
      <trkpt lat="48.77917" lon="7.36528">
        <ele>333.1</ele>
        <time>2020-05-10T12:33:39Z</time>
      </trkpt>
      <trkpt lat="48.77918" lon="7.36525">
        <ele>333.2</ele>
        <time>2020-05-10T12:33:40Z</time>
      </trkpt>
      <trkpt lat="48.77918" lon="7.36518">
        <ele>333.5</ele>
        <time>2020-05-10T12:33:42Z</time>
      </trkpt>
      <trkpt lat="48.77919" lon="7.36514">
        <ele>333.6</ele>
        <time>2020-05-10T12:33:43Z</time>
      </trkpt>
      <trkpt lat="48.77919" lon="7.3651">
        <ele>333.8</ele>
        <time>2020-05-10T12:33:44Z</time>
      </trkpt>
      <trkpt lat="48.77919" lon="7.36501">
        <ele>334.2</ele>
        <time>2020-05-10T12:33:46Z</time>
      </trkpt>
      <trkpt lat="48.77918" lon="7.36497">
        <ele>334.4</ele>
        <time>2020-05-10T12:33:47Z</time>
      </trkpt>
      <trkpt lat="48.77917" lon="7.36493">
        <ele>334.6</ele>
        <time>2020-05-10T12:33:49Z</time>
      </trkpt>
      <trkpt lat="48.77917" lon="7.36486">
        <ele>334.9</ele>
        <time>2020-05-10T12:33:51Z</time>
      </trkpt>
      <trkpt lat="48.77916" lon="7.36473">
        <ele>335.4</ele>
        <time>2020-05-10T12:33:53Z</time>
      </trkpt>
      <trkpt lat="48.77915" lon="7.36468">
        <ele>335.6</ele>
        <time>2020-05-10T12:33:54Z</time>
      </trkpt>
      <trkpt lat="48.77915" lon="7.36464">
        <ele>335.8</ele>
        <time>2020-05-10T12:33:55Z</time>
      </trkpt>
      <trkpt lat="48.77916" lon="7.36456">
        <ele>336</ele>
        <time>2020-05-10T12:33:57Z</time>
      </trkpt>
      <trkpt lat="48.77917" lon="7.36451">
        <ele>336.2</ele>
        <time>2020-05-10T12:33:58Z</time>
      </trkpt>
      <trkpt lat="48.77918" lon="7.36443">
        <ele>336.5</ele>
        <time>2020-05-10T12:34:00Z</time>
      </trkpt>
      <trkpt lat="48.7792" lon="7.36437">
        <ele>336.7</ele>
        <time>2020-05-10T12:34:01Z</time>
      </trkpt>
      <trkpt lat="48.77918" lon="7.36429">
        <ele>336.9</ele>
        <time>2020-05-10T12:34:03Z</time>
      </trkpt>
      <trkpt lat="48.77917" lon="7.36426">
        <ele>337</ele>
        <time>2020-05-10T12:34:04Z</time>
      </trkpt>
      <trkpt lat="48.77916" lon="7.36423">
        <ele>337.1</ele>
        <time>2020-05-10T12:34:05Z</time>
      </trkpt>
      <trkpt lat="48.77915" lon="7.3642">
        <ele>337.2</ele>
        <time>2020-05-10T12:34:06Z</time>
      </trkpt>
      <trkpt lat="48.77913" lon="7.36409">
        <ele>337.5</ele>
        <time>2020-05-10T12:34:08Z</time>
      </trkpt>
      <trkpt lat="48.77912" lon="7.36399">
        <ele>337.8</ele>
        <time>2020-05-10T12:34:10Z</time>
      </trkpt>
      <trkpt lat="48.77911" lon="7.36393">
        <ele>337.9</ele>
        <time>2020-05-10T12:34:11Z</time>
      </trkpt>
      <trkpt lat="48.77909" lon="7.36384">
        <ele>338.1</ele>
        <time>2020-05-10T12:34:13Z</time>
      </trkpt>
      <trkpt lat="48.77907" lon="7.36377">
        <ele>338.3</ele>
        <time>2020-05-10T12:34:15Z</time>
      </trkpt>
      <trkpt lat="48.77906" lon="7.36371">
        <ele>338.4</ele>
        <time>2020-05-10T12:34:16Z</time>
      </trkpt>
      <trkpt lat="48.77906" lon="7.36361">
        <ele>338.7</ele>
        <time>2020-05-10T12:34:18Z</time>
      </trkpt>
      <trkpt lat="48.77906" lon="7.36355">
        <ele>338.8</ele>
        <time>2020-05-10T12:34:19Z</time>
      </trkpt>
      <trkpt lat="48.77906" lon="7.36352">
        <ele>338.9</ele>
        <time>2020-05-10T12:34:20Z</time>
      </trkpt>
      <trkpt lat="48.77904" lon="7.36342">
        <ele>339.1</ele>
        <time>2020-05-10T12:34:22Z</time>
      </trkpt>
      <trkpt lat="48.77903" lon="7.36337">
        <ele>339.2</ele>
        <time>2020-05-10T12:34:23Z</time>
      </trkpt>
      <trkpt lat="48.77902" lon="7.36325">
        <ele>339.5</ele>
        <time>2020-05-10T12:34:25Z</time>
      </trkpt>
      <trkpt lat="48.779" lon="7.36314">
        <ele>339.8</ele>
        <time>2020-05-10T12:34:27Z</time>
      </trkpt>
      <trkpt lat="48.77898" lon="7.36305">
        <ele>340</ele>
        <time>2020-05-10T12:34:29Z</time>
      </trkpt>
      <trkpt lat="48.77897" lon="7.363">
        <ele>340.1</ele>
        <time>2020-05-10T12:34:30Z</time>
      </trkpt>
      <trkpt lat="48.77895" lon="7.36288">
        <ele>340.4</ele>
        <time>2020-05-10T12:34:32Z</time>
      </trkpt>
      <trkpt lat="48.77894" lon="7.36283">
        <ele>340.5</ele>
        <time>2020-05-10T12:34:33Z</time>
      </trkpt>
      <trkpt lat="48.77892" lon="7.36278">
        <ele>340.6</ele>
        <time>2020-05-10T12:34:34Z</time>
      </trkpt>
      <trkpt lat="48.77891" lon="7.36273">
        <ele>340.7</ele>
        <time>2020-05-10T12:34:35Z</time>
      </trkpt>
      <trkpt lat="48.7789" lon="7.36262">
        <ele>340.8</ele>
        <time>2020-05-10T12:34:37Z</time>
      </trkpt>
      <trkpt lat="48.77888" lon="7.3625">
        <ele>341</ele>
        <time>2020-05-10T12:34:39Z</time>
      </trkpt>
      <trkpt lat="48.77886" lon="7.36245">
        <ele>341</ele>
        <time>2020-05-10T12:34:40Z</time>
      </trkpt>
      <trkpt lat="48.77884" lon="7.3624">
        <ele>341.1</ele>
        <time>2020-05-10T12:34:41Z</time>
      </trkpt>
      <trkpt lat="48.77882" lon="7.36228">
        <ele>341.2</ele>
        <time>2020-05-10T12:34:43Z</time>
      </trkpt>
      <trkpt lat="48.77879" lon="7.36214">
        <ele>341.3</ele>
        <time>2020-05-10T12:34:45Z</time>
      </trkpt>
      <trkpt lat="48.77878" lon="7.36208">
        <ele>341.5</ele>
        <time>2020-05-10T12:34:46Z</time>
      </trkpt>
      <trkpt lat="48.77875" lon="7.36195">
        <ele>341.6</ele>
        <time>2020-05-10T12:34:48Z</time>
      </trkpt>
      <trkpt lat="48.77872" lon="7.36182">
        <ele>341.7</ele>
        <time>2020-05-10T12:34:50Z</time>
      </trkpt>
      <trkpt lat="48.77872" lon="7.36176">
        <ele>341.8</ele>
        <time>2020-05-10T12:34:51Z</time>
      </trkpt>
      <trkpt lat="48.7787" lon="7.36165">
        <ele>341.9</ele>
        <time>2020-05-10T12:34:53Z</time>
      </trkpt>
      <trkpt lat="48.77866" lon="7.36151">
        <ele>342</ele>
        <time>2020-05-10T12:34:55Z</time>
      </trkpt>
      <trkpt lat="48.77864" lon="7.36137">
        <ele>342.2</ele>
        <time>2020-05-10T12:34:57Z</time>
      </trkpt>
      <trkpt lat="48.77862" lon="7.3613">
        <ele>342.3</ele>
        <time>2020-05-10T12:34:58Z</time>
      </trkpt>
      <trkpt lat="48.7786" lon="7.36124">
        <ele>342.3</ele>
        <time>2020-05-10T12:34:59Z</time>
      </trkpt>
      <trkpt lat="48.77858" lon="7.36119">
        <ele>342.4</ele>
        <time>2020-05-10T12:35:00Z</time>
      </trkpt>
      <trkpt lat="48.77858" lon="7.36114">
        <ele>342.5</ele>
        <time>2020-05-10T12:35:01Z</time>
      </trkpt>
      <trkpt lat="48.77856" lon="7.36102">
        <ele>342.7</ele>
        <time>2020-05-10T12:35:03Z</time>
      </trkpt>
      <trkpt lat="48.77855" lon="7.36095">
        <ele>342.8</ele>
        <time>2020-05-10T12:35:04Z</time>
      </trkpt>
      <trkpt lat="48.77854" lon="7.36083">
        <ele>343.1</ele>
        <time>2020-05-10T12:35:06Z</time>
      </trkpt>
      <trkpt lat="48.77853" lon="7.36069">
        <ele>343.5</ele>
        <time>2020-05-10T12:35:08Z</time>
      </trkpt>
      <trkpt lat="48.77852" lon="7.36063">
        <ele>343.6</ele>
        <time>2020-05-10T12:35:09Z</time>
      </trkpt>
      <trkpt lat="48.77852" lon="7.36057">
        <ele>343.8</ele>
        <time>2020-05-10T12:35:10Z</time>
      </trkpt>
      <trkpt lat="48.77851" lon="7.3605">
        <ele>344</ele>
        <time>2020-05-10T12:35:11Z</time>
      </trkpt>
      <trkpt lat="48.7785" lon="7.36038">
        <ele>344.3</ele>
        <time>2020-05-10T12:35:13Z</time>
      </trkpt>
      <trkpt lat="48.77847" lon="7.36025">
        <ele>344.8</ele>
        <time>2020-05-10T12:35:15Z</time>
      </trkpt>
      <trkpt lat="48.77846" lon="7.3602">
        <ele>345</ele>
        <time>2020-05-10T12:35:16Z</time>
      </trkpt>
      <trkpt lat="48.77844" lon="7.36007">
        <ele>345.4</ele>
        <time>2020-05-10T12:35:18Z</time>
      </trkpt>
      <trkpt lat="48.77842" lon="7.36002">
        <ele>345.6</ele>
        <time>2020-05-10T12:35:19Z</time>
      </trkpt>
      <trkpt lat="48.77841" lon="7.35996">
        <ele>345.7</ele>
        <time>2020-05-10T12:35:20Z</time>
      </trkpt>
      <trkpt lat="48.77841" lon="7.35991">
        <ele>345.9</ele>
        <time>2020-05-10T12:35:21Z</time>
      </trkpt>
      <trkpt lat="48.7784" lon="7.35979">
        <ele>346.1</ele>
        <time>2020-05-10T12:35:23Z</time>
      </trkpt>
      <trkpt lat="48.77838" lon="7.35973">
        <ele>346.3</ele>
        <time>2020-05-10T12:35:24Z</time>
      </trkpt>
      <trkpt lat="48.77837" lon="7.35967">
        <ele>346.4</ele>
        <time>2020-05-10T12:35:25Z</time>
      </trkpt>
      <trkpt lat="48.77836" lon="7.35955">
        <ele>346.5</ele>
        <time>2020-05-10T12:35:27Z</time>
      </trkpt>
      <trkpt lat="48.77834" lon="7.35941">
        <ele>346.5</ele>
        <time>2020-05-10T12:35:29Z</time>
      </trkpt>
      <trkpt lat="48.77832" lon="7.35934">
        <ele>346.5</ele>
        <time>2020-05-10T12:35:30Z</time>
      </trkpt>
      <trkpt lat="48.7783" lon="7.35927">
        <ele>346.6</ele>
        <time>2020-05-10T12:35:31Z</time>
      </trkpt>
      <trkpt lat="48.77827" lon="7.35913">
        <ele>346.6</ele>
        <time>2020-05-10T12:35:33Z</time>
      </trkpt>
      <trkpt lat="48.77827" lon="7.35907">
        <ele>346.5</ele>
        <time>2020-05-10T12:35:34Z</time>
      </trkpt>
      <trkpt lat="48.77827" lon="7.359">
        <ele>346.5</ele>
        <time>2020-05-10T12:35:35Z</time>
      </trkpt>
      <trkpt lat="48.77826" lon="7.35891">
        <ele>346.5</ele>
        <time>2020-05-10T12:35:36Z</time>
      </trkpt>
      <trkpt lat="48.77823" lon="7.35877">
        <ele>346.4</ele>
        <time>2020-05-10T12:35:38Z</time>
      </trkpt>
      <trkpt lat="48.77823" lon="7.3587">
        <ele>346.3</ele>
        <time>2020-05-10T12:35:39Z</time>
      </trkpt>
      <trkpt lat="48.77821" lon="7.3586">
        <ele>346.2</ele>
        <time>2020-05-10T12:35:40Z</time>
      </trkpt>
      <trkpt lat="48.77818" lon="7.35843">
        <ele>346.2</ele>
        <time>2020-05-10T12:35:42Z</time>
      </trkpt>
      <trkpt lat="48.77813" lon="7.35827">
        <ele>346.2</ele>
        <time>2020-05-10T12:35:44Z</time>
      </trkpt>
      <trkpt lat="48.77809" lon="7.35811">
        <ele>346.2</ele>
        <time>2020-05-10T12:35:46Z</time>
      </trkpt>
      <trkpt lat="48.77802" lon="7.35795">
        <ele>346.2</ele>
        <time>2020-05-10T12:35:48Z</time>
      </trkpt>
      <trkpt lat="48.77797" lon="7.35781">
        <ele>346.1</ele>
        <time>2020-05-10T12:35:50Z</time>
      </trkpt>
      <trkpt lat="48.77793" lon="7.35766">
        <ele>346.1</ele>
        <time>2020-05-10T12:35:52Z</time>
      </trkpt>
      <trkpt lat="48.77789" lon="7.35757">
        <ele>346.1</ele>
        <time>2020-05-10T12:35:53Z</time>
      </trkpt>
      <trkpt lat="48.77784" lon="7.35742">
        <ele>346.2</ele>
        <time>2020-05-10T12:35:55Z</time>
      </trkpt>
      <trkpt lat="48.77782" lon="7.35733">
        <ele>346.3</ele>
        <time>2020-05-10T12:35:56Z</time>
      </trkpt>
      <trkpt lat="48.77781" lon="7.35724">
        <ele>346.5</ele>
        <time>2020-05-10T12:35:57Z</time>
      </trkpt>
      <trkpt lat="48.77778" lon="7.35708">
        <ele>346.9</ele>
        <time>2020-05-10T12:35:59Z</time>
      </trkpt>
      <trkpt lat="48.77777" lon="7.35701">
        <ele>347.1</ele>
        <time>2020-05-10T12:36:00Z</time>
      </trkpt>
      <trkpt lat="48.77775" lon="7.35694">
        <ele>347.3</ele>
        <time>2020-05-10T12:36:01Z</time>
      </trkpt>
      <trkpt lat="48.77772" lon="7.35681">
        <ele>347.8</ele>
        <time>2020-05-10T12:36:03Z</time>
      </trkpt>
      <trkpt lat="48.77769" lon="7.35675">
        <ele>348</ele>
        <time>2020-05-10T12:36:04Z</time>
      </trkpt>
      <trkpt lat="48.77768" lon="7.35659">
        <ele>348.5</ele>
        <time>2020-05-10T12:36:06Z</time>
      </trkpt>
      <trkpt lat="48.77766" lon="7.35651">
        <ele>348.8</ele>
        <time>2020-05-10T12:36:07Z</time>
      </trkpt>
      <trkpt lat="48.77764" lon="7.35641">
        <ele>349</ele>
        <time>2020-05-10T12:36:09Z</time>
      </trkpt>
      <trkpt lat="48.77763" lon="7.35629">
        <ele>349.3</ele>
        <time>2020-05-10T12:36:11Z</time>
      </trkpt>
      <trkpt lat="48.77762" lon="7.35622">
        <ele>349.4</ele>
        <time>2020-05-10T12:36:12Z</time>
      </trkpt>
      <trkpt lat="48.77761" lon="7.35616">
        <ele>349.6</ele>
        <time>2020-05-10T12:36:13Z</time>
      </trkpt>
      <trkpt lat="48.77756" lon="7.35601">
        <ele>349.9</ele>
        <time>2020-05-10T12:36:15Z</time>
      </trkpt>
      <trkpt lat="48.77753" lon="7.35595">
        <ele>350.1</ele>
        <time>2020-05-10T12:36:16Z</time>
      </trkpt>
      <trkpt lat="48.77748" lon="7.35585">
        <ele>350.6</ele>
        <time>2020-05-10T12:36:18Z</time>
      </trkpt>
      <trkpt lat="48.77745" lon="7.35579">
        <ele>350.7</ele>
        <time>2020-05-10T12:36:19Z</time>
      </trkpt>
      <trkpt lat="48.77738" lon="7.35571">
        <ele>351.1</ele>
        <time>2020-05-10T12:36:21Z</time>
      </trkpt>
      <trkpt lat="48.77733" lon="7.35571">
        <ele>351.4</ele>
        <time>2020-05-10T12:36:22Z</time>
      </trkpt>
      <trkpt lat="48.77726" lon="7.35568">
        <ele>351.9</ele>
        <time>2020-05-10T12:36:24Z</time>
      </trkpt>
      <trkpt lat="48.77724" lon="7.35563">
        <ele>352.3</ele>
        <time>2020-05-10T12:36:25Z</time>
      </trkpt>
      <trkpt lat="48.77721" lon="7.35553">
        <ele>353.3</ele>
        <time>2020-05-10T12:36:27Z</time>
      </trkpt>
      <trkpt lat="48.7772" lon="7.3555">
        <ele>353.8</ele>
        <time>2020-05-10T12:36:28Z</time>
      </trkpt>
      <trkpt lat="48.77719" lon="7.35549">
        <ele>353.8</ele>
        <time>2020-05-10T12:36:29Z</time>
      </trkpt>
      <trkpt lat="48.7772" lon="7.35549">
        <ele>353.8</ele>
        <time>2020-05-10T12:36:30Z</time>
      </trkpt>
      <trkpt lat="48.77719" lon="7.35548">
        <ele>354.4</ele>
        <time>2020-05-10T12:36:32Z</time>
      </trkpt>
      <trkpt lat="48.77719" lon="7.35546">
        <ele>354.4</ele>
        <time>2020-05-10T12:36:33Z</time>
      </trkpt>
      <trkpt lat="48.77718" lon="7.35545">
        <ele>354.4</ele>
        <time>2020-05-10T12:36:35Z</time>
      </trkpt>
      <trkpt lat="48.77718" lon="7.35544">
        <ele>354.4</ele>
        <time>2020-05-10T12:36:37Z</time>
      </trkpt>
      <trkpt lat="48.77716" lon="7.35546">
        <ele>354.3</ele>
        <time>2020-05-10T12:36:39Z</time>
      </trkpt>
      <trkpt lat="48.77716" lon="7.35546">
        <ele>354.3</ele>
        <time>2020-05-10T12:36:40Z</time>
      </trkpt>
      <trkpt lat="48.77715" lon="7.35547">
        <ele>354.3</ele>
        <time>2020-05-10T12:36:41Z</time>
      </trkpt>
      <trkpt lat="48.77715" lon="7.35547">
        <ele>354.3</ele>
        <time>2020-05-10T12:36:43Z</time>
      </trkpt>
      <trkpt lat="48.77715" lon="7.35547">
        <ele>354.3</ele>
        <time>2020-05-10T12:36:44Z</time>
      </trkpt>
      <trkpt lat="48.77715" lon="7.35546">
        <ele>354.3</ele>
        <time>2020-05-10T12:36:46Z</time>
      </trkpt>
      <trkpt lat="48.77714" lon="7.35546">
        <ele>354.3</ele>
        <time>2020-05-10T12:36:47Z</time>
      </trkpt>
      <trkpt lat="48.77713" lon="7.35545">
        <ele>354.3</ele>
        <time>2020-05-10T12:36:49Z</time>
      </trkpt>
      <trkpt lat="48.77713" lon="7.35545">
        <ele>354.3</ele>
        <time>2020-05-10T12:36:50Z</time>
      </trkpt>
      <trkpt lat="48.77712" lon="7.35545">
        <ele>354.3</ele>
        <time>2020-05-10T12:36:52Z</time>
      </trkpt>
      <trkpt lat="48.77711" lon="7.35546">
        <ele>354.4</ele>
        <time>2020-05-10T12:39:22Z</time>
      </trkpt>
      <trkpt lat="48.77711" lon="7.35546">
        <ele>354.4</ele>
        <time>2020-05-10T12:39:24Z</time>
      </trkpt>
      <trkpt lat="48.77711" lon="7.35546">
        <ele>354.4</ele>
        <time>2020-05-10T12:39:25Z</time>
      </trkpt>
      <trkpt lat="48.77711" lon="7.35546">
        <ele>354.4</ele>
        <time>2020-05-10T12:39:27Z</time>
      </trkpt>
      <trkpt lat="48.77711" lon="7.35546">
        <ele>354.4</ele>
        <time>2020-05-10T12:39:29Z</time>
      </trkpt>
      <trkpt lat="48.7771" lon="7.35546">
        <ele>354.4</ele>
        <time>2020-05-10T12:39:31Z</time>
      </trkpt>
      <trkpt lat="48.7771" lon="7.35544">
        <ele>354.4</ele>
        <time>2020-05-10T12:39:33Z</time>
      </trkpt>
      <trkpt lat="48.77707" lon="7.35538">
        <ele>356</ele>
        <time>2020-05-10T12:39:45Z</time>
      </trkpt>
      <trkpt lat="48.77707" lon="7.35537">
        <ele>355.9</ele>
        <time>2020-05-10T12:39:46Z</time>
      </trkpt>
      <trkpt lat="48.77707" lon="7.35534">
        <ele>356.7</ele>
        <time>2020-05-10T12:39:48Z</time>
      </trkpt>
      <trkpt lat="48.77707" lon="7.35531">
        <ele>356.7</ele>
        <time>2020-05-10T12:39:50Z</time>
      </trkpt>
      <trkpt lat="48.77707" lon="7.3553">
        <ele>357.5</ele>
        <time>2020-05-10T12:39:51Z</time>
      </trkpt>
      <trkpt lat="48.77706" lon="7.35531">
        <ele>356.9</ele>
        <time>2020-05-10T12:39:53Z</time>
      </trkpt>
      <trkpt lat="48.77706" lon="7.35531">
        <ele>356.9</ele>
        <time>2020-05-10T12:39:54Z</time>
      </trkpt>
      <trkpt lat="48.77705" lon="7.35532">
        <ele>356.9</ele>
        <time>2020-05-10T12:39:55Z</time>
      </trkpt>
      <trkpt lat="48.77705" lon="7.35533">
        <ele>356.9</ele>
        <time>2020-05-10T12:39:57Z</time>
      </trkpt>
      <trkpt lat="48.77703" lon="7.35536">
        <ele>356.5</ele>
        <time>2020-05-10T12:39:59Z</time>
      </trkpt>
      <trkpt lat="48.77702" lon="7.35536">
        <ele>356.4</ele>
        <time>2020-05-10T12:40:00Z</time>
      </trkpt>
      <trkpt lat="48.77702" lon="7.35537">
        <ele>356.4</ele>
        <time>2020-05-10T12:40:01Z</time>
      </trkpt>
      <trkpt lat="48.777" lon="7.35539">
        <ele>356.8</ele>
        <time>2020-05-10T12:40:03Z</time>
      </trkpt>
      <trkpt lat="48.777" lon="7.35539">
        <ele>356.1</ele>
        <time>2020-05-10T12:40:04Z</time>
      </trkpt>
      <trkpt lat="48.77699" lon="7.3554">
        <ele>356.1</ele>
        <time>2020-05-10T12:40:05Z</time>
      </trkpt>
      <trkpt lat="48.77698" lon="7.35541">
        <ele>356.5</ele>
        <time>2020-05-10T12:40:07Z</time>
      </trkpt>
      <trkpt lat="48.77696" lon="7.35542">
        <ele>356.5</ele>
        <time>2020-05-10T12:40:08Z</time>
      </trkpt>
      <trkpt lat="48.77694" lon="7.35545">
        <ele>356.3</ele>
        <time>2020-05-10T12:40:10Z</time>
      </trkpt>
      <trkpt lat="48.77693" lon="7.35546">
        <ele>356.3</ele>
        <time>2020-05-10T12:40:11Z</time>
      </trkpt>
      <trkpt lat="48.77692" lon="7.35548">
        <ele>356.3</ele>
        <time>2020-05-10T12:40:13Z</time>
      </trkpt>
      <trkpt lat="48.7769" lon="7.35549">
        <ele>356.3</ele>
        <time>2020-05-10T12:40:15Z</time>
      </trkpt>
      <trkpt lat="48.77689" lon="7.3555">
        <ele>357</ele>
        <time>2020-05-10T12:40:16Z</time>
      </trkpt>
      <trkpt lat="48.77688" lon="7.35547">
        <ele>357.7</ele>
        <time>2020-05-10T12:40:18Z</time>
      </trkpt>
      <trkpt lat="48.77689" lon="7.35544">
        <ele>357.6</ele>
        <time>2020-05-10T12:40:20Z</time>
      </trkpt>
      <trkpt lat="48.77689" lon="7.35543">
        <ele>358.4</ele>
        <time>2020-05-10T12:40:21Z</time>
      </trkpt>
      <trkpt lat="48.77692" lon="7.35537">
        <ele>358.4</ele>
        <time>2020-05-10T12:40:23Z</time>
      </trkpt>
      <trkpt lat="48.77694" lon="7.35533">
        <ele>358.6</ele>
        <time>2020-05-10T12:40:25Z</time>
      </trkpt>
      <trkpt lat="48.77695" lon="7.35531">
        <ele>358.6</ele>
        <time>2020-05-10T12:40:27Z</time>
      </trkpt>
      <trkpt lat="48.77696" lon="7.35527">
        <ele>358.8</ele>
        <time>2020-05-10T12:40:29Z</time>
      </trkpt>
      <trkpt lat="48.77696" lon="7.35523">
        <ele>359.6</ele>
        <time>2020-05-10T12:40:31Z</time>
      </trkpt>
      <trkpt lat="48.77697" lon="7.35522">
        <ele>359.6</ele>
        <time>2020-05-10T12:40:32Z</time>
      </trkpt>
      <trkpt lat="48.77697" lon="7.35518">
        <ele>360.4</ele>
        <time>2020-05-10T12:40:34Z</time>
      </trkpt>
      <trkpt lat="48.77697" lon="7.35515">
        <ele>361.2</ele>
        <time>2020-05-10T12:40:36Z</time>
      </trkpt>
      <trkpt lat="48.77698" lon="7.35513">
        <ele>361.2</ele>
        <time>2020-05-10T12:40:37Z</time>
      </trkpt>
      <trkpt lat="48.77699" lon="7.35511">
        <ele>361.6</ele>
        <time>2020-05-10T12:40:39Z</time>
      </trkpt>
      <trkpt lat="48.77699" lon="7.3551">
        <ele>361.6</ele>
        <time>2020-05-10T12:40:41Z</time>
      </trkpt>
      <trkpt lat="48.77699" lon="7.35507">
        <ele>362.5</ele>
        <time>2020-05-10T12:40:43Z</time>
      </trkpt>
      <trkpt lat="48.777" lon="7.35503">
        <ele>363.4</ele>
        <time>2020-05-10T12:40:45Z</time>
      </trkpt>
      <trkpt lat="48.77701" lon="7.35499">
        <ele>364.1</ele>
        <time>2020-05-10T12:40:47Z</time>
      </trkpt>
      <trkpt lat="48.77702" lon="7.35497">
        <ele>364.1</ele>
        <time>2020-05-10T12:40:49Z</time>
      </trkpt>
      <trkpt lat="48.77702" lon="7.35495">
        <ele>365.2</ele>
        <time>2020-05-10T12:40:51Z</time>
      </trkpt>
      <trkpt lat="48.77703" lon="7.35492">
        <ele>365.1</ele>
        <time>2020-05-10T12:40:53Z</time>
      </trkpt>
      <trkpt lat="48.77703" lon="7.35492">
        <ele>366.2</ele>
        <time>2020-05-10T12:40:54Z</time>
      </trkpt>
      <trkpt lat="48.77704" lon="7.35491">
        <ele>366</ele>
        <time>2020-05-10T12:40:55Z</time>
      </trkpt>
      <trkpt lat="48.77704" lon="7.3549">
        <ele>366</ele>
        <time>2020-05-10T12:40:56Z</time>
      </trkpt>
      <trkpt lat="48.77705" lon="7.35488">
        <ele>366</ele>
        <time>2020-05-10T12:40:57Z</time>
      </trkpt>
      <trkpt lat="48.77706" lon="7.35484">
        <ele>367.1</ele>
        <time>2020-05-10T12:40:59Z</time>
      </trkpt>
      <trkpt lat="48.77707" lon="7.35481">
        <ele>368.1</ele>
        <time>2020-05-10T12:41:01Z</time>
      </trkpt>
      <trkpt lat="48.77708" lon="7.35477">
        <ele>369.2</ele>
        <time>2020-05-10T12:41:03Z</time>
      </trkpt>
      <trkpt lat="48.77707" lon="7.35475">
        <ele>370.5</ele>
        <time>2020-05-10T12:41:05Z</time>
      </trkpt>
      <trkpt lat="48.77707" lon="7.35473">
        <ele>370.5</ele>
        <time>2020-05-10T12:41:06Z</time>
      </trkpt>
      <trkpt lat="48.77706" lon="7.35473">
        <ele>370.6</ele>
        <time>2020-05-10T12:41:08Z</time>
      </trkpt>
      <trkpt lat="48.77705" lon="7.35473">
        <ele>370.6</ele>
        <time>2020-05-10T12:41:09Z</time>
      </trkpt>
      <trkpt lat="48.77704" lon="7.35474">
        <ele>370.6</ele>
        <time>2020-05-10T12:41:10Z</time>
      </trkpt>
      <trkpt lat="48.77702" lon="7.35475">
        <ele>369.5</ele>
        <time>2020-05-10T12:41:12Z</time>
      </trkpt>
      <trkpt lat="48.777" lon="7.35478">
        <ele>369.7</ele>
        <time>2020-05-10T12:41:14Z</time>
      </trkpt>
      <trkpt lat="48.777" lon="7.35479">
        <ele>368.5</ele>
        <time>2020-05-10T12:41:15Z</time>
      </trkpt>
      <trkpt lat="48.77697" lon="7.35483">
        <ele>367.8</ele>
        <time>2020-05-10T12:41:17Z</time>
      </trkpt>
      <trkpt lat="48.77695" lon="7.35484">
        <ele>368.2</ele>
        <time>2020-05-10T12:41:18Z</time>
      </trkpt>
      <trkpt lat="48.77694" lon="7.35484">
        <ele>368.2</ele>
        <time>2020-05-10T12:41:19Z</time>
      </trkpt>
      <trkpt lat="48.77692" lon="7.35484">
        <ele>368.7</ele>
        <time>2020-05-10T12:41:21Z</time>
      </trkpt>
      <trkpt lat="48.77691" lon="7.35484">
        <ele>368.7</ele>
        <time>2020-05-10T12:41:23Z</time>
      </trkpt>
      <trkpt lat="48.77689" lon="7.35485">
        <ele>369.3</ele>
        <time>2020-05-10T12:41:25Z</time>
      </trkpt>
      <trkpt lat="48.77688" lon="7.35485">
        <ele>369.3</ele>
        <time>2020-05-10T12:41:26Z</time>
      </trkpt>
      <trkpt lat="48.77687" lon="7.35486">
        <ele>369.3</ele>
        <time>2020-05-10T12:41:28Z</time>
      </trkpt>
      <trkpt lat="48.77687" lon="7.35486">
        <ele>369.3</ele>
        <time>2020-05-10T12:41:29Z</time>
      </trkpt>
      <trkpt lat="48.77687" lon="7.35486">
        <ele>369.3</ele>
        <time>2020-05-10T12:41:30Z</time>
      </trkpt>
      <trkpt lat="48.77685" lon="7.35487">
        <ele>369.9</ele>
        <time>2020-05-10T12:41:32Z</time>
      </trkpt>
      <trkpt lat="48.77684" lon="7.35487">
        <ele>369.9</ele>
        <time>2020-05-10T12:41:33Z</time>
      </trkpt>
      <trkpt lat="48.77683" lon="7.35488">
        <ele>369.6</ele>
        <time>2020-05-10T12:41:35Z</time>
      </trkpt>
      <trkpt lat="48.77682" lon="7.35489">
        <ele>369.6</ele>
        <time>2020-05-10T12:41:37Z</time>
      </trkpt>
      <trkpt lat="48.77682" lon="7.3549">
        <ele>369.6</ele>
        <time>2020-05-10T12:41:38Z</time>
      </trkpt>
      <trkpt lat="48.77681" lon="7.35491">
        <ele>369.6</ele>
        <time>2020-05-10T12:41:39Z</time>
      </trkpt>
      <trkpt lat="48.77679" lon="7.35491">
        <ele>370.4</ele>
        <time>2020-05-10T12:41:41Z</time>
      </trkpt>
      <trkpt lat="48.77678" lon="7.3549">
        <ele>371.2</ele>
        <time>2020-05-10T12:41:42Z</time>
      </trkpt>
      <trkpt lat="48.77677" lon="7.3549">
        <ele>371.2</ele>
        <time>2020-05-10T12:41:44Z</time>
      </trkpt>
      <trkpt lat="48.77677" lon="7.35488">
        <ele>371.2</ele>
        <time>2020-05-10T12:41:45Z</time>
      </trkpt>
      <trkpt lat="48.77678" lon="7.35486">
        <ele>372.2</ele>
        <time>2020-05-10T12:41:47Z</time>
      </trkpt>
      <trkpt lat="48.77678" lon="7.35485">
        <ele>372.2</ele>
        <time>2020-05-10T12:41:48Z</time>
      </trkpt>
      <trkpt lat="48.77679" lon="7.35483">
        <ele>372.4</ele>
        <time>2020-05-10T12:41:49Z</time>
      </trkpt>
      <trkpt lat="48.77679" lon="7.35479">
        <ele>373.5</ele>
        <time>2020-05-10T12:41:51Z</time>
      </trkpt>
      <trkpt lat="48.7768" lon="7.35475">
        <ele>373.5</ele>
        <time>2020-05-10T12:41:52Z</time>
      </trkpt>
      <trkpt lat="48.7768" lon="7.35475">
        <ele>373.5</ele>
        <time>2020-05-10T12:41:53Z</time>
      </trkpt>
      <trkpt lat="48.7768" lon="7.35473">
        <ele>374.7</ele>
        <time>2020-05-10T12:41:55Z</time>
      </trkpt>
      <trkpt lat="48.77681" lon="7.35471">
        <ele>374</ele>
        <time>2020-05-10T12:41:57Z</time>
      </trkpt>
      <trkpt lat="48.77682" lon="7.35471">
        <ele>374</ele>
        <time>2020-05-10T12:41:58Z</time>
      </trkpt>
      <trkpt lat="48.77681" lon="7.3547">
        <ele>376</ele>
        <time>2020-05-10T12:42:00Z</time>
      </trkpt>
      <trkpt lat="48.7768" lon="7.35469">
        <ele>376</ele>
        <time>2020-05-10T12:42:01Z</time>
      </trkpt>
      <trkpt lat="48.7768" lon="7.35467">
        <ele>376</ele>
        <time>2020-05-10T12:42:02Z</time>
      </trkpt>
      <trkpt lat="48.7768" lon="7.35464">
        <ele>377.5</ele>
        <time>2020-05-10T12:42:04Z</time>
      </trkpt>
      <trkpt lat="48.7768" lon="7.3546">
        <ele>379</ele>
        <time>2020-05-10T12:42:06Z</time>
      </trkpt>
      <trkpt lat="48.77681" lon="7.35457">
        <ele>379.8</ele>
        <time>2020-05-10T12:42:08Z</time>
      </trkpt>
      <trkpt lat="48.77682" lon="7.35455">
        <ele>379.8</ele>
        <time>2020-05-10T12:42:09Z</time>
      </trkpt>
      <trkpt lat="48.77682" lon="7.35454">
        <ele>379.8</ele>
        <time>2020-05-10T12:42:10Z</time>
      </trkpt>
      <trkpt lat="48.77682" lon="7.35451">
        <ele>381.4</ele>
        <time>2020-05-10T12:42:12Z</time>
      </trkpt>
      <trkpt lat="48.77681" lon="7.35449">
        <ele>383.7</ele>
        <time>2020-05-10T12:42:14Z</time>
      </trkpt>
      <trkpt lat="48.77678" lon="7.3545">
        <ele>382.7</ele>
        <time>2020-05-10T12:42:16Z</time>
      </trkpt>
      <trkpt lat="48.77676" lon="7.35451">
        <ele>382.7</ele>
        <time>2020-05-10T12:42:18Z</time>
      </trkpt>
      <trkpt lat="48.77675" lon="7.35452">
        <ele>383.5</ele>
        <time>2020-05-10T12:42:19Z</time>
      </trkpt>
      <trkpt lat="48.77674" lon="7.35453">
        <ele>383.5</ele>
        <time>2020-05-10T12:42:20Z</time>
      </trkpt>
      <trkpt lat="48.77674" lon="7.35453">
        <ele>383.4</ele>
        <time>2020-05-10T12:42:22Z</time>
      </trkpt>
      <trkpt lat="48.77672" lon="7.35453">
        <ele>382.7</ele>
        <time>2020-05-10T12:42:24Z</time>
      </trkpt>
      <trkpt lat="48.77671" lon="7.35454">
        <ele>382.6</ele>
        <time>2020-05-10T12:42:26Z</time>
      </trkpt>
      <trkpt lat="48.77669" lon="7.35456">
        <ele>382.4</ele>
        <time>2020-05-10T12:42:28Z</time>
      </trkpt>
      <trkpt lat="48.77667" lon="7.35458">
        <ele>382.2</ele>
        <time>2020-05-10T12:42:30Z</time>
      </trkpt>
      <trkpt lat="48.77667" lon="7.35459">
        <ele>382.1</ele>
        <time>2020-05-10T12:42:31Z</time>
      </trkpt>
      <trkpt lat="48.77666" lon="7.35459">
        <ele>382.1</ele>
        <time>2020-05-10T12:42:32Z</time>
      </trkpt>
      <trkpt lat="48.77666" lon="7.35461">
        <ele>382</ele>
        <time>2020-05-10T12:42:34Z</time>
      </trkpt>
      <trkpt lat="48.77666" lon="7.35463">
        <ele>381.9</ele>
        <time>2020-05-10T12:42:35Z</time>
      </trkpt>
      <trkpt lat="48.77665" lon="7.35463">
        <ele>381.8</ele>
        <time>2020-05-10T12:42:36Z</time>
      </trkpt>
      <trkpt lat="48.77664" lon="7.35464">
        <ele>381.7</ele>
        <time>2020-05-10T12:42:37Z</time>
      </trkpt>
      <trkpt lat="48.77661" lon="7.35466">
        <ele>381.4</ele>
        <time>2020-05-10T12:42:39Z</time>
      </trkpt>
      <trkpt lat="48.7766" lon="7.35466">
        <ele>381.3</ele>
        <time>2020-05-10T12:42:40Z</time>
      </trkpt>
      <trkpt lat="48.77659" lon="7.35467">
        <ele>381.3</ele>
        <time>2020-05-10T12:42:42Z</time>
      </trkpt>
      <trkpt lat="48.77659" lon="7.35467">
        <ele>381.2</ele>
        <time>2020-05-10T12:42:43Z</time>
      </trkpt>
      <trkpt lat="48.77657" lon="7.35468">
        <ele>381</ele>
        <time>2020-05-10T12:42:45Z</time>
      </trkpt>
      <trkpt lat="48.77656" lon="7.3547">
        <ele>380.8</ele>
        <time>2020-05-10T12:42:47Z</time>
      </trkpt>
      <trkpt lat="48.77655" lon="7.35473">
        <ele>380.6</ele>
        <time>2020-05-10T12:42:49Z</time>
      </trkpt>
      <trkpt lat="48.77655" lon="7.35474">
        <ele>380.5</ele>
        <time>2020-05-10T12:42:50Z</time>
      </trkpt>
      <trkpt lat="48.77653" lon="7.35479">
        <ele>380.1</ele>
        <time>2020-05-10T12:42:52Z</time>
      </trkpt>
      <trkpt lat="48.77651" lon="7.35482">
        <ele>379.8</ele>
        <time>2020-05-10T12:42:54Z</time>
      </trkpt>
      <trkpt lat="48.77648" lon="7.35487">
        <ele>379.3</ele>
        <time>2020-05-10T12:42:56Z</time>
      </trkpt>
      <trkpt lat="48.77646" lon="7.3549">
        <ele>378.9</ele>
        <time>2020-05-10T12:42:57Z</time>
      </trkpt>
      <trkpt lat="48.77645" lon="7.35495">
        <ele>378.5</ele>
        <time>2020-05-10T12:42:59Z</time>
      </trkpt>
      <trkpt lat="48.77643" lon="7.355">
        <ele>378.1</ele>
        <time>2020-05-10T12:43:01Z</time>
      </trkpt>
      <trkpt lat="48.77641" lon="7.35503">
        <ele>377.7</ele>
        <time>2020-05-10T12:43:02Z</time>
      </trkpt>
      <trkpt lat="48.7764" lon="7.35504">
        <ele>377.6</ele>
        <time>2020-05-10T12:43:03Z</time>
      </trkpt>
      <trkpt lat="48.77638" lon="7.35507">
        <ele>377.4</ele>
        <time>2020-05-10T12:43:05Z</time>
      </trkpt>
      <trkpt lat="48.77638" lon="7.35509">
        <ele>377.2</ele>
        <time>2020-05-10T12:43:07Z</time>
      </trkpt>
      <trkpt lat="48.77637" lon="7.35509">
        <ele>377.2</ele>
        <time>2020-05-10T12:43:08Z</time>
      </trkpt>
      <trkpt lat="48.77638" lon="7.35509">
        <ele>377.2</ele>
        <time>2020-05-10T12:43:10Z</time>
      </trkpt>
      <trkpt lat="48.77638" lon="7.35509">
        <ele>377.1</ele>
        <time>2020-05-10T12:43:12Z</time>
      </trkpt>
      <trkpt lat="48.77638" lon="7.35509">
        <ele>377.1</ele>
        <time>2020-05-10T12:43:13Z</time>
      </trkpt>
      <trkpt lat="48.77637" lon="7.35511">
        <ele>377</ele>
        <time>2020-05-10T12:43:15Z</time>
      </trkpt>
      <trkpt lat="48.77636" lon="7.35512">
        <ele>376.8</ele>
        <time>2020-05-10T12:43:17Z</time>
      </trkpt>
      <trkpt lat="48.77636" lon="7.35512">
        <ele>376.8</ele>
        <time>2020-05-10T12:43:18Z</time>
      </trkpt>
      <trkpt lat="48.77635" lon="7.35512">
        <ele>376.8</ele>
        <time>2020-05-10T12:43:19Z</time>
      </trkpt>
      <trkpt lat="48.77635" lon="7.35512">
        <ele>376.7</ele>
        <time>2020-05-10T12:43:21Z</time>
      </trkpt>
      <trkpt lat="48.77635" lon="7.35512">
        <ele>376.7</ele>
        <time>2020-05-10T12:43:22Z</time>
      </trkpt>
      <trkpt lat="48.77635" lon="7.35513">
        <ele>376.7</ele>
        <time>2020-05-10T12:43:23Z</time>
      </trkpt>
      <trkpt lat="48.77632" lon="7.35516">
        <ele>376.3</ele>
        <time>2020-05-10T12:43:25Z</time>
      </trkpt>
      <trkpt lat="48.7763" lon="7.35518">
        <ele>376</ele>
        <time>2020-05-10T12:43:27Z</time>
      </trkpt>
      <trkpt lat="48.77628" lon="7.35523">
        <ele>375.6</ele>
        <time>2020-05-10T12:43:29Z</time>
      </trkpt>
      <trkpt lat="48.77627" lon="7.35525">
        <ele>375.5</ele>
        <time>2020-05-10T12:43:30Z</time>
      </trkpt>
      <trkpt lat="48.77625" lon="7.35529">
        <ele>375.1</ele>
        <time>2020-05-10T12:43:32Z</time>
      </trkpt>
      <trkpt lat="48.77623" lon="7.35531">
        <ele>374.8</ele>
        <time>2020-05-10T12:43:33Z</time>
      </trkpt>
      <trkpt lat="48.77622" lon="7.35532">
        <ele>374.7</ele>
        <time>2020-05-10T12:43:34Z</time>
      </trkpt>
      <trkpt lat="48.7762" lon="7.35537">
        <ele>374.3</ele>
        <time>2020-05-10T12:43:36Z</time>
      </trkpt>
      <trkpt lat="48.77618" lon="7.35542">
        <ele>373.8</ele>
        <time>2020-05-10T12:43:38Z</time>
      </trkpt>
      <trkpt lat="48.77614" lon="7.35549">
        <ele>373.2</ele>
        <time>2020-05-10T12:43:40Z</time>
      </trkpt>
      <trkpt lat="48.77612" lon="7.35553">
        <ele>372.7</ele>
        <time>2020-05-10T12:43:42Z</time>
      </trkpt>
      <trkpt lat="48.7761" lon="7.35556">
        <ele>372.3</ele>
        <time>2020-05-10T12:43:43Z</time>
      </trkpt>
      <trkpt lat="48.7761" lon="7.35558">
        <ele>372.1</ele>
        <time>2020-05-10T12:43:44Z</time>
      </trkpt>
      <trkpt lat="48.77608" lon="7.35562">
        <ele>371.6</ele>
        <time>2020-05-10T12:43:46Z</time>
      </trkpt>
      <trkpt lat="48.77607" lon="7.35565">
        <ele>371.3</ele>
        <time>2020-05-10T12:43:47Z</time>
      </trkpt>
      <trkpt lat="48.77605" lon="7.35568">
        <ele>370.9</ele>
        <time>2020-05-10T12:43:49Z</time>
      </trkpt>
      <trkpt lat="48.77605" lon="7.3557">
        <ele>370.8</ele>
        <time>2020-05-10T12:43:50Z</time>
      </trkpt>
      <trkpt lat="48.77603" lon="7.35576">
        <ele>370.6</ele>
        <time>2020-05-10T12:43:52Z</time>
      </trkpt>
      <trkpt lat="48.77603" lon="7.35578">
        <ele>370.6</ele>
        <time>2020-05-10T12:43:53Z</time>
      </trkpt>
      <trkpt lat="48.77601" lon="7.35584">
        <ele>370.4</ele>
        <time>2020-05-10T12:43:55Z</time>
      </trkpt>
      <trkpt lat="48.77601" lon="7.35587">
        <ele>370.3</ele>
        <time>2020-05-10T12:43:56Z</time>
      </trkpt>
      <trkpt lat="48.77601" lon="7.3559">
        <ele>370.2</ele>
        <time>2020-05-10T12:43:58Z</time>
      </trkpt>
      <trkpt lat="48.77601" lon="7.35593">
        <ele>370.2</ele>
        <time>2020-05-10T12:43:59Z</time>
      </trkpt>
      <trkpt lat="48.77602" lon="7.35598">
        <ele>370</ele>
        <time>2020-05-10T12:44:01Z</time>
      </trkpt>
      <trkpt lat="48.77602" lon="7.35604">
        <ele>369.9</ele>
        <time>2020-05-10T12:44:03Z</time>
      </trkpt>
      <trkpt lat="48.776" lon="7.35609">
        <ele>369.7</ele>
        <time>2020-05-10T12:44:05Z</time>
      </trkpt>
      <trkpt lat="48.77598" lon="7.35613">
        <ele>369.5</ele>
        <time>2020-05-10T12:44:06Z</time>
      </trkpt>
      <trkpt lat="48.77594" lon="7.35619">
        <ele>369.3</ele>
        <time>2020-05-10T12:44:08Z</time>
      </trkpt>
      <trkpt lat="48.77589" lon="7.35629">
        <ele>369</ele>
        <time>2020-05-10T12:44:10Z</time>
      </trkpt>
      <trkpt lat="48.77587" lon="7.35634">
        <ele>368.8</ele>
        <time>2020-05-10T12:44:11Z</time>
      </trkpt>
      <trkpt lat="48.77586" lon="7.3564">
        <ele>368.7</ele>
        <time>2020-05-10T12:44:12Z</time>
      </trkpt>
      <trkpt lat="48.77585" lon="7.35646">
        <ele>368.6</ele>
        <time>2020-05-10T12:44:13Z</time>
      </trkpt>
      <trkpt lat="48.77583" lon="7.35659">
        <ele>368.5</ele>
        <time>2020-05-10T12:44:15Z</time>
      </trkpt>
      <trkpt lat="48.77583" lon="7.35666">
        <ele>368.5</ele>
        <time>2020-05-10T12:44:16Z</time>
      </trkpt>
      <trkpt lat="48.77583" lon="7.35678">
        <ele>368.4</ele>
        <time>2020-05-10T12:44:18Z</time>
      </trkpt>
      <trkpt lat="48.77583" lon="7.35692">
        <ele>368.4</ele>
        <time>2020-05-10T12:44:20Z</time>
      </trkpt>
      <trkpt lat="48.77582" lon="7.35704">
        <ele>368.3</ele>
        <time>2020-05-10T12:44:22Z</time>
      </trkpt>
      <trkpt lat="48.77581" lon="7.35712">
        <ele>368.2</ele>
        <time>2020-05-10T12:44:24Z</time>
      </trkpt>
      <trkpt lat="48.77581" lon="7.35723">
        <ele>368.1</ele>
        <time>2020-05-10T12:44:26Z</time>
      </trkpt>
      <trkpt lat="48.77581" lon="7.35728">
        <ele>368.1</ele>
        <time>2020-05-10T12:44:27Z</time>
      </trkpt>
      <trkpt lat="48.7758" lon="7.35742">
        <ele>367.9</ele>
        <time>2020-05-10T12:44:29Z</time>
      </trkpt>
      <trkpt lat="48.77579" lon="7.35755">
        <ele>367.8</ele>
        <time>2020-05-10T12:44:31Z</time>
      </trkpt>
      <trkpt lat="48.77579" lon="7.35761">
        <ele>367.7</ele>
        <time>2020-05-10T12:44:32Z</time>
      </trkpt>
      <trkpt lat="48.77578" lon="7.35771">
        <ele>367.5</ele>
        <time>2020-05-10T12:44:34Z</time>
      </trkpt>
      <trkpt lat="48.77576" lon="7.35784">
        <ele>367.4</ele>
        <time>2020-05-10T12:44:36Z</time>
      </trkpt>
      <trkpt lat="48.77575" lon="7.35797">
        <ele>367.3</ele>
        <time>2020-05-10T12:44:38Z</time>
      </trkpt>
      <trkpt lat="48.77574" lon="7.35808">
        <ele>367.1</ele>
        <time>2020-05-10T12:44:40Z</time>
      </trkpt>
      <trkpt lat="48.77571" lon="7.35821">
        <ele>366.9</ele>
        <time>2020-05-10T12:44:42Z</time>
      </trkpt>
      <trkpt lat="48.77566" lon="7.35833">
        <ele>366.8</ele>
        <time>2020-05-10T12:44:44Z</time>
      </trkpt>
      <trkpt lat="48.77566" lon="7.35844">
        <ele>366.6</ele>
        <time>2020-05-10T12:44:46Z</time>
      </trkpt>
      <trkpt lat="48.77564" lon="7.35854">
        <ele>366.4</ele>
        <time>2020-05-10T12:44:48Z</time>
      </trkpt>
      <trkpt lat="48.77563" lon="7.3586">
        <ele>366.4</ele>
        <time>2020-05-10T12:44:49Z</time>
      </trkpt>
      <trkpt lat="48.77562" lon="7.35866">
        <ele>366.3</ele>
        <time>2020-05-10T12:44:50Z</time>
      </trkpt>
      <trkpt lat="48.7756" lon="7.35878">
        <ele>366.2</ele>
        <time>2020-05-10T12:44:52Z</time>
      </trkpt>
      <trkpt lat="48.77557" lon="7.3589">
        <ele>366.2</ele>
        <time>2020-05-10T12:44:54Z</time>
      </trkpt>
      <trkpt lat="48.77555" lon="7.35896">
        <ele>366.2</ele>
        <time>2020-05-10T12:44:55Z</time>
      </trkpt>
      <trkpt lat="48.77554" lon="7.35903">
        <ele>366.3</ele>
        <time>2020-05-10T12:44:56Z</time>
      </trkpt>
      <trkpt lat="48.77551" lon="7.35913">
        <ele>366.4</ele>
        <time>2020-05-10T12:44:58Z</time>
      </trkpt>
      <trkpt lat="48.77547" lon="7.35926">
        <ele>366.5</ele>
        <time>2020-05-10T12:45:00Z</time>
      </trkpt>
      <trkpt lat="48.77543" lon="7.35938">
        <ele>366.4</ele>
        <time>2020-05-10T12:45:02Z</time>
      </trkpt>
      <trkpt lat="48.77541" lon="7.35951">
        <ele>366.3</ele>
        <time>2020-05-10T12:45:04Z</time>
      </trkpt>
      <trkpt lat="48.77539" lon="7.35968">
        <ele>366.1</ele>
        <time>2020-05-10T12:45:06Z</time>
      </trkpt>
      <trkpt lat="48.77539" lon="7.35979">
        <ele>366</ele>
        <time>2020-05-10T12:45:07Z</time>
      </trkpt>
      <trkpt lat="48.77542" lon="7.35992">
        <ele>365.9</ele>
        <time>2020-05-10T12:45:09Z</time>
      </trkpt>
      <trkpt lat="48.77542" lon="7.36004">
        <ele>365.8</ele>
        <time>2020-05-10T12:45:11Z</time>
      </trkpt>
      <trkpt lat="48.77542" lon="7.36013">
        <ele>365.8</ele>
        <time>2020-05-10T12:45:13Z</time>
      </trkpt>
      <trkpt lat="48.77542" lon="7.36021">
        <ele>365.8</ele>
        <time>2020-05-10T12:45:14Z</time>
      </trkpt>
      <trkpt lat="48.77544" lon="7.36028">
        <ele>365.8</ele>
        <time>2020-05-10T12:45:15Z</time>
      </trkpt>
      <trkpt lat="48.77545" lon="7.36044">
        <ele>365.8</ele>
        <time>2020-05-10T12:45:17Z</time>
      </trkpt>
      <trkpt lat="48.77544" lon="7.36059">
        <ele>365.8</ele>
        <time>2020-05-10T12:45:19Z</time>
      </trkpt>
      <trkpt lat="48.77543" lon="7.36073">
        <ele>366</ele>
        <time>2020-05-10T12:45:21Z</time>
      </trkpt>
      <trkpt lat="48.77542" lon="7.36083">
        <ele>366.3</ele>
        <time>2020-05-10T12:45:23Z</time>
      </trkpt>
      <trkpt lat="48.77539" lon="7.36094">
        <ele>366.6</ele>
        <time>2020-05-10T12:45:25Z</time>
      </trkpt>
      <trkpt lat="48.7754" lon="7.36099">
        <ele>366.8</ele>
        <time>2020-05-10T12:45:26Z</time>
      </trkpt>
      <trkpt lat="48.77539" lon="7.36107">
        <ele>367</ele>
        <time>2020-05-10T12:45:28Z</time>
      </trkpt>
      <trkpt lat="48.77539" lon="7.36111">
        <ele>367.1</ele>
        <time>2020-05-10T12:45:29Z</time>
      </trkpt>
      <trkpt lat="48.7754" lon="7.3612">
        <ele>367.3</ele>
        <time>2020-05-10T12:45:31Z</time>
      </trkpt>
      <trkpt lat="48.77539" lon="7.36124">
        <ele>367.4</ele>
        <time>2020-05-10T12:45:32Z</time>
      </trkpt>
      <trkpt lat="48.77538" lon="7.36129">
        <ele>367.5</ele>
        <time>2020-05-10T12:45:33Z</time>
      </trkpt>
      <trkpt lat="48.77537" lon="7.36133">
        <ele>367.6</ele>
        <time>2020-05-10T12:45:34Z</time>
      </trkpt>
      <trkpt lat="48.77536" lon="7.36141">
        <ele>367.7</ele>
        <time>2020-05-10T12:45:36Z</time>
      </trkpt>
      <trkpt lat="48.77535" lon="7.36149">
        <ele>367.8</ele>
        <time>2020-05-10T12:45:38Z</time>
      </trkpt>
      <trkpt lat="48.77535" lon="7.36153">
        <ele>367.8</ele>
        <time>2020-05-10T12:45:39Z</time>
      </trkpt>
      <trkpt lat="48.77535" lon="7.36158">
        <ele>367.9</ele>
        <time>2020-05-10T12:45:40Z</time>
      </trkpt>
      <trkpt lat="48.77534" lon="7.36167">
        <ele>367.9</ele>
        <time>2020-05-10T12:45:42Z</time>
      </trkpt>
      <trkpt lat="48.77532" lon="7.36176">
        <ele>367.9</ele>
        <time>2020-05-10T12:45:44Z</time>
      </trkpt>
      <trkpt lat="48.7753" lon="7.36186">
        <ele>367.8</ele>
        <time>2020-05-10T12:45:46Z</time>
      </trkpt>
      <trkpt lat="48.77529" lon="7.3619">
        <ele>367.8</ele>
        <time>2020-05-10T12:45:47Z</time>
      </trkpt>
      <trkpt lat="48.77526" lon="7.36194">
        <ele>370.4</ele>
        <time>2020-05-10T12:45:49Z</time>
      </trkpt>
      <trkpt lat="48.77524" lon="7.36196">
        <ele>371</ele>
        <time>2020-05-10T12:45:50Z</time>
      </trkpt>
      <trkpt lat="48.77523" lon="7.36197">
        <ele>371.4</ele>
        <time>2020-05-10T12:45:51Z</time>
      </trkpt>
      <trkpt lat="48.77522" lon="7.36198">
        <ele>371.7</ele>
        <time>2020-05-10T12:45:52Z</time>
      </trkpt>
      <trkpt lat="48.77519" lon="7.36196">
        <ele>372.8</ele>
        <time>2020-05-10T12:45:54Z</time>
      </trkpt>
      <trkpt lat="48.77516" lon="7.36192">
        <ele>374.3</ele>
        <time>2020-05-10T12:45:56Z</time>
      </trkpt>
      <trkpt lat="48.77514" lon="7.3619">
        <ele>375.2</ele>
        <time>2020-05-10T12:45:57Z</time>
      </trkpt>
      <trkpt lat="48.77508" lon="7.36189">
        <ele>377.1</ele>
        <time>2020-05-10T12:45:59Z</time>
      </trkpt>
      <trkpt lat="48.77502" lon="7.36192">
        <ele>378.2</ele>
        <time>2020-05-10T12:46:01Z</time>
      </trkpt>
      <trkpt lat="48.77494" lon="7.36193">
        <ele>380.4</ele>
        <time>2020-05-10T12:46:03Z</time>
      </trkpt>
      <trkpt lat="48.77487" lon="7.3619">
        <ele>381.6</ele>
        <time>2020-05-10T12:46:05Z</time>
      </trkpt>
      <trkpt lat="48.77484" lon="7.36187">
        <ele>382.1</ele>
        <time>2020-05-10T12:46:06Z</time>
      </trkpt>
      <trkpt lat="48.77479" lon="7.36182">
        <ele>383.2</ele>
        <time>2020-05-10T12:46:08Z</time>
      </trkpt>
      <trkpt lat="48.77474" lon="7.36179">
        <ele>383.5</ele>
        <time>2020-05-10T12:46:10Z</time>
      </trkpt>
      <trkpt lat="48.77471" lon="7.36176">
        <ele>383.7</ele>
        <time>2020-05-10T12:46:11Z</time>
      </trkpt>
      <trkpt lat="48.77465" lon="7.36168">
        <ele>384.2</ele>
        <time>2020-05-10T12:46:13Z</time>
      </trkpt>
      <trkpt lat="48.7746" lon="7.36161">
        <ele>384.5</ele>
        <time>2020-05-10T12:46:15Z</time>
      </trkpt>
      <trkpt lat="48.77457" lon="7.36153">
        <ele>384.9</ele>
        <time>2020-05-10T12:46:17Z</time>
      </trkpt>
      <trkpt lat="48.77454" lon="7.36147">
        <ele>385.1</ele>
        <time>2020-05-10T12:46:18Z</time>
      </trkpt>
      <trkpt lat="48.77449" lon="7.36136">
        <ele>385.5</ele>
        <time>2020-05-10T12:46:20Z</time>
      </trkpt>
      <trkpt lat="48.77444" lon="7.36126">
        <ele>385.8</ele>
        <time>2020-05-10T12:46:22Z</time>
      </trkpt>
      <trkpt lat="48.77437" lon="7.36117">
        <ele>386.1</ele>
        <time>2020-05-10T12:46:24Z</time>
      </trkpt>
      <trkpt lat="48.77429" lon="7.36106">
        <ele>386.5</ele>
        <time>2020-05-10T12:46:26Z</time>
      </trkpt>
      <trkpt lat="48.77426" lon="7.361">
        <ele>386.7</ele>
        <time>2020-05-10T12:46:27Z</time>
      </trkpt>
      <trkpt lat="48.7742" lon="7.36087">
        <ele>387.1</ele>
        <time>2020-05-10T12:46:29Z</time>
      </trkpt>
      <trkpt lat="48.77417" lon="7.36082">
        <ele>387.2</ele>
        <time>2020-05-10T12:46:30Z</time>
      </trkpt>
      <trkpt lat="48.77414" lon="7.36074">
        <ele>387.4</ele>
        <time>2020-05-10T12:46:32Z</time>
      </trkpt>
      <trkpt lat="48.7741" lon="7.36062">
        <ele>387.8</ele>
        <time>2020-05-10T12:46:34Z</time>
      </trkpt>
      <trkpt lat="48.77403" lon="7.36049">
        <ele>388.1</ele>
        <time>2020-05-10T12:46:36Z</time>
      </trkpt>
      <trkpt lat="48.77394" lon="7.36039">
        <ele>388.5</ele>
        <time>2020-05-10T12:46:38Z</time>
      </trkpt>
      <trkpt lat="48.7739" lon="7.36031">
        <ele>388.7</ele>
        <time>2020-05-10T12:46:39Z</time>
      </trkpt>
      <trkpt lat="48.77385" lon="7.3602">
        <ele>388.9</ele>
        <time>2020-05-10T12:46:41Z</time>
      </trkpt>
      <trkpt lat="48.77382" lon="7.36017">
        <ele>388.9</ele>
        <time>2020-05-10T12:46:42Z</time>
      </trkpt>
      <trkpt lat="48.77381" lon="7.36017">
        <ele>388.9</ele>
        <time>2020-05-10T12:46:43Z</time>
      </trkpt>
      <trkpt lat="48.7738" lon="7.36016">
        <ele>388.9</ele>
        <time>2020-05-10T12:46:45Z</time>
      </trkpt>
      <trkpt lat="48.77381" lon="7.36014">
        <ele>388.9</ele>
        <time>2020-05-10T12:46:47Z</time>
      </trkpt>
      <trkpt lat="48.77382" lon="7.36012">
        <ele>388.9</ele>
        <time>2020-05-10T12:46:49Z</time>
      </trkpt>
      <trkpt lat="48.77382" lon="7.36012">
        <ele>388.9</ele>
        <time>2020-05-10T12:46:50Z</time>
      </trkpt>
      <trkpt lat="48.77382" lon="7.36013">
        <ele>388.9</ele>
        <time>2020-05-10T12:46:52Z</time>
      </trkpt>
      <trkpt lat="48.77382" lon="7.36013">
        <ele>388.9</ele>
        <time>2020-05-10T12:46:54Z</time>
      </trkpt>
      <trkpt lat="48.77382" lon="7.36013">
        <ele>388.9</ele>
        <time>2020-05-10T12:46:56Z</time>
      </trkpt>
      <trkpt lat="48.77382" lon="7.36013">
        <ele>388.9</ele>
        <time>2020-05-10T12:46:57Z</time>
      </trkpt>
      <trkpt lat="48.77382" lon="7.36011">
        <ele>388.9</ele>
        <time>2020-05-10T12:46:58Z</time>
      </trkpt>
      <trkpt lat="48.77379" lon="7.36007">
        <ele>388.9</ele>
        <time>2020-05-10T12:47:00Z</time>
      </trkpt>
      <trkpt lat="48.77376" lon="7.36003">
        <ele>389</ele>
        <time>2020-05-10T12:47:01Z</time>
      </trkpt>
      <trkpt lat="48.77371" lon="7.35994">
        <ele>389</ele>
        <time>2020-05-10T12:47:03Z</time>
      </trkpt>
      <trkpt lat="48.77367" lon="7.35991">
        <ele>389</ele>
        <time>2020-05-10T12:47:04Z</time>
      </trkpt>
      <trkpt lat="48.77359" lon="7.35981">
        <ele>389</ele>
        <time>2020-05-10T12:47:06Z</time>
      </trkpt>
      <trkpt lat="48.77355" lon="7.35975">
        <ele>389</ele>
        <time>2020-05-10T12:47:07Z</time>
      </trkpt>
      <trkpt lat="48.77345" lon="7.35964">
        <ele>389.1</ele>
        <time>2020-05-10T12:47:09Z</time>
      </trkpt>
      <trkpt lat="48.77334" lon="7.35948">
        <ele>388.9</ele>
        <time>2020-05-10T12:47:11Z</time>
      </trkpt>
      <trkpt lat="48.7733" lon="7.35941">
        <ele>388.1</ele>
        <time>2020-05-10T12:47:12Z</time>
      </trkpt>
      <trkpt lat="48.77328" lon="7.35935">
        <ele>387.5</ele>
        <time>2020-05-10T12:47:13Z</time>
      </trkpt>
      <trkpt lat="48.77322" lon="7.35919">
        <ele>385.7</ele>
        <time>2020-05-10T12:47:15Z</time>
      </trkpt>
      <trkpt lat="48.77314" lon="7.35904">
        <ele>383.9</ele>
        <time>2020-05-10T12:47:17Z</time>
      </trkpt>
      <trkpt lat="48.7731" lon="7.35899">
        <ele>383.1</ele>
        <time>2020-05-10T12:47:18Z</time>
      </trkpt>
      <trkpt lat="48.773" lon="7.35886">
        <ele>381.2</ele>
        <time>2020-05-10T12:47:20Z</time>
      </trkpt>
      <trkpt lat="48.77292" lon="7.35877">
        <ele>378.1</ele>
        <time>2020-05-10T12:47:22Z</time>
      </trkpt>
      <trkpt lat="48.77287" lon="7.35865">
        <ele>377.4</ele>
        <time>2020-05-10T12:47:24Z</time>
      </trkpt>
      <trkpt lat="48.77284" lon="7.35855">
        <ele>376.9</ele>
        <time>2020-05-10T12:47:26Z</time>
      </trkpt>
      <trkpt lat="48.77281" lon="7.35848">
        <ele>376.4</ele>
        <time>2020-05-10T12:47:27Z</time>
      </trkpt>
      <trkpt lat="48.77276" lon="7.35834">
        <ele>375.6</ele>
        <time>2020-05-10T12:47:29Z</time>
      </trkpt>
      <trkpt lat="48.77273" lon="7.3583">
        <ele>375.2</ele>
        <time>2020-05-10T12:47:30Z</time>
      </trkpt>
      <trkpt lat="48.77268" lon="7.35818">
        <ele>374.4</ele>
        <time>2020-05-10T12:47:32Z</time>
      </trkpt>
      <trkpt lat="48.7726" lon="7.35803">
        <ele>373.3</ele>
        <time>2020-05-10T12:47:34Z</time>
      </trkpt>
      <trkpt lat="48.77256" lon="7.35798">
        <ele>372.9</ele>
        <time>2020-05-10T12:47:35Z</time>
      </trkpt>
      <trkpt lat="48.77249" lon="7.35788">
        <ele>372</ele>
        <time>2020-05-10T12:47:37Z</time>
      </trkpt>
      <trkpt lat="48.7724" lon="7.35774">
        <ele>370.9</ele>
        <time>2020-05-10T12:47:39Z</time>
      </trkpt>
      <trkpt lat="48.77238" lon="7.35768">
        <ele>370.5</ele>
        <time>2020-05-10T12:47:41Z</time>
      </trkpt>
      <trkpt lat="48.77237" lon="7.35766">
        <ele>370.4</ele>
        <time>2020-05-10T12:47:42Z</time>
      </trkpt>
      <trkpt lat="48.77232" lon="7.3576">
        <ele>369.8</ele>
        <time>2020-05-10T12:47:44Z</time>
      </trkpt>
      <trkpt lat="48.7723" lon="7.35755">
        <ele>369.4</ele>
        <time>2020-05-10T12:47:45Z</time>
      </trkpt>
      <trkpt lat="48.77229" lon="7.35748">
        <ele>369</ele>
        <time>2020-05-10T12:47:46Z</time>
      </trkpt>
      <trkpt lat="48.77226" lon="7.35743">
        <ele>368.6</ele>
        <time>2020-05-10T12:47:48Z</time>
      </trkpt>
      <trkpt lat="48.77221" lon="7.35738">
        <ele>368.1</ele>
        <time>2020-05-10T12:47:50Z</time>
      </trkpt>
      <trkpt lat="48.77215" lon="7.35731">
        <ele>367.4</ele>
        <time>2020-05-10T12:47:52Z</time>
      </trkpt>
      <trkpt lat="48.77212" lon="7.35729">
        <ele>367.1</ele>
        <time>2020-05-10T12:47:53Z</time>
      </trkpt>
      <trkpt lat="48.77204" lon="7.35724">
        <ele>366.2</ele>
        <time>2020-05-10T12:47:55Z</time>
      </trkpt>
      <trkpt lat="48.77193" lon="7.35716">
        <ele>365</ele>
        <time>2020-05-10T12:47:57Z</time>
      </trkpt>
      <trkpt lat="48.77185" lon="7.35707">
        <ele>364</ele>
        <time>2020-05-10T12:47:59Z</time>
      </trkpt>
      <trkpt lat="48.77181" lon="7.357">
        <ele>363.5</ele>
        <time>2020-05-10T12:48:00Z</time>
      </trkpt>
      <trkpt lat="48.77173" lon="7.35688">
        <ele>362.6</ele>
        <time>2020-05-10T12:48:02Z</time>
      </trkpt>
      <trkpt lat="48.77166" lon="7.35678">
        <ele>361.9</ele>
        <time>2020-05-10T12:48:04Z</time>
      </trkpt>
      <trkpt lat="48.77161" lon="7.35669">
        <ele>361.3</ele>
        <time>2020-05-10T12:48:05Z</time>
      </trkpt>
      <trkpt lat="48.77159" lon="7.35665">
        <ele>361</ele>
        <time>2020-05-10T12:48:06Z</time>
      </trkpt>
      <trkpt lat="48.77152" lon="7.35656">
        <ele>360.3</ele>
        <time>2020-05-10T12:48:08Z</time>
      </trkpt>
      <trkpt lat="48.7715" lon="7.3565">
        <ele>359.8</ele>
        <time>2020-05-10T12:48:09Z</time>
      </trkpt>
      <trkpt lat="48.77145" lon="7.35642">
        <ele>359.2</ele>
        <time>2020-05-10T12:48:11Z</time>
      </trkpt>
      <trkpt lat="48.77141" lon="7.35635">
        <ele>358.6</ele>
        <time>2020-05-10T12:48:13Z</time>
      </trkpt>
      <trkpt lat="48.77139" lon="7.35624">
        <ele>358</ele>
        <time>2020-05-10T12:48:15Z</time>
      </trkpt>
      <trkpt lat="48.77138" lon="7.3562">
        <ele>357.7</ele>
        <time>2020-05-10T12:48:16Z</time>
      </trkpt>
      <trkpt lat="48.77138" lon="7.35615">
        <ele>357.5</ele>
        <time>2020-05-10T12:48:17Z</time>
      </trkpt>
      <trkpt lat="48.77136" lon="7.35609">
        <ele>357.1</ele>
        <time>2020-05-10T12:48:18Z</time>
      </trkpt>
      <trkpt lat="48.77133" lon="7.35602">
        <ele>356.7</ele>
        <time>2020-05-10T12:48:19Z</time>
      </trkpt>
      <trkpt lat="48.77129" lon="7.35589">
        <ele>356</ele>
        <time>2020-05-10T12:48:21Z</time>
      </trkpt>
      <trkpt lat="48.77129" lon="7.35584">
        <ele>355.8</ele>
        <time>2020-05-10T12:48:22Z</time>
      </trkpt>
      <trkpt lat="48.77131" lon="7.35578">
        <ele>355.5</ele>
        <time>2020-05-10T12:48:23Z</time>
      </trkpt>
      <trkpt lat="48.7713" lon="7.35572">
        <ele>355.3</ele>
        <time>2020-05-10T12:48:24Z</time>
      </trkpt>
      <trkpt lat="48.77131" lon="7.3556">
        <ele>354.9</ele>
        <time>2020-05-10T12:48:26Z</time>
      </trkpt>
      <trkpt lat="48.7713" lon="7.35543">
        <ele>354.4</ele>
        <time>2020-05-10T12:48:28Z</time>
      </trkpt>
      <trkpt lat="48.77129" lon="7.35529">
        <ele>354.1</ele>
        <time>2020-05-10T12:48:30Z</time>
      </trkpt>
      <trkpt lat="48.7713" lon="7.35517">
        <ele>353.8</ele>
        <time>2020-05-10T12:48:32Z</time>
      </trkpt>
      <trkpt lat="48.77132" lon="7.355">
        <ele>353.3</ele>
        <time>2020-05-10T12:48:34Z</time>
      </trkpt>
      <trkpt lat="48.77133" lon="7.35491">
        <ele>353.2</ele>
        <time>2020-05-10T12:48:35Z</time>
      </trkpt>
      <trkpt lat="48.77133" lon="7.35473">
        <ele>352.9</ele>
        <time>2020-05-10T12:48:37Z</time>
      </trkpt>
      <trkpt lat="48.77133" lon="7.35459">
        <ele>352.7</ele>
        <time>2020-05-10T12:48:39Z</time>
      </trkpt>
      <trkpt lat="48.77133" lon="7.35454">
        <ele>352.6</ele>
        <time>2020-05-10T12:48:40Z</time>
      </trkpt>
      <trkpt lat="48.77132" lon="7.35445">
        <ele>352.4</ele>
        <time>2020-05-10T12:48:42Z</time>
      </trkpt>
      <trkpt lat="48.77132" lon="7.35443">
        <ele>352.4</ele>
        <time>2020-05-10T12:48:43Z</time>
      </trkpt>
      <trkpt lat="48.77132" lon="7.35442">
        <ele>352.4</ele>
        <time>2020-05-10T12:48:44Z</time>
      </trkpt>
      <trkpt lat="48.77131" lon="7.35439">
        <ele>352.3</ele>
        <time>2020-05-10T12:48:46Z</time>
      </trkpt>
      <trkpt lat="48.77131" lon="7.35437">
        <ele>352.3</ele>
        <time>2020-05-10T12:48:47Z</time>
      </trkpt>
      <trkpt lat="48.77132" lon="7.35434">
        <ele>352.2</ele>
        <time>2020-05-10T12:48:49Z</time>
      </trkpt>
      <trkpt lat="48.77132" lon="7.35433">
        <ele>352.2</ele>
        <time>2020-05-10T12:48:50Z</time>
      </trkpt>
      <trkpt lat="48.77133" lon="7.35431">
        <ele>352.1</ele>
        <time>2020-05-10T12:48:52Z</time>
      </trkpt>
      <trkpt lat="48.77135" lon="7.35426">
        <ele>352</ele>
        <time>2020-05-10T12:48:54Z</time>
      </trkpt>
      <trkpt lat="48.77134" lon="7.35411">
        <ele>351.7</ele>
        <time>2020-05-10T12:48:56Z</time>
      </trkpt>
      <trkpt lat="48.77135" lon="7.35407">
        <ele>351.5</ele>
        <time>2020-05-10T12:48:57Z</time>
      </trkpt>
      <trkpt lat="48.77137" lon="7.35403">
        <ele>351.4</ele>
        <time>2020-05-10T12:48:58Z</time>
      </trkpt>
      <trkpt lat="48.77137" lon="7.35401">
        <ele>351.3</ele>
        <time>2020-05-10T12:48:59Z</time>
      </trkpt>
      <trkpt lat="48.77139" lon="7.35397">
        <ele>351.2</ele>
        <time>2020-05-10T12:49:00Z</time>
      </trkpt>
      <trkpt lat="48.7714" lon="7.35386">
        <ele>350.9</ele>
        <time>2020-05-10T12:49:02Z</time>
      </trkpt>
      <trkpt lat="48.7714" lon="7.3538">
        <ele>350.7</ele>
        <time>2020-05-10T12:49:03Z</time>
      </trkpt>
      <trkpt lat="48.7714" lon="7.35372">
        <ele>350.6</ele>
        <time>2020-05-10T12:49:04Z</time>
      </trkpt>
      <trkpt lat="48.77143" lon="7.35357">
        <ele>350.1</ele>
        <time>2020-05-10T12:49:06Z</time>
      </trkpt>
      <trkpt lat="48.77144" lon="7.35352">
        <ele>350.3</ele>
        <time>2020-05-10T12:49:07Z</time>
      </trkpt>
      <trkpt lat="48.77146" lon="7.35349">
        <ele>350.4</ele>
        <time>2020-05-10T12:49:08Z</time>
      </trkpt>
      <trkpt lat="48.77146" lon="7.35341">
        <ele>350.7</ele>
        <time>2020-05-10T12:49:10Z</time>
      </trkpt>
      <trkpt lat="48.77144" lon="7.35337">
        <ele>350.9</ele>
        <time>2020-05-10T12:49:11Z</time>
      </trkpt>
      <trkpt lat="48.77143" lon="7.35324">
        <ele>351.3</ele>
        <time>2020-05-10T12:49:13Z</time>
      </trkpt>
      <trkpt lat="48.77143" lon="7.35323">
        <ele>351.4</ele>
        <time>2020-05-10T12:49:14Z</time>
      </trkpt>
      <trkpt lat="48.77142" lon="7.35325">
        <ele>351.5</ele>
        <time>2020-05-10T12:49:16Z</time>
      </trkpt>
      <trkpt lat="48.77142" lon="7.35324">
        <ele>351.5</ele>
        <time>2020-05-10T12:49:18Z</time>
      </trkpt>
      <trkpt lat="48.77141" lon="7.35323">
        <ele>351.5</ele>
        <time>2020-05-10T12:49:21Z</time>
      </trkpt>
      <trkpt lat="48.77141" lon="7.35323">
        <ele>351.6</ele>
        <time>2020-05-10T12:49:22Z</time>
      </trkpt>
      <trkpt lat="48.77141" lon="7.35322">
        <ele>351.6</ele>
        <time>2020-05-10T12:49:24Z</time>
      </trkpt>
      <trkpt lat="48.77141" lon="7.35321">
        <ele>351.6</ele>
        <time>2020-05-10T12:49:25Z</time>
      </trkpt>
      <trkpt lat="48.77142" lon="7.3532">
        <ele>351.7</ele>
        <time>2020-05-10T12:49:26Z</time>
      </trkpt>
      <trkpt lat="48.77142" lon="7.35319">
        <ele>351.7</ele>
        <time>2020-05-10T12:49:27Z</time>
      </trkpt>
      <trkpt lat="48.77144" lon="7.35316">
        <ele>352.8</ele>
        <time>2020-05-10T12:49:29Z</time>
      </trkpt>
      <trkpt lat="48.77145" lon="7.35315">
        <ele>353.2</ele>
        <time>2020-05-10T12:49:30Z</time>
      </trkpt>
      <trkpt lat="48.77147" lon="7.35312">
        <ele>354.2</ele>
        <time>2020-05-10T12:49:32Z</time>
      </trkpt>
      <trkpt lat="48.77149" lon="7.35309">
        <ele>354.7</ele>
        <time>2020-05-10T12:49:34Z</time>
      </trkpt>
      <trkpt lat="48.7715" lon="7.35306">
        <ele>356</ele>
        <time>2020-05-10T12:49:36Z</time>
      </trkpt>
      <trkpt lat="48.7715" lon="7.35306">
        <ele>356.1</ele>
        <time>2020-05-10T12:49:37Z</time>
      </trkpt>
      <trkpt lat="48.77151" lon="7.35304">
        <ele>356.2</ele>
        <time>2020-05-10T12:49:39Z</time>
      </trkpt>
      <trkpt lat="48.77152" lon="7.35303">
        <ele>356.3</ele>
        <time>2020-05-10T12:49:40Z</time>
      </trkpt>
      <trkpt lat="48.77153" lon="7.35301">
        <ele>357.6</ele>
        <time>2020-05-10T12:49:42Z</time>
      </trkpt>
      <trkpt lat="48.77154" lon="7.35299">
        <ele>357.7</ele>
        <time>2020-05-10T12:49:44Z</time>
      </trkpt>
      <trkpt lat="48.77155" lon="7.35297">
        <ele>358.2</ele>
        <time>2020-05-10T12:49:46Z</time>
      </trkpt>
      <trkpt lat="48.77155" lon="7.35297">
        <ele>359</ele>
        <time>2020-05-10T12:49:48Z</time>
      </trkpt>
      <trkpt lat="48.77155" lon="7.35296">
        <ele>359.1</ele>
        <time>2020-05-10T12:49:50Z</time>
      </trkpt>
      <trkpt lat="48.77155" lon="7.35293">
        <ele>359.6</ele>
        <time>2020-05-10T12:49:52Z</time>
      </trkpt>
      <trkpt lat="48.77155" lon="7.35291">
        <ele>359.7</ele>
        <time>2020-05-10T12:49:53Z</time>
      </trkpt>
      <trkpt lat="48.77155" lon="7.35285">
        <ele>360.7</ele>
        <time>2020-05-10T12:49:55Z</time>
      </trkpt>
      <trkpt lat="48.77155" lon="7.35283">
        <ele>360.8</ele>
        <time>2020-05-10T12:49:56Z</time>
      </trkpt>
      <trkpt lat="48.77155" lon="7.3528">
        <ele>360.7</ele>
        <time>2020-05-10T12:49:57Z</time>
      </trkpt>
      <trkpt lat="48.77155" lon="7.35277">
        <ele>360.8</ele>
        <time>2020-05-10T12:49:59Z</time>
      </trkpt>
      <trkpt lat="48.77154" lon="7.35276">
        <ele>361.5</ele>
        <time>2020-05-10T12:50:01Z</time>
      </trkpt>
      <trkpt lat="48.77154" lon="7.35275">
        <ele>361.6</ele>
        <time>2020-05-10T12:50:02Z</time>
      </trkpt>
      <trkpt lat="48.77154" lon="7.35274">
        <ele>361.6</ele>
        <time>2020-05-10T12:50:04Z</time>
      </trkpt>
      <trkpt lat="48.77155" lon="7.35271">
        <ele>362.3</ele>
        <time>2020-05-10T12:50:06Z</time>
      </trkpt>
      <trkpt lat="48.77155" lon="7.35269">
        <ele>362.4</ele>
        <time>2020-05-10T12:50:07Z</time>
      </trkpt>
      <trkpt lat="48.77155" lon="7.35267">
        <ele>363.1</ele>
        <time>2020-05-10T12:50:08Z</time>
      </trkpt>
      <trkpt lat="48.77154" lon="7.35264">
        <ele>363.8</ele>
        <time>2020-05-10T12:50:10Z</time>
      </trkpt>
      <trkpt lat="48.77154" lon="7.35263">
        <ele>363.9</ele>
        <time>2020-05-10T12:50:11Z</time>
      </trkpt>
      <trkpt lat="48.77153" lon="7.3526">
        <ele>364</ele>
        <time>2020-05-10T12:50:13Z</time>
      </trkpt>
      <trkpt lat="48.77153" lon="7.35258">
        <ele>364.7</ele>
        <time>2020-05-10T12:50:15Z</time>
      </trkpt>
      <trkpt lat="48.77153" lon="7.35257">
        <ele>364.8</ele>
        <time>2020-05-10T12:50:16Z</time>
      </trkpt>
      <trkpt lat="48.77153" lon="7.35255">
        <ele>365.5</ele>
        <time>2020-05-10T12:50:18Z</time>
      </trkpt>
      <trkpt lat="48.77153" lon="7.35254">
        <ele>365.6</ele>
        <time>2020-05-10T12:50:19Z</time>
      </trkpt>
      <trkpt lat="48.77154" lon="7.35253">
        <ele>365.7</ele>
        <time>2020-05-10T12:50:20Z</time>
      </trkpt>
      <trkpt lat="48.77154" lon="7.3525">
        <ele>366.4</ele>
        <time>2020-05-10T12:50:22Z</time>
      </trkpt>
      <trkpt lat="48.77154" lon="7.35248">
        <ele>366.5</ele>
        <time>2020-05-10T12:50:23Z</time>
      </trkpt>
      <trkpt lat="48.77153" lon="7.35246">
        <ele>367.2</ele>
        <time>2020-05-10T12:50:25Z</time>
      </trkpt>
      <trkpt lat="48.77153" lon="7.35243">
        <ele>367.3</ele>
        <time>2020-05-10T12:50:27Z</time>
      </trkpt>
      <trkpt lat="48.77152" lon="7.35242">
        <ele>367.5</ele>
        <time>2020-05-10T12:50:28Z</time>
      </trkpt>
      <trkpt lat="48.7715" lon="7.35238">
        <ele>368.2</ele>
        <time>2020-05-10T12:50:30Z</time>
      </trkpt>
      <trkpt lat="48.77149" lon="7.35237">
        <ele>368.3</ele>
        <time>2020-05-10T12:50:31Z</time>
      </trkpt>
      <trkpt lat="48.77148" lon="7.35236">
        <ele>367.8</ele>
        <time>2020-05-10T12:50:33Z</time>
      </trkpt>
      <trkpt lat="48.77147" lon="7.35235">
        <ele>367.9</ele>
        <time>2020-05-10T12:50:35Z</time>
      </trkpt>
      <trkpt lat="48.77146" lon="7.35234">
        <ele>368.1</ele>
        <time>2020-05-10T12:50:36Z</time>
      </trkpt>
      <trkpt lat="48.77146" lon="7.35232">
        <ele>368.2</ele>
        <time>2020-05-10T12:50:38Z</time>
      </trkpt>
      <trkpt lat="48.77145" lon="7.35231">
        <ele>368.3</ele>
        <time>2020-05-10T12:50:39Z</time>
      </trkpt>
      <trkpt lat="48.77146" lon="7.35229">
        <ele>369.2</ele>
        <time>2020-05-10T12:50:41Z</time>
      </trkpt>
      <trkpt lat="48.77146" lon="7.35228">
        <ele>369.2</ele>
        <time>2020-05-10T12:50:42Z</time>
      </trkpt>
      <trkpt lat="48.77146" lon="7.35227">
        <ele>369.3</ele>
        <time>2020-05-10T12:50:44Z</time>
      </trkpt>
      <trkpt lat="48.77146" lon="7.35227">
        <ele>369.4</ele>
        <time>2020-05-10T12:50:45Z</time>
      </trkpt>
      <trkpt lat="48.77145" lon="7.35227">
        <ele>369.5</ele>
        <time>2020-05-10T12:50:46Z</time>
      </trkpt>
      <trkpt lat="48.77145" lon="7.35225">
        <ele>370.4</ele>
        <time>2020-05-10T12:50:48Z</time>
      </trkpt>
      <trkpt lat="48.77146" lon="7.35223">
        <ele>370.4</ele>
        <time>2020-05-10T12:50:50Z</time>
      </trkpt>
      <trkpt lat="48.77147" lon="7.35221">
        <ele>371.8</ele>
        <time>2020-05-10T12:50:52Z</time>
      </trkpt>
      <trkpt lat="48.77147" lon="7.35219">
        <ele>371.9</ele>
        <time>2020-05-10T12:50:54Z</time>
      </trkpt>
      <trkpt lat="48.77148" lon="7.35217">
        <ele>372</ele>
        <time>2020-05-10T12:50:56Z</time>
      </trkpt>
      <trkpt lat="48.77149" lon="7.35217">
        <ele>372.8</ele>
        <time>2020-05-10T12:50:57Z</time>
      </trkpt>
      <trkpt lat="48.77149" lon="7.35216">
        <ele>372.9</ele>
        <time>2020-05-10T12:50:58Z</time>
      </trkpt>
      <trkpt lat="48.7715" lon="7.35216">
        <ele>373.5</ele>
        <time>2020-05-10T12:50:59Z</time>
      </trkpt>
      <trkpt lat="48.77151" lon="7.35216">
        <ele>373.6</ele>
        <time>2020-05-10T12:51:01Z</time>
      </trkpt>
      <trkpt lat="48.77152" lon="7.35216">
        <ele>373.7</ele>
        <time>2020-05-10T12:51:03Z</time>
      </trkpt>
      <trkpt lat="48.77152" lon="7.35216">
        <ele>374.2</ele>
        <time>2020-05-10T12:51:04Z</time>
      </trkpt>
      <trkpt lat="48.77153" lon="7.35216">
        <ele>374.3</ele>
        <time>2020-05-10T12:51:06Z</time>
      </trkpt>
      <trkpt lat="48.77154" lon="7.35215">
        <ele>374.4</ele>
        <time>2020-05-10T12:51:08Z</time>
      </trkpt>
      <trkpt lat="48.77155" lon="7.35213">
        <ele>374.5</ele>
        <time>2020-05-10T12:51:10Z</time>
      </trkpt>
      <trkpt lat="48.77155" lon="7.35213">
        <ele>374.6</ele>
        <time>2020-05-10T12:51:11Z</time>
      </trkpt>
      <trkpt lat="48.77155" lon="7.35213">
        <ele>375.9</ele>
        <time>2020-05-10T12:51:13Z</time>
      </trkpt>
      <trkpt lat="48.77156" lon="7.35213">
        <ele>376</ele>
        <time>2020-05-10T12:51:14Z</time>
      </trkpt>
      <trkpt lat="48.77156" lon="7.35212">
        <ele>376.1</ele>
        <time>2020-05-10T12:51:15Z</time>
      </trkpt>
      <trkpt lat="48.77158" lon="7.35212">
        <ele>376.2</ele>
        <time>2020-05-10T12:51:16Z</time>
      </trkpt>
      <trkpt lat="48.77159" lon="7.35211">
        <ele>376.8</ele>
        <time>2020-05-10T12:51:18Z</time>
      </trkpt>
      <trkpt lat="48.77159" lon="7.35211">
        <ele>376.8</ele>
        <time>2020-05-10T12:51:19Z</time>
      </trkpt>
      <trkpt lat="48.7716" lon="7.35209">
        <ele>376.9</ele>
        <time>2020-05-10T12:51:21Z</time>
      </trkpt>
      <trkpt lat="48.77162" lon="7.35207">
        <ele>378.3</ele>
        <time>2020-05-10T12:51:23Z</time>
      </trkpt>
      <trkpt lat="48.77163" lon="7.35206">
        <ele>378.4</ele>
        <time>2020-05-10T12:51:24Z</time>
      </trkpt>
      <trkpt lat="48.77165" lon="7.35204">
        <ele>379.1</ele>
        <time>2020-05-10T12:51:26Z</time>
      </trkpt>
      <trkpt lat="48.77166" lon="7.35203">
        <ele>380</ele>
        <time>2020-05-10T12:51:28Z</time>
      </trkpt>
      <trkpt lat="48.77166" lon="7.35203">
        <ele>380.1</ele>
        <time>2020-05-10T12:51:29Z</time>
      </trkpt>
      <trkpt lat="48.77166" lon="7.35201">
        <ele>380.2</ele>
        <time>2020-05-10T12:51:31Z</time>
      </trkpt>
      <trkpt lat="48.77166" lon="7.35202">
        <ele>380.9</ele>
        <time>2020-05-10T12:51:33Z</time>
      </trkpt>
      <trkpt lat="48.77166" lon="7.35204">
        <ele>380.4</ele>
        <time>2020-05-10T12:51:34Z</time>
      </trkpt>
      <trkpt lat="48.77166" lon="7.35202">
        <ele>380.4</ele>
        <time>2020-05-10T12:51:36Z</time>
      </trkpt>
      <trkpt lat="48.77165" lon="7.35197">
        <ele>381.4</ele>
        <time>2020-05-10T12:51:38Z</time>
      </trkpt>
      <trkpt lat="48.77166" lon="7.35194">
        <ele>382.4</ele>
        <time>2020-05-10T12:51:40Z</time>
      </trkpt>
      <trkpt lat="48.77166" lon="7.35193">
        <ele>382.5</ele>
        <time>2020-05-10T12:51:41Z</time>
      </trkpt>
      <trkpt lat="48.77167" lon="7.3519">
        <ele>384.1</ele>
        <time>2020-05-10T12:51:43Z</time>
      </trkpt>
      <trkpt lat="48.77167" lon="7.35186">
        <ele>385.1</ele>
        <time>2020-05-10T12:51:45Z</time>
      </trkpt>
      <trkpt lat="48.77167" lon="7.35185">
        <ele>385.2</ele>
        <time>2020-05-10T12:51:46Z</time>
      </trkpt>
      <trkpt lat="48.77167" lon="7.35183">
        <ele>385.3</ele>
        <time>2020-05-10T12:51:47Z</time>
      </trkpt>
      <trkpt lat="48.77167" lon="7.35181">
        <ele>386.3</ele>
        <time>2020-05-10T12:51:49Z</time>
      </trkpt>
      <trkpt lat="48.77167" lon="7.35178">
        <ele>387.2</ele>
        <time>2020-05-10T12:51:50Z</time>
      </trkpt>
      <trkpt lat="48.77166" lon="7.35178">
        <ele>386.7</ele>
        <time>2020-05-10T12:51:52Z</time>
      </trkpt>
      <trkpt lat="48.77165" lon="7.35177">
        <ele>386.8</ele>
        <time>2020-05-10T12:51:53Z</time>
      </trkpt>
      <trkpt lat="48.77165" lon="7.35177">
        <ele>386.9</ele>
        <time>2020-05-10T12:51:54Z</time>
      </trkpt>
      <trkpt lat="48.77164" lon="7.35175">
        <ele>387</ele>
        <time>2020-05-10T12:51:56Z</time>
      </trkpt>
      <trkpt lat="48.77164" lon="7.35174">
        <ele>387.9</ele>
        <time>2020-05-10T12:51:57Z</time>
      </trkpt>
      <trkpt lat="48.77163" lon="7.35173">
        <ele>387.5</ele>
        <time>2020-05-10T12:51:58Z</time>
      </trkpt>
      <trkpt lat="48.77163" lon="7.35173">
        <ele>387.6</ele>
        <time>2020-05-10T12:51:59Z</time>
      </trkpt>
      <trkpt lat="48.77162" lon="7.35171">
        <ele>387.6</ele>
        <time>2020-05-10T12:52:01Z</time>
      </trkpt>
      <trkpt lat="48.77161" lon="7.35171">
        <ele>387.7</ele>
        <time>2020-05-10T12:52:03Z</time>
      </trkpt>
      <trkpt lat="48.7716" lon="7.35172">
        <ele>387.4</ele>
        <time>2020-05-10T12:52:05Z</time>
      </trkpt>
      <trkpt lat="48.7716" lon="7.35172">
        <ele>387.5</ele>
        <time>2020-05-10T12:52:06Z</time>
      </trkpt>
      <trkpt lat="48.7716" lon="7.35172">
        <ele>387.5</ele>
        <time>2020-05-10T12:52:07Z</time>
      </trkpt>
      <trkpt lat="48.7716" lon="7.35172">
        <ele>387.6</ele>
        <time>2020-05-10T12:52:08Z</time>
      </trkpt>
      <trkpt lat="48.77159" lon="7.35169">
        <ele>388.5</ele>
        <time>2020-05-10T12:52:10Z</time>
      </trkpt>
      <trkpt lat="48.77158" lon="7.35168">
        <ele>388.6</ele>
        <time>2020-05-10T12:52:11Z</time>
      </trkpt>
      <trkpt lat="48.77157" lon="7.35166">
        <ele>388.2</ele>
        <time>2020-05-10T12:52:13Z</time>
      </trkpt>
      <trkpt lat="48.77157" lon="7.35165">
        <ele>389</ele>
        <time>2020-05-10T12:52:14Z</time>
      </trkpt>
      <trkpt lat="48.77156" lon="7.35165">
        <ele>389.1</ele>
        <time>2020-05-10T12:52:16Z</time>
      </trkpt>
      <trkpt lat="48.77154" lon="7.35164">
        <ele>388.8</ele>
        <time>2020-05-10T12:52:18Z</time>
      </trkpt>
      <trkpt lat="48.77153" lon="7.35164">
        <ele>388.9</ele>
        <time>2020-05-10T12:52:20Z</time>
      </trkpt>
      <trkpt lat="48.77151" lon="7.35163">
        <ele>388.6</ele>
        <time>2020-05-10T12:52:22Z</time>
      </trkpt>
      <trkpt lat="48.7715" lon="7.35163">
        <ele>388.7</ele>
        <time>2020-05-10T12:52:23Z</time>
      </trkpt>
      <trkpt lat="48.77149" lon="7.35161">
        <ele>389.1</ele>
        <time>2020-05-10T12:52:25Z</time>
      </trkpt>
      <trkpt lat="48.77148" lon="7.35161">
        <ele>389.2</ele>
        <time>2020-05-10T12:52:27Z</time>
      </trkpt>
      <trkpt lat="48.77147" lon="7.35161">
        <ele>389.3</ele>
        <time>2020-05-10T12:52:28Z</time>
      </trkpt>
      <trkpt lat="48.77146" lon="7.35162">
        <ele>388.3</ele>
        <time>2020-05-10T12:52:29Z</time>
      </trkpt>
      <trkpt lat="48.77145" lon="7.35163">
        <ele>388.4</ele>
        <time>2020-05-10T12:52:31Z</time>
      </trkpt>
      <trkpt lat="48.77143" lon="7.35163">
        <ele>388.1</ele>
        <time>2020-05-10T12:52:33Z</time>
      </trkpt>
      <trkpt lat="48.77141" lon="7.35165">
        <ele>388.2</ele>
        <time>2020-05-10T12:52:35Z</time>
      </trkpt>
      <trkpt lat="48.7714" lon="7.35166">
        <ele>387.2</ele>
        <time>2020-05-10T12:52:36Z</time>
      </trkpt>
      <trkpt lat="48.77138" lon="7.35166">
        <ele>387.3</ele>
        <time>2020-05-10T12:52:38Z</time>
      </trkpt>
      <trkpt lat="48.77137" lon="7.35167">
        <ele>387.1</ele>
        <time>2020-05-10T12:52:39Z</time>
      </trkpt>
      <trkpt lat="48.77136" lon="7.35166">
        <ele>387.2</ele>
        <time>2020-05-10T12:52:40Z</time>
      </trkpt>
      <trkpt lat="48.77135" lon="7.35166">
        <ele>386.9</ele>
        <time>2020-05-10T12:52:42Z</time>
      </trkpt>
      <trkpt lat="48.77134" lon="7.35166">
        <ele>387</ele>
        <time>2020-05-10T12:52:43Z</time>
      </trkpt>
      <trkpt lat="48.77133" lon="7.35165">
        <ele>387.8</ele>
        <time>2020-05-10T12:52:45Z</time>
      </trkpt>
      <trkpt lat="48.77132" lon="7.35165">
        <ele>387.7</ele>
        <time>2020-05-10T12:52:47Z</time>
      </trkpt>
      <trkpt lat="48.77131" lon="7.35167">
        <ele>387</ele>
        <time>2020-05-10T12:52:49Z</time>
      </trkpt>
      <trkpt lat="48.7713" lon="7.35167">
        <ele>387.1</ele>
        <time>2020-05-10T12:52:50Z</time>
      </trkpt>
      <trkpt lat="48.7713" lon="7.35168">
        <ele>387.2</ele>
        <time>2020-05-10T12:52:51Z</time>
      </trkpt>
      <trkpt lat="48.7713" lon="7.35168">
        <ele>387.3</ele>
        <time>2020-05-10T12:52:52Z</time>
      </trkpt>
      <trkpt lat="48.77128" lon="7.3517">
        <ele>387.2</ele>
        <time>2020-05-10T12:52:54Z</time>
      </trkpt>
      <trkpt lat="48.77127" lon="7.35169">
        <ele>387.3</ele>
        <time>2020-05-10T12:52:55Z</time>
      </trkpt>
      <trkpt lat="48.77125" lon="7.35169">
        <ele>387.2</ele>
        <time>2020-05-10T12:52:57Z</time>
      </trkpt>
      <trkpt lat="48.77123" lon="7.35168">
        <ele>387.2</ele>
        <time>2020-05-10T12:52:58Z</time>
      </trkpt>
      <trkpt lat="48.77121" lon="7.35167">
        <ele>387.3</ele>
        <time>2020-05-10T12:53:00Z</time>
      </trkpt>
      <trkpt lat="48.77119" lon="7.35167">
        <ele>387.3</ele>
        <time>2020-05-10T12:53:02Z</time>
      </trkpt>
      <trkpt lat="48.77118" lon="7.35166">
        <ele>387.3</ele>
        <time>2020-05-10T12:53:03Z</time>
      </trkpt>
      <trkpt lat="48.77116" lon="7.35166">
        <ele>387.4</ele>
        <time>2020-05-10T12:53:04Z</time>
      </trkpt>
      <trkpt lat="48.77115" lon="7.35166">
        <ele>388.2</ele>
        <time>2020-05-10T12:53:06Z</time>
      </trkpt>
      <trkpt lat="48.77114" lon="7.35165">
        <ele>388.3</ele>
        <time>2020-05-10T12:53:07Z</time>
      </trkpt>
      <trkpt lat="48.77112" lon="7.35164">
        <ele>388.3</ele>
        <time>2020-05-10T12:53:09Z</time>
      </trkpt>
      <trkpt lat="48.77111" lon="7.35163">
        <ele>388.4</ele>
        <time>2020-05-10T12:53:11Z</time>
      </trkpt>
      <trkpt lat="48.7711" lon="7.35162">
        <ele>388.5</ele>
        <time>2020-05-10T12:53:12Z</time>
      </trkpt>
      <trkpt lat="48.7711" lon="7.35161">
        <ele>389.3</ele>
        <time>2020-05-10T12:53:14Z</time>
      </trkpt>
      <trkpt lat="48.7711" lon="7.3516">
        <ele>389.4</ele>
        <time>2020-05-10T12:53:16Z</time>
      </trkpt>
      <trkpt lat="48.7711" lon="7.35159">
        <ele>389.5</ele>
        <time>2020-05-10T12:53:17Z</time>
      </trkpt>
      <trkpt lat="48.77109" lon="7.35157">
        <ele>389.6</ele>
        <time>2020-05-10T12:53:18Z</time>
      </trkpt>
      <trkpt lat="48.77108" lon="7.35156">
        <ele>390.4</ele>
        <time>2020-05-10T12:53:20Z</time>
      </trkpt>
      <trkpt lat="48.77108" lon="7.35153">
        <ele>390.5</ele>
        <time>2020-05-10T12:53:22Z</time>
      </trkpt>
      <trkpt lat="48.77107" lon="7.35152">
        <ele>391.4</ele>
        <time>2020-05-10T12:53:23Z</time>
      </trkpt>
      <trkpt lat="48.77107" lon="7.3515">
        <ele>391.4</ele>
        <time>2020-05-10T12:53:24Z</time>
      </trkpt>
      <trkpt lat="48.77107" lon="7.35148">
        <ele>392.5</ele>
        <time>2020-05-10T12:53:26Z</time>
      </trkpt>
      <trkpt lat="48.77107" lon="7.35147">
        <ele>392.6</ele>
        <time>2020-05-10T12:53:27Z</time>
      </trkpt>
      <trkpt lat="48.77106" lon="7.35144">
        <ele>393.6</ele>
        <time>2020-05-10T12:53:29Z</time>
      </trkpt>
      <trkpt lat="48.77105" lon="7.35142">
        <ele>393.6</ele>
        <time>2020-05-10T12:53:30Z</time>
      </trkpt>
      <trkpt lat="48.77104" lon="7.3514">
        <ele>393.7</ele>
        <time>2020-05-10T12:53:32Z</time>
      </trkpt>
      <trkpt lat="48.77103" lon="7.35137">
        <ele>394.9</ele>
        <time>2020-05-10T12:53:34Z</time>
      </trkpt>
      <trkpt lat="48.77103" lon="7.35135">
        <ele>395.9</ele>
        <time>2020-05-10T12:53:36Z</time>
      </trkpt>
      <trkpt lat="48.77102" lon="7.35134">
        <ele>396</ele>
        <time>2020-05-10T12:53:37Z</time>
      </trkpt>
      <trkpt lat="48.77101" lon="7.35132">
        <ele>396.3</ele>
        <time>2020-05-10T12:53:39Z</time>
      </trkpt>
      <trkpt lat="48.77097" lon="7.35131">
        <ele>397.5</ele>
        <time>2020-05-10T12:53:41Z</time>
      </trkpt>
      <trkpt lat="48.77096" lon="7.35131">
        <ele>397.4</ele>
        <time>2020-05-10T12:53:42Z</time>
      </trkpt>
      <trkpt lat="48.77094" lon="7.35131">
        <ele>397.4</ele>
        <time>2020-05-10T12:53:43Z</time>
      </trkpt>
      <trkpt lat="48.77089" lon="7.35128">
        <ele>397.3</ele>
        <time>2020-05-10T12:53:45Z</time>
      </trkpt>
      <trkpt lat="48.77085" lon="7.35127">
        <ele>397.2</ele>
        <time>2020-05-10T12:53:46Z</time>
      </trkpt>
      <trkpt lat="48.77081" lon="7.35126">
        <ele>397.1</ele>
        <time>2020-05-10T12:53:47Z</time>
      </trkpt>
      <trkpt lat="48.77077" lon="7.35125">
        <ele>397</ele>
        <time>2020-05-10T12:53:48Z</time>
      </trkpt>
      <trkpt lat="48.77067" lon="7.35124">
        <ele>396.8</ele>
        <time>2020-05-10T12:53:50Z</time>
      </trkpt>
      <trkpt lat="48.77062" lon="7.35126">
        <ele>396.7</ele>
        <time>2020-05-10T12:53:51Z</time>
      </trkpt>
      <trkpt lat="48.77057" lon="7.35127">
        <ele>396.6</ele>
        <time>2020-05-10T12:53:52Z</time>
      </trkpt>
      <trkpt lat="48.77048" lon="7.35124">
        <ele>396.5</ele>
        <time>2020-05-10T12:53:54Z</time>
      </trkpt>
      <trkpt lat="48.77038" lon="7.35124">
        <ele>396.4</ele>
        <time>2020-05-10T12:53:56Z</time>
      </trkpt>
      <trkpt lat="48.77034" lon="7.35125">
        <ele>396.4</ele>
        <time>2020-05-10T12:53:57Z</time>
      </trkpt>
      <trkpt lat="48.77027" lon="7.35122">
        <ele>396.4</ele>
        <time>2020-05-10T12:53:59Z</time>
      </trkpt>
      <trkpt lat="48.77024" lon="7.35119">
        <ele>396.4</ele>
        <time>2020-05-10T12:54:00Z</time>
      </trkpt>
      <trkpt lat="48.77021" lon="7.35117">
        <ele>396.4</ele>
        <time>2020-05-10T12:54:01Z</time>
      </trkpt>
      <trkpt lat="48.77013" lon="7.3511">
        <ele>396.3</ele>
        <time>2020-05-10T12:54:03Z</time>
      </trkpt>
      <trkpt lat="48.7701" lon="7.35106">
        <ele>396.3</ele>
        <time>2020-05-10T12:54:04Z</time>
      </trkpt>
      <trkpt lat="48.77007" lon="7.35101">
        <ele>396.2</ele>
        <time>2020-05-10T12:54:05Z</time>
      </trkpt>
      <trkpt lat="48.77003" lon="7.35097">
        <ele>396.1</ele>
        <time>2020-05-10T12:54:06Z</time>
      </trkpt>
      <trkpt lat="48.76997" lon="7.35088">
        <ele>395.9</ele>
        <time>2020-05-10T12:54:08Z</time>
      </trkpt>
      <trkpt lat="48.76995" lon="7.35082">
        <ele>395.8</ele>
        <time>2020-05-10T12:54:09Z</time>
      </trkpt>
      <trkpt lat="48.76991" lon="7.35079">
        <ele>395.6</ele>
        <time>2020-05-10T12:54:10Z</time>
      </trkpt>
      <trkpt lat="48.76987" lon="7.35076">
        <ele>395.5</ele>
        <time>2020-05-10T12:54:11Z</time>
      </trkpt>
      <trkpt lat="48.76979" lon="7.35068">
        <ele>395.3</ele>
        <time>2020-05-10T12:54:13Z</time>
      </trkpt>
      <trkpt lat="48.76973" lon="7.35056">
        <ele>395</ele>
        <time>2020-05-10T12:54:15Z</time>
      </trkpt>
      <trkpt lat="48.76968" lon="7.35052">
        <ele>395</ele>
        <time>2020-05-10T12:54:16Z</time>
      </trkpt>
      <trkpt lat="48.76958" lon="7.35043">
        <ele>394.5</ele>
        <time>2020-05-10T12:54:18Z</time>
      </trkpt>
      <trkpt lat="48.76954" lon="7.35036">
        <ele>393.9</ele>
        <time>2020-05-10T12:54:19Z</time>
      </trkpt>
      <trkpt lat="48.76945" lon="7.35026">
        <ele>392.9</ele>
        <time>2020-05-10T12:54:21Z</time>
      </trkpt>
      <trkpt lat="48.76941" lon="7.3502">
        <ele>392.3</ele>
        <time>2020-05-10T12:54:22Z</time>
      </trkpt>
      <trkpt lat="48.76936" lon="7.35015">
        <ele>391.7</ele>
        <time>2020-05-10T12:54:23Z</time>
      </trkpt>
      <trkpt lat="48.76926" lon="7.35002">
        <ele>390.3</ele>
        <time>2020-05-10T12:54:25Z</time>
      </trkpt>
      <trkpt lat="48.76916" lon="7.34992">
        <ele>389</ele>
        <time>2020-05-10T12:54:27Z</time>
      </trkpt>
      <trkpt lat="48.7691" lon="7.34987">
        <ele>388.4</ele>
        <time>2020-05-10T12:54:28Z</time>
      </trkpt>
      <trkpt lat="48.76901" lon="7.34976">
        <ele>387.2</ele>
        <time>2020-05-10T12:54:30Z</time>
      </trkpt>
      <trkpt lat="48.76891" lon="7.34965">
        <ele>386</ele>
        <time>2020-05-10T12:54:32Z</time>
      </trkpt>
      <trkpt lat="48.7688" lon="7.34956">
        <ele>384.9</ele>
        <time>2020-05-10T12:54:34Z</time>
      </trkpt>
      <trkpt lat="48.76875" lon="7.34951">
        <ele>384.3</ele>
        <time>2020-05-10T12:54:35Z</time>
      </trkpt>
      <trkpt lat="48.76865" lon="7.34939">
        <ele>383.1</ele>
        <time>2020-05-10T12:54:37Z</time>
      </trkpt>
      <trkpt lat="48.76859" lon="7.34932">
        <ele>382.6</ele>
        <time>2020-05-10T12:54:38Z</time>
      </trkpt>
      <trkpt lat="48.76854" lon="7.34928">
        <ele>382.1</ele>
        <time>2020-05-10T12:54:39Z</time>
      </trkpt>
      <trkpt lat="48.76842" lon="7.34924">
        <ele>381.3</ele>
        <time>2020-05-10T12:54:41Z</time>
      </trkpt>
      <trkpt lat="48.76836" lon="7.34922">
        <ele>380.8</ele>
        <time>2020-05-10T12:54:42Z</time>
      </trkpt>
      <trkpt lat="48.76826" lon="7.34918">
        <ele>380</ele>
        <time>2020-05-10T12:54:44Z</time>
      </trkpt>
      <trkpt lat="48.76815" lon="7.34911">
        <ele>379.5</ele>
        <time>2020-05-10T12:54:46Z</time>
      </trkpt>
      <trkpt lat="48.7681" lon="7.34908">
        <ele>379.2</ele>
        <time>2020-05-10T12:54:47Z</time>
      </trkpt>
      <trkpt lat="48.76799" lon="7.34903">
        <ele>378.7</ele>
        <time>2020-05-10T12:54:49Z</time>
      </trkpt>
      <trkpt lat="48.76789" lon="7.34899">
        <ele>378.4</ele>
        <time>2020-05-10T12:54:50Z</time>
      </trkpt>
      <trkpt lat="48.76783" lon="7.34895">
        <ele>378.3</ele>
        <time>2020-05-10T12:54:52Z</time>
      </trkpt>
      <trkpt lat="48.76778" lon="7.34892">
        <ele>378.2</ele>
        <time>2020-05-10T12:54:53Z</time>
      </trkpt>
      <trkpt lat="48.7677" lon="7.34884">
        <ele>378.2</ele>
        <time>2020-05-10T12:54:55Z</time>
      </trkpt>
      <trkpt lat="48.76761" lon="7.34878">
        <ele>378.1</ele>
        <time>2020-05-10T12:54:57Z</time>
      </trkpt>
      <trkpt lat="48.76757" lon="7.34874">
        <ele>378</ele>
        <time>2020-05-10T12:54:58Z</time>
      </trkpt>
      <trkpt lat="48.76751" lon="7.34873">
        <ele>378</ele>
        <time>2020-05-10T12:54:59Z</time>
      </trkpt>
      <trkpt lat="48.76744" lon="7.34866">
        <ele>378.1</ele>
        <time>2020-05-10T12:55:01Z</time>
      </trkpt>
      <trkpt lat="48.76741" lon="7.34862">
        <ele>378.2</ele>
        <time>2020-05-10T12:55:02Z</time>
      </trkpt>
      <trkpt lat="48.76736" lon="7.34854">
        <ele>378.4</ele>
        <time>2020-05-10T12:55:04Z</time>
      </trkpt>
      <trkpt lat="48.76735" lon="7.34852">
        <ele>378.5</ele>
        <time>2020-05-10T12:55:06Z</time>
      </trkpt>
      <trkpt lat="48.76735" lon="7.34852">
        <ele>378.5</ele>
        <time>2020-05-10T12:55:07Z</time>
      </trkpt>
      <trkpt lat="48.76734" lon="7.34851">
        <ele>378.6</ele>
        <time>2020-05-10T12:55:09Z</time>
      </trkpt>
      <trkpt lat="48.76733" lon="7.3485">
        <ele>378.6</ele>
        <time>2020-05-10T12:55:10Z</time>
      </trkpt>
      <trkpt lat="48.7673" lon="7.34848">
        <ele>378.8</ele>
        <time>2020-05-10T12:55:12Z</time>
      </trkpt>
      <trkpt lat="48.76725" lon="7.34839">
        <ele>379.2</ele>
        <time>2020-05-10T12:55:14Z</time>
      </trkpt>
      <trkpt lat="48.76723" lon="7.34835">
        <ele>379.4</ele>
        <time>2020-05-10T12:55:15Z</time>
      </trkpt>
      <trkpt lat="48.76719" lon="7.34827">
        <ele>379.8</ele>
        <time>2020-05-10T12:55:17Z</time>
      </trkpt>
      <trkpt lat="48.76717" lon="7.34823">
        <ele>380</ele>
        <time>2020-05-10T12:55:18Z</time>
      </trkpt>
      <trkpt lat="48.76711" lon="7.34814">
        <ele>380.4</ele>
        <time>2020-05-10T12:55:20Z</time>
      </trkpt>
      <trkpt lat="48.76706" lon="7.34805">
        <ele>380.8</ele>
        <time>2020-05-10T12:55:22Z</time>
      </trkpt>
      <trkpt lat="48.76702" lon="7.34797">
        <ele>381.2</ele>
        <time>2020-05-10T12:55:24Z</time>
      </trkpt>
      <trkpt lat="48.76697" lon="7.3479">
        <ele>381.5</ele>
        <time>2020-05-10T12:55:26Z</time>
      </trkpt>
      <trkpt lat="48.76695" lon="7.34786">
        <ele>381.6</ele>
        <time>2020-05-10T12:55:27Z</time>
      </trkpt>
      <trkpt lat="48.76691" lon="7.34778">
        <ele>381.9</ele>
        <time>2020-05-10T12:55:29Z</time>
      </trkpt>
      <trkpt lat="48.76687" lon="7.34769">
        <ele>382.2</ele>
        <time>2020-05-10T12:55:30Z</time>
      </trkpt>
      <trkpt lat="48.76684" lon="7.34764">
        <ele>382.3</ele>
        <time>2020-05-10T12:55:32Z</time>
      </trkpt>
      <trkpt lat="48.76681" lon="7.34755">
        <ele>382.5</ele>
        <time>2020-05-10T12:55:34Z</time>
      </trkpt>
      <trkpt lat="48.76679" lon="7.3475">
        <ele>382.6</ele>
        <time>2020-05-10T12:55:35Z</time>
      </trkpt>
      <trkpt lat="48.76677" lon="7.34738">
        <ele>382.7</ele>
        <time>2020-05-10T12:55:37Z</time>
      </trkpt>
      <trkpt lat="48.76675" lon="7.34732">
        <ele>382.8</ele>
        <time>2020-05-10T12:55:38Z</time>
      </trkpt>
      <trkpt lat="48.76673" lon="7.34721">
        <ele>382.9</ele>
        <time>2020-05-10T12:55:40Z</time>
      </trkpt>
      <trkpt lat="48.76671" lon="7.34716">
        <ele>382.9</ele>
        <time>2020-05-10T12:55:41Z</time>
      </trkpt>
      <trkpt lat="48.76668" lon="7.34706">
        <ele>383</ele>
        <time>2020-05-10T12:55:43Z</time>
      </trkpt>
      <trkpt lat="48.76665" lon="7.34695">
        <ele>383</ele>
        <time>2020-05-10T12:55:45Z</time>
      </trkpt>
      <trkpt lat="48.76663" lon="7.3469">
        <ele>383</ele>
        <time>2020-05-10T12:55:46Z</time>
      </trkpt>
      <trkpt lat="48.7666" lon="7.34679">
        <ele>383.1</ele>
        <time>2020-05-10T12:55:48Z</time>
      </trkpt>
      <trkpt lat="48.76659" lon="7.34675">
        <ele>383.1</ele>
        <time>2020-05-10T12:55:49Z</time>
      </trkpt>
      <trkpt lat="48.76656" lon="7.34662">
        <ele>383.2</ele>
        <time>2020-05-10T12:55:51Z</time>
      </trkpt>
      <trkpt lat="48.76654" lon="7.34655">
        <ele>383.3</ele>
        <time>2020-05-10T12:55:52Z</time>
      </trkpt>
      <trkpt lat="48.7665" lon="7.34641">
        <ele>383.4</ele>
        <time>2020-05-10T12:55:54Z</time>
      </trkpt>
      <trkpt lat="48.76648" lon="7.34635">
        <ele>383.4</ele>
        <time>2020-05-10T12:55:55Z</time>
      </trkpt>
      <trkpt lat="48.76643" lon="7.34624">
        <ele>383.6</ele>
        <time>2020-05-10T12:55:57Z</time>
      </trkpt>
      <trkpt lat="48.76642" lon="7.34617">
        <ele>383.7</ele>
        <time>2020-05-10T12:55:58Z</time>
      </trkpt>
      <trkpt lat="48.76638" lon="7.34603">
        <ele>384</ele>
        <time>2020-05-10T12:56:00Z</time>
      </trkpt>
      <trkpt lat="48.76635" lon="7.34587">
        <ele>384.4</ele>
        <time>2020-05-10T12:56:02Z</time>
      </trkpt>
      <trkpt lat="48.76632" lon="7.34573">
        <ele>384.8</ele>
        <time>2020-05-10T12:56:04Z</time>
      </trkpt>
      <trkpt lat="48.76629" lon="7.3456">
        <ele>385.1</ele>
        <time>2020-05-10T12:56:06Z</time>
      </trkpt>
      <trkpt lat="48.76631" lon="7.34544">
        <ele>385.5</ele>
        <time>2020-05-10T12:56:08Z</time>
      </trkpt>
      <trkpt lat="48.76632" lon="7.34528">
        <ele>385.8</ele>
        <time>2020-05-10T12:56:10Z</time>
      </trkpt>
      <trkpt lat="48.76633" lon="7.34522">
        <ele>385.8</ele>
        <time>2020-05-10T12:56:11Z</time>
      </trkpt>
      <trkpt lat="48.76634" lon="7.34516">
        <ele>385.9</ele>
        <time>2020-05-10T12:56:12Z</time>
      </trkpt>
      <trkpt lat="48.76635" lon="7.34501">
        <ele>385.9</ele>
        <time>2020-05-10T12:56:14Z</time>
      </trkpt>
      <trkpt lat="48.76636" lon="7.34493">
        <ele>385.9</ele>
        <time>2020-05-10T12:56:15Z</time>
      </trkpt>
      <trkpt lat="48.76637" lon="7.34484">
        <ele>385.9</ele>
        <time>2020-05-10T12:56:16Z</time>
      </trkpt>
      <trkpt lat="48.76639" lon="7.34467">
        <ele>385.9</ele>
        <time>2020-05-10T12:56:18Z</time>
      </trkpt>
      <trkpt lat="48.76641" lon="7.34459">
        <ele>385.9</ele>
        <time>2020-05-10T12:56:19Z</time>
      </trkpt>
      <trkpt lat="48.76644" lon="7.3445">
        <ele>386</ele>
        <time>2020-05-10T12:56:20Z</time>
      </trkpt>
      <trkpt lat="48.76651" lon="7.34436">
        <ele>386.1</ele>
        <time>2020-05-10T12:56:22Z</time>
      </trkpt>
      <trkpt lat="48.76659" lon="7.34422">
        <ele>386.4</ele>
        <time>2020-05-10T12:56:24Z</time>
      </trkpt>
      <trkpt lat="48.76664" lon="7.34412">
        <ele>386.5</ele>
        <time>2020-05-10T12:56:26Z</time>
      </trkpt>
      <trkpt lat="48.76671" lon="7.34403">
        <ele>386.7</ele>
        <time>2020-05-10T12:56:28Z</time>
      </trkpt>
      <trkpt lat="48.76679" lon="7.34395">
        <ele>386.8</ele>
        <time>2020-05-10T12:56:30Z</time>
      </trkpt>
      <trkpt lat="48.76688" lon="7.34384">
        <ele>386.9</ele>
        <time>2020-05-10T12:56:32Z</time>
      </trkpt>
      <trkpt lat="48.76692" lon="7.34378">
        <ele>386.9</ele>
        <time>2020-05-10T12:56:33Z</time>
      </trkpt>
      <trkpt lat="48.76696" lon="7.34372">
        <ele>387</ele>
        <time>2020-05-10T12:56:34Z</time>
      </trkpt>
      <trkpt lat="48.76702" lon="7.34359">
        <ele>386.9</ele>
        <time>2020-05-10T12:56:36Z</time>
      </trkpt>
      <trkpt lat="48.76706" lon="7.34353">
        <ele>386.9</ele>
        <time>2020-05-10T12:56:37Z</time>
      </trkpt>
      <trkpt lat="48.76717" lon="7.3434">
        <ele>386.9</ele>
        <time>2020-05-10T12:56:39Z</time>
      </trkpt>
      <trkpt lat="48.76722" lon="7.34333">
        <ele>386.9</ele>
        <time>2020-05-10T12:56:40Z</time>
      </trkpt>
      <trkpt lat="48.76728" lon="7.34327">
        <ele>387</ele>
        <time>2020-05-10T12:56:41Z</time>
      </trkpt>
      <trkpt lat="48.76733" lon="7.34321">
        <ele>387</ele>
        <time>2020-05-10T12:56:42Z</time>
      </trkpt>
      <trkpt lat="48.76742" lon="7.34306">
        <ele>387.3</ele>
        <time>2020-05-10T12:56:44Z</time>
      </trkpt>
      <trkpt lat="48.76747" lon="7.34301">
        <ele>387.4</ele>
        <time>2020-05-10T12:56:45Z</time>
      </trkpt>
      <trkpt lat="48.76752" lon="7.34296">
        <ele>387.6</ele>
        <time>2020-05-10T12:56:46Z</time>
      </trkpt>
      <trkpt lat="48.76762" lon="7.34285">
        <ele>388</ele>
        <time>2020-05-10T12:56:48Z</time>
      </trkpt>
      <trkpt lat="48.76766" lon="7.3428">
        <ele>388.2</ele>
        <time>2020-05-10T12:56:49Z</time>
      </trkpt>
      <trkpt lat="48.76771" lon="7.34275">
        <ele>388.4</ele>
        <time>2020-05-10T12:56:50Z</time>
      </trkpt>
      <trkpt lat="48.76779" lon="7.34264">
        <ele>388.9</ele>
        <time>2020-05-10T12:56:52Z</time>
      </trkpt>
      <trkpt lat="48.76787" lon="7.34255">
        <ele>389.3</ele>
        <time>2020-05-10T12:56:54Z</time>
      </trkpt>
      <trkpt lat="48.7679" lon="7.34252">
        <ele>389.5</ele>
        <time>2020-05-10T12:56:55Z</time>
      </trkpt>
      <trkpt lat="48.76795" lon="7.34243">
        <ele>390</ele>
        <time>2020-05-10T12:56:57Z</time>
      </trkpt>
      <trkpt lat="48.76801" lon="7.34232">
        <ele>390.6</ele>
        <time>2020-05-10T12:56:59Z</time>
      </trkpt>
      <trkpt lat="48.7681" lon="7.34225">
        <ele>391.2</ele>
        <time>2020-05-10T12:57:01Z</time>
      </trkpt>
      <trkpt lat="48.76818" lon="7.34222">
        <ele>391.9</ele>
        <time>2020-05-10T12:57:03Z</time>
      </trkpt>
      <trkpt lat="48.76828" lon="7.34221">
        <ele>392.5</ele>
        <time>2020-05-10T12:57:05Z</time>
      </trkpt>
      <trkpt lat="48.76832" lon="7.34222">
        <ele>392.8</ele>
        <time>2020-05-10T12:57:06Z</time>
      </trkpt>
      <trkpt lat="48.76842" lon="7.34226">
        <ele>393.3</ele>
        <time>2020-05-10T12:57:08Z</time>
      </trkpt>
      <trkpt lat="48.76847" lon="7.34228">
        <ele>393.5</ele>
        <time>2020-05-10T12:57:09Z</time>
      </trkpt>
      <trkpt lat="48.76856" lon="7.34232">
        <ele>393.9</ele>
        <time>2020-05-10T12:57:11Z</time>
      </trkpt>
      <trkpt lat="48.76861" lon="7.34236">
        <ele>394.1</ele>
        <time>2020-05-10T12:57:12Z</time>
      </trkpt>
      <trkpt lat="48.76869" lon="7.34242">
        <ele>394.3</ele>
        <time>2020-05-10T12:57:14Z</time>
      </trkpt>
      <trkpt lat="48.76877" lon="7.3425">
        <ele>394.5</ele>
        <time>2020-05-10T12:57:16Z</time>
      </trkpt>
      <trkpt lat="48.76884" lon="7.34256">
        <ele>394.7</ele>
        <time>2020-05-10T12:57:18Z</time>
      </trkpt>
      <trkpt lat="48.76892" lon="7.34259">
        <ele>394.9</ele>
        <time>2020-05-10T12:57:20Z</time>
      </trkpt>
      <trkpt lat="48.76896" lon="7.3426">
        <ele>394.9</ele>
        <time>2020-05-10T12:57:21Z</time>
      </trkpt>
      <trkpt lat="48.76904" lon="7.34263">
        <ele>395</ele>
        <time>2020-05-10T12:57:23Z</time>
      </trkpt>
      <trkpt lat="48.76915" lon="7.34273">
        <ele>395.1</ele>
        <time>2020-05-10T12:57:25Z</time>
      </trkpt>
      <trkpt lat="48.76925" lon="7.34279">
        <ele>395.2</ele>
        <time>2020-05-10T12:57:27Z</time>
      </trkpt>
      <trkpt lat="48.76932" lon="7.34283">
        <ele>395.3</ele>
        <time>2020-05-10T12:57:28Z</time>
      </trkpt>
      <trkpt lat="48.76944" lon="7.3429">
        <ele>395.5</ele>
        <time>2020-05-10T12:57:30Z</time>
      </trkpt>
      <trkpt lat="48.76949" lon="7.34294">
        <ele>395.6</ele>
        <time>2020-05-10T12:57:31Z</time>
      </trkpt>
      <trkpt lat="48.76954" lon="7.34295">
        <ele>395.7</ele>
        <time>2020-05-10T12:57:32Z</time>
      </trkpt>
      <trkpt lat="48.76963" lon="7.34303">
        <ele>396</ele>
        <time>2020-05-10T12:57:34Z</time>
      </trkpt>
      <trkpt lat="48.76971" lon="7.34311">
        <ele>396.3</ele>
        <time>2020-05-10T12:57:36Z</time>
      </trkpt>
      <trkpt lat="48.76974" lon="7.34314">
        <ele>396.5</ele>
        <time>2020-05-10T12:57:37Z</time>
      </trkpt>
      <trkpt lat="48.76979" lon="7.34317">
        <ele>396.6</ele>
        <time>2020-05-10T12:57:38Z</time>
      </trkpt>
      <trkpt lat="48.76983" lon="7.34319">
        <ele>396.7</ele>
        <time>2020-05-10T12:57:39Z</time>
      </trkpt>
      <trkpt lat="48.76991" lon="7.34326">
        <ele>397</ele>
        <time>2020-05-10T12:57:41Z</time>
      </trkpt>
      <trkpt lat="48.76995" lon="7.34327">
        <ele>397.1</ele>
        <time>2020-05-10T12:57:42Z</time>
      </trkpt>
      <trkpt lat="48.77002" lon="7.34328">
        <ele>397.3</ele>
        <time>2020-05-10T12:57:44Z</time>
      </trkpt>
      <trkpt lat="48.77012" lon="7.34331">
        <ele>397.6</ele>
        <time>2020-05-10T12:57:46Z</time>
      </trkpt>
      <trkpt lat="48.77022" lon="7.34336">
        <ele>398</ele>
        <time>2020-05-10T12:57:48Z</time>
      </trkpt>
      <trkpt lat="48.77027" lon="7.34339">
        <ele>398.2</ele>
        <time>2020-05-10T12:57:49Z</time>
      </trkpt>
      <trkpt lat="48.77037" lon="7.34343">
        <ele>398.7</ele>
        <time>2020-05-10T12:57:51Z</time>
      </trkpt>
      <trkpt lat="48.77043" lon="7.34343">
        <ele>398.9</ele>
        <time>2020-05-10T12:57:52Z</time>
      </trkpt>
      <trkpt lat="48.77052" lon="7.34345">
        <ele>399.3</ele>
        <time>2020-05-10T12:57:54Z</time>
      </trkpt>
      <trkpt lat="48.77061" lon="7.34349">
        <ele>399.6</ele>
        <time>2020-05-10T12:57:56Z</time>
      </trkpt>
      <trkpt lat="48.77071" lon="7.34351">
        <ele>399.8</ele>
        <time>2020-05-10T12:57:58Z</time>
      </trkpt>
      <trkpt lat="48.77078" lon="7.34351">
        <ele>400</ele>
        <time>2020-05-10T12:58:00Z</time>
      </trkpt>
      <trkpt lat="48.77083" lon="7.34354">
        <ele>400.1</ele>
        <time>2020-05-10T12:58:01Z</time>
      </trkpt>
      <trkpt lat="48.77092" lon="7.34358">
        <ele>400.3</ele>
        <time>2020-05-10T12:58:03Z</time>
      </trkpt>
      <trkpt lat="48.77097" lon="7.34359">
        <ele>400.4</ele>
        <time>2020-05-10T12:58:04Z</time>
      </trkpt>
      <trkpt lat="48.77105" lon="7.34362">
        <ele>400.5</ele>
        <time>2020-05-10T12:58:06Z</time>
      </trkpt>
      <trkpt lat="48.7711" lon="7.34365">
        <ele>400.6</ele>
        <time>2020-05-10T12:58:08Z</time>
      </trkpt>
      <trkpt lat="48.77113" lon="7.34366">
        <ele>400.7</ele>
        <time>2020-05-10T12:58:09Z</time>
      </trkpt>
      <trkpt lat="48.77122" lon="7.34371">
        <ele>400.8</ele>
        <time>2020-05-10T12:58:11Z</time>
      </trkpt>
      <trkpt lat="48.77126" lon="7.34372">
        <ele>400.8</ele>
        <time>2020-05-10T12:58:12Z</time>
      </trkpt>
      <trkpt lat="48.77138" lon="7.34369">
        <ele>401</ele>
        <time>2020-05-10T12:58:14Z</time>
      </trkpt>
      <trkpt lat="48.77144" lon="7.34368">
        <ele>401</ele>
        <time>2020-05-10T12:58:15Z</time>
      </trkpt>
      <trkpt lat="48.77151" lon="7.34368">
        <ele>401.1</ele>
        <time>2020-05-10T12:58:16Z</time>
      </trkpt>
      <trkpt lat="48.77163" lon="7.34374">
        <ele>401.2</ele>
        <time>2020-05-10T12:58:18Z</time>
      </trkpt>
      <trkpt lat="48.77175" lon="7.34378">
        <ele>401.4</ele>
        <time>2020-05-10T12:58:20Z</time>
      </trkpt>
      <trkpt lat="48.77187" lon="7.34383">
        <ele>401.5</ele>
        <time>2020-05-10T12:58:22Z</time>
      </trkpt>
      <trkpt lat="48.77194" lon="7.34385">
        <ele>401.5</ele>
        <time>2020-05-10T12:58:23Z</time>
      </trkpt>
      <trkpt lat="48.77203" lon="7.34388">
        <ele>401.6</ele>
        <time>2020-05-10T12:58:25Z</time>
      </trkpt>
      <trkpt lat="48.77209" lon="7.34391">
        <ele>401.6</ele>
        <time>2020-05-10T12:58:26Z</time>
      </trkpt>
      <trkpt lat="48.77221" lon="7.34397">
        <ele>401.6</ele>
        <time>2020-05-10T12:58:28Z</time>
      </trkpt>
      <trkpt lat="48.77227" lon="7.34398">
        <ele>401.7</ele>
        <time>2020-05-10T12:58:29Z</time>
      </trkpt>
      <trkpt lat="48.77239" lon="7.34402">
        <ele>401.8</ele>
        <time>2020-05-10T12:58:31Z</time>
      </trkpt>
      <trkpt lat="48.7725" lon="7.34406">
        <ele>402</ele>
        <time>2020-05-10T12:58:33Z</time>
      </trkpt>
      <trkpt lat="48.77262" lon="7.34403">
        <ele>402.3</ele>
        <time>2020-05-10T12:58:35Z</time>
      </trkpt>
      <trkpt lat="48.77271" lon="7.34396">
        <ele>402.6</ele>
        <time>2020-05-10T12:58:37Z</time>
      </trkpt>
      <trkpt lat="48.77279" lon="7.34384">
        <ele>402.9</ele>
        <time>2020-05-10T12:58:39Z</time>
      </trkpt>
      <trkpt lat="48.77285" lon="7.34374">
        <ele>402.9</ele>
        <time>2020-05-10T12:58:41Z</time>
      </trkpt>
      <trkpt lat="48.77287" lon="7.34368">
        <ele>403</ele>
        <time>2020-05-10T12:58:42Z</time>
      </trkpt>
      <trkpt lat="48.7729" lon="7.34362">
        <ele>403</ele>
        <time>2020-05-10T12:58:43Z</time>
      </trkpt>
      <trkpt lat="48.77293" lon="7.34351">
        <ele>403</ele>
        <time>2020-05-10T12:58:45Z</time>
      </trkpt>
      <trkpt lat="48.77295" lon="7.34336">
        <ele>402.9</ele>
        <time>2020-05-10T12:58:47Z</time>
      </trkpt>
      <trkpt lat="48.77295" lon="7.34328">
        <ele>402.8</ele>
        <time>2020-05-10T12:58:48Z</time>
      </trkpt>
      <trkpt lat="48.77296" lon="7.34319">
        <ele>402.7</ele>
        <time>2020-05-10T12:58:49Z</time>
      </trkpt>
      <trkpt lat="48.77295" lon="7.34312">
        <ele>402.5</ele>
        <time>2020-05-10T12:58:50Z</time>
      </trkpt>
      <trkpt lat="48.77296" lon="7.343">
        <ele>402.1</ele>
        <time>2020-05-10T12:58:51Z</time>
      </trkpt>
      <trkpt lat="48.77295" lon="7.34291">
        <ele>401.7</ele>
        <time>2020-05-10T12:58:53Z</time>
      </trkpt>
      <trkpt lat="48.77291" lon="7.34271">
        <ele>401</ele>
        <time>2020-05-10T12:58:55Z</time>
      </trkpt>
      <trkpt lat="48.7729" lon="7.34262">
        <ele>400.7</ele>
        <time>2020-05-10T12:58:56Z</time>
      </trkpt>
      <trkpt lat="48.77286" lon="7.34253">
        <ele>400.4</ele>
        <time>2020-05-10T12:58:57Z</time>
      </trkpt>
      <trkpt lat="48.77281" lon="7.34233">
        <ele>399.9</ele>
        <time>2020-05-10T12:58:59Z</time>
      </trkpt>
      <trkpt lat="48.77275" lon="7.34215">
        <ele>399.5</ele>
        <time>2020-05-10T12:59:01Z</time>
      </trkpt>
      <trkpt lat="48.77273" lon="7.34206">
        <ele>399.2</ele>
        <time>2020-05-10T12:59:02Z</time>
      </trkpt>
      <trkpt lat="48.77269" lon="7.34186">
        <ele>398.8</ele>
        <time>2020-05-10T12:59:04Z</time>
      </trkpt>
      <trkpt lat="48.77264" lon="7.34168">
        <ele>398.3</ele>
        <time>2020-05-10T12:59:06Z</time>
      </trkpt>
      <trkpt lat="48.77257" lon="7.34151">
        <ele>398</ele>
        <time>2020-05-10T12:59:08Z</time>
      </trkpt>
      <trkpt lat="48.77255" lon="7.34143">
        <ele>397.8</ele>
        <time>2020-05-10T12:59:09Z</time>
      </trkpt>
      <trkpt lat="48.77248" lon="7.34125">
        <ele>397.5</ele>
        <time>2020-05-10T12:59:11Z</time>
      </trkpt>
      <trkpt lat="48.77244" lon="7.34116">
        <ele>397.4</ele>
        <time>2020-05-10T12:59:12Z</time>
      </trkpt>
      <trkpt lat="48.77242" lon="7.34107">
        <ele>397.3</ele>
        <time>2020-05-10T12:59:13Z</time>
      </trkpt>
      <trkpt lat="48.77237" lon="7.34091">
        <ele>397.2</ele>
        <time>2020-05-10T12:59:15Z</time>
      </trkpt>
      <trkpt lat="48.77235" lon="7.34083">
        <ele>397.2</ele>
        <time>2020-05-10T12:59:16Z</time>
      </trkpt>
      <trkpt lat="48.7723" lon="7.34066">
        <ele>397.3</ele>
        <time>2020-05-10T12:59:18Z</time>
      </trkpt>
      <trkpt lat="48.77228" lon="7.34059">
        <ele>397.4</ele>
        <time>2020-05-10T12:59:19Z</time>
      </trkpt>
      <trkpt lat="48.77223" lon="7.34043">
        <ele>397.4</ele>
        <time>2020-05-10T12:59:21Z</time>
      </trkpt>
      <trkpt lat="48.77222" lon="7.34035">
        <ele>397.4</ele>
        <time>2020-05-10T12:59:22Z</time>
      </trkpt>
      <trkpt lat="48.7722" lon="7.34018">
        <ele>397.4</ele>
        <time>2020-05-10T12:59:24Z</time>
      </trkpt>
      <trkpt lat="48.77218" lon="7.34002">
        <ele>397.8</ele>
        <time>2020-05-10T12:59:26Z</time>
      </trkpt>
      <trkpt lat="48.77219" lon="7.3399">
        <ele>398.3</ele>
        <time>2020-05-10T12:59:28Z</time>
      </trkpt>
      <trkpt lat="48.77222" lon="7.33973">
        <ele>398.8</ele>
        <time>2020-05-10T12:59:30Z</time>
      </trkpt>
      <trkpt lat="48.77224" lon="7.33956">
        <ele>399.2</ele>
        <time>2020-05-10T12:59:32Z</time>
      </trkpt>
      <trkpt lat="48.77226" lon="7.3395">
        <ele>399.3</ele>
        <time>2020-05-10T12:59:33Z</time>
      </trkpt>
      <trkpt lat="48.77229" lon="7.33935">
        <ele>399.5</ele>
        <time>2020-05-10T12:59:35Z</time>
      </trkpt>
      <trkpt lat="48.7723" lon="7.33925">
        <ele>399.6</ele>
        <time>2020-05-10T12:59:36Z</time>
      </trkpt>
      <trkpt lat="48.77234" lon="7.33907">
        <ele>399.8</ele>
        <time>2020-05-10T12:59:38Z</time>
      </trkpt>
      <trkpt lat="48.77237" lon="7.33901">
        <ele>400</ele>
        <time>2020-05-10T12:59:39Z</time>
      </trkpt>
      <trkpt lat="48.7724" lon="7.33894">
        <ele>399.8</ele>
        <time>2020-05-10T12:59:40Z</time>
      </trkpt>
      <trkpt lat="48.77246" lon="7.33878">
        <ele>399.1</ele>
        <time>2020-05-10T12:59:42Z</time>
      </trkpt>
      <trkpt lat="48.77255" lon="7.33862">
        <ele>398.2</ele>
        <time>2020-05-10T12:59:44Z</time>
      </trkpt>
      <trkpt lat="48.77261" lon="7.33854">
        <ele>397.7</ele>
        <time>2020-05-10T12:59:45Z</time>
      </trkpt>
      <trkpt lat="48.77266" lon="7.33846">
        <ele>397.2</ele>
        <time>2020-05-10T12:59:46Z</time>
      </trkpt>
      <trkpt lat="48.77276" lon="7.33826">
        <ele>395.8</ele>
        <time>2020-05-10T12:59:48Z</time>
      </trkpt>
      <trkpt lat="48.77285" lon="7.33808">
        <ele>394.4</ele>
        <time>2020-05-10T12:59:50Z</time>
      </trkpt>
      <trkpt lat="48.77293" lon="7.33788">
        <ele>392.8</ele>
        <time>2020-05-10T12:59:52Z</time>
      </trkpt>
      <trkpt lat="48.77299" lon="7.3376">
        <ele>390.8</ele>
        <time>2020-05-10T12:59:54Z</time>
      </trkpt>
      <trkpt lat="48.77302" lon="7.33731">
        <ele>389.2</ele>
        <time>2020-05-10T12:59:56Z</time>
      </trkpt>
      <trkpt lat="48.77301" lon="7.33717">
        <ele>388.5</ele>
        <time>2020-05-10T12:59:57Z</time>
      </trkpt>
      <trkpt lat="48.77299" lon="7.3369">
        <ele>387.3</ele>
        <time>2020-05-10T12:59:59Z</time>
      </trkpt>
      <trkpt lat="48.7729" lon="7.33658">
        <ele>386</ele>
        <time>2020-05-10T13:00:01Z</time>
      </trkpt>
      <trkpt lat="48.77286" lon="7.33644">
        <ele>385.6</ele>
        <time>2020-05-10T13:00:02Z</time>
      </trkpt>
      <trkpt lat="48.77282" lon="7.33631">
        <ele>385.3</ele>
        <time>2020-05-10T13:00:03Z</time>
      </trkpt>
      <trkpt lat="48.77277" lon="7.33619">
        <ele>385.1</ele>
        <time>2020-05-10T13:00:04Z</time>
      </trkpt>
      <trkpt lat="48.77269" lon="7.33598">
        <ele>384.8</ele>
        <time>2020-05-10T13:00:06Z</time>
      </trkpt>
      <trkpt lat="48.77261" lon="7.33579">
        <ele>384.7</ele>
        <time>2020-05-10T13:00:08Z</time>
      </trkpt>
      <trkpt lat="48.77253" lon="7.3356">
        <ele>384.7</ele>
        <time>2020-05-10T13:00:10Z</time>
      </trkpt>
      <trkpt lat="48.77247" lon="7.33543">
        <ele>384.7</ele>
        <time>2020-05-10T13:00:12Z</time>
      </trkpt>
      <trkpt lat="48.7724" lon="7.33524">
        <ele>384.7</ele>
        <time>2020-05-10T13:00:14Z</time>
      </trkpt>
      <trkpt lat="48.77236" lon="7.33506">
        <ele>384.5</ele>
        <time>2020-05-10T13:00:16Z</time>
      </trkpt>
      <trkpt lat="48.77236" lon="7.33489">
        <ele>384.1</ele>
        <time>2020-05-10T13:00:18Z</time>
      </trkpt>
      <trkpt lat="48.77236" lon="7.33479">
        <ele>383.7</ele>
        <time>2020-05-10T13:00:19Z</time>
      </trkpt>
      <trkpt lat="48.7724" lon="7.33458">
        <ele>382.8</ele>
        <time>2020-05-10T13:00:21Z</time>
      </trkpt>
      <trkpt lat="48.77247" lon="7.33445">
        <ele>382.1</ele>
        <time>2020-05-10T13:00:23Z</time>
      </trkpt>
      <trkpt lat="48.77249" lon="7.33436">
        <ele>381.7</ele>
        <time>2020-05-10T13:00:24Z</time>
      </trkpt>
      <trkpt lat="48.77254" lon="7.33425">
        <ele>381.1</ele>
        <time>2020-05-10T13:00:26Z</time>
      </trkpt>
      <trkpt lat="48.77257" lon="7.3342">
        <ele>380.9</ele>
        <time>2020-05-10T13:00:28Z</time>
      </trkpt>
      <trkpt lat="48.77257" lon="7.33415">
        <ele>380.8</ele>
        <time>2020-05-10T13:00:29Z</time>
      </trkpt>
      <trkpt lat="48.77256" lon="7.33408">
        <ele>380.6</ele>
        <time>2020-05-10T13:00:30Z</time>
      </trkpt>
      <trkpt lat="48.77261" lon="7.33394">
        <ele>380.4</ele>
        <time>2020-05-10T13:00:32Z</time>
      </trkpt>
      <trkpt lat="48.77266" lon="7.33377">
        <ele>380.3</ele>
        <time>2020-05-10T13:00:34Z</time>
      </trkpt>
      <trkpt lat="48.77268" lon="7.33366">
        <ele>380.2</ele>
        <time>2020-05-10T13:00:35Z</time>
      </trkpt>
      <trkpt lat="48.77265" lon="7.33358">
        <ele>380.1</ele>
        <time>2020-05-10T13:00:37Z</time>
      </trkpt>
      <trkpt lat="48.77262" lon="7.33354">
        <ele>380</ele>
        <time>2020-05-10T13:00:39Z</time>
      </trkpt>
      <trkpt lat="48.77262" lon="7.33342">
        <ele>379.1</ele>
        <time>2020-05-10T13:00:41Z</time>
      </trkpt>
      <trkpt lat="48.77262" lon="7.33336">
        <ele>378.1</ele>
        <time>2020-05-10T13:00:43Z</time>
      </trkpt>
      <trkpt lat="48.77263" lon="7.33327">
        <ele>378.2</ele>
        <time>2020-05-10T13:00:45Z</time>
      </trkpt>
      <trkpt lat="48.77264" lon="7.33323">
        <ele>377.8</ele>
        <time>2020-05-10T13:00:46Z</time>
      </trkpt>
      <trkpt lat="48.77262" lon="7.33314">
        <ele>375.9</ele>
        <time>2020-05-10T13:00:48Z</time>
      </trkpt>
      <trkpt lat="48.77263" lon="7.33309">
        <ele>376.5</ele>
        <time>2020-05-10T13:00:49Z</time>
      </trkpt>
      <trkpt lat="48.77264" lon="7.33305">
        <ele>376.1</ele>
        <time>2020-05-10T13:00:50Z</time>
      </trkpt>
      <trkpt lat="48.77264" lon="7.33295">
        <ele>375.1</ele>
        <time>2020-05-10T13:00:52Z</time>
      </trkpt>
      <trkpt lat="48.77265" lon="7.3329">
        <ele>374.5</ele>
        <time>2020-05-10T13:00:53Z</time>
      </trkpt>
      <trkpt lat="48.77265" lon="7.33284">
        <ele>374.6</ele>
        <time>2020-05-10T13:00:55Z</time>
      </trkpt>
      <trkpt lat="48.77266" lon="7.3328">
        <ele>374</ele>
        <time>2020-05-10T13:00:56Z</time>
      </trkpt>
      <trkpt lat="48.77266" lon="7.33274">
        <ele>373.5</ele>
        <time>2020-05-10T13:00:58Z</time>
      </trkpt>
      <trkpt lat="48.77268" lon="7.33266">
        <ele>373.7</ele>
        <time>2020-05-10T13:01:00Z</time>
      </trkpt>
      <trkpt lat="48.77269" lon="7.33261">
        <ele>373.2</ele>
        <time>2020-05-10T13:01:01Z</time>
      </trkpt>
      <trkpt lat="48.77269" lon="7.33255">
        <ele>372.4</ele>
        <time>2020-05-10T13:01:02Z</time>
      </trkpt>
      <trkpt lat="48.77271" lon="7.33247">
        <ele>372.8</ele>
        <time>2020-05-10T13:01:04Z</time>
      </trkpt>
      <trkpt lat="48.77272" lon="7.33242">
        <ele>372.5</ele>
        <time>2020-05-10T13:01:05Z</time>
      </trkpt>
      <trkpt lat="48.77273" lon="7.3324">
        <ele>372.6</ele>
        <time>2020-05-10T13:01:06Z</time>
      </trkpt>
      <trkpt lat="48.77275" lon="7.33236">
        <ele>373.3</ele>
        <time>2020-05-10T13:01:07Z</time>
      </trkpt>
      <trkpt lat="48.77275" lon="7.33234">
        <ele>373.1</ele>
        <time>2020-05-10T13:01:08Z</time>
      </trkpt>
      <trkpt lat="48.77276" lon="7.33223">
        <ele>372.6</ele>
        <time>2020-05-10T13:01:10Z</time>
      </trkpt>
      <trkpt lat="48.77275" lon="7.33219">
        <ele>372.4</ele>
        <time>2020-05-10T13:01:11Z</time>
      </trkpt>
      <trkpt lat="48.77274" lon="7.3321">
        <ele>371.8</ele>
        <time>2020-05-10T13:01:13Z</time>
      </trkpt>
      <trkpt lat="48.77274" lon="7.33205">
        <ele>371.6</ele>
        <time>2020-05-10T13:01:14Z</time>
      </trkpt>
      <trkpt lat="48.77274" lon="7.33199">
        <ele>369.9</ele>
        <time>2020-05-10T13:01:15Z</time>
      </trkpt>
      <trkpt lat="48.77275" lon="7.33193">
        <ele>370.7</ele>
        <time>2020-05-10T13:01:17Z</time>
      </trkpt>
      <trkpt lat="48.77275" lon="7.3319">
        <ele>370.5</ele>
        <time>2020-05-10T13:01:18Z</time>
      </trkpt>
      <trkpt lat="48.77275" lon="7.3318">
        <ele>369.9</ele>
        <time>2020-05-10T13:01:20Z</time>
      </trkpt>
      <trkpt lat="48.77275" lon="7.33167">
        <ele>369</ele>
        <time>2020-05-10T13:01:22Z</time>
      </trkpt>
      <trkpt lat="48.77275" lon="7.3316">
        <ele>368.4</ele>
        <time>2020-05-10T13:01:23Z</time>
      </trkpt>
      <trkpt lat="48.77275" lon="7.33153">
        <ele>367.8</ele>
        <time>2020-05-10T13:01:24Z</time>
      </trkpt>
      <trkpt lat="48.77275" lon="7.33143">
        <ele>367.3</ele>
        <time>2020-05-10T13:01:26Z</time>
      </trkpt>
      <trkpt lat="48.77275" lon="7.33141">
        <ele>367.3</ele>
        <time>2020-05-10T13:01:27Z</time>
      </trkpt>
      <trkpt lat="48.77276" lon="7.33139">
        <ele>367.1</ele>
        <time>2020-05-10T13:01:28Z</time>
      </trkpt>
      <trkpt lat="48.77278" lon="7.33132">
        <ele>367.9</ele>
        <time>2020-05-10T13:01:30Z</time>
      </trkpt>
      <trkpt lat="48.77279" lon="7.33129">
        <ele>368.8</ele>
        <time>2020-05-10T13:01:31Z</time>
      </trkpt>
      <trkpt lat="48.77281" lon="7.33122">
        <ele>368.2</ele>
        <time>2020-05-10T13:01:33Z</time>
      </trkpt>
      <trkpt lat="48.77282" lon="7.33118">
        <ele>369</ele>
        <time>2020-05-10T13:01:34Z</time>
      </trkpt>
      <trkpt lat="48.77285" lon="7.33112">
        <ele>368.7</ele>
        <time>2020-05-10T13:01:36Z</time>
      </trkpt>
      <trkpt lat="48.77288" lon="7.33106">
        <ele>369.6</ele>
        <time>2020-05-10T13:01:38Z</time>
      </trkpt>
      <trkpt lat="48.7729" lon="7.33101">
        <ele>370.2</ele>
        <time>2020-05-10T13:01:39Z</time>
      </trkpt>
      <trkpt lat="48.77291" lon="7.33097">
        <ele>371</ele>
        <time>2020-05-10T13:01:40Z</time>
      </trkpt>
      <trkpt lat="48.77294" lon="7.33087">
        <ele>371.8</ele>
        <time>2020-05-10T13:01:42Z</time>
      </trkpt>
      <trkpt lat="48.77294" lon="7.33082">
        <ele>371.7</ele>
        <time>2020-05-10T13:01:43Z</time>
      </trkpt>
      <trkpt lat="48.77294" lon="7.3308">
        <ele>371.7</ele>
        <time>2020-05-10T13:01:44Z</time>
      </trkpt>
      <trkpt lat="48.77296" lon="7.33071">
        <ele>371.3</ele>
        <time>2020-05-10T13:01:46Z</time>
      </trkpt>
      <trkpt lat="48.77295" lon="7.33066">
        <ele>371.1</ele>
        <time>2020-05-10T13:01:47Z</time>
      </trkpt>
      <trkpt lat="48.77296" lon="7.33061">
        <ele>370.9</ele>
        <time>2020-05-10T13:01:49Z</time>
      </trkpt>
      <trkpt lat="48.77296" lon="7.33059">
        <ele>371</ele>
        <time>2020-05-10T13:01:50Z</time>
      </trkpt>
      <trkpt lat="48.77297" lon="7.33054">
        <ele>371.5</ele>
        <time>2020-05-10T13:01:52Z</time>
      </trkpt>
      <trkpt lat="48.77298" lon="7.33049">
        <ele>371.3</ele>
        <time>2020-05-10T13:01:53Z</time>
      </trkpt>
      <trkpt lat="48.77299" lon="7.33047">
        <ele>371.3</ele>
        <time>2020-05-10T13:01:54Z</time>
      </trkpt>
      <trkpt lat="48.77301" lon="7.33044">
        <ele>372.1</ele>
        <time>2020-05-10T13:01:56Z</time>
      </trkpt>
      <trkpt lat="48.77301" lon="7.33043">
        <ele>372.2</ele>
        <time>2020-05-10T13:01:57Z</time>
      </trkpt>
      <trkpt lat="48.77302" lon="7.33038">
        <ele>372</ele>
        <time>2020-05-10T13:01:59Z</time>
      </trkpt>
      <trkpt lat="48.77303" lon="7.33032">
        <ele>372.9</ele>
        <time>2020-05-10T13:02:01Z</time>
      </trkpt>
      <trkpt lat="48.77303" lon="7.3303">
        <ele>373</ele>
        <time>2020-05-10T13:02:02Z</time>
      </trkpt>
      <trkpt lat="48.77303" lon="7.33022">
        <ele>372.9</ele>
        <time>2020-05-10T13:02:04Z</time>
      </trkpt>
      <trkpt lat="48.77303" lon="7.33017">
        <ele>372.8</ele>
        <time>2020-05-10T13:02:06Z</time>
      </trkpt>
      <trkpt lat="48.77303" lon="7.33012">
        <ele>372.7</ele>
        <time>2020-05-10T13:02:07Z</time>
      </trkpt>
      <trkpt lat="48.77304" lon="7.3301">
        <ele>372.6</ele>
        <time>2020-05-10T13:02:08Z</time>
      </trkpt>
      <trkpt lat="48.77306" lon="7.33003">
        <ele>373.6</ele>
        <time>2020-05-10T13:02:10Z</time>
      </trkpt>
      <trkpt lat="48.77308" lon="7.33">
        <ele>374.5</ele>
        <time>2020-05-10T13:02:11Z</time>
      </trkpt>
      <trkpt lat="48.77309" lon="7.32998">
        <ele>374.3</ele>
        <time>2020-05-10T13:02:12Z</time>
      </trkpt>
      <trkpt lat="48.7731" lon="7.32993">
        <ele>374.1</ele>
        <time>2020-05-10T13:02:14Z</time>
      </trkpt>
      <trkpt lat="48.7731" lon="7.32989">
        <ele>374</ele>
        <time>2020-05-10T13:02:15Z</time>
      </trkpt>
      <trkpt lat="48.77311" lon="7.32983">
        <ele>374.8</ele>
        <time>2020-05-10T13:02:17Z</time>
      </trkpt>
      <trkpt lat="48.77312" lon="7.32979">
        <ele>374.7</ele>
        <time>2020-05-10T13:02:18Z</time>
      </trkpt>
      <trkpt lat="48.77313" lon="7.32978">
        <ele>374.8</ele>
        <time>2020-05-10T13:02:19Z</time>
      </trkpt>
      <trkpt lat="48.77315" lon="7.32972">
        <ele>375.5</ele>
        <time>2020-05-10T13:02:21Z</time>
      </trkpt>
      <trkpt lat="48.77314" lon="7.32966">
        <ele>375.5</ele>
        <time>2020-05-10T13:02:23Z</time>
      </trkpt>
      <trkpt lat="48.77314" lon="7.3296">
        <ele>375.5</ele>
        <time>2020-05-10T13:02:25Z</time>
      </trkpt>
      <trkpt lat="48.77314" lon="7.32958">
        <ele>375.5</ele>
        <time>2020-05-10T13:02:26Z</time>
      </trkpt>
      <trkpt lat="48.77314" lon="7.32955">
        <ele>375.5</ele>
        <time>2020-05-10T13:02:28Z</time>
      </trkpt>
      <trkpt lat="48.77316" lon="7.3295">
        <ele>375.4</ele>
        <time>2020-05-10T13:02:30Z</time>
      </trkpt>
      <trkpt lat="48.77317" lon="7.32946">
        <ele>376.1</ele>
        <time>2020-05-10T13:02:32Z</time>
      </trkpt>
      <trkpt lat="48.77319" lon="7.32944">
        <ele>376.1</ele>
        <time>2020-05-10T13:02:34Z</time>
      </trkpt>
      <trkpt lat="48.7732" lon="7.32942">
        <ele>376.8</ele>
        <time>2020-05-10T13:02:35Z</time>
      </trkpt>
      <trkpt lat="48.77321" lon="7.32937">
        <ele>376.7</ele>
        <time>2020-05-10T13:02:37Z</time>
      </trkpt>
      <trkpt lat="48.77322" lon="7.32931">
        <ele>377.4</ele>
        <time>2020-05-10T13:02:39Z</time>
      </trkpt>
      <trkpt lat="48.77324" lon="7.32924">
        <ele>377.2</ele>
        <time>2020-05-10T13:02:41Z</time>
      </trkpt>
      <trkpt lat="48.77325" lon="7.32921">
        <ele>377.9</ele>
        <time>2020-05-10T13:02:42Z</time>
      </trkpt>
      <trkpt lat="48.77326" lon="7.32919">
        <ele>377.9</ele>
        <time>2020-05-10T13:02:43Z</time>
      </trkpt>
      <trkpt lat="48.77326" lon="7.32918">
        <ele>377.9</ele>
        <time>2020-05-10T13:02:44Z</time>
      </trkpt>
      <trkpt lat="48.77327" lon="7.32914">
        <ele>377.8</ele>
        <time>2020-05-10T13:02:46Z</time>
      </trkpt>
      <trkpt lat="48.77329" lon="7.3291">
        <ele>378.5</ele>
        <time>2020-05-10T13:02:48Z</time>
      </trkpt>
      <trkpt lat="48.77331" lon="7.32904">
        <ele>379.1</ele>
        <time>2020-05-10T13:02:50Z</time>
      </trkpt>
      <trkpt lat="48.77333" lon="7.32899">
        <ele>379.7</ele>
        <time>2020-05-10T13:02:52Z</time>
      </trkpt>
      <trkpt lat="48.77337" lon="7.32894">
        <ele>380.4</ele>
        <time>2020-05-10T13:02:54Z</time>
      </trkpt>
      <trkpt lat="48.77339" lon="7.3289">
        <ele>381</ele>
        <time>2020-05-10T13:02:55Z</time>
      </trkpt>
      <trkpt lat="48.7734" lon="7.32885">
        <ele>381</ele>
        <time>2020-05-10T13:02:57Z</time>
      </trkpt>
      <trkpt lat="48.77341" lon="7.32881">
        <ele>381</ele>
        <time>2020-05-10T13:02:59Z</time>
      </trkpt>
      <trkpt lat="48.77341" lon="7.32881">
        <ele>381.1</ele>
        <time>2020-05-10T13:03:00Z</time>
      </trkpt>
      <trkpt lat="48.77341" lon="7.32877">
        <ele>381.1</ele>
        <time>2020-05-10T13:03:02Z</time>
      </trkpt>
      <trkpt lat="48.77341" lon="7.32875">
        <ele>381.1</ele>
        <time>2020-05-10T13:03:03Z</time>
      </trkpt>
      <trkpt lat="48.77343" lon="7.3287">
        <ele>381.7</ele>
        <time>2020-05-10T13:03:05Z</time>
      </trkpt>
      <trkpt lat="48.77346" lon="7.32865">
        <ele>382.1</ele>
        <time>2020-05-10T13:03:07Z</time>
      </trkpt>
      <trkpt lat="48.77347" lon="7.32861">
        <ele>382.1</ele>
        <time>2020-05-10T13:03:08Z</time>
      </trkpt>
      <trkpt lat="48.77347" lon="7.32859">
        <ele>382</ele>
        <time>2020-05-10T13:03:10Z</time>
      </trkpt>
      <trkpt lat="48.77348" lon="7.32857">
        <ele>381.9</ele>
        <time>2020-05-10T13:03:11Z</time>
      </trkpt>
      <trkpt lat="48.77348" lon="7.32855">
        <ele>381.8</ele>
        <time>2020-05-10T13:03:12Z</time>
      </trkpt>
      <trkpt lat="48.77347" lon="7.32853">
        <ele>381.7</ele>
        <time>2020-05-10T13:03:14Z</time>
      </trkpt>
      <trkpt lat="48.77346" lon="7.3285">
        <ele>381.5</ele>
        <time>2020-05-10T13:03:16Z</time>
      </trkpt>
      <trkpt lat="48.77346" lon="7.32847">
        <ele>381.4</ele>
        <time>2020-05-10T13:03:17Z</time>
      </trkpt>
      <trkpt lat="48.77346" lon="7.32845">
        <ele>381.3</ele>
        <time>2020-05-10T13:03:19Z</time>
      </trkpt>
      <trkpt lat="48.77345" lon="7.32844">
        <ele>381.2</ele>
        <time>2020-05-10T13:03:20Z</time>
      </trkpt>
      <trkpt lat="48.77345" lon="7.32842">
        <ele>381.2</ele>
        <time>2020-05-10T13:03:21Z</time>
      </trkpt>
      <trkpt lat="48.77345" lon="7.32841">
        <ele>381.1</ele>
        <time>2020-05-10T13:03:22Z</time>
      </trkpt>
      <trkpt lat="48.77345" lon="7.32838">
        <ele>381</ele>
        <time>2020-05-10T13:03:24Z</time>
      </trkpt>
      <trkpt lat="48.77344" lon="7.32837">
        <ele>380.9</ele>
        <time>2020-05-10T13:03:25Z</time>
      </trkpt>
      <trkpt lat="48.77344" lon="7.32836">
        <ele>380.9</ele>
        <time>2020-05-10T13:03:26Z</time>
      </trkpt>
      <trkpt lat="48.77344" lon="7.32833">
        <ele>380.8</ele>
        <time>2020-05-10T13:03:28Z</time>
      </trkpt>
      <trkpt lat="48.77345" lon="7.3283">
        <ele>380.7</ele>
        <time>2020-05-10T13:03:29Z</time>
      </trkpt>
      <trkpt lat="48.77346" lon="7.32827">
        <ele>380.6</ele>
        <time>2020-05-10T13:03:31Z</time>
      </trkpt>
      <trkpt lat="48.77347" lon="7.32825">
        <ele>380.5</ele>
        <time>2020-05-10T13:03:33Z</time>
      </trkpt>
      <trkpt lat="48.77349" lon="7.32821">
        <ele>380.3</ele>
        <time>2020-05-10T13:03:35Z</time>
      </trkpt>
      <trkpt lat="48.7735" lon="7.3282">
        <ele>380.3</ele>
        <time>2020-05-10T13:03:36Z</time>
      </trkpt>
      <trkpt lat="48.77351" lon="7.32818">
        <ele>380.2</ele>
        <time>2020-05-10T13:03:38Z</time>
      </trkpt>
      <trkpt lat="48.77351" lon="7.32817">
        <ele>380.2</ele>
        <time>2020-05-10T13:03:39Z</time>
      </trkpt>
      <trkpt lat="48.77348" lon="7.32815">
        <ele>380.1</ele>
        <time>2020-05-10T13:03:41Z</time>
      </trkpt>
      <trkpt lat="48.77347" lon="7.32811">
        <ele>379.9</ele>
        <time>2020-05-10T13:03:43Z</time>
      </trkpt>
      <trkpt lat="48.77348" lon="7.32803">
        <ele>379.8</ele>
        <time>2020-05-10T13:03:45Z</time>
      </trkpt>
      <trkpt lat="48.77349" lon="7.32799">
        <ele>379.7</ele>
        <time>2020-05-10T13:03:46Z</time>
      </trkpt>
      <trkpt lat="48.77351" lon="7.32792">
        <ele>379.5</ele>
        <time>2020-05-10T13:03:48Z</time>
      </trkpt>
      <trkpt lat="48.77353" lon="7.32785">
        <ele>379.3</ele>
        <time>2020-05-10T13:03:50Z</time>
      </trkpt>
      <trkpt lat="48.77353" lon="7.32778">
        <ele>379.2</ele>
        <time>2020-05-10T13:03:52Z</time>
      </trkpt>
      <trkpt lat="48.77354" lon="7.32772">
        <ele>379.1</ele>
        <time>2020-05-10T13:03:53Z</time>
      </trkpt>
      <trkpt lat="48.77354" lon="7.32763">
        <ele>378.8</ele>
        <time>2020-05-10T13:03:55Z</time>
      </trkpt>
      <trkpt lat="48.77354" lon="7.32752">
        <ele>378.6</ele>
        <time>2020-05-10T13:03:57Z</time>
      </trkpt>
      <trkpt lat="48.77353" lon="7.32744">
        <ele>378.3</ele>
        <time>2020-05-10T13:03:59Z</time>
      </trkpt>
      <trkpt lat="48.77351" lon="7.32735">
        <ele>378</ele>
        <time>2020-05-10T13:04:01Z</time>
      </trkpt>
      <trkpt lat="48.77351" lon="7.3273">
        <ele>377.8</ele>
        <time>2020-05-10T13:04:02Z</time>
      </trkpt>
      <trkpt lat="48.7735" lon="7.3272">
        <ele>377.3</ele>
        <time>2020-05-10T13:04:04Z</time>
      </trkpt>
      <trkpt lat="48.7735" lon="7.32709">
        <ele>376.9</ele>
        <time>2020-05-10T13:04:06Z</time>
      </trkpt>
      <trkpt lat="48.7735" lon="7.327">
        <ele>376.5</ele>
        <time>2020-05-10T13:04:08Z</time>
      </trkpt>
      <trkpt lat="48.77351" lon="7.32693">
        <ele>376.2</ele>
        <time>2020-05-10T13:04:10Z</time>
      </trkpt>
      <trkpt lat="48.7735" lon="7.32685">
        <ele>375.9</ele>
        <time>2020-05-10T13:04:12Z</time>
      </trkpt>
      <trkpt lat="48.77347" lon="7.32678">
        <ele>375.7</ele>
        <time>2020-05-10T13:04:14Z</time>
      </trkpt>
      <trkpt lat="48.77343" lon="7.32676">
        <ele>375.6</ele>
        <time>2020-05-10T13:04:15Z</time>
      </trkpt>
      <trkpt lat="48.77339" lon="7.32676">
        <ele>375.5</ele>
        <time>2020-05-10T13:04:16Z</time>
      </trkpt>
      <trkpt lat="48.77331" lon="7.32675">
        <ele>375.7</ele>
        <time>2020-05-10T13:04:18Z</time>
      </trkpt>
      <trkpt lat="48.77323" lon="7.32674">
        <ele>375.8</ele>
        <time>2020-05-10T13:04:20Z</time>
      </trkpt>
      <trkpt lat="48.77317" lon="7.32673">
        <ele>375.9</ele>
        <time>2020-05-10T13:04:22Z</time>
      </trkpt>
      <trkpt lat="48.77313" lon="7.32673">
        <ele>376</ele>
        <time>2020-05-10T13:04:23Z</time>
      </trkpt>
      <trkpt lat="48.77312" lon="7.32673">
        <ele>376.1</ele>
        <time>2020-05-10T13:04:24Z</time>
      </trkpt>
      <trkpt lat="48.77306" lon="7.32673">
        <ele>376.3</ele>
        <time>2020-05-10T13:04:26Z</time>
      </trkpt>
      <trkpt lat="48.77304" lon="7.32673">
        <ele>376.4</ele>
        <time>2020-05-10T13:04:27Z</time>
      </trkpt>
      <trkpt lat="48.77298" lon="7.32672">
        <ele>376.6</ele>
        <time>2020-05-10T13:04:29Z</time>
      </trkpt>
      <trkpt lat="48.77295" lon="7.32671">
        <ele>376.7</ele>
        <time>2020-05-10T13:04:30Z</time>
      </trkpt>
      <trkpt lat="48.77289" lon="7.32671">
        <ele>376.8</ele>
        <time>2020-05-10T13:04:32Z</time>
      </trkpt>
      <trkpt lat="48.77287" lon="7.32671">
        <ele>376.9</ele>
        <time>2020-05-10T13:04:33Z</time>
      </trkpt>
      <trkpt lat="48.77282" lon="7.32671">
        <ele>377</ele>
        <time>2020-05-10T13:04:35Z</time>
      </trkpt>
      <trkpt lat="48.77278" lon="7.32671">
        <ele>377.1</ele>
        <time>2020-05-10T13:04:36Z</time>
      </trkpt>
      <trkpt lat="48.77277" lon="7.32672">
        <ele>377.1</ele>
        <time>2020-05-10T13:04:37Z</time>
      </trkpt>
      <trkpt lat="48.77274" lon="7.32675">
        <ele>377.1</ele>
        <time>2020-05-10T13:04:39Z</time>
      </trkpt>
      <trkpt lat="48.77272" lon="7.3268">
        <ele>377.1</ele>
        <time>2020-05-10T13:04:41Z</time>
      </trkpt>
      <trkpt lat="48.77271" lon="7.32682">
        <ele>377.1</ele>
        <time>2020-05-10T13:04:42Z</time>
      </trkpt>
      <trkpt lat="48.7727" lon="7.32687">
        <ele>377.1</ele>
        <time>2020-05-10T13:04:44Z</time>
      </trkpt>
      <trkpt lat="48.77268" lon="7.32691">
        <ele>377.1</ele>
        <time>2020-05-10T13:04:46Z</time>
      </trkpt>
      <trkpt lat="48.77267" lon="7.32694">
        <ele>377.1</ele>
        <time>2020-05-10T13:04:47Z</time>
      </trkpt>
      <trkpt lat="48.77264" lon="7.32698">
        <ele>377.1</ele>
        <time>2020-05-10T13:04:49Z</time>
      </trkpt>
      <trkpt lat="48.7726" lon="7.32701">
        <ele>377.1</ele>
        <time>2020-05-10T13:04:51Z</time>
      </trkpt>
      <trkpt lat="48.77256" lon="7.32703">
        <ele>377.1</ele>
        <time>2020-05-10T13:04:53Z</time>
      </trkpt>
      <trkpt lat="48.77253" lon="7.32707">
        <ele>377.1</ele>
        <time>2020-05-10T13:04:55Z</time>
      </trkpt>
      <trkpt lat="48.77251" lon="7.3271">
        <ele>377.6</ele>
        <time>2020-05-10T13:04:57Z</time>
      </trkpt>
      <trkpt lat="48.77246" lon="7.32713">
        <ele>378.2</ele>
        <time>2020-05-10T13:04:59Z</time>
      </trkpt>
      <trkpt lat="48.77243" lon="7.32714">
        <ele>378.6</ele>
        <time>2020-05-10T13:05:00Z</time>
      </trkpt>
      <trkpt lat="48.7724" lon="7.32716">
        <ele>379</ele>
        <time>2020-05-10T13:05:01Z</time>
      </trkpt>
      <trkpt lat="48.77235" lon="7.3272">
        <ele>379.8</ele>
        <time>2020-05-10T13:05:03Z</time>
      </trkpt>
      <trkpt lat="48.77232" lon="7.32722">
        <ele>380.3</ele>
        <time>2020-05-10T13:05:04Z</time>
      </trkpt>
      <trkpt lat="48.77227" lon="7.32725">
        <ele>381</ele>
        <time>2020-05-10T13:05:06Z</time>
      </trkpt>
      <trkpt lat="48.77224" lon="7.32726">
        <ele>381.5</ele>
        <time>2020-05-10T13:05:07Z</time>
      </trkpt>
      <trkpt lat="48.77219" lon="7.32727">
        <ele>382.2</ele>
        <time>2020-05-10T13:05:09Z</time>
      </trkpt>
      <trkpt lat="48.77211" lon="7.32728">
        <ele>383.3</ele>
        <time>2020-05-10T13:05:11Z</time>
      </trkpt>
      <trkpt lat="48.77209" lon="7.32729">
        <ele>383.7</ele>
        <time>2020-05-10T13:05:12Z</time>
      </trkpt>
      <trkpt lat="48.77206" lon="7.3273">
        <ele>384.1</ele>
        <time>2020-05-10T13:05:13Z</time>
      </trkpt>
      <trkpt lat="48.77201" lon="7.32731">
        <ele>384.8</ele>
        <time>2020-05-10T13:05:15Z</time>
      </trkpt>
      <trkpt lat="48.77197" lon="7.32731">
        <ele>385.3</ele>
        <time>2020-05-10T13:05:17Z</time>
      </trkpt>
      <trkpt lat="48.77192" lon="7.32732">
        <ele>386</ele>
        <time>2020-05-10T13:05:19Z</time>
      </trkpt>
      <trkpt lat="48.7719" lon="7.32733">
        <ele>386.3</ele>
        <time>2020-05-10T13:05:20Z</time>
      </trkpt>
      <trkpt lat="48.77185" lon="7.32735">
        <ele>386.9</ele>
        <time>2020-05-10T13:05:22Z</time>
      </trkpt>
      <trkpt lat="48.77182" lon="7.32735">
        <ele>387.2</ele>
        <time>2020-05-10T13:05:23Z</time>
      </trkpt>
      <trkpt lat="48.77178" lon="7.32733">
        <ele>387.8</ele>
        <time>2020-05-10T13:05:25Z</time>
      </trkpt>
      <trkpt lat="48.77173" lon="7.32733">
        <ele>388.4</ele>
        <time>2020-05-10T13:05:27Z</time>
      </trkpt>
      <trkpt lat="48.77168" lon="7.32732">
        <ele>388.9</ele>
        <time>2020-05-10T13:05:29Z</time>
      </trkpt>
      <trkpt lat="48.77164" lon="7.32729">
        <ele>389.4</ele>
        <time>2020-05-10T13:05:31Z</time>
      </trkpt>
      <trkpt lat="48.77162" lon="7.32727">
        <ele>389.8</ele>
        <time>2020-05-10T13:05:32Z</time>
      </trkpt>
      <trkpt lat="48.77161" lon="7.32726">
        <ele>389.9</ele>
        <time>2020-05-10T13:05:33Z</time>
      </trkpt>
      <trkpt lat="48.77158" lon="7.32723">
        <ele>390.4</ele>
        <time>2020-05-10T13:05:34Z</time>
      </trkpt>
      <trkpt lat="48.77157" lon="7.32721">
        <ele>390.7</ele>
        <time>2020-05-10T13:05:35Z</time>
      </trkpt>
      <trkpt lat="48.77154" lon="7.32715">
        <ele>391.1</ele>
        <time>2020-05-10T13:05:37Z</time>
      </trkpt>
      <trkpt lat="48.77153" lon="7.32712">
        <ele>391.2</ele>
        <time>2020-05-10T13:05:38Z</time>
      </trkpt>
      <trkpt lat="48.77151" lon="7.32707">
        <ele>391.6</ele>
        <time>2020-05-10T13:05:40Z</time>
      </trkpt>
      <trkpt lat="48.77149" lon="7.32701">
        <ele>391.8</ele>
        <time>2020-05-10T13:05:42Z</time>
      </trkpt>
      <trkpt lat="48.77148" lon="7.32696">
        <ele>392.2</ele>
        <time>2020-05-10T13:05:44Z</time>
      </trkpt>
      <trkpt lat="48.77145" lon="7.3269">
        <ele>392.7</ele>
        <time>2020-05-10T13:05:46Z</time>
      </trkpt>
      <trkpt lat="48.77142" lon="7.32683">
        <ele>393.3</ele>
        <time>2020-05-10T13:05:48Z</time>
      </trkpt>
      <trkpt lat="48.7714" lon="7.32677">
        <ele>393.9</ele>
        <time>2020-05-10T13:05:50Z</time>
      </trkpt>
      <trkpt lat="48.77139" lon="7.32674">
        <ele>393.9</ele>
        <time>2020-05-10T13:05:51Z</time>
      </trkpt>
      <trkpt lat="48.77137" lon="7.32667">
        <ele>394.4</ele>
        <time>2020-05-10T13:05:53Z</time>
      </trkpt>
      <trkpt lat="48.77135" lon="7.32662">
        <ele>394.7</ele>
        <time>2020-05-10T13:05:55Z</time>
      </trkpt>
      <trkpt lat="48.77134" lon="7.3266">
        <ele>394.7</ele>
        <time>2020-05-10T13:05:56Z</time>
      </trkpt>
      <trkpt lat="48.77133" lon="7.32658">
        <ele>394.6</ele>
        <time>2020-05-10T13:05:57Z</time>
      </trkpt>
      <trkpt lat="48.77131" lon="7.32654">
        <ele>395</ele>
        <time>2020-05-10T13:05:59Z</time>
      </trkpt>
      <trkpt lat="48.77131" lon="7.32653">
        <ele>395</ele>
        <time>2020-05-10T13:06:00Z</time>
      </trkpt>
      <trkpt lat="48.77129" lon="7.32649">
        <ele>395.3</ele>
        <time>2020-05-10T13:06:02Z</time>
      </trkpt>
      <trkpt lat="48.77128" lon="7.32647">
        <ele>395.3</ele>
        <time>2020-05-10T13:06:03Z</time>
      </trkpt>
      <trkpt lat="48.77125" lon="7.32643">
        <ele>395.7</ele>
        <time>2020-05-10T13:06:05Z</time>
      </trkpt>
      <trkpt lat="48.77124" lon="7.32641">
        <ele>395.8</ele>
        <time>2020-05-10T13:06:06Z</time>
      </trkpt>
      <trkpt lat="48.77123" lon="7.32637">
        <ele>396.3</ele>
        <time>2020-05-10T13:06:08Z</time>
      </trkpt>
      <trkpt lat="48.77122" lon="7.32634">
        <ele>396.2</ele>
        <time>2020-05-10T13:06:09Z</time>
      </trkpt>
      <trkpt lat="48.77119" lon="7.32631">
        <ele>396.7</ele>
        <time>2020-05-10T13:06:11Z</time>
      </trkpt>
      <trkpt lat="48.77116" lon="7.32627">
        <ele>397.3</ele>
        <time>2020-05-10T13:06:13Z</time>
      </trkpt>
      <trkpt lat="48.77114" lon="7.32625">
        <ele>397.8</ele>
        <time>2020-05-10T13:06:14Z</time>
      </trkpt>
      <trkpt lat="48.7711" lon="7.32621">
        <ele>398.4</ele>
        <time>2020-05-10T13:06:16Z</time>
      </trkpt>
      <trkpt lat="48.77108" lon="7.32618">
        <ele>399.1</ele>
        <time>2020-05-10T13:06:17Z</time>
      </trkpt>
      <trkpt lat="48.77104" lon="7.32612">
        <ele>399.8</ele>
        <time>2020-05-10T13:06:19Z</time>
      </trkpt>
      <trkpt lat="48.77102" lon="7.32605">
        <ele>400.4</ele>
        <time>2020-05-10T13:06:21Z</time>
      </trkpt>
      <trkpt lat="48.77101" lon="7.32602">
        <ele>401.1</ele>
        <time>2020-05-10T13:06:22Z</time>
      </trkpt>
      <trkpt lat="48.771" lon="7.32601">
        <ele>401</ele>
        <time>2020-05-10T13:06:23Z</time>
      </trkpt>
      <trkpt lat="48.77099" lon="7.32599">
        <ele>401</ele>
        <time>2020-05-10T13:06:24Z</time>
      </trkpt>
      <trkpt lat="48.77098" lon="7.32597">
        <ele>401.6</ele>
        <time>2020-05-10T13:06:25Z</time>
      </trkpt>
      <trkpt lat="48.77095" lon="7.32592">
        <ele>402.2</ele>
        <time>2020-05-10T13:06:27Z</time>
      </trkpt>
      <trkpt lat="48.77092" lon="7.32588">
        <ele>402.8</ele>
        <time>2020-05-10T13:06:29Z</time>
      </trkpt>
      <trkpt lat="48.77089" lon="7.32584">
        <ele>403.4</ele>
        <time>2020-05-10T13:06:30Z</time>
      </trkpt>
      <trkpt lat="48.77088" lon="7.32583">
        <ele>403.4</ele>
        <time>2020-05-10T13:06:31Z</time>
      </trkpt>
      <trkpt lat="48.77085" lon="7.3258">
        <ele>404</ele>
        <time>2020-05-10T13:06:33Z</time>
      </trkpt>
      <trkpt lat="48.77082" lon="7.32578">
        <ele>404.8</ele>
        <time>2020-05-10T13:06:34Z</time>
      </trkpt>
      <trkpt lat="48.77078" lon="7.32573">
        <ele>406.3</ele>
        <time>2020-05-10T13:06:36Z</time>
      </trkpt>
      <trkpt lat="48.77077" lon="7.32571">
        <ele>406.3</ele>
        <time>2020-05-10T13:06:37Z</time>
      </trkpt>
      <trkpt lat="48.77073" lon="7.32568">
        <ele>407.2</ele>
        <time>2020-05-10T13:06:39Z</time>
      </trkpt>
      <trkpt lat="48.77071" lon="7.32565">
        <ele>408</ele>
        <time>2020-05-10T13:06:40Z</time>
      </trkpt>
      <trkpt lat="48.77069" lon="7.32561">
        <ele>408.7</ele>
        <time>2020-05-10T13:06:41Z</time>
      </trkpt>
      <trkpt lat="48.77064" lon="7.3256">
        <ele>410.6</ele>
        <time>2020-05-10T13:06:43Z</time>
      </trkpt>
      <trkpt lat="48.77059" lon="7.32556">
        <ele>411.3</ele>
        <time>2020-05-10T13:06:45Z</time>
      </trkpt>
      <trkpt lat="48.77055" lon="7.32552">
        <ele>412.7</ele>
        <time>2020-05-10T13:06:47Z</time>
      </trkpt>
      <trkpt lat="48.77051" lon="7.32547">
        <ele>413.2</ele>
        <time>2020-05-10T13:06:49Z</time>
      </trkpt>
      <trkpt lat="48.77047" lon="7.3254">
        <ele>414.2</ele>
        <time>2020-05-10T13:06:51Z</time>
      </trkpt>
      <trkpt lat="48.77044" lon="7.32534">
        <ele>414.4</ele>
        <time>2020-05-10T13:06:53Z</time>
      </trkpt>
      <trkpt lat="48.77042" lon="7.32531">
        <ele>414.9</ele>
        <time>2020-05-10T13:06:54Z</time>
      </trkpt>
      <trkpt lat="48.7704" lon="7.32529">
        <ele>414.6</ele>
        <time>2020-05-10T13:06:55Z</time>
      </trkpt>
      <trkpt lat="48.77036" lon="7.32524">
        <ele>414.9</ele>
        <time>2020-05-10T13:06:57Z</time>
      </trkpt>
      <trkpt lat="48.77035" lon="7.32521">
        <ele>415.2</ele>
        <time>2020-05-10T13:06:58Z</time>
      </trkpt>
      <trkpt lat="48.77031" lon="7.32516">
        <ele>415.3</ele>
        <time>2020-05-10T13:07:00Z</time>
      </trkpt>
      <trkpt lat="48.7703" lon="7.32513">
        <ele>415.4</ele>
        <time>2020-05-10T13:07:01Z</time>
      </trkpt>
      <trkpt lat="48.77028" lon="7.32508">
        <ele>414.9</ele>
        <time>2020-05-10T13:07:03Z</time>
      </trkpt>
      <trkpt lat="48.77027" lon="7.32505">
        <ele>414.8</ele>
        <time>2020-05-10T13:07:04Z</time>
      </trkpt>
      <trkpt lat="48.77024" lon="7.325">
        <ele>414.7</ele>
        <time>2020-05-10T13:07:06Z</time>
      </trkpt>
      <trkpt lat="48.7702" lon="7.32496">
        <ele>414.5</ele>
        <time>2020-05-10T13:07:08Z</time>
      </trkpt>
      <trkpt lat="48.77018" lon="7.32494">
        <ele>414.7</ele>
        <time>2020-05-10T13:07:09Z</time>
      </trkpt>
      <trkpt lat="48.77013" lon="7.32486">
        <ele>414.4</ele>
        <time>2020-05-10T13:07:11Z</time>
      </trkpt>
      <trkpt lat="48.77011" lon="7.32482">
        <ele>413.9</ele>
        <time>2020-05-10T13:07:12Z</time>
      </trkpt>
      <trkpt lat="48.77008" lon="7.32476">
        <ele>413.8</ele>
        <time>2020-05-10T13:07:14Z</time>
      </trkpt>
      <trkpt lat="48.77006" lon="7.32473">
        <ele>413.8</ele>
        <time>2020-05-10T13:07:15Z</time>
      </trkpt>
      <trkpt lat="48.77002" lon="7.3247">
        <ele>414.1</ele>
        <time>2020-05-10T13:07:17Z</time>
      </trkpt>
      <trkpt lat="48.76999" lon="7.32466">
        <ele>414.1</ele>
        <time>2020-05-10T13:07:18Z</time>
      </trkpt>
      <trkpt lat="48.76998" lon="7.32465">
        <ele>414.1</ele>
        <time>2020-05-10T13:07:19Z</time>
      </trkpt>
      <trkpt lat="48.76995" lon="7.3246">
        <ele>414.1</ele>
        <time>2020-05-10T13:07:21Z</time>
      </trkpt>
      <trkpt lat="48.76992" lon="7.32458">
        <ele>414.2</ele>
        <time>2020-05-10T13:07:22Z</time>
      </trkpt>
      <trkpt lat="48.7699" lon="7.32454">
        <ele>414</ele>
        <time>2020-05-10T13:07:23Z</time>
      </trkpt>
      <trkpt lat="48.76988" lon="7.32447">
        <ele>413.5</ele>
        <time>2020-05-10T13:07:25Z</time>
      </trkpt>
      <trkpt lat="48.76988" lon="7.32442">
        <ele>413.1</ele>
        <time>2020-05-10T13:07:27Z</time>
      </trkpt>
      <trkpt lat="48.76987" lon="7.32434">
        <ele>412.5</ele>
        <time>2020-05-10T13:07:29Z</time>
      </trkpt>
      <trkpt lat="48.76985" lon="7.32429">
        <ele>412.3</ele>
        <time>2020-05-10T13:07:30Z</time>
      </trkpt>
      <trkpt lat="48.76983" lon="7.32424">
        <ele>412</ele>
        <time>2020-05-10T13:07:31Z</time>
      </trkpt>
      <trkpt lat="48.76979" lon="7.32419">
        <ele>411.9</ele>
        <time>2020-05-10T13:07:33Z</time>
      </trkpt>
      <trkpt lat="48.76975" lon="7.32415">
        <ele>411.8</ele>
        <time>2020-05-10T13:07:35Z</time>
      </trkpt>
      <trkpt lat="48.76971" lon="7.32413">
        <ele>411.9</ele>
        <time>2020-05-10T13:07:37Z</time>
      </trkpt>
      <trkpt lat="48.7697" lon="7.32412">
        <ele>411.8</ele>
        <time>2020-05-10T13:07:38Z</time>
      </trkpt>
      <trkpt lat="48.76968" lon="7.32411">
        <ele>411.9</ele>
        <time>2020-05-10T13:07:39Z</time>
      </trkpt>
      <trkpt lat="48.76963" lon="7.32407">
        <ele>411.8</ele>
        <time>2020-05-10T13:07:41Z</time>
      </trkpt>
      <trkpt lat="48.7696" lon="7.32405">
        <ele>411.8</ele>
        <time>2020-05-10T13:07:43Z</time>
      </trkpt>
      <trkpt lat="48.76955" lon="7.32402">
        <ele>411.7</ele>
        <time>2020-05-10T13:07:45Z</time>
      </trkpt>
      <trkpt lat="48.76951" lon="7.32398">
        <ele>411.8</ele>
        <time>2020-05-10T13:07:47Z</time>
      </trkpt>
      <trkpt lat="48.76948" lon="7.32395">
        <ele>411.7</ele>
        <time>2020-05-10T13:07:48Z</time>
      </trkpt>
      <trkpt lat="48.76947" lon="7.32394">
        <ele>411.7</ele>
        <time>2020-05-10T13:07:49Z</time>
      </trkpt>
      <trkpt lat="48.76944" lon="7.32392">
        <ele>411.6</ele>
        <time>2020-05-10T13:07:50Z</time>
      </trkpt>
      <trkpt lat="48.7694" lon="7.32388">
        <ele>411.5</ele>
        <time>2020-05-10T13:07:52Z</time>
      </trkpt>
      <trkpt lat="48.76936" lon="7.32384">
        <ele>411.5</ele>
        <time>2020-05-10T13:07:54Z</time>
      </trkpt>
      <trkpt lat="48.76933" lon="7.3238">
        <ele>411.5</ele>
        <time>2020-05-10T13:07:55Z</time>
      </trkpt>
      <trkpt lat="48.76933" lon="7.32379">
        <ele>411.4</ele>
        <time>2020-05-10T13:07:56Z</time>
      </trkpt>
      <trkpt lat="48.7693" lon="7.32373">
        <ele>411.3</ele>
        <time>2020-05-10T13:07:58Z</time>
      </trkpt>
      <trkpt lat="48.76926" lon="7.32368">
        <ele>411.1</ele>
        <time>2020-05-10T13:08:00Z</time>
      </trkpt>
      <trkpt lat="48.76923" lon="7.32363">
        <ele>411</ele>
        <time>2020-05-10T13:08:02Z</time>
      </trkpt>
      <trkpt lat="48.76918" lon="7.32356">
        <ele>410.7</ele>
        <time>2020-05-10T13:08:04Z</time>
      </trkpt>
      <trkpt lat="48.76914" lon="7.3235">
        <ele>410.5</ele>
        <time>2020-05-10T13:08:06Z</time>
      </trkpt>
      <trkpt lat="48.76913" lon="7.32348">
        <ele>410.4</ele>
        <time>2020-05-10T13:08:07Z</time>
      </trkpt>
      <trkpt lat="48.76908" lon="7.32343">
        <ele>410.2</ele>
        <time>2020-05-10T13:08:09Z</time>
      </trkpt>
      <trkpt lat="48.76904" lon="7.3234">
        <ele>410</ele>
        <time>2020-05-10T13:08:10Z</time>
      </trkpt>
      <trkpt lat="48.769" lon="7.32336">
        <ele>409.7</ele>
        <time>2020-05-10T13:08:12Z</time>
      </trkpt>
      <trkpt lat="48.76897" lon="7.3233">
        <ele>409.4</ele>
        <time>2020-05-10T13:08:14Z</time>
      </trkpt>
      <trkpt lat="48.76893" lon="7.32323">
        <ele>409.1</ele>
        <time>2020-05-10T13:08:16Z</time>
      </trkpt>
      <trkpt lat="48.76889" lon="7.32317">
        <ele>408.8</ele>
        <time>2020-05-10T13:08:18Z</time>
      </trkpt>
      <trkpt lat="48.76884" lon="7.32311">
        <ele>408.4</ele>
        <time>2020-05-10T13:08:20Z</time>
      </trkpt>
      <trkpt lat="48.76879" lon="7.32303">
        <ele>408.1</ele>
        <time>2020-05-10T13:08:22Z</time>
      </trkpt>
      <trkpt lat="48.76873" lon="7.32296">
        <ele>407.8</ele>
        <time>2020-05-10T13:08:24Z</time>
      </trkpt>
      <trkpt lat="48.76871" lon="7.32293">
        <ele>407.7</ele>
        <time>2020-05-10T13:08:25Z</time>
      </trkpt>
      <trkpt lat="48.76868" lon="7.32286">
        <ele>407.5</ele>
        <time>2020-05-10T13:08:27Z</time>
      </trkpt>
      <trkpt lat="48.76866" lon="7.32282">
        <ele>407.4</ele>
        <time>2020-05-10T13:08:28Z</time>
      </trkpt>
      <trkpt lat="48.76863" lon="7.32273">
        <ele>407.2</ele>
        <time>2020-05-10T13:08:30Z</time>
      </trkpt>
      <trkpt lat="48.76862" lon="7.32268">
        <ele>407</ele>
        <time>2020-05-10T13:08:31Z</time>
      </trkpt>
      <trkpt lat="48.76861" lon="7.32264">
        <ele>406.9</ele>
        <time>2020-05-10T13:08:32Z</time>
      </trkpt>
      <trkpt lat="48.7686" lon="7.3226">
        <ele>406.8</ele>
        <time>2020-05-10T13:08:33Z</time>
      </trkpt>
      <trkpt lat="48.76858" lon="7.32254">
        <ele>406.6</ele>
        <time>2020-05-10T13:08:34Z</time>
      </trkpt>
      <trkpt lat="48.76857" lon="7.32252">
        <ele>406.5</ele>
        <time>2020-05-10T13:08:35Z</time>
      </trkpt>
      <trkpt lat="48.76853" lon="7.32243">
        <ele>406.2</ele>
        <time>2020-05-10T13:08:37Z</time>
      </trkpt>
      <trkpt lat="48.76849" lon="7.32235">
        <ele>405.9</ele>
        <time>2020-05-10T13:08:39Z</time>
      </trkpt>
      <trkpt lat="48.76847" lon="7.32231">
        <ele>405.8</ele>
        <time>2020-05-10T13:08:40Z</time>
      </trkpt>
      <trkpt lat="48.76843" lon="7.32222">
        <ele>405.5</ele>
        <time>2020-05-10T13:08:42Z</time>
      </trkpt>
      <trkpt lat="48.7684" lon="7.32219">
        <ele>405.4</ele>
        <time>2020-05-10T13:08:43Z</time>
      </trkpt>
      <trkpt lat="48.76837" lon="7.32215">
        <ele>405.2</ele>
        <time>2020-05-10T13:08:44Z</time>
      </trkpt>
      <trkpt lat="48.76832" lon="7.32208">
        <ele>404.9</ele>
        <time>2020-05-10T13:08:46Z</time>
      </trkpt>
      <trkpt lat="48.76826" lon="7.32199">
        <ele>404.5</ele>
        <time>2020-05-10T13:08:48Z</time>
      </trkpt>
      <trkpt lat="48.7682" lon="7.3219">
        <ele>404</ele>
        <time>2020-05-10T13:08:50Z</time>
      </trkpt>
      <trkpt lat="48.76816" lon="7.32186">
        <ele>403.7</ele>
        <time>2020-05-10T13:08:51Z</time>
      </trkpt>
      <trkpt lat="48.7681" lon="7.32179">
        <ele>403.3</ele>
        <time>2020-05-10T13:08:53Z</time>
      </trkpt>
      <trkpt lat="48.76806" lon="7.32176">
        <ele>403.1</ele>
        <time>2020-05-10T13:08:54Z</time>
      </trkpt>
      <trkpt lat="48.76803" lon="7.32173">
        <ele>402.9</ele>
        <time>2020-05-10T13:08:55Z</time>
      </trkpt>
      <trkpt lat="48.76795" lon="7.32167">
        <ele>402.5</ele>
        <time>2020-05-10T13:08:57Z</time>
      </trkpt>
      <trkpt lat="48.76787" lon="7.32163">
        <ele>402.2</ele>
        <time>2020-05-10T13:08:59Z</time>
      </trkpt>
      <trkpt lat="48.76779" lon="7.32159">
        <ele>401.8</ele>
        <time>2020-05-10T13:09:01Z</time>
      </trkpt>
      <trkpt lat="48.76774" lon="7.32154">
        <ele>401.6</ele>
        <time>2020-05-10T13:09:03Z</time>
      </trkpt>
      <trkpt lat="48.76764" lon="7.32148">
        <ele>401</ele>
        <time>2020-05-10T13:09:05Z</time>
      </trkpt>
      <trkpt lat="48.76756" lon="7.3214">
        <ele>400.5</ele>
        <time>2020-05-10T13:09:07Z</time>
      </trkpt>
      <trkpt lat="48.76749" lon="7.32135">
        <ele>400</ele>
        <time>2020-05-10T13:09:09Z</time>
      </trkpt>
      <trkpt lat="48.76744" lon="7.32131">
        <ele>399.8</ele>
        <time>2020-05-10T13:09:10Z</time>
      </trkpt>
      <trkpt lat="48.76733" lon="7.32123">
        <ele>399.5</ele>
        <time>2020-05-10T13:09:12Z</time>
      </trkpt>
      <trkpt lat="48.76726" lon="7.32119">
        <ele>399.6</ele>
        <time>2020-05-10T13:09:13Z</time>
      </trkpt>
      <trkpt lat="48.76714" lon="7.32112">
        <ele>399.3</ele>
        <time>2020-05-10T13:09:15Z</time>
      </trkpt>
      <trkpt lat="48.76704" lon="7.32104">
        <ele>399.1</ele>
        <time>2020-05-10T13:09:17Z</time>
      </trkpt>
      <trkpt lat="48.76693" lon="7.32097">
        <ele>399</ele>
        <time>2020-05-10T13:09:19Z</time>
      </trkpt>
      <trkpt lat="48.76684" lon="7.3209">
        <ele>398.8</ele>
        <time>2020-05-10T13:09:21Z</time>
      </trkpt>
      <trkpt lat="48.76679" lon="7.32089">
        <ele>398.8</ele>
        <time>2020-05-10T13:09:22Z</time>
      </trkpt>
      <trkpt lat="48.76677" lon="7.32088">
        <ele>398.7</ele>
        <time>2020-05-10T13:09:23Z</time>
      </trkpt>
      <trkpt lat="48.76671" lon="7.32087">
        <ele>398.7</ele>
        <time>2020-05-10T13:09:24Z</time>
      </trkpt>
      <trkpt lat="48.76662" lon="7.3208">
        <ele>398.6</ele>
        <time>2020-05-10T13:09:26Z</time>
      </trkpt>
      <trkpt lat="48.76657" lon="7.32075">
        <ele>398.5</ele>
        <time>2020-05-10T13:09:27Z</time>
      </trkpt>
      <trkpt lat="48.76647" lon="7.32067">
        <ele>398.3</ele>
        <time>2020-05-10T13:09:29Z</time>
      </trkpt>
      <trkpt lat="48.76638" lon="7.32059">
        <ele>398.1</ele>
        <time>2020-05-10T13:09:31Z</time>
      </trkpt>
      <trkpt lat="48.76634" lon="7.32057">
        <ele>398.1</ele>
        <time>2020-05-10T13:09:32Z</time>
      </trkpt>
      <trkpt lat="48.76627" lon="7.32054">
        <ele>398</ele>
        <time>2020-05-10T13:09:34Z</time>
      </trkpt>
      <trkpt lat="48.76622" lon="7.32052">
        <ele>398</ele>
        <time>2020-05-10T13:09:35Z</time>
      </trkpt>
      <trkpt lat="48.76616" lon="7.32047">
        <ele>397.9</ele>
        <time>2020-05-10T13:09:37Z</time>
      </trkpt>
      <trkpt lat="48.76613" lon="7.32044">
        <ele>397.9</ele>
        <time>2020-05-10T13:09:38Z</time>
      </trkpt>
      <trkpt lat="48.76609" lon="7.32042">
        <ele>397.8</ele>
        <time>2020-05-10T13:09:39Z</time>
      </trkpt>
      <trkpt lat="48.76604" lon="7.32038">
        <ele>397.8</ele>
        <time>2020-05-10T13:09:41Z</time>
      </trkpt>
      <trkpt lat="48.76601" lon="7.32032">
        <ele>397.7</ele>
        <time>2020-05-10T13:09:43Z</time>
      </trkpt>
      <trkpt lat="48.76595" lon="7.32028">
        <ele>397.6</ele>
        <time>2020-05-10T13:09:45Z</time>
      </trkpt>
      <trkpt lat="48.76587" lon="7.32026">
        <ele>397.6</ele>
        <time>2020-05-10T13:09:47Z</time>
      </trkpt>
      <trkpt lat="48.76579" lon="7.32027">
        <ele>397.5</ele>
        <time>2020-05-10T13:09:49Z</time>
      </trkpt>
      <trkpt lat="48.76569" lon="7.32026">
        <ele>397.4</ele>
        <time>2020-05-10T13:09:51Z</time>
      </trkpt>
      <trkpt lat="48.76564" lon="7.32028">
        <ele>397.4</ele>
        <time>2020-05-10T13:09:52Z</time>
      </trkpt>
      <trkpt lat="48.76555" lon="7.3203">
        <ele>397.3</ele>
        <time>2020-05-10T13:09:54Z</time>
      </trkpt>
      <trkpt lat="48.76548" lon="7.32022">
        <ele>397.3</ele>
        <time>2020-05-10T13:09:56Z</time>
      </trkpt>
      <trkpt lat="48.76546" lon="7.32016">
        <ele>395.9</ele>
        <time>2020-05-10T13:09:57Z</time>
      </trkpt>
      <trkpt lat="48.76544" lon="7.31997">
        <ele>392.9</ele>
        <time>2020-05-10T13:09:59Z</time>
      </trkpt>
      <trkpt lat="48.76545" lon="7.31985">
        <ele>391</ele>
        <time>2020-05-10T13:10:00Z</time>
      </trkpt>
      <trkpt lat="48.76543" lon="7.31973">
        <ele>390.8</ele>
        <time>2020-05-10T13:10:01Z</time>
      </trkpt>
      <trkpt lat="48.76536" lon="7.31958">
        <ele>391.3</ele>
        <time>2020-05-10T13:10:02Z</time>
      </trkpt>
      <trkpt lat="48.76529" lon="7.31945">
        <ele>391.9</ele>
        <time>2020-05-10T13:10:04Z</time>
      </trkpt>
      <trkpt lat="48.76519" lon="7.31932">
        <ele>392.9</ele>
        <time>2020-05-10T13:10:06Z</time>
      </trkpt>
      <trkpt lat="48.76511" lon="7.31917">
        <ele>393.8</ele>
        <time>2020-05-10T13:10:08Z</time>
      </trkpt>
      <trkpt lat="48.76507" lon="7.3191">
        <ele>394.3</ele>
        <time>2020-05-10T13:10:09Z</time>
      </trkpt>
      <trkpt lat="48.765" lon="7.31899">
        <ele>395.2</ele>
        <time>2020-05-10T13:10:11Z</time>
      </trkpt>
      <trkpt lat="48.76496" lon="7.31891">
        <ele>395.6</ele>
        <time>2020-05-10T13:10:12Z</time>
      </trkpt>
      <trkpt lat="48.76489" lon="7.31874">
        <ele>396.4</ele>
        <time>2020-05-10T13:10:14Z</time>
      </trkpt>
      <trkpt lat="48.76485" lon="7.31867">
        <ele>396.6</ele>
        <time>2020-05-10T13:10:15Z</time>
      </trkpt>
      <trkpt lat="48.76478" lon="7.31854">
        <ele>396.8</ele>
        <time>2020-05-10T13:10:17Z</time>
      </trkpt>
      <trkpt lat="48.76473" lon="7.31849">
        <ele>396.8</ele>
        <time>2020-05-10T13:10:18Z</time>
      </trkpt>
      <trkpt lat="48.76463" lon="7.31842">
        <ele>397.2</ele>
        <time>2020-05-10T13:10:20Z</time>
      </trkpt>
      <trkpt lat="48.76459" lon="7.31838">
        <ele>397.3</ele>
        <time>2020-05-10T13:10:21Z</time>
      </trkpt>
      <trkpt lat="48.7645" lon="7.31829">
        <ele>397.7</ele>
        <time>2020-05-10T13:10:23Z</time>
      </trkpt>
      <trkpt lat="48.76446" lon="7.31823">
        <ele>397.8</ele>
        <time>2020-05-10T13:10:24Z</time>
      </trkpt>
      <trkpt lat="48.76443" lon="7.31818">
        <ele>397.9</ele>
        <time>2020-05-10T13:10:25Z</time>
      </trkpt>
      <trkpt lat="48.76435" lon="7.31811">
        <ele>398.1</ele>
        <time>2020-05-10T13:10:27Z</time>
      </trkpt>
      <trkpt lat="48.76428" lon="7.31802">
        <ele>398.3</ele>
        <time>2020-05-10T13:10:29Z</time>
      </trkpt>
      <trkpt lat="48.76425" lon="7.31797">
        <ele>398.3</ele>
        <time>2020-05-10T13:10:30Z</time>
      </trkpt>
      <trkpt lat="48.76418" lon="7.31789">
        <ele>398.4</ele>
        <time>2020-05-10T13:10:32Z</time>
      </trkpt>
      <trkpt lat="48.76415" lon="7.31784">
        <ele>398.5</ele>
        <time>2020-05-10T13:10:33Z</time>
      </trkpt>
      <trkpt lat="48.76412" lon="7.3178">
        <ele>398.6</ele>
        <time>2020-05-10T13:10:34Z</time>
      </trkpt>
      <trkpt lat="48.76406" lon="7.3177">
        <ele>398.7</ele>
        <time>2020-05-10T13:10:36Z</time>
      </trkpt>
      <trkpt lat="48.76402" lon="7.31765">
        <ele>398.8</ele>
        <time>2020-05-10T13:10:37Z</time>
      </trkpt>
      <trkpt lat="48.76393" lon="7.31757">
        <ele>399</ele>
        <time>2020-05-10T13:10:39Z</time>
      </trkpt>
      <trkpt lat="48.76385" lon="7.31749">
        <ele>399.2</ele>
        <time>2020-05-10T13:10:41Z</time>
      </trkpt>
      <trkpt lat="48.76381" lon="7.31744">
        <ele>399.4</ele>
        <time>2020-05-10T13:10:42Z</time>
      </trkpt>
      <trkpt lat="48.76375" lon="7.31735">
        <ele>399.6</ele>
        <time>2020-05-10T13:10:44Z</time>
      </trkpt>
      <trkpt lat="48.76372" lon="7.31731">
        <ele>399.8</ele>
        <time>2020-05-10T13:10:45Z</time>
      </trkpt>
      <trkpt lat="48.76365" lon="7.31724">
        <ele>400.1</ele>
        <time>2020-05-10T13:10:47Z</time>
      </trkpt>
      <trkpt lat="48.76361" lon="7.31719">
        <ele>400.3</ele>
        <time>2020-05-10T13:10:48Z</time>
      </trkpt>
      <trkpt lat="48.76359" lon="7.31715">
        <ele>400.4</ele>
        <time>2020-05-10T13:10:49Z</time>
      </trkpt>
      <trkpt lat="48.7635" lon="7.31713">
        <ele>400.9</ele>
        <time>2020-05-10T13:10:51Z</time>
      </trkpt>
      <trkpt lat="48.76345" lon="7.31711">
        <ele>401.1</ele>
        <time>2020-05-10T13:10:52Z</time>
      </trkpt>
      <trkpt lat="48.76341" lon="7.31711">
        <ele>401.3</ele>
        <time>2020-05-10T13:10:53Z</time>
      </trkpt>
      <trkpt lat="48.76334" lon="7.31708">
        <ele>401.6</ele>
        <time>2020-05-10T13:10:55Z</time>
      </trkpt>
      <trkpt lat="48.76331" lon="7.31699">
        <ele>401.9</ele>
        <time>2020-05-10T13:10:57Z</time>
      </trkpt>
      <trkpt lat="48.76327" lon="7.31695">
        <ele>402.1</ele>
        <time>2020-05-10T13:10:58Z</time>
      </trkpt>
      <trkpt lat="48.76323" lon="7.31691">
        <ele>402.3</ele>
        <time>2020-05-10T13:10:59Z</time>
      </trkpt>
      <trkpt lat="48.76317" lon="7.31685">
        <ele>402.6</ele>
        <time>2020-05-10T13:11:01Z</time>
      </trkpt>
      <trkpt lat="48.76313" lon="7.31682">
        <ele>402.8</ele>
        <time>2020-05-10T13:11:02Z</time>
      </trkpt>
      <trkpt lat="48.76303" lon="7.31679">
        <ele>403.1</ele>
        <time>2020-05-10T13:11:04Z</time>
      </trkpt>
      <trkpt lat="48.76294" lon="7.31675">
        <ele>403.4</ele>
        <time>2020-05-10T13:11:06Z</time>
      </trkpt>
      <trkpt lat="48.76285" lon="7.31672">
        <ele>403.7</ele>
        <time>2020-05-10T13:11:08Z</time>
      </trkpt>
      <trkpt lat="48.76281" lon="7.31669">
        <ele>403.8</ele>
        <time>2020-05-10T13:11:09Z</time>
      </trkpt>
      <trkpt lat="48.76272" lon="7.31665">
        <ele>404.1</ele>
        <time>2020-05-10T13:11:11Z</time>
      </trkpt>
      <trkpt lat="48.76267" lon="7.31663">
        <ele>404.2</ele>
        <time>2020-05-10T13:11:12Z</time>
      </trkpt>
      <trkpt lat="48.76257" lon="7.3166">
        <ele>404.5</ele>
        <time>2020-05-10T13:11:14Z</time>
      </trkpt>
      <trkpt lat="48.76253" lon="7.31658">
        <ele>404.7</ele>
        <time>2020-05-10T13:11:15Z</time>
      </trkpt>
      <trkpt lat="48.76245" lon="7.31654">
        <ele>405</ele>
        <time>2020-05-10T13:11:17Z</time>
      </trkpt>
      <trkpt lat="48.7624" lon="7.31653">
        <ele>405.1</ele>
        <time>2020-05-10T13:11:18Z</time>
      </trkpt>
      <trkpt lat="48.76232" lon="7.31648">
        <ele>405.4</ele>
        <time>2020-05-10T13:11:20Z</time>
      </trkpt>
      <trkpt lat="48.76228" lon="7.31646">
        <ele>405.6</ele>
        <time>2020-05-10T13:11:21Z</time>
      </trkpt>
      <trkpt lat="48.76225" lon="7.31645">
        <ele>405.7</ele>
        <time>2020-05-10T13:11:22Z</time>
      </trkpt>
      <trkpt lat="48.76216" lon="7.31644">
        <ele>406.1</ele>
        <time>2020-05-10T13:11:24Z</time>
      </trkpt>
      <trkpt lat="48.76207" lon="7.31643">
        <ele>406.5</ele>
        <time>2020-05-10T13:11:26Z</time>
      </trkpt>
      <trkpt lat="48.76202" lon="7.31643">
        <ele>406.7</ele>
        <time>2020-05-10T13:11:27Z</time>
      </trkpt>
      <trkpt lat="48.76198" lon="7.31641">
        <ele>406.9</ele>
        <time>2020-05-10T13:11:28Z</time>
      </trkpt>
      <trkpt lat="48.76192" lon="7.31637">
        <ele>407.1</ele>
        <time>2020-05-10T13:11:30Z</time>
      </trkpt>
      <trkpt lat="48.76184" lon="7.31635">
        <ele>407.5</ele>
        <time>2020-05-10T13:11:32Z</time>
      </trkpt>
      <trkpt lat="48.7618" lon="7.31634">
        <ele>407.6</ele>
        <time>2020-05-10T13:11:33Z</time>
      </trkpt>
      <trkpt lat="48.76177" lon="7.31633">
        <ele>407.8</ele>
        <time>2020-05-10T13:11:34Z</time>
      </trkpt>
      <trkpt lat="48.76169" lon="7.3163">
        <ele>408.1</ele>
        <time>2020-05-10T13:11:36Z</time>
      </trkpt>
      <trkpt lat="48.76164" lon="7.31629">
        <ele>408.3</ele>
        <time>2020-05-10T13:11:37Z</time>
      </trkpt>
      <trkpt lat="48.76157" lon="7.31626">
        <ele>408.5</ele>
        <time>2020-05-10T13:11:39Z</time>
      </trkpt>
      <trkpt lat="48.76153" lon="7.31625">
        <ele>408.6</ele>
        <time>2020-05-10T13:11:40Z</time>
      </trkpt>
      <trkpt lat="48.7615" lon="7.31623">
        <ele>408.7</ele>
        <time>2020-05-10T13:11:41Z</time>
      </trkpt>
      <trkpt lat="48.76147" lon="7.31621">
        <ele>408.8</ele>
        <time>2020-05-10T13:11:42Z</time>
      </trkpt>
      <trkpt lat="48.7614" lon="7.31618">
        <ele>408.9</ele>
        <time>2020-05-10T13:11:44Z</time>
      </trkpt>
      <trkpt lat="48.76135" lon="7.31616">
        <ele>409</ele>
        <time>2020-05-10T13:11:45Z</time>
      </trkpt>
      <trkpt lat="48.76128" lon="7.31615">
        <ele>409.1</ele>
        <time>2020-05-10T13:11:47Z</time>
      </trkpt>
      <trkpt lat="48.76121" lon="7.3161">
        <ele>409.2</ele>
        <time>2020-05-10T13:11:49Z</time>
      </trkpt>
      <trkpt lat="48.76117" lon="7.3161">
        <ele>409.2</ele>
        <time>2020-05-10T13:11:50Z</time>
      </trkpt>
      <trkpt lat="48.76113" lon="7.31609">
        <ele>409.2</ele>
        <time>2020-05-10T13:11:51Z</time>
      </trkpt>
      <trkpt lat="48.76106" lon="7.31606">
        <ele>409.2</ele>
        <time>2020-05-10T13:11:53Z</time>
      </trkpt>
      <trkpt lat="48.76097" lon="7.316">
        <ele>409.2</ele>
        <time>2020-05-10T13:11:55Z</time>
      </trkpt>
      <trkpt lat="48.76092" lon="7.31598">
        <ele>409.2</ele>
        <time>2020-05-10T13:11:56Z</time>
      </trkpt>
      <trkpt lat="48.76079" lon="7.31599">
        <ele>409.1</ele>
        <time>2020-05-10T13:11:58Z</time>
      </trkpt>
      <trkpt lat="48.76074" lon="7.31598">
        <ele>409.1</ele>
        <time>2020-05-10T13:11:59Z</time>
      </trkpt>
      <trkpt lat="48.76065" lon="7.31593">
        <ele>409.1</ele>
        <time>2020-05-10T13:12:01Z</time>
      </trkpt>
      <trkpt lat="48.76061" lon="7.31589">
        <ele>409.1</ele>
        <time>2020-05-10T13:12:02Z</time>
      </trkpt>
      <trkpt lat="48.76053" lon="7.31583">
        <ele>409.1</ele>
        <time>2020-05-10T13:12:04Z</time>
      </trkpt>
      <trkpt lat="48.76048" lon="7.31579">
        <ele>409.2</ele>
        <time>2020-05-10T13:12:05Z</time>
      </trkpt>
      <trkpt lat="48.7604" lon="7.31569">
        <ele>409.4</ele>
        <time>2020-05-10T13:12:07Z</time>
      </trkpt>
      <trkpt lat="48.76037" lon="7.31564">
        <ele>409.5</ele>
        <time>2020-05-10T13:12:08Z</time>
      </trkpt>
      <trkpt lat="48.76035" lon="7.3156">
        <ele>409.3</ele>
        <time>2020-05-10T13:12:09Z</time>
      </trkpt>
      <trkpt lat="48.76033" lon="7.31556">
        <ele>409.4</ele>
        <time>2020-05-10T13:12:10Z</time>
      </trkpt>
      <trkpt lat="48.76032" lon="7.31552">
        <ele>409.2</ele>
        <time>2020-05-10T13:12:11Z</time>
      </trkpt>
      <trkpt lat="48.76032" lon="7.31546">
        <ele>409.3</ele>
        <time>2020-05-10T13:12:13Z</time>
      </trkpt>
      <trkpt lat="48.76032" lon="7.31544">
        <ele>409.1</ele>
        <time>2020-05-10T13:12:15Z</time>
      </trkpt>
      <trkpt lat="48.76031" lon="7.31545">
        <ele>409.4</ele>
        <time>2020-05-10T13:12:17Z</time>
      </trkpt>
      <trkpt lat="48.76031" lon="7.31545">
        <ele>409.5</ele>
        <time>2020-05-10T13:12:18Z</time>
      </trkpt>
      <trkpt lat="48.7603" lon="7.31545">
        <ele>409.6</ele>
        <time>2020-05-10T13:12:20Z</time>
      </trkpt>
      <trkpt lat="48.7603" lon="7.31546">
        <ele>409.7</ele>
        <time>2020-05-10T13:12:21Z</time>
      </trkpt>
      <trkpt lat="48.7603" lon="7.31546">
        <ele>409.8</ele>
        <time>2020-05-10T13:12:22Z</time>
      </trkpt>
      <trkpt lat="48.7603" lon="7.31545">
        <ele>409.8</ele>
        <time>2020-05-10T13:12:24Z</time>
      </trkpt>
      <trkpt lat="48.7603" lon="7.31545">
        <ele>409.9</ele>
        <time>2020-05-10T13:12:25Z</time>
      </trkpt>
      <trkpt lat="48.76029" lon="7.31546">
        <ele>410</ele>
        <time>2020-05-10T13:12:27Z</time>
      </trkpt>
      <trkpt lat="48.76029" lon="7.31546">
        <ele>410.3</ele>
        <time>2020-05-10T13:12:28Z</time>
      </trkpt>
      <trkpt lat="48.76029" lon="7.31546">
        <ele>410.4</ele>
        <time>2020-05-10T13:12:30Z</time>
      </trkpt>
      <trkpt lat="48.76029" lon="7.31546">
        <ele>410.5</ele>
        <time>2020-05-10T13:12:31Z</time>
      </trkpt>
      <trkpt lat="48.76029" lon="7.31546">
        <ele>410.6</ele>
        <time>2020-05-10T13:12:32Z</time>
      </trkpt>
      <trkpt lat="48.76028" lon="7.31541">
        <ele>410.4</ele>
        <time>2020-05-10T13:13:30Z</time>
      </trkpt>
      <trkpt lat="48.76028" lon="7.31535">
        <ele>410.2</ele>
        <time>2020-05-10T13:13:32Z</time>
      </trkpt>
      <trkpt lat="48.76027" lon="7.31531">
        <ele>409.9</ele>
        <time>2020-05-10T13:13:33Z</time>
      </trkpt>
      <trkpt lat="48.76029" lon="7.31522">
        <ele>409</ele>
        <time>2020-05-10T13:13:35Z</time>
      </trkpt>
      <trkpt lat="48.7603" lon="7.31515">
        <ele>408.5</ele>
        <time>2020-05-10T13:13:37Z</time>
      </trkpt>
      <trkpt lat="48.76028" lon="7.31503">
        <ele>407.9</ele>
        <time>2020-05-10T13:13:39Z</time>
      </trkpt>
      <trkpt lat="48.76027" lon="7.31493">
        <ele>407.4</ele>
        <time>2020-05-10T13:13:41Z</time>
      </trkpt>
      <trkpt lat="48.76025" lon="7.31483">
        <ele>407</ele>
        <time>2020-05-10T13:13:43Z</time>
      </trkpt>
      <trkpt lat="48.76023" lon="7.31473">
        <ele>407</ele>
        <time>2020-05-10T13:13:44Z</time>
      </trkpt>
      <trkpt lat="48.76019" lon="7.31465">
        <ele>407.1</ele>
        <time>2020-05-10T13:13:46Z</time>
      </trkpt>
      <trkpt lat="48.76015" lon="7.31461">
        <ele>407.2</ele>
        <time>2020-05-10T13:13:48Z</time>
      </trkpt>
      <trkpt lat="48.76012" lon="7.31458">
        <ele>407.8</ele>
        <time>2020-05-10T13:13:50Z</time>
      </trkpt>
      <trkpt lat="48.76012" lon="7.31457">
        <ele>407.7</ele>
        <time>2020-05-10T13:13:52Z</time>
      </trkpt>
      <trkpt lat="48.76014" lon="7.31456">
        <ele>407.6</ele>
        <time>2020-05-10T13:13:54Z</time>
      </trkpt>
      <trkpt lat="48.76014" lon="7.31455">
        <ele>407.7</ele>
        <time>2020-05-10T13:13:55Z</time>
      </trkpt>
      <trkpt lat="48.76014" lon="7.31454">
        <ele>407.7</ele>
        <time>2020-05-10T13:13:56Z</time>
      </trkpt>
      <trkpt lat="48.76014" lon="7.31454">
        <ele>407.8</ele>
        <time>2020-05-10T13:13:58Z</time>
      </trkpt>
      <trkpt lat="48.76014" lon="7.31454">
        <ele>407.9</ele>
        <time>2020-05-10T13:13:59Z</time>
      </trkpt>
      <trkpt lat="48.76014" lon="7.31454">
        <ele>408</ele>
        <time>2020-05-10T13:14:01Z</time>
      </trkpt>
      <trkpt lat="48.76014" lon="7.31452">
        <ele>407.9</ele>
        <time>2020-05-10T13:14:02Z</time>
      </trkpt>
      <trkpt lat="48.76013" lon="7.31451">
        <ele>408</ele>
        <time>2020-05-10T13:14:03Z</time>
      </trkpt>
      <trkpt lat="48.76013" lon="7.31448">
        <ele>407.9</ele>
        <time>2020-05-10T13:14:04Z</time>
      </trkpt>
      <trkpt lat="48.76012" lon="7.31441">
        <ele>408.1</ele>
        <time>2020-05-10T13:14:06Z</time>
      </trkpt>
      <trkpt lat="48.76011" lon="7.31436">
        <ele>407.9</ele>
        <time>2020-05-10T13:14:07Z</time>
      </trkpt>
      <trkpt lat="48.76009" lon="7.3143">
        <ele>407.8</ele>
        <time>2020-05-10T13:14:08Z</time>
      </trkpt>
      <trkpt lat="48.76008" lon="7.31416">
        <ele>407.7</ele>
        <time>2020-05-10T13:14:10Z</time>
      </trkpt>
      <trkpt lat="48.76009" lon="7.31409">
        <ele>407.4</ele>
        <time>2020-05-10T13:14:11Z</time>
      </trkpt>
      <trkpt lat="48.76016" lon="7.31392">
        <ele>405.5</ele>
        <time>2020-05-10T13:14:13Z</time>
      </trkpt>
      <trkpt lat="48.76026" lon="7.31374">
        <ele>403.3</ele>
        <time>2020-05-10T13:14:15Z</time>
      </trkpt>
      <trkpt lat="48.76031" lon="7.31355">
        <ele>402</ele>
        <time>2020-05-10T13:14:17Z</time>
      </trkpt>
      <trkpt lat="48.76036" lon="7.31324">
        <ele>400.3</ele>
        <time>2020-05-10T13:14:19Z</time>
      </trkpt>
      <trkpt lat="48.76037" lon="7.31294">
        <ele>399</ele>
        <time>2020-05-10T13:14:21Z</time>
      </trkpt>
      <trkpt lat="48.76034" lon="7.31256">
        <ele>397</ele>
        <time>2020-05-10T13:14:23Z</time>
      </trkpt>
      <trkpt lat="48.76023" lon="7.31223">
        <ele>396.4</ele>
        <time>2020-05-10T13:14:25Z</time>
      </trkpt>
      <trkpt lat="48.76012" lon="7.31198">
        <ele>395.3</ele>
        <time>2020-05-10T13:14:27Z</time>
      </trkpt>
      <trkpt lat="48.76002" lon="7.31169">
        <ele>394.7</ele>
        <time>2020-05-10T13:14:29Z</time>
      </trkpt>
      <trkpt lat="48.75992" lon="7.31145">
        <ele>393.8</ele>
        <time>2020-05-10T13:14:31Z</time>
      </trkpt>
      <trkpt lat="48.75981" lon="7.31119">
        <ele>392.4</ele>
        <time>2020-05-10T13:14:33Z</time>
      </trkpt>
      <trkpt lat="48.75971" lon="7.31095">
        <ele>391.6</ele>
        <time>2020-05-10T13:14:35Z</time>
      </trkpt>
      <trkpt lat="48.75958" lon="7.31073">
        <ele>392</ele>
        <time>2020-05-10T13:14:37Z</time>
      </trkpt>
      <trkpt lat="48.75948" lon="7.3105">
        <ele>391.5</ele>
        <time>2020-05-10T13:14:39Z</time>
      </trkpt>
      <trkpt lat="48.75939" lon="7.31025">
        <ele>390.4</ele>
        <time>2020-05-10T13:14:41Z</time>
      </trkpt>
      <trkpt lat="48.75927" lon="7.31004">
        <ele>390.7</ele>
        <time>2020-05-10T13:14:43Z</time>
      </trkpt>
      <trkpt lat="48.75915" lon="7.30983">
        <ele>390.3</ele>
        <time>2020-05-10T13:14:45Z</time>
      </trkpt>
      <trkpt lat="48.75904" lon="7.30967">
        <ele>389.9</ele>
        <time>2020-05-10T13:14:47Z</time>
      </trkpt>
      <trkpt lat="48.759" lon="7.30958">
        <ele>389.5</ele>
        <time>2020-05-10T13:14:48Z</time>
      </trkpt>
      <trkpt lat="48.75894" lon="7.30949">
        <ele>389</ele>
        <time>2020-05-10T13:14:49Z</time>
      </trkpt>
      <trkpt lat="48.75883" lon="7.30931">
        <ele>387.8</ele>
        <time>2020-05-10T13:14:51Z</time>
      </trkpt>
      <trkpt lat="48.75872" lon="7.30915">
        <ele>386.9</ele>
        <time>2020-05-10T13:14:53Z</time>
      </trkpt>
      <trkpt lat="48.75863" lon="7.30901">
        <ele>386.3</ele>
        <time>2020-05-10T13:14:55Z</time>
      </trkpt>
      <trkpt lat="48.75851" lon="7.30886">
        <ele>385.3</ele>
        <time>2020-05-10T13:14:57Z</time>
      </trkpt>
      <trkpt lat="48.75837" lon="7.30865">
        <ele>383.5</ele>
        <time>2020-05-10T13:14:59Z</time>
      </trkpt>
      <trkpt lat="48.75825" lon="7.30842">
        <ele>382.3</ele>
        <time>2020-05-10T13:15:01Z</time>
      </trkpt>
      <trkpt lat="48.75813" lon="7.30824">
        <ele>380.9</ele>
        <time>2020-05-10T13:15:03Z</time>
      </trkpt>
      <trkpt lat="48.75801" lon="7.30806">
        <ele>379.4</ele>
        <time>2020-05-10T13:15:05Z</time>
      </trkpt>
      <trkpt lat="48.75796" lon="7.30794">
        <ele>378.8</ele>
        <time>2020-05-10T13:15:06Z</time>
      </trkpt>
      <trkpt lat="48.75789" lon="7.30785">
        <ele>378.4</ele>
        <time>2020-05-10T13:15:07Z</time>
      </trkpt>
      <trkpt lat="48.75777" lon="7.30771">
        <ele>377.9</ele>
        <time>2020-05-10T13:15:09Z</time>
      </trkpt>
      <trkpt lat="48.75766" lon="7.30755">
        <ele>377.3</ele>
        <time>2020-05-10T13:15:11Z</time>
      </trkpt>
      <trkpt lat="48.75757" lon="7.30735">
        <ele>376.3</ele>
        <time>2020-05-10T13:15:13Z</time>
      </trkpt>
      <trkpt lat="48.75744" lon="7.30716">
        <ele>375.1</ele>
        <time>2020-05-10T13:15:15Z</time>
      </trkpt>
      <trkpt lat="48.7573" lon="7.30699">
        <ele>374.2</ele>
        <time>2020-05-10T13:15:17Z</time>
      </trkpt>
      <trkpt lat="48.75717" lon="7.30683">
        <ele>373.9</ele>
        <time>2020-05-10T13:15:19Z</time>
      </trkpt>
      <trkpt lat="48.75711" lon="7.30676">
        <ele>373.9</ele>
        <time>2020-05-10T13:15:20Z</time>
      </trkpt>
      <trkpt lat="48.75705" lon="7.30671">
        <ele>374.1</ele>
        <time>2020-05-10T13:15:21Z</time>
      </trkpt>
      <trkpt lat="48.75692" lon="7.30656">
        <ele>374.4</ele>
        <time>2020-05-10T13:15:23Z</time>
      </trkpt>
      <trkpt lat="48.75686" lon="7.30651">
        <ele>374.6</ele>
        <time>2020-05-10T13:15:24Z</time>
      </trkpt>
      <trkpt lat="48.75681" lon="7.30646">
        <ele>374.8</ele>
        <time>2020-05-10T13:15:25Z</time>
      </trkpt>
      <trkpt lat="48.75677" lon="7.30641">
        <ele>375.1</ele>
        <time>2020-05-10T13:15:26Z</time>
      </trkpt>
      <trkpt lat="48.75666" lon="7.30631">
        <ele>375.5</ele>
        <time>2020-05-10T13:15:28Z</time>
      </trkpt>
      <trkpt lat="48.75663" lon="7.30625">
        <ele>375.6</ele>
        <time>2020-05-10T13:15:29Z</time>
      </trkpt>
      <trkpt lat="48.75654" lon="7.30613">
        <ele>375.8</ele>
        <time>2020-05-10T13:15:31Z</time>
      </trkpt>
      <trkpt lat="48.75643" lon="7.30601">
        <ele>376</ele>
        <time>2020-05-10T13:15:33Z</time>
      </trkpt>
      <trkpt lat="48.75635" lon="7.30589">
        <ele>376.2</ele>
        <time>2020-05-10T13:15:35Z</time>
      </trkpt>
      <trkpt lat="48.75624" lon="7.30575">
        <ele>376.2</ele>
        <time>2020-05-10T13:15:37Z</time>
      </trkpt>
      <trkpt lat="48.75613" lon="7.30564">
        <ele>376.5</ele>
        <time>2020-05-10T13:15:39Z</time>
      </trkpt>
      <trkpt lat="48.75606" lon="7.30553">
        <ele>376.7</ele>
        <time>2020-05-10T13:15:41Z</time>
      </trkpt>
      <trkpt lat="48.75602" lon="7.3054">
        <ele>377</ele>
        <time>2020-05-10T13:15:43Z</time>
      </trkpt>
      <trkpt lat="48.75594" lon="7.30528">
        <ele>377.4</ele>
        <time>2020-05-10T13:15:45Z</time>
      </trkpt>
      <trkpt lat="48.75588" lon="7.30518">
        <ele>377.5</ele>
        <time>2020-05-10T13:15:47Z</time>
      </trkpt>
      <trkpt lat="48.75581" lon="7.3051">
        <ele>377.6</ele>
        <time>2020-05-10T13:15:49Z</time>
      </trkpt>
      <trkpt lat="48.75577" lon="7.30507">
        <ele>377.6</ele>
        <time>2020-05-10T13:15:50Z</time>
      </trkpt>
      <trkpt lat="48.75568" lon="7.30499">
        <ele>377.7</ele>
        <time>2020-05-10T13:15:52Z</time>
      </trkpt>
      <trkpt lat="48.7556" lon="7.3049">
        <ele>377.5</ele>
        <time>2020-05-10T13:15:54Z</time>
      </trkpt>
      <trkpt lat="48.75553" lon="7.30481">
        <ele>377.3</ele>
        <time>2020-05-10T13:15:56Z</time>
      </trkpt>
      <trkpt lat="48.75551" lon="7.30474">
        <ele>377.2</ele>
        <time>2020-05-10T13:15:57Z</time>
      </trkpt>
      <trkpt lat="48.75549" lon="7.30469">
        <ele>377.2</ele>
        <time>2020-05-10T13:15:58Z</time>
      </trkpt>
      <trkpt lat="48.75548" lon="7.30461">
        <ele>377.2</ele>
        <time>2020-05-10T13:15:59Z</time>
      </trkpt>
      <trkpt lat="48.75545" lon="7.30452">
        <ele>377.2</ele>
        <time>2020-05-10T13:16:00Z</time>
      </trkpt>
      <trkpt lat="48.75537" lon="7.30442">
        <ele>377.3</ele>
        <time>2020-05-10T13:16:02Z</time>
      </trkpt>
      <trkpt lat="48.75533" lon="7.30436">
        <ele>377.3</ele>
        <time>2020-05-10T13:16:03Z</time>
      </trkpt>
      <trkpt lat="48.75528" lon="7.30424">
        <ele>377.2</ele>
        <time>2020-05-10T13:16:05Z</time>
      </trkpt>
      <trkpt lat="48.75524" lon="7.30412">
        <ele>377.1</ele>
        <time>2020-05-10T13:16:07Z</time>
      </trkpt>
      <trkpt lat="48.75521" lon="7.30407">
        <ele>377</ele>
        <time>2020-05-10T13:16:08Z</time>
      </trkpt>
      <trkpt lat="48.75516" lon="7.30399">
        <ele>376.9</ele>
        <time>2020-05-10T13:16:09Z</time>
      </trkpt>
      <trkpt lat="48.75512" lon="7.30384">
        <ele>376.6</ele>
        <time>2020-05-10T13:16:11Z</time>
      </trkpt>
      <trkpt lat="48.75508" lon="7.3037">
        <ele>376.2</ele>
        <time>2020-05-10T13:16:13Z</time>
      </trkpt>
      <trkpt lat="48.75505" lon="7.30364">
        <ele>376.1</ele>
        <time>2020-05-10T13:16:14Z</time>
      </trkpt>
      <trkpt lat="48.75502" lon="7.30357">
        <ele>375.9</ele>
        <time>2020-05-10T13:16:15Z</time>
      </trkpt>
      <trkpt lat="48.75496" lon="7.30341">
        <ele>375.7</ele>
        <time>2020-05-10T13:16:17Z</time>
      </trkpt>
      <trkpt lat="48.75494" lon="7.30334">
        <ele>375.6</ele>
        <time>2020-05-10T13:16:18Z</time>
      </trkpt>
      <trkpt lat="48.75492" lon="7.30327">
        <ele>375.4</ele>
        <time>2020-05-10T13:16:19Z</time>
      </trkpt>
      <trkpt lat="48.75488" lon="7.30316">
        <ele>375.3</ele>
        <time>2020-05-10T13:16:21Z</time>
      </trkpt>
      <trkpt lat="48.75483" lon="7.30297">
        <ele>374.9</ele>
        <time>2020-05-10T13:16:23Z</time>
      </trkpt>
      <trkpt lat="48.75481" lon="7.3029">
        <ele>374.9</ele>
        <time>2020-05-10T13:16:24Z</time>
      </trkpt>
      <trkpt lat="48.75477" lon="7.30283">
        <ele>374.8</ele>
        <time>2020-05-10T13:16:25Z</time>
      </trkpt>
      <trkpt lat="48.75472" lon="7.30271">
        <ele>374.8</ele>
        <time>2020-05-10T13:16:27Z</time>
      </trkpt>
      <trkpt lat="48.75467" lon="7.30256">
        <ele>374.8</ele>
        <time>2020-05-10T13:16:28Z</time>
      </trkpt>
      <trkpt lat="48.7546" lon="7.30236">
        <ele>374.8</ele>
        <time>2020-05-10T13:16:30Z</time>
      </trkpt>
      <trkpt lat="48.75457" lon="7.30227">
        <ele>374.8</ele>
        <time>2020-05-10T13:16:31Z</time>
      </trkpt>
      <trkpt lat="48.75452" lon="7.30213">
        <ele>374.9</ele>
        <time>2020-05-10T13:16:33Z</time>
      </trkpt>
      <trkpt lat="48.75449" lon="7.30206">
        <ele>374.9</ele>
        <time>2020-05-10T13:16:34Z</time>
      </trkpt>
      <trkpt lat="48.75445" lon="7.30199">
        <ele>374.9</ele>
        <time>2020-05-10T13:16:35Z</time>
      </trkpt>
      <trkpt lat="48.7544" lon="7.30189">
        <ele>375.1</ele>
        <time>2020-05-10T13:16:37Z</time>
      </trkpt>
      <trkpt lat="48.75436" lon="7.30173">
        <ele>375.3</ele>
        <time>2020-05-10T13:16:39Z</time>
      </trkpt>
      <trkpt lat="48.75432" lon="7.30157">
        <ele>375.3</ele>
        <time>2020-05-10T13:16:41Z</time>
      </trkpt>
      <trkpt lat="48.75424" lon="7.30141">
        <ele>375.3</ele>
        <time>2020-05-10T13:16:43Z</time>
      </trkpt>
      <trkpt lat="48.75415" lon="7.30126">
        <ele>375.1</ele>
        <time>2020-05-10T13:16:45Z</time>
      </trkpt>
      <trkpt lat="48.75412" lon="7.30121">
        <ele>375</ele>
        <time>2020-05-10T13:16:46Z</time>
      </trkpt>
      <trkpt lat="48.75407" lon="7.30116">
        <ele>374.9</ele>
        <time>2020-05-10T13:16:47Z</time>
      </trkpt>
      <trkpt lat="48.75396" lon="7.30105">
        <ele>374.6</ele>
        <time>2020-05-10T13:16:49Z</time>
      </trkpt>
      <trkpt lat="48.75388" lon="7.30096">
        <ele>374.4</ele>
        <time>2020-05-10T13:16:51Z</time>
      </trkpt>
      <trkpt lat="48.75379" lon="7.30088">
        <ele>374.2</ele>
        <time>2020-05-10T13:16:53Z</time>
      </trkpt>
      <trkpt lat="48.75375" lon="7.30083">
        <ele>374.2</ele>
        <time>2020-05-10T13:16:54Z</time>
      </trkpt>
      <trkpt lat="48.75371" lon="7.30078">
        <ele>374.3</ele>
        <time>2020-05-10T13:16:55Z</time>
      </trkpt>
      <trkpt lat="48.75363" lon="7.30064">
        <ele>374.4</ele>
        <time>2020-05-10T13:16:57Z</time>
      </trkpt>
      <trkpt lat="48.7536" lon="7.30056">
        <ele>374.4</ele>
        <time>2020-05-10T13:16:58Z</time>
      </trkpt>
      <trkpt lat="48.75354" lon="7.30044">
        <ele>374.3</ele>
        <time>2020-05-10T13:17:00Z</time>
      </trkpt>
      <trkpt lat="48.75349" lon="7.3003">
        <ele>374.2</ele>
        <time>2020-05-10T13:17:02Z</time>
      </trkpt>
      <trkpt lat="48.75347" lon="7.30021">
        <ele>374.1</ele>
        <time>2020-05-10T13:17:03Z</time>
      </trkpt>
      <trkpt lat="48.75341" lon="7.30001">
        <ele>373.8</ele>
        <time>2020-05-10T13:17:05Z</time>
      </trkpt>
      <trkpt lat="48.75333" lon="7.29984">
        <ele>373.5</ele>
        <time>2020-05-10T13:17:07Z</time>
      </trkpt>
      <trkpt lat="48.75326" lon="7.2997">
        <ele>373.3</ele>
        <time>2020-05-10T13:17:08Z</time>
      </trkpt>
      <trkpt lat="48.75322" lon="7.29957">
        <ele>373.2</ele>
        <time>2020-05-10T13:17:10Z</time>
      </trkpt>
      <trkpt lat="48.75315" lon="7.29944">
        <ele>373</ele>
        <time>2020-05-10T13:17:12Z</time>
      </trkpt>
      <trkpt lat="48.75312" lon="7.29931">
        <ele>372.8</ele>
        <time>2020-05-10T13:17:14Z</time>
      </trkpt>
      <trkpt lat="48.75304" lon="7.29911">
        <ele>372.7</ele>
        <time>2020-05-10T13:17:16Z</time>
      </trkpt>
      <trkpt lat="48.75299" lon="7.299">
        <ele>372.6</ele>
        <time>2020-05-10T13:17:17Z</time>
      </trkpt>
      <trkpt lat="48.7529" lon="7.29882">
        <ele>372.4</ele>
        <time>2020-05-10T13:17:19Z</time>
      </trkpt>
      <trkpt lat="48.75286" lon="7.29873">
        <ele>372.3</ele>
        <time>2020-05-10T13:17:20Z</time>
      </trkpt>
      <trkpt lat="48.75278" lon="7.29856">
        <ele>372.1</ele>
        <time>2020-05-10T13:17:22Z</time>
      </trkpt>
      <trkpt lat="48.75274" lon="7.29848">
        <ele>372</ele>
        <time>2020-05-10T13:17:23Z</time>
      </trkpt>
      <trkpt lat="48.75264" lon="7.29832">
        <ele>371.7</ele>
        <time>2020-05-10T13:17:25Z</time>
      </trkpt>
      <trkpt lat="48.7525" lon="7.29816">
        <ele>371</ele>
        <time>2020-05-10T13:17:27Z</time>
      </trkpt>
      <trkpt lat="48.75245" lon="7.29806">
        <ele>370.5</ele>
        <time>2020-05-10T13:17:28Z</time>
      </trkpt>
      <trkpt lat="48.75236" lon="7.29789">
        <ele>369.9</ele>
        <time>2020-05-10T13:17:30Z</time>
      </trkpt>
      <trkpt lat="48.75225" lon="7.2977">
        <ele>369.5</ele>
        <time>2020-05-10T13:17:32Z</time>
      </trkpt>
      <trkpt lat="48.75222" lon="7.29764">
        <ele>369.5</ele>
        <time>2020-05-10T13:17:33Z</time>
      </trkpt>
      <trkpt lat="48.75218" lon="7.29755">
        <ele>369.4</ele>
        <time>2020-05-10T13:17:34Z</time>
      </trkpt>
      <trkpt lat="48.75205" lon="7.2974">
        <ele>369.5</ele>
        <time>2020-05-10T13:17:36Z</time>
      </trkpt>
      <trkpt lat="48.75193" lon="7.29729">
        <ele>369.5</ele>
        <time>2020-05-10T13:17:38Z</time>
      </trkpt>
      <trkpt lat="48.75186" lon="7.29721">
        <ele>369.5</ele>
        <time>2020-05-10T13:17:39Z</time>
      </trkpt>
      <trkpt lat="48.75173" lon="7.29704">
        <ele>369.5</ele>
        <time>2020-05-10T13:17:41Z</time>
      </trkpt>
      <trkpt lat="48.75167" lon="7.29697">
        <ele>369.4</ele>
        <time>2020-05-10T13:17:42Z</time>
      </trkpt>
      <trkpt lat="48.75154" lon="7.29685">
        <ele>369.2</ele>
        <time>2020-05-10T13:17:44Z</time>
      </trkpt>
      <trkpt lat="48.75147" lon="7.2968">
        <ele>369.1</ele>
        <time>2020-05-10T13:17:45Z</time>
      </trkpt>
      <trkpt lat="48.75135" lon="7.2967">
        <ele>368.9</ele>
        <time>2020-05-10T13:17:47Z</time>
      </trkpt>
      <trkpt lat="48.75128" lon="7.29665">
        <ele>368.9</ele>
        <time>2020-05-10T13:17:48Z</time>
      </trkpt>
      <trkpt lat="48.75121" lon="7.29659">
        <ele>369</ele>
        <time>2020-05-10T13:17:49Z</time>
      </trkpt>
      <trkpt lat="48.75107" lon="7.29647">
        <ele>369.3</ele>
        <time>2020-05-10T13:17:51Z</time>
      </trkpt>
      <trkpt lat="48.751" lon="7.29642">
        <ele>369.4</ele>
        <time>2020-05-10T13:17:52Z</time>
      </trkpt>
      <trkpt lat="48.75088" lon="7.29632">
        <ele>369.4</ele>
        <time>2020-05-10T13:17:54Z</time>
      </trkpt>
      <trkpt lat="48.75082" lon="7.29625">
        <ele>369.3</ele>
        <time>2020-05-10T13:17:55Z</time>
      </trkpt>
      <trkpt lat="48.75069" lon="7.29617">
        <ele>369.1</ele>
        <time>2020-05-10T13:17:57Z</time>
      </trkpt>
      <trkpt lat="48.75057" lon="7.29607">
        <ele>368.8</ele>
        <time>2020-05-10T13:17:59Z</time>
      </trkpt>
      <trkpt lat="48.75049" lon="7.29604">
        <ele>368.8</ele>
        <time>2020-05-10T13:18:00Z</time>
      </trkpt>
      <trkpt lat="48.7504" lon="7.296">
        <ele>368.8</ele>
        <time>2020-05-10T13:18:01Z</time>
      </trkpt>
      <trkpt lat="48.75033" lon="7.29596">
        <ele>368.8</ele>
        <time>2020-05-10T13:18:02Z</time>
      </trkpt>
      <trkpt lat="48.75026" lon="7.29594">
        <ele>368.8</ele>
        <time>2020-05-10T13:18:03Z</time>
      </trkpt>
      <trkpt lat="48.75012" lon="7.29585">
        <ele>368.8</ele>
        <time>2020-05-10T13:18:05Z</time>
      </trkpt>
      <trkpt lat="48.75006" lon="7.29581">
        <ele>368.8</ele>
        <time>2020-05-10T13:18:06Z</time>
      </trkpt>
      <trkpt lat="48.74992" lon="7.29573">
        <ele>369.2</ele>
        <time>2020-05-10T13:18:08Z</time>
      </trkpt>
      <trkpt lat="48.74986" lon="7.2957">
        <ele>369.4</ele>
        <time>2020-05-10T13:18:09Z</time>
      </trkpt>
      <trkpt lat="48.74973" lon="7.29568">
        <ele>369.8</ele>
        <time>2020-05-10T13:18:11Z</time>
      </trkpt>
      <trkpt lat="48.74967" lon="7.2957">
        <ele>369.9</ele>
        <time>2020-05-10T13:18:12Z</time>
      </trkpt>
      <trkpt lat="48.74959" lon="7.29577">
        <ele>370.2</ele>
        <time>2020-05-10T13:18:14Z</time>
      </trkpt>
      <trkpt lat="48.74954" lon="7.29585">
        <ele>370.5</ele>
        <time>2020-05-10T13:18:16Z</time>
      </trkpt>
      <trkpt lat="48.74952" lon="7.2959">
        <ele>370.6</ele>
        <time>2020-05-10T13:18:17Z</time>
      </trkpt>
      <trkpt lat="48.74949" lon="7.29596">
        <ele>370.9</ele>
        <time>2020-05-10T13:18:18Z</time>
      </trkpt>
      <trkpt lat="48.74945" lon="7.29607">
        <ele>371.5</ele>
        <time>2020-05-10T13:18:20Z</time>
      </trkpt>
      <trkpt lat="48.74943" lon="7.2961">
        <ele>371.8</ele>
        <time>2020-05-10T13:18:21Z</time>
      </trkpt>
      <trkpt lat="48.7494" lon="7.29616">
        <ele>372.2</ele>
        <time>2020-05-10T13:18:23Z</time>
      </trkpt>
      <trkpt lat="48.74939" lon="7.29619">
        <ele>372.4</ele>
        <time>2020-05-10T13:18:24Z</time>
      </trkpt>
      <trkpt lat="48.74939" lon="7.2962">
        <ele>372.5</ele>
        <time>2020-05-10T13:18:25Z</time>
      </trkpt>
      <trkpt lat="48.74938" lon="7.29627">
        <ele>373</ele>
        <time>2020-05-10T13:18:27Z</time>
      </trkpt>
      <trkpt lat="48.74937" lon="7.2963">
        <ele>373.1</ele>
        <time>2020-05-10T13:18:28Z</time>
      </trkpt>
      <trkpt lat="48.74937" lon="7.29632">
        <ele>373.2</ele>
        <time>2020-05-10T13:18:29Z</time>
      </trkpt>
      <trkpt lat="48.74937" lon="7.29639">
        <ele>373.7</ele>
        <time>2020-05-10T13:18:31Z</time>
      </trkpt>
      <trkpt lat="48.74936" lon="7.29643">
        <ele>373.9</ele>
        <time>2020-05-10T13:18:32Z</time>
      </trkpt>
      <trkpt lat="48.74937" lon="7.29648">
        <ele>374.2</ele>
        <time>2020-05-10T13:18:33Z</time>
      </trkpt>
      <trkpt lat="48.74937" lon="7.29659">
        <ele>374.8</ele>
        <time>2020-05-10T13:18:35Z</time>
      </trkpt>
      <trkpt lat="48.74937" lon="7.29663">
        <ele>375.1</ele>
        <time>2020-05-10T13:18:36Z</time>
      </trkpt>
      <trkpt lat="48.74939" lon="7.29671">
        <ele>375.6</ele>
        <time>2020-05-10T13:18:38Z</time>
      </trkpt>
      <trkpt lat="48.7494" lon="7.29674">
        <ele>375.8</ele>
        <time>2020-05-10T13:18:39Z</time>
      </trkpt>
      <trkpt lat="48.74941" lon="7.29676">
        <ele>376</ele>
        <time>2020-05-10T13:18:41Z</time>
      </trkpt>
      <trkpt lat="48.74945" lon="7.29682">
        <ele>376.5</ele>
        <time>2020-05-10T13:18:43Z</time>
      </trkpt>
      <trkpt lat="48.7495" lon="7.29686">
        <ele>377</ele>
        <time>2020-05-10T13:18:45Z</time>
      </trkpt>
      <trkpt lat="48.74953" lon="7.29687">
        <ele>377.5</ele>
        <time>2020-05-10T13:18:46Z</time>
      </trkpt>
      <trkpt lat="48.74958" lon="7.29688">
        <ele>378.1</ele>
        <time>2020-05-10T13:18:48Z</time>
      </trkpt>
      <trkpt lat="48.74961" lon="7.29688">
        <ele>378.5</ele>
        <time>2020-05-10T13:18:49Z</time>
      </trkpt>
      <trkpt lat="48.74967" lon="7.29688">
        <ele>379.4</ele>
        <time>2020-05-10T13:18:51Z</time>
      </trkpt>
      <trkpt lat="48.74971" lon="7.29688">
        <ele>379.9</ele>
        <time>2020-05-10T13:18:53Z</time>
      </trkpt>
      <trkpt lat="48.74975" lon="7.29686">
        <ele>380.3</ele>
        <time>2020-05-10T13:18:55Z</time>
      </trkpt>
      <trkpt lat="48.74975" lon="7.29686">
        <ele>380.4</ele>
        <time>2020-05-10T13:18:56Z</time>
      </trkpt>
      <trkpt lat="48.74978" lon="7.29684">
        <ele>380.7</ele>
        <time>2020-05-10T13:18:58Z</time>
      </trkpt>
      <trkpt lat="48.74982" lon="7.29681">
        <ele>381.1</ele>
        <time>2020-05-10T13:19:00Z</time>
      </trkpt>
      <trkpt lat="48.74984" lon="7.29681">
        <ele>381.2</ele>
        <time>2020-05-10T13:19:01Z</time>
      </trkpt>
      <trkpt lat="48.74989" lon="7.29676">
        <ele>381.7</ele>
        <time>2020-05-10T13:19:03Z</time>
      </trkpt>
      <trkpt lat="48.74994" lon="7.29673">
        <ele>382</ele>
        <time>2020-05-10T13:19:05Z</time>
      </trkpt>
      <trkpt lat="48.74996" lon="7.29672">
        <ele>382.2</ele>
        <time>2020-05-10T13:19:06Z</time>
      </trkpt>
      <trkpt lat="48.75001" lon="7.29672">
        <ele>382.5</ele>
        <time>2020-05-10T13:19:08Z</time>
      </trkpt>
      <trkpt lat="48.75003" lon="7.29671">
        <ele>382.7</ele>
        <time>2020-05-10T13:19:09Z</time>
      </trkpt>
      <trkpt lat="48.75007" lon="7.2967">
        <ele>383</ele>
        <time>2020-05-10T13:19:11Z</time>
      </trkpt>
      <trkpt lat="48.75011" lon="7.29671">
        <ele>383.3</ele>
        <time>2020-05-10T13:19:13Z</time>
      </trkpt>
      <trkpt lat="48.75014" lon="7.29673">
        <ele>383.7</ele>
        <time>2020-05-10T13:19:15Z</time>
      </trkpt>
      <trkpt lat="48.75018" lon="7.29676">
        <ele>384.1</ele>
        <time>2020-05-10T13:19:17Z</time>
      </trkpt>
      <trkpt lat="48.75022" lon="7.2968">
        <ele>384.6</ele>
        <time>2020-05-10T13:19:19Z</time>
      </trkpt>
      <trkpt lat="48.75025" lon="7.2968">
        <ele>384.8</ele>
        <time>2020-05-10T13:19:20Z</time>
      </trkpt>
      <trkpt lat="48.75029" lon="7.29683">
        <ele>385.3</ele>
        <time>2020-05-10T13:19:22Z</time>
      </trkpt>
      <trkpt lat="48.75032" lon="7.29686">
        <ele>385.7</ele>
        <time>2020-05-10T13:19:24Z</time>
      </trkpt>
      <trkpt lat="48.75034" lon="7.29692">
        <ele>386.1</ele>
        <time>2020-05-10T13:19:26Z</time>
      </trkpt>
      <trkpt lat="48.75036" lon="7.29696">
        <ele>386.4</ele>
        <time>2020-05-10T13:19:27Z</time>
      </trkpt>
      <trkpt lat="48.75037" lon="7.29697">
        <ele>386.5</ele>
        <time>2020-05-10T13:19:28Z</time>
      </trkpt>
      <trkpt lat="48.75039" lon="7.29701">
        <ele>386.9</ele>
        <time>2020-05-10T13:19:29Z</time>
      </trkpt>
      <trkpt lat="48.7504" lon="7.29702">
        <ele>387</ele>
        <time>2020-05-10T13:19:30Z</time>
      </trkpt>
      <trkpt lat="48.75042" lon="7.29708">
        <ele>387.5</ele>
        <time>2020-05-10T13:19:32Z</time>
      </trkpt>
      <trkpt lat="48.75043" lon="7.2971">
        <ele>387.7</ele>
        <time>2020-05-10T13:19:33Z</time>
      </trkpt>
      <trkpt lat="48.75045" lon="7.29714">
        <ele>388.2</ele>
        <time>2020-05-10T13:19:35Z</time>
      </trkpt>
      <trkpt lat="48.75047" lon="7.29721">
        <ele>388.8</ele>
        <time>2020-05-10T13:19:37Z</time>
      </trkpt>
      <trkpt lat="48.75049" lon="7.29725">
        <ele>389.3</ele>
        <time>2020-05-10T13:19:39Z</time>
      </trkpt>
      <trkpt lat="48.7505" lon="7.29729">
        <ele>389.7</ele>
        <time>2020-05-10T13:19:40Z</time>
      </trkpt>
      <trkpt lat="48.7505" lon="7.29733">
        <ele>390</ele>
        <time>2020-05-10T13:19:41Z</time>
      </trkpt>
      <trkpt lat="48.7505" lon="7.29737">
        <ele>390.4</ele>
        <time>2020-05-10T13:19:43Z</time>
      </trkpt>
      <trkpt lat="48.7505" lon="7.29739">
        <ele>390.6</ele>
        <time>2020-05-10T13:19:44Z</time>
      </trkpt>
      <trkpt lat="48.75051" lon="7.29744">
        <ele>391</ele>
        <time>2020-05-10T13:19:46Z</time>
      </trkpt>
      <trkpt lat="48.75051" lon="7.2975">
        <ele>391.4</ele>
        <time>2020-05-10T13:19:48Z</time>
      </trkpt>
      <trkpt lat="48.75052" lon="7.29753">
        <ele>391.7</ele>
        <time>2020-05-10T13:19:49Z</time>
      </trkpt>
      <trkpt lat="48.75052" lon="7.29758">
        <ele>392.1</ele>
        <time>2020-05-10T13:19:51Z</time>
      </trkpt>
      <trkpt lat="48.75053" lon="7.29763">
        <ele>392.4</ele>
        <time>2020-05-10T13:19:52Z</time>
      </trkpt>
      <trkpt lat="48.75054" lon="7.29765">
        <ele>392.5</ele>
        <time>2020-05-10T13:19:53Z</time>
      </trkpt>
      <trkpt lat="48.75055" lon="7.2977">
        <ele>392.9</ele>
        <time>2020-05-10T13:19:55Z</time>
      </trkpt>
      <trkpt lat="48.75056" lon="7.29777">
        <ele>393.3</ele>
        <time>2020-05-10T13:19:57Z</time>
      </trkpt>
      <trkpt lat="48.75057" lon="7.29782">
        <ele>393.6</ele>
        <time>2020-05-10T13:19:58Z</time>
      </trkpt>
      <trkpt lat="48.75057" lon="7.29783">
        <ele>393.7</ele>
        <time>2020-05-10T13:19:59Z</time>
      </trkpt>
      <trkpt lat="48.75058" lon="7.2979">
        <ele>394.1</ele>
        <time>2020-05-10T13:20:01Z</time>
      </trkpt>
      <trkpt lat="48.75058" lon="7.29793">
        <ele>394.3</ele>
        <time>2020-05-10T13:20:02Z</time>
      </trkpt>
      <trkpt lat="48.75059" lon="7.29796">
        <ele>394.5</ele>
        <time>2020-05-10T13:20:04Z</time>
      </trkpt>
      <trkpt lat="48.75059" lon="7.29798">
        <ele>394.6</ele>
        <time>2020-05-10T13:20:05Z</time>
      </trkpt>
      <trkpt lat="48.7506" lon="7.29804">
        <ele>395</ele>
        <time>2020-05-10T13:20:07Z</time>
      </trkpt>
      <trkpt lat="48.75061" lon="7.29809">
        <ele>395.4</ele>
        <time>2020-05-10T13:20:09Z</time>
      </trkpt>
      <trkpt lat="48.75062" lon="7.29812">
        <ele>395.7</ele>
        <time>2020-05-10T13:20:10Z</time>
      </trkpt>
      <trkpt lat="48.75062" lon="7.29816">
        <ele>396</ele>
        <time>2020-05-10T13:20:12Z</time>
      </trkpt>
      <trkpt lat="48.75063" lon="7.29821">
        <ele>396.4</ele>
        <time>2020-05-10T13:20:13Z</time>
      </trkpt>
      <trkpt lat="48.75064" lon="7.29822">
        <ele>396.5</ele>
        <time>2020-05-10T13:20:14Z</time>
      </trkpt>
      <trkpt lat="48.75064" lon="7.29828">
        <ele>397</ele>
        <time>2020-05-10T13:20:16Z</time>
      </trkpt>
      <trkpt lat="48.75063" lon="7.29831">
        <ele>397.3</ele>
        <time>2020-05-10T13:20:17Z</time>
      </trkpt>
      <trkpt lat="48.75064" lon="7.29837">
        <ele>397.7</ele>
        <time>2020-05-10T13:20:19Z</time>
      </trkpt>
      <trkpt lat="48.75065" lon="7.29843">
        <ele>398.3</ele>
        <time>2020-05-10T13:20:21Z</time>
      </trkpt>
      <trkpt lat="48.75065" lon="7.29844">
        <ele>398.4</ele>
        <time>2020-05-10T13:20:22Z</time>
      </trkpt>
      <trkpt lat="48.75067" lon="7.29849">
        <ele>398.8</ele>
        <time>2020-05-10T13:20:24Z</time>
      </trkpt>
      <trkpt lat="48.75067" lon="7.29852">
        <ele>399.1</ele>
        <time>2020-05-10T13:20:25Z</time>
      </trkpt>
      <trkpt lat="48.75068" lon="7.29856">
        <ele>399.5</ele>
        <time>2020-05-10T13:20:27Z</time>
      </trkpt>
      <trkpt lat="48.75068" lon="7.29858">
        <ele>399.6</ele>
        <time>2020-05-10T13:20:28Z</time>
      </trkpt>
      <trkpt lat="48.75069" lon="7.29862">
        <ele>399.9</ele>
        <time>2020-05-10T13:20:30Z</time>
      </trkpt>
      <trkpt lat="48.75069" lon="7.29865">
        <ele>400.1</ele>
        <time>2020-05-10T13:20:31Z</time>
      </trkpt>
      <trkpt lat="48.75069" lon="7.29869">
        <ele>400.4</ele>
        <time>2020-05-10T13:20:33Z</time>
      </trkpt>
      <trkpt lat="48.75071" lon="7.29874">
        <ele>400.7</ele>
        <time>2020-05-10T13:20:35Z</time>
      </trkpt>
      <trkpt lat="48.75072" lon="7.29877">
        <ele>400.8</ele>
        <time>2020-05-10T13:20:36Z</time>
      </trkpt>
      <trkpt lat="48.75073" lon="7.29882">
        <ele>401.1</ele>
        <time>2020-05-10T13:20:38Z</time>
      </trkpt>
      <trkpt lat="48.75073" lon="7.29884">
        <ele>401.2</ele>
        <time>2020-05-10T13:20:39Z</time>
      </trkpt>
      <trkpt lat="48.75073" lon="7.29886">
        <ele>401.2</ele>
        <time>2020-05-10T13:20:40Z</time>
      </trkpt>
      <trkpt lat="48.75073" lon="7.29889">
        <ele>401.4</ele>
        <time>2020-05-10T13:20:42Z</time>
      </trkpt>
      <trkpt lat="48.75072" lon="7.29893">
        <ele>401.6</ele>
        <time>2020-05-10T13:20:44Z</time>
      </trkpt>
      <trkpt lat="48.75073" lon="7.29899">
        <ele>401.9</ele>
        <time>2020-05-10T13:20:46Z</time>
      </trkpt>
      <trkpt lat="48.75073" lon="7.29905">
        <ele>402.1</ele>
        <time>2020-05-10T13:20:48Z</time>
      </trkpt>
      <trkpt lat="48.75073" lon="7.2991">
        <ele>402.3</ele>
        <time>2020-05-10T13:20:49Z</time>
      </trkpt>
      <trkpt lat="48.75074" lon="7.29911">
        <ele>402.4</ele>
        <time>2020-05-10T13:20:50Z</time>
      </trkpt>
      <trkpt lat="48.75074" lon="7.29919">
        <ele>402.7</ele>
        <time>2020-05-10T13:20:52Z</time>
      </trkpt>
      <trkpt lat="48.75075" lon="7.29925">
        <ele>403</ele>
        <time>2020-05-10T13:20:54Z</time>
      </trkpt>
      <trkpt lat="48.75075" lon="7.29928">
        <ele>403.2</ele>
        <time>2020-05-10T13:20:55Z</time>
      </trkpt>
      <trkpt lat="48.75074" lon="7.29935">
        <ele>403.5</ele>
        <time>2020-05-10T13:20:57Z</time>
      </trkpt>
      <trkpt lat="48.75073" lon="7.2994">
        <ele>403.8</ele>
        <time>2020-05-10T13:20:58Z</time>
      </trkpt>
      <trkpt lat="48.75073" lon="7.29942">
        <ele>403.9</ele>
        <time>2020-05-10T13:20:59Z</time>
      </trkpt>
      <trkpt lat="48.75074" lon="7.29947">
        <ele>404.3</ele>
        <time>2020-05-10T13:21:01Z</time>
      </trkpt>
      <trkpt lat="48.75074" lon="7.2995">
        <ele>404.4</ele>
        <time>2020-05-10T13:21:02Z</time>
      </trkpt>
      <trkpt lat="48.75074" lon="7.29952">
        <ele>404.6</ele>
        <time>2020-05-10T13:21:03Z</time>
      </trkpt>
      <trkpt lat="48.75073" lon="7.29954">
        <ele>404.7</ele>
        <time>2020-05-10T13:21:04Z</time>
      </trkpt>
      <trkpt lat="48.75072" lon="7.29959">
        <ele>405.1</ele>
        <time>2020-05-10T13:21:06Z</time>
      </trkpt>
      <trkpt lat="48.75071" lon="7.29963">
        <ele>405.4</ele>
        <time>2020-05-10T13:21:07Z</time>
      </trkpt>
      <trkpt lat="48.75071" lon="7.29965">
        <ele>405.5</ele>
        <time>2020-05-10T13:21:08Z</time>
      </trkpt>
      <trkpt lat="48.75071" lon="7.29967">
        <ele>405.7</ele>
        <time>2020-05-10T13:21:09Z</time>
      </trkpt>
      <trkpt lat="48.75071" lon="7.29972">
        <ele>406</ele>
        <time>2020-05-10T13:21:11Z</time>
      </trkpt>
      <trkpt lat="48.75071" lon="7.29978">
        <ele>406.4</ele>
        <time>2020-05-10T13:21:13Z</time>
      </trkpt>
      <trkpt lat="48.75071" lon="7.29981">
        <ele>406.5</ele>
        <time>2020-05-10T13:21:14Z</time>
      </trkpt>
      <trkpt lat="48.75071" lon="7.29988">
        <ele>406.9</ele>
        <time>2020-05-10T13:21:16Z</time>
      </trkpt>
      <trkpt lat="48.75072" lon="7.2999">
        <ele>407.1</ele>
        <time>2020-05-10T13:21:17Z</time>
      </trkpt>
      <trkpt lat="48.75071" lon="7.29997">
        <ele>407.4</ele>
        <time>2020-05-10T13:21:19Z</time>
      </trkpt>
      <trkpt lat="48.75071" lon="7.3">
        <ele>407.5</ele>
        <time>2020-05-10T13:21:20Z</time>
      </trkpt>
      <trkpt lat="48.75071" lon="7.30006">
        <ele>407.9</ele>
        <time>2020-05-10T13:21:22Z</time>
      </trkpt>
      <trkpt lat="48.75072" lon="7.30012">
        <ele>408.2</ele>
        <time>2020-05-10T13:21:24Z</time>
      </trkpt>
      <trkpt lat="48.75072" lon="7.30014">
        <ele>408.4</ele>
        <time>2020-05-10T13:21:25Z</time>
      </trkpt>
      <trkpt lat="48.75072" lon="7.3002">
        <ele>408.8</ele>
        <time>2020-05-10T13:21:27Z</time>
      </trkpt>
      <trkpt lat="48.75072" lon="7.30022">
        <ele>408.9</ele>
        <time>2020-05-10T13:21:28Z</time>
      </trkpt>
      <trkpt lat="48.75071" lon="7.30025">
        <ele>409</ele>
        <time>2020-05-10T13:21:29Z</time>
      </trkpt>
      <trkpt lat="48.75071" lon="7.30027">
        <ele>409.1</ele>
        <time>2020-05-10T13:21:30Z</time>
      </trkpt>
      <trkpt lat="48.7507" lon="7.30034">
        <ele>409.5</ele>
        <time>2020-05-10T13:21:32Z</time>
      </trkpt>
      <trkpt lat="48.7507" lon="7.3004">
        <ele>409.7</ele>
        <time>2020-05-10T13:21:34Z</time>
      </trkpt>
      <trkpt lat="48.75069" lon="7.30042">
        <ele>409.8</ele>
        <time>2020-05-10T13:21:35Z</time>
      </trkpt>
      <trkpt lat="48.75068" lon="7.30048">
        <ele>410</ele>
        <time>2020-05-10T13:21:37Z</time>
      </trkpt>
      <trkpt lat="48.75067" lon="7.30053">
        <ele>410.1</ele>
        <time>2020-05-10T13:21:39Z</time>
      </trkpt>
      <trkpt lat="48.75067" lon="7.30055">
        <ele>410.2</ele>
        <time>2020-05-10T13:21:40Z</time>
      </trkpt>
      <trkpt lat="48.75067" lon="7.3006">
        <ele>410.3</ele>
        <time>2020-05-10T13:21:42Z</time>
      </trkpt>
      <trkpt lat="48.75066" lon="7.30065">
        <ele>410.5</ele>
        <time>2020-05-10T13:21:43Z</time>
      </trkpt>
      <trkpt lat="48.75065" lon="7.30069">
        <ele>410.7</ele>
        <time>2020-05-10T13:21:44Z</time>
      </trkpt>
      <trkpt lat="48.75065" lon="7.30071">
        <ele>410.9</ele>
        <time>2020-05-10T13:21:45Z</time>
      </trkpt>
      <trkpt lat="48.75064" lon="7.30078">
        <ele>411.3</ele>
        <time>2020-05-10T13:21:47Z</time>
      </trkpt>
      <trkpt lat="48.75064" lon="7.3008">
        <ele>411.5</ele>
        <time>2020-05-10T13:21:48Z</time>
      </trkpt>
      <trkpt lat="48.75064" lon="7.30082">
        <ele>411.7</ele>
        <time>2020-05-10T13:21:49Z</time>
      </trkpt>
      <trkpt lat="48.75064" lon="7.30087">
        <ele>412</ele>
        <time>2020-05-10T13:21:50Z</time>
      </trkpt>
      <trkpt lat="48.75064" lon="7.30091">
        <ele>412.3</ele>
        <time>2020-05-10T13:21:52Z</time>
      </trkpt>
      <trkpt lat="48.75062" lon="7.30097">
        <ele>412.8</ele>
        <time>2020-05-10T13:21:54Z</time>
      </trkpt>
      <trkpt lat="48.75061" lon="7.30102">
        <ele>413.2</ele>
        <time>2020-05-10T13:21:55Z</time>
      </trkpt>
      <trkpt lat="48.75061" lon="7.30103">
        <ele>413.3</ele>
        <time>2020-05-10T13:21:56Z</time>
      </trkpt>
      <trkpt lat="48.7506" lon="7.30109">
        <ele>413.7</ele>
        <time>2020-05-10T13:21:58Z</time>
      </trkpt>
      <trkpt lat="48.7506" lon="7.30113">
        <ele>414</ele>
        <time>2020-05-10T13:22:00Z</time>
      </trkpt>
      <trkpt lat="48.7506" lon="7.3012">
        <ele>414.5</ele>
        <time>2020-05-10T13:22:02Z</time>
      </trkpt>
      <trkpt lat="48.7506" lon="7.30125">
        <ele>414.8</ele>
        <time>2020-05-10T13:22:04Z</time>
      </trkpt>
      <trkpt lat="48.7506" lon="7.30131">
        <ele>415.1</ele>
        <time>2020-05-10T13:22:06Z</time>
      </trkpt>
      <trkpt lat="48.75061" lon="7.30137">
        <ele>415.3</ele>
        <time>2020-05-10T13:22:08Z</time>
      </trkpt>
      <trkpt lat="48.75061" lon="7.30139">
        <ele>415.4</ele>
        <time>2020-05-10T13:22:09Z</time>
      </trkpt>
      <trkpt lat="48.75061" lon="7.30141">
        <ele>415.5</ele>
        <time>2020-05-10T13:22:10Z</time>
      </trkpt>
      <trkpt lat="48.75062" lon="7.3015">
        <ele>415.7</ele>
        <time>2020-05-10T13:22:12Z</time>
      </trkpt>
      <trkpt lat="48.75061" lon="7.30155">
        <ele>415.8</ele>
        <time>2020-05-10T13:22:14Z</time>
      </trkpt>
      <trkpt lat="48.7506" lon="7.30157">
        <ele>415.8</ele>
        <time>2020-05-10T13:22:15Z</time>
      </trkpt>
      <trkpt lat="48.75058" lon="7.30162">
        <ele>416</ele>
        <time>2020-05-10T13:22:17Z</time>
      </trkpt>
      <trkpt lat="48.75058" lon="7.30169">
        <ele>416.2</ele>
        <time>2020-05-10T13:22:19Z</time>
      </trkpt>
      <trkpt lat="48.75058" lon="7.30171">
        <ele>416.3</ele>
        <time>2020-05-10T13:22:20Z</time>
      </trkpt>
      <trkpt lat="48.75058" lon="7.30173">
        <ele>416.3</ele>
        <time>2020-05-10T13:22:21Z</time>
      </trkpt>
      <trkpt lat="48.75058" lon="7.30178">
        <ele>416.5</ele>
        <time>2020-05-10T13:22:22Z</time>
      </trkpt>
      <trkpt lat="48.75058" lon="7.30183">
        <ele>416.6</ele>
        <time>2020-05-10T13:22:24Z</time>
      </trkpt>
      <trkpt lat="48.75057" lon="7.30185">
        <ele>416.7</ele>
        <time>2020-05-10T13:22:25Z</time>
      </trkpt>
      <trkpt lat="48.75056" lon="7.30187">
        <ele>416.8</ele>
        <time>2020-05-10T13:22:26Z</time>
      </trkpt>
      <trkpt lat="48.75056" lon="7.30191">
        <ele>416.9</ele>
        <time>2020-05-10T13:22:28Z</time>
      </trkpt>
      <trkpt lat="48.75056" lon="7.30195">
        <ele>417</ele>
        <time>2020-05-10T13:22:29Z</time>
      </trkpt>
      <trkpt lat="48.75056" lon="7.30202">
        <ele>417.3</ele>
        <time>2020-05-10T13:22:31Z</time>
      </trkpt>
      <trkpt lat="48.75057" lon="7.3021">
        <ele>417.6</ele>
        <time>2020-05-10T13:22:33Z</time>
      </trkpt>
      <trkpt lat="48.75058" lon="7.30215">
        <ele>417.8</ele>
        <time>2020-05-10T13:22:35Z</time>
      </trkpt>
      <trkpt lat="48.75058" lon="7.30217">
        <ele>417.8</ele>
        <time>2020-05-10T13:22:36Z</time>
      </trkpt>
      <trkpt lat="48.75058" lon="7.30225">
        <ele>418</ele>
        <time>2020-05-10T13:22:38Z</time>
      </trkpt>
      <trkpt lat="48.75057" lon="7.30233">
        <ele>418.1</ele>
        <time>2020-05-10T13:22:40Z</time>
      </trkpt>
      <trkpt lat="48.75057" lon="7.3024">
        <ele>418.2</ele>
        <time>2020-05-10T13:22:42Z</time>
      </trkpt>
      <trkpt lat="48.75057" lon="7.30245">
        <ele>418.3</ele>
        <time>2020-05-10T13:22:43Z</time>
      </trkpt>
      <trkpt lat="48.75057" lon="7.30247">
        <ele>418.3</ele>
        <time>2020-05-10T13:22:44Z</time>
      </trkpt>
      <trkpt lat="48.75055" lon="7.30255">
        <ele>418.5</ele>
        <time>2020-05-10T13:22:46Z</time>
      </trkpt>
      <trkpt lat="48.75055" lon="7.3026">
        <ele>418.7</ele>
        <time>2020-05-10T13:22:47Z</time>
      </trkpt>
      <trkpt lat="48.75054" lon="7.30264">
        <ele>418.9</ele>
        <time>2020-05-10T13:22:48Z</time>
      </trkpt>
      <trkpt lat="48.75053" lon="7.30269">
        <ele>419</ele>
        <time>2020-05-10T13:22:50Z</time>
      </trkpt>
      <trkpt lat="48.75051" lon="7.30276">
        <ele>419.3</ele>
        <time>2020-05-10T13:22:52Z</time>
      </trkpt>
      <trkpt lat="48.7505" lon="7.30284">
        <ele>419.6</ele>
        <time>2020-05-10T13:22:54Z</time>
      </trkpt>
      <trkpt lat="48.75048" lon="7.3029">
        <ele>419.8</ele>
        <time>2020-05-10T13:22:56Z</time>
      </trkpt>
      <trkpt lat="48.75047" lon="7.30299">
        <ele>420.2</ele>
        <time>2020-05-10T13:22:58Z</time>
      </trkpt>
      <trkpt lat="48.75047" lon="7.30307">
        <ele>420.5</ele>
        <time>2020-05-10T13:23:00Z</time>
      </trkpt>
      <trkpt lat="48.75047" lon="7.30313">
        <ele>420.7</ele>
        <time>2020-05-10T13:23:01Z</time>
      </trkpt>
      <trkpt lat="48.75045" lon="7.30322">
        <ele>421.1</ele>
        <time>2020-05-10T13:23:03Z</time>
      </trkpt>
      <trkpt lat="48.75045" lon="7.30331">
        <ele>421.4</ele>
        <time>2020-05-10T13:23:05Z</time>
      </trkpt>
      <trkpt lat="48.75045" lon="7.30337">
        <ele>421.6</ele>
        <time>2020-05-10T13:23:06Z</time>
      </trkpt>
      <trkpt lat="48.75045" lon="7.30338">
        <ele>421.6</ele>
        <time>2020-05-10T13:23:07Z</time>
      </trkpt>
      <trkpt lat="48.75045" lon="7.30346">
        <ele>421.9</ele>
        <time>2020-05-10T13:23:09Z</time>
      </trkpt>
      <trkpt lat="48.75044" lon="7.3035">
        <ele>422.1</ele>
        <time>2020-05-10T13:23:10Z</time>
      </trkpt>
      <trkpt lat="48.75043" lon="7.30359">
        <ele>422.5</ele>
        <time>2020-05-10T13:23:12Z</time>
      </trkpt>
      <trkpt lat="48.75043" lon="7.30362">
        <ele>422.6</ele>
        <time>2020-05-10T13:23:13Z</time>
      </trkpt>
      <trkpt lat="48.75043" lon="7.30369">
        <ele>422.9</ele>
        <time>2020-05-10T13:23:15Z</time>
      </trkpt>
      <trkpt lat="48.75042" lon="7.30373">
        <ele>423.1</ele>
        <time>2020-05-10T13:23:16Z</time>
      </trkpt>
      <trkpt lat="48.75042" lon="7.30381">
        <ele>423.5</ele>
        <time>2020-05-10T13:23:18Z</time>
      </trkpt>
      <trkpt lat="48.75042" lon="7.30386">
        <ele>423.7</ele>
        <time>2020-05-10T13:23:19Z</time>
      </trkpt>
      <trkpt lat="48.75041" lon="7.30389">
        <ele>423.8</ele>
        <time>2020-05-10T13:23:20Z</time>
      </trkpt>
      <trkpt lat="48.75039" lon="7.30394">
        <ele>424</ele>
        <time>2020-05-10T13:23:21Z</time>
      </trkpt>
      <trkpt lat="48.75039" lon="7.30396">
        <ele>424.1</ele>
        <time>2020-05-10T13:23:22Z</time>
      </trkpt>
      <trkpt lat="48.75037" lon="7.30403">
        <ele>424.4</ele>
        <time>2020-05-10T13:23:24Z</time>
      </trkpt>
      <trkpt lat="48.75037" lon="7.30409">
        <ele>424.6</ele>
        <time>2020-05-10T13:23:26Z</time>
      </trkpt>
      <trkpt lat="48.75037" lon="7.30412">
        <ele>424.8</ele>
        <time>2020-05-10T13:23:27Z</time>
      </trkpt>
      <trkpt lat="48.75037" lon="7.30418">
        <ele>425</ele>
        <time>2020-05-10T13:23:29Z</time>
      </trkpt>
      <trkpt lat="48.75037" lon="7.30422">
        <ele>425.2</ele>
        <time>2020-05-10T13:23:30Z</time>
      </trkpt>
      <trkpt lat="48.75037" lon="7.30429">
        <ele>425.4</ele>
        <time>2020-05-10T13:23:32Z</time>
      </trkpt>
      <trkpt lat="48.75036" lon="7.30434">
        <ele>425.5</ele>
        <time>2020-05-10T13:23:33Z</time>
      </trkpt>
      <trkpt lat="48.75035" lon="7.30437">
        <ele>425.6</ele>
        <time>2020-05-10T13:23:34Z</time>
      </trkpt>
      <trkpt lat="48.75033" lon="7.30444">
        <ele>425.8</ele>
        <time>2020-05-10T13:23:36Z</time>
      </trkpt>
      <trkpt lat="48.75032" lon="7.30449">
        <ele>426</ele>
        <time>2020-05-10T13:23:37Z</time>
      </trkpt>
      <trkpt lat="48.75032" lon="7.30451">
        <ele>426.1</ele>
        <time>2020-05-10T13:23:38Z</time>
      </trkpt>
      <trkpt lat="48.75031" lon="7.30455">
        <ele>426.2</ele>
        <time>2020-05-10T13:23:39Z</time>
      </trkpt>
      <trkpt lat="48.75029" lon="7.30464">
        <ele>426.5</ele>
        <time>2020-05-10T13:23:41Z</time>
      </trkpt>
      <trkpt lat="48.75029" lon="7.30469">
        <ele>426.7</ele>
        <time>2020-05-10T13:23:42Z</time>
      </trkpt>
      <trkpt lat="48.75029" lon="7.30473">
        <ele>426.8</ele>
        <time>2020-05-10T13:23:43Z</time>
      </trkpt>
      <trkpt lat="48.75029" lon="7.30483">
        <ele>427</ele>
        <time>2020-05-10T13:23:45Z</time>
      </trkpt>
      <trkpt lat="48.75029" lon="7.30488">
        <ele>427.1</ele>
        <time>2020-05-10T13:23:46Z</time>
      </trkpt>
      <trkpt lat="48.75029" lon="7.30492">
        <ele>427.1</ele>
        <time>2020-05-10T13:23:47Z</time>
      </trkpt>
      <trkpt lat="48.75027" lon="7.305">
        <ele>427.2</ele>
        <time>2020-05-10T13:23:49Z</time>
      </trkpt>
      <trkpt lat="48.75024" lon="7.30508">
        <ele>427.3</ele>
        <time>2020-05-10T13:23:51Z</time>
      </trkpt>
      <trkpt lat="48.75023" lon="7.30515">
        <ele>427.3</ele>
        <time>2020-05-10T13:23:52Z</time>
      </trkpt>
      <trkpt lat="48.75024" lon="7.30521">
        <ele>427.4</ele>
        <time>2020-05-10T13:23:54Z</time>
      </trkpt>
      <trkpt lat="48.75025" lon="7.30529">
        <ele>427.4</ele>
        <time>2020-05-10T13:23:56Z</time>
      </trkpt>
      <trkpt lat="48.75025" lon="7.30535">
        <ele>427.5</ele>
        <time>2020-05-10T13:23:57Z</time>
      </trkpt>
      <trkpt lat="48.75025" lon="7.3055">
        <ele>427.6</ele>
        <time>2020-05-10T13:23:59Z</time>
      </trkpt>
      <trkpt lat="48.75024" lon="7.30564">
        <ele>427.6</ele>
        <time>2020-05-10T13:24:01Z</time>
      </trkpt>
      <trkpt lat="48.75024" lon="7.30571">
        <ele>427.7</ele>
        <time>2020-05-10T13:24:02Z</time>
      </trkpt>
      <trkpt lat="48.75024" lon="7.30585">
        <ele>427.8</ele>
        <time>2020-05-10T13:24:04Z</time>
      </trkpt>
      <trkpt lat="48.75024" lon="7.3059">
        <ele>427.8</ele>
        <time>2020-05-10T13:24:05Z</time>
      </trkpt>
      <trkpt lat="48.75023" lon="7.30597">
        <ele>427.8</ele>
        <time>2020-05-10T13:24:06Z</time>
      </trkpt>
      <trkpt lat="48.75021" lon="7.30608">
        <ele>427.8</ele>
        <time>2020-05-10T13:24:08Z</time>
      </trkpt>
      <trkpt lat="48.75017" lon="7.30613">
        <ele>427.8</ele>
        <time>2020-05-10T13:24:09Z</time>
      </trkpt>
      <trkpt lat="48.75006" lon="7.30613">
        <ele>426.5</ele>
        <time>2020-05-10T13:24:11Z</time>
      </trkpt>
      <trkpt lat="48.75001" lon="7.30613">
        <ele>426.1</ele>
        <time>2020-05-10T13:24:12Z</time>
      </trkpt>
      <trkpt lat="48.74996" lon="7.30612">
        <ele>425.7</ele>
        <time>2020-05-10T13:24:13Z</time>
      </trkpt>
      <trkpt lat="48.74991" lon="7.30613">
        <ele>425.3</ele>
        <time>2020-05-10T13:24:14Z</time>
      </trkpt>
      <trkpt lat="48.74983" lon="7.3061">
        <ele>424.8</ele>
        <time>2020-05-10T13:24:16Z</time>
      </trkpt>
      <trkpt lat="48.74977" lon="7.30606">
        <ele>424.3</ele>
        <time>2020-05-10T13:24:18Z</time>
      </trkpt>
      <trkpt lat="48.74971" lon="7.30604">
        <ele>423.8</ele>
        <time>2020-05-10T13:24:20Z</time>
      </trkpt>
      <trkpt lat="48.74966" lon="7.30604">
        <ele>423.4</ele>
        <time>2020-05-10T13:24:21Z</time>
      </trkpt>
      <trkpt lat="48.74955" lon="7.30601">
        <ele>422.6</ele>
        <time>2020-05-10T13:24:23Z</time>
      </trkpt>
      <trkpt lat="48.74949" lon="7.306">
        <ele>422.2</ele>
        <time>2020-05-10T13:24:24Z</time>
      </trkpt>
      <trkpt lat="48.74943" lon="7.30599">
        <ele>421.9</ele>
        <time>2020-05-10T13:24:25Z</time>
      </trkpt>
      <trkpt lat="48.74938" lon="7.30597">
        <ele>421.6</ele>
        <time>2020-05-10T13:24:26Z</time>
      </trkpt>
      <trkpt lat="48.74933" lon="7.30596">
        <ele>421.4</ele>
        <time>2020-05-10T13:24:27Z</time>
      </trkpt>
      <trkpt lat="48.7492" lon="7.30596">
        <ele>420.9</ele>
        <time>2020-05-10T13:24:29Z</time>
      </trkpt>
      <trkpt lat="48.74914" lon="7.30594">
        <ele>420.8</ele>
        <time>2020-05-10T13:24:30Z</time>
      </trkpt>
      <trkpt lat="48.74908" lon="7.30594">
        <ele>420.7</ele>
        <time>2020-05-10T13:24:31Z</time>
      </trkpt>
      <trkpt lat="48.74894" lon="7.30592">
        <ele>420.5</ele>
        <time>2020-05-10T13:24:33Z</time>
      </trkpt>
      <trkpt lat="48.74891" lon="7.3059">
        <ele>420.4</ele>
        <time>2020-05-10T13:24:34Z</time>
      </trkpt>
      <trkpt lat="48.74885" lon="7.30594">
        <ele>420.4</ele>
        <time>2020-05-10T13:24:36Z</time>
      </trkpt>
      <trkpt lat="48.74878" lon="7.30591">
        <ele>420.3</ele>
        <time>2020-05-10T13:24:38Z</time>
      </trkpt>
      <trkpt lat="48.74867" lon="7.30586">
        <ele>420.1</ele>
        <time>2020-05-10T13:24:40Z</time>
      </trkpt>
      <trkpt lat="48.74855" lon="7.30584">
        <ele>420</ele>
        <time>2020-05-10T13:24:42Z</time>
      </trkpt>
      <trkpt lat="48.74849" lon="7.30584">
        <ele>419.9</ele>
        <time>2020-05-10T13:24:43Z</time>
      </trkpt>
      <trkpt lat="48.74839" lon="7.30583">
        <ele>419.9</ele>
        <time>2020-05-10T13:24:45Z</time>
      </trkpt>
      <trkpt lat="48.74833" lon="7.30581">
        <ele>419.9</ele>
        <time>2020-05-10T13:24:46Z</time>
      </trkpt>
      <trkpt lat="48.74827" lon="7.3058">
        <ele>419.9</ele>
        <time>2020-05-10T13:24:47Z</time>
      </trkpt>
      <trkpt lat="48.74817" lon="7.30577">
        <ele>419.8</ele>
        <time>2020-05-10T13:24:49Z</time>
      </trkpt>
      <trkpt lat="48.74808" lon="7.30576">
        <ele>419.7</ele>
        <time>2020-05-10T13:24:51Z</time>
      </trkpt>
      <trkpt lat="48.74798" lon="7.30576">
        <ele>419.5</ele>
        <time>2020-05-10T13:24:53Z</time>
      </trkpt>
      <trkpt lat="48.74793" lon="7.30575">
        <ele>419.4</ele>
        <time>2020-05-10T13:24:54Z</time>
      </trkpt>
      <trkpt lat="48.74782" lon="7.30571">
        <ele>419.8</ele>
        <time>2020-05-10T13:24:56Z</time>
      </trkpt>
      <trkpt lat="48.74777" lon="7.3057">
        <ele>420</ele>
        <time>2020-05-10T13:24:57Z</time>
      </trkpt>
      <trkpt lat="48.74772" lon="7.3057">
        <ele>420.2</ele>
        <time>2020-05-10T13:24:58Z</time>
      </trkpt>
      <trkpt lat="48.7476" lon="7.30568">
        <ele>420.8</ele>
        <time>2020-05-10T13:25:00Z</time>
      </trkpt>
      <trkpt lat="48.74753" lon="7.30568">
        <ele>421.1</ele>
        <time>2020-05-10T13:25:01Z</time>
      </trkpt>
      <trkpt lat="48.74741" lon="7.30568">
        <ele>421.7</ele>
        <time>2020-05-10T13:25:03Z</time>
      </trkpt>
      <trkpt lat="48.74733" lon="7.30567">
        <ele>422</ele>
        <time>2020-05-10T13:25:05Z</time>
      </trkpt>
      <trkpt lat="48.74725" lon="7.30561">
        <ele>422.3</ele>
        <time>2020-05-10T13:25:07Z</time>
      </trkpt>
      <trkpt lat="48.74721" lon="7.30559">
        <ele>422.4</ele>
        <time>2020-05-10T13:25:08Z</time>
      </trkpt>
      <trkpt lat="48.74713" lon="7.30556">
        <ele>422.7</ele>
        <time>2020-05-10T13:25:10Z</time>
      </trkpt>
      <trkpt lat="48.74708" lon="7.30554">
        <ele>422.8</ele>
        <time>2020-05-10T13:25:11Z</time>
      </trkpt>
      <trkpt lat="48.74697" lon="7.30548">
        <ele>423</ele>
        <time>2020-05-10T13:25:13Z</time>
      </trkpt>
      <trkpt lat="48.74691" lon="7.30544">
        <ele>423.2</ele>
        <time>2020-05-10T13:25:14Z</time>
      </trkpt>
      <trkpt lat="48.7468" lon="7.30537">
        <ele>423.4</ele>
        <time>2020-05-10T13:25:16Z</time>
      </trkpt>
      <trkpt lat="48.74667" lon="7.30528">
        <ele>423.7</ele>
        <time>2020-05-10T13:25:18Z</time>
      </trkpt>
      <trkpt lat="48.74654" lon="7.3052">
        <ele>423.9</ele>
        <time>2020-05-10T13:25:20Z</time>
      </trkpt>
      <trkpt lat="48.74643" lon="7.3051">
        <ele>424.1</ele>
        <time>2020-05-10T13:25:22Z</time>
      </trkpt>
      <trkpt lat="48.74631" lon="7.30498">
        <ele>424.2</ele>
        <time>2020-05-10T13:25:24Z</time>
      </trkpt>
      <trkpt lat="48.74619" lon="7.30488">
        <ele>424.7</ele>
        <time>2020-05-10T13:25:26Z</time>
      </trkpt>
      <trkpt lat="48.74614" lon="7.30482">
        <ele>424.9</ele>
        <time>2020-05-10T13:25:27Z</time>
      </trkpt>
      <trkpt lat="48.74602" lon="7.30473">
        <ele>425.4</ele>
        <time>2020-05-10T13:25:29Z</time>
      </trkpt>
      <trkpt lat="48.74595" lon="7.30469">
        <ele>425.6</ele>
        <time>2020-05-10T13:25:30Z</time>
      </trkpt>
      <trkpt lat="48.74582" lon="7.30461">
        <ele>426.1</ele>
        <time>2020-05-10T13:25:32Z</time>
      </trkpt>
      <trkpt lat="48.7457" lon="7.30454">
        <ele>426.6</ele>
        <time>2020-05-10T13:25:34Z</time>
      </trkpt>
      <trkpt lat="48.74563" lon="7.30447">
        <ele>426.8</ele>
        <time>2020-05-10T13:25:35Z</time>
      </trkpt>
      <trkpt lat="48.74554" lon="7.30439">
        <ele>427.3</ele>
        <time>2020-05-10T13:25:37Z</time>
      </trkpt>
      <trkpt lat="48.74547" lon="7.30435">
        <ele>427.6</ele>
        <time>2020-05-10T13:25:38Z</time>
      </trkpt>
      <trkpt lat="48.74541" lon="7.30431">
        <ele>427.8</ele>
        <time>2020-05-10T13:25:39Z</time>
      </trkpt>
      <trkpt lat="48.74527" lon="7.30424">
        <ele>428.5</ele>
        <time>2020-05-10T13:25:41Z</time>
      </trkpt>
      <trkpt lat="48.74512" lon="7.3042">
        <ele>429.2</ele>
        <time>2020-05-10T13:25:43Z</time>
      </trkpt>
      <trkpt lat="48.74506" lon="7.30417">
        <ele>429.5</ele>
        <time>2020-05-10T13:25:44Z</time>
      </trkpt>
      <trkpt lat="48.74493" lon="7.30411">
        <ele>430.1</ele>
        <time>2020-05-10T13:25:46Z</time>
      </trkpt>
      <trkpt lat="48.74478" lon="7.30409">
        <ele>430.9</ele>
        <time>2020-05-10T13:25:48Z</time>
      </trkpt>
      <trkpt lat="48.74469" lon="7.30409">
        <ele>431.5</ele>
        <time>2020-05-10T13:25:49Z</time>
      </trkpt>
      <trkpt lat="48.74456" lon="7.30415">
        <ele>432.4</ele>
        <time>2020-05-10T13:25:51Z</time>
      </trkpt>
      <trkpt lat="48.74449" lon="7.30418">
        <ele>432.8</ele>
        <time>2020-05-10T13:25:52Z</time>
      </trkpt>
      <trkpt lat="48.74439" lon="7.30423">
        <ele>432.7</ele>
        <time>2020-05-10T13:25:53Z</time>
      </trkpt>
      <trkpt lat="48.74432" lon="7.30428">
        <ele>432.8</ele>
        <time>2020-05-10T13:25:55Z</time>
      </trkpt>
      <trkpt lat="48.74423" lon="7.30438">
        <ele>433.1</ele>
        <time>2020-05-10T13:25:57Z</time>
      </trkpt>
      <trkpt lat="48.74413" lon="7.30451">
        <ele>433.7</ele>
        <time>2020-05-10T13:25:59Z</time>
      </trkpt>
      <trkpt lat="48.74405" lon="7.30461">
        <ele>434.1</ele>
        <time>2020-05-10T13:26:01Z</time>
      </trkpt>
      <trkpt lat="48.74398" lon="7.30474">
        <ele>434.5</ele>
        <time>2020-05-10T13:26:03Z</time>
      </trkpt>
      <trkpt lat="48.74394" lon="7.3048">
        <ele>434.7</ele>
        <time>2020-05-10T13:26:04Z</time>
      </trkpt>
      <trkpt lat="48.74387" lon="7.30494">
        <ele>435.3</ele>
        <time>2020-05-10T13:26:06Z</time>
      </trkpt>
      <trkpt lat="48.74379" lon="7.30507">
        <ele>435.9</ele>
        <time>2020-05-10T13:26:08Z</time>
      </trkpt>
      <trkpt lat="48.74372" lon="7.30517">
        <ele>436.3</ele>
        <time>2020-05-10T13:26:10Z</time>
      </trkpt>
      <trkpt lat="48.74368" lon="7.30521">
        <ele>436.6</ele>
        <time>2020-05-10T13:26:11Z</time>
      </trkpt>
      <trkpt lat="48.74361" lon="7.3053">
        <ele>437</ele>
        <time>2020-05-10T13:26:13Z</time>
      </trkpt>
      <trkpt lat="48.74359" lon="7.30536">
        <ele>437.3</ele>
        <time>2020-05-10T13:26:14Z</time>
      </trkpt>
      <trkpt lat="48.74353" lon="7.30544">
        <ele>437.6</ele>
        <time>2020-05-10T13:26:16Z</time>
      </trkpt>
      <trkpt lat="48.74352" lon="7.30548">
        <ele>437.8</ele>
        <time>2020-05-10T13:26:17Z</time>
      </trkpt>
      <trkpt lat="48.74349" lon="7.30555">
        <ele>438</ele>
        <time>2020-05-10T13:26:19Z</time>
      </trkpt>
      <trkpt lat="48.74347" lon="7.30562">
        <ele>438.3</ele>
        <time>2020-05-10T13:26:21Z</time>
      </trkpt>
      <trkpt lat="48.74344" lon="7.3057">
        <ele>438.6</ele>
        <time>2020-05-10T13:26:23Z</time>
      </trkpt>
      <trkpt lat="48.74342" lon="7.30575">
        <ele>438.8</ele>
        <time>2020-05-10T13:26:24Z</time>
      </trkpt>
      <trkpt lat="48.74341" lon="7.30577">
        <ele>438.9</ele>
        <time>2020-05-10T13:26:25Z</time>
      </trkpt>
      <trkpt lat="48.74338" lon="7.30584">
        <ele>439.2</ele>
        <time>2020-05-10T13:26:27Z</time>
      </trkpt>
      <trkpt lat="48.74336" lon="7.30587">
        <ele>439.3</ele>
        <time>2020-05-10T13:26:28Z</time>
      </trkpt>
      <trkpt lat="48.74332" lon="7.30593">
        <ele>439.6</ele>
        <time>2020-05-10T13:26:30Z</time>
      </trkpt>
      <trkpt lat="48.74329" lon="7.30597">
        <ele>439.9</ele>
        <time>2020-05-10T13:26:32Z</time>
      </trkpt>
      <trkpt lat="48.74327" lon="7.30599">
        <ele>440</ele>
        <time>2020-05-10T13:26:33Z</time>
      </trkpt>
      <trkpt lat="48.74325" lon="7.30604">
        <ele>440.2</ele>
        <time>2020-05-10T13:26:35Z</time>
      </trkpt>
      <trkpt lat="48.74323" lon="7.30607">
        <ele>440.3</ele>
        <time>2020-05-10T13:26:36Z</time>
      </trkpt>
      <trkpt lat="48.74322" lon="7.30609">
        <ele>440.4</ele>
        <time>2020-05-10T13:26:37Z</time>
      </trkpt>
      <trkpt lat="48.74319" lon="7.30612">
        <ele>440.6</ele>
        <time>2020-05-10T13:26:39Z</time>
      </trkpt>
      <trkpt lat="48.74316" lon="7.30615">
        <ele>440.8</ele>
        <time>2020-05-10T13:26:41Z</time>
      </trkpt>
      <trkpt lat="48.74315" lon="7.30616">
        <ele>440.8</ele>
        <time>2020-05-10T13:26:42Z</time>
      </trkpt>
      <trkpt lat="48.74313" lon="7.3062">
        <ele>440.9</ele>
        <time>2020-05-10T13:26:44Z</time>
      </trkpt>
      <trkpt lat="48.7431" lon="7.30624">
        <ele>441.1</ele>
        <time>2020-05-10T13:26:45Z</time>
      </trkpt>
      <trkpt lat="48.74309" lon="7.30625">
        <ele>441.2</ele>
        <time>2020-05-10T13:26:46Z</time>
      </trkpt>
      <trkpt lat="48.74304" lon="7.30631">
        <ele>441.5</ele>
        <time>2020-05-10T13:26:48Z</time>
      </trkpt>
      <trkpt lat="48.74301" lon="7.30634">
        <ele>441.6</ele>
        <time>2020-05-10T13:26:49Z</time>
      </trkpt>
      <trkpt lat="48.74296" lon="7.30639">
        <ele>441.9</ele>
        <time>2020-05-10T13:26:51Z</time>
      </trkpt>
      <trkpt lat="48.74293" lon="7.30645">
        <ele>442.1</ele>
        <time>2020-05-10T13:26:53Z</time>
      </trkpt>
      <trkpt lat="48.74291" lon="7.30649">
        <ele>442.3</ele>
        <time>2020-05-10T13:26:54Z</time>
      </trkpt>
      <trkpt lat="48.74287" lon="7.30653">
        <ele>442.5</ele>
        <time>2020-05-10T13:26:56Z</time>
      </trkpt>
      <trkpt lat="48.74284" lon="7.30656">
        <ele>442.7</ele>
        <time>2020-05-10T13:26:57Z</time>
      </trkpt>
      <trkpt lat="48.74279" lon="7.30662">
        <ele>442.9</ele>
        <time>2020-05-10T13:26:59Z</time>
      </trkpt>
      <trkpt lat="48.74277" lon="7.30664">
        <ele>443</ele>
        <time>2020-05-10T13:27:00Z</time>
      </trkpt>
      <trkpt lat="48.74274" lon="7.30667">
        <ele>443.2</ele>
        <time>2020-05-10T13:27:02Z</time>
      </trkpt>
      <trkpt lat="48.74271" lon="7.3067">
        <ele>443.3</ele>
        <time>2020-05-10T13:27:03Z</time>
      </trkpt>
      <trkpt lat="48.74265" lon="7.30676">
        <ele>443.6</ele>
        <time>2020-05-10T13:27:05Z</time>
      </trkpt>
      <trkpt lat="48.74262" lon="7.30679">
        <ele>443.8</ele>
        <time>2020-05-10T13:27:06Z</time>
      </trkpt>
      <trkpt lat="48.74259" lon="7.30682">
        <ele>443.9</ele>
        <time>2020-05-10T13:27:07Z</time>
      </trkpt>
      <trkpt lat="48.74254" lon="7.30689">
        <ele>444.2</ele>
        <time>2020-05-10T13:27:09Z</time>
      </trkpt>
      <trkpt lat="48.74249" lon="7.30698">
        <ele>444.6</ele>
        <time>2020-05-10T13:27:11Z</time>
      </trkpt>
      <trkpt lat="48.74246" lon="7.307">
        <ele>444.8</ele>
        <time>2020-05-10T13:27:12Z</time>
      </trkpt>
      <trkpt lat="48.74245" lon="7.30701">
        <ele>444.8</ele>
        <time>2020-05-10T13:27:13Z</time>
      </trkpt>
      <trkpt lat="48.74244" lon="7.30702">
        <ele>444.9</ele>
        <time>2020-05-10T13:27:14Z</time>
      </trkpt>
      <trkpt lat="48.74242" lon="7.30703">
        <ele>445</ele>
        <time>2020-05-10T13:27:15Z</time>
      </trkpt>
      <trkpt lat="48.74239" lon="7.30705">
        <ele>445.2</ele>
        <time>2020-05-10T13:27:16Z</time>
      </trkpt>
      <trkpt lat="48.74233" lon="7.30709">
        <ele>445.5</ele>
        <time>2020-05-10T13:27:18Z</time>
      </trkpt>
      <trkpt lat="48.74228" lon="7.30713">
        <ele>445.8</ele>
        <time>2020-05-10T13:27:20Z</time>
      </trkpt>
      <trkpt lat="48.74224" lon="7.30715">
        <ele>446</ele>
        <time>2020-05-10T13:27:21Z</time>
      </trkpt>
      <trkpt lat="48.74223" lon="7.30716">
        <ele>446.1</ele>
        <time>2020-05-10T13:27:22Z</time>
      </trkpt>
      <trkpt lat="48.74217" lon="7.30718">
        <ele>446.4</ele>
        <time>2020-05-10T13:27:24Z</time>
      </trkpt>
      <trkpt lat="48.74211" lon="7.3072">
        <ele>446.8</ele>
        <time>2020-05-10T13:27:26Z</time>
      </trkpt>
      <trkpt lat="48.74207" lon="7.30722">
        <ele>447</ele>
        <time>2020-05-10T13:27:27Z</time>
      </trkpt>
      <trkpt lat="48.74201" lon="7.30726">
        <ele>447.3</ele>
        <time>2020-05-10T13:27:29Z</time>
      </trkpt>
      <trkpt lat="48.74195" lon="7.30733">
        <ele>447.7</ele>
        <time>2020-05-10T13:27:31Z</time>
      </trkpt>
      <trkpt lat="48.74192" lon="7.30736">
        <ele>447.8</ele>
        <time>2020-05-10T13:27:32Z</time>
      </trkpt>
      <trkpt lat="48.7419" lon="7.30738">
        <ele>447.9</ele>
        <time>2020-05-10T13:27:33Z</time>
      </trkpt>
      <trkpt lat="48.74186" lon="7.30741">
        <ele>448.1</ele>
        <time>2020-05-10T13:27:34Z</time>
      </trkpt>
      <trkpt lat="48.74182" lon="7.30745">
        <ele>448.2</ele>
        <time>2020-05-10T13:27:35Z</time>
      </trkpt>
      <trkpt lat="48.74176" lon="7.30751">
        <ele>448.4</ele>
        <time>2020-05-10T13:27:37Z</time>
      </trkpt>
      <trkpt lat="48.74173" lon="7.30755">
        <ele>448.4</ele>
        <time>2020-05-10T13:27:38Z</time>
      </trkpt>
      <trkpt lat="48.74167" lon="7.30761">
        <ele>448.5</ele>
        <time>2020-05-10T13:27:40Z</time>
      </trkpt>
      <trkpt lat="48.7416" lon="7.30767">
        <ele>448.6</ele>
        <time>2020-05-10T13:27:42Z</time>
      </trkpt>
      <trkpt lat="48.74153" lon="7.30773">
        <ele>448.7</ele>
        <time>2020-05-10T13:27:44Z</time>
      </trkpt>
      <trkpt lat="48.74145" lon="7.30779">
        <ele>448.7</ele>
        <time>2020-05-10T13:27:46Z</time>
      </trkpt>
      <trkpt lat="48.74138" lon="7.30787">
        <ele>448.8</ele>
        <time>2020-05-10T13:27:48Z</time>
      </trkpt>
      <trkpt lat="48.74134" lon="7.30789">
        <ele>448.8</ele>
        <time>2020-05-10T13:27:49Z</time>
      </trkpt>
      <trkpt lat="48.74126" lon="7.30796">
        <ele>448.8</ele>
        <time>2020-05-10T13:27:51Z</time>
      </trkpt>
      <trkpt lat="48.74122" lon="7.308">
        <ele>448.8</ele>
        <time>2020-05-10T13:27:52Z</time>
      </trkpt>
      <trkpt lat="48.74119" lon="7.30803">
        <ele>448.7</ele>
        <time>2020-05-10T13:27:53Z</time>
      </trkpt>
      <trkpt lat="48.7411" lon="7.30807">
        <ele>448.6</ele>
        <time>2020-05-10T13:27:55Z</time>
      </trkpt>
      <trkpt lat="48.74105" lon="7.3081">
        <ele>448.5</ele>
        <time>2020-05-10T13:27:56Z</time>
      </trkpt>
      <trkpt lat="48.74095" lon="7.30814">
        <ele>448.3</ele>
        <time>2020-05-10T13:27:58Z</time>
      </trkpt>
      <trkpt lat="48.7409" lon="7.30815">
        <ele>448.1</ele>
        <time>2020-05-10T13:27:59Z</time>
      </trkpt>
      <trkpt lat="48.74085" lon="7.30816">
        <ele>448</ele>
        <time>2020-05-10T13:28:00Z</time>
      </trkpt>
      <trkpt lat="48.74081" lon="7.30817">
        <ele>447.8</ele>
        <time>2020-05-10T13:28:01Z</time>
      </trkpt>
      <trkpt lat="48.74071" lon="7.30818">
        <ele>447.5</ele>
        <time>2020-05-10T13:28:03Z</time>
      </trkpt>
      <trkpt lat="48.74058" lon="7.30819">
        <ele>447</ele>
        <time>2020-05-10T13:28:05Z</time>
      </trkpt>
      <trkpt lat="48.74052" lon="7.30821">
        <ele>446.7</ele>
        <time>2020-05-10T13:28:06Z</time>
      </trkpt>
      <trkpt lat="48.7404" lon="7.3082">
        <ele>446.2</ele>
        <time>2020-05-10T13:28:08Z</time>
      </trkpt>
      <trkpt lat="48.74034" lon="7.3082">
        <ele>446</ele>
        <time>2020-05-10T13:28:09Z</time>
      </trkpt>
      <trkpt lat="48.74021" lon="7.30821">
        <ele>445.5</ele>
        <time>2020-05-10T13:28:11Z</time>
      </trkpt>
      <trkpt lat="48.74014" lon="7.3082">
        <ele>445.3</ele>
        <time>2020-05-10T13:28:12Z</time>
      </trkpt>
      <trkpt lat="48.74006" lon="7.30821">
        <ele>445</ele>
        <time>2020-05-10T13:28:13Z</time>
      </trkpt>
      <trkpt lat="48.73997" lon="7.30822">
        <ele>444.7</ele>
        <time>2020-05-10T13:28:14Z</time>
      </trkpt>
      <trkpt lat="48.73989" lon="7.30823">
        <ele>444.4</ele>
        <time>2020-05-10T13:28:15Z</time>
      </trkpt>
      <trkpt lat="48.73982" lon="7.30825">
        <ele>444.2</ele>
        <time>2020-05-10T13:28:16Z</time>
      </trkpt>
      <trkpt lat="48.73965" lon="7.30826">
        <ele>443.9</ele>
        <time>2020-05-10T13:28:18Z</time>
      </trkpt>
      <trkpt lat="48.73957" lon="7.30825">
        <ele>443.7</ele>
        <time>2020-05-10T13:28:19Z</time>
      </trkpt>
      <trkpt lat="48.73944" lon="7.30826">
        <ele>443.5</ele>
        <time>2020-05-10T13:28:21Z</time>
      </trkpt>
      <trkpt lat="48.73936" lon="7.30827">
        <ele>443.4</ele>
        <time>2020-05-10T13:28:22Z</time>
      </trkpt>
      <trkpt lat="48.73929" lon="7.30828">
        <ele>443.3</ele>
        <time>2020-05-10T13:28:23Z</time>
      </trkpt>
      <trkpt lat="48.73923" lon="7.30828">
        <ele>443.3</ele>
        <time>2020-05-10T13:28:24Z</time>
      </trkpt>
      <trkpt lat="48.73909" lon="7.30828">
        <ele>443.5</ele>
        <time>2020-05-10T13:28:26Z</time>
      </trkpt>
      <trkpt lat="48.73902" lon="7.30829">
        <ele>443.7</ele>
        <time>2020-05-10T13:28:27Z</time>
      </trkpt>
      <trkpt lat="48.73896" lon="7.3083">
        <ele>443.9</ele>
        <time>2020-05-10T13:28:28Z</time>
      </trkpt>
      <trkpt lat="48.73883" lon="7.30829">
        <ele>444.3</ele>
        <time>2020-05-10T13:28:30Z</time>
      </trkpt>
      <trkpt lat="48.73877" lon="7.30825">
        <ele>444.5</ele>
        <time>2020-05-10T13:28:31Z</time>
      </trkpt>
      <trkpt lat="48.73864" lon="7.30817">
        <ele>445.1</ele>
        <time>2020-05-10T13:28:33Z</time>
      </trkpt>
      <trkpt lat="48.73857" lon="7.30813">
        <ele>445.3</ele>
        <time>2020-05-10T13:28:34Z</time>
      </trkpt>
      <trkpt lat="48.73843" lon="7.30808">
        <ele>445.8</ele>
        <time>2020-05-10T13:28:36Z</time>
      </trkpt>
      <trkpt lat="48.73836" lon="7.30805">
        <ele>446</ele>
        <time>2020-05-10T13:28:37Z</time>
      </trkpt>
      <trkpt lat="48.73822" lon="7.30799">
        <ele>446.4</ele>
        <time>2020-05-10T13:28:39Z</time>
      </trkpt>
      <trkpt lat="48.73816" lon="7.30796">
        <ele>446.6</ele>
        <time>2020-05-10T13:28:40Z</time>
      </trkpt>
      <trkpt lat="48.7381" lon="7.30794">
        <ele>446.7</ele>
        <time>2020-05-10T13:28:41Z</time>
      </trkpt>
      <trkpt lat="48.73804" lon="7.30791">
        <ele>446.8</ele>
        <time>2020-05-10T13:28:42Z</time>
      </trkpt>
      <trkpt lat="48.73793" lon="7.30787">
        <ele>446.8</ele>
        <time>2020-05-10T13:28:44Z</time>
      </trkpt>
      <trkpt lat="48.73788" lon="7.30784">
        <ele>446.9</ele>
        <time>2020-05-10T13:28:45Z</time>
      </trkpt>
      <trkpt lat="48.73776" lon="7.30777">
        <ele>447</ele>
        <time>2020-05-10T13:28:47Z</time>
      </trkpt>
      <trkpt lat="48.73765" lon="7.30771">
        <ele>447.1</ele>
        <time>2020-05-10T13:28:49Z</time>
      </trkpt>
      <trkpt lat="48.73755" lon="7.30761">
        <ele>446.9</ele>
        <time>2020-05-10T13:28:51Z</time>
      </trkpt>
      <trkpt lat="48.73749" lon="7.30756">
        <ele>446.8</ele>
        <time>2020-05-10T13:28:52Z</time>
      </trkpt>
      <trkpt lat="48.73734" lon="7.30752">
        <ele>446.4</ele>
        <time>2020-05-10T13:28:54Z</time>
      </trkpt>
      <trkpt lat="48.73727" lon="7.30751">
        <ele>446.2</ele>
        <time>2020-05-10T13:28:55Z</time>
      </trkpt>
      <trkpt lat="48.73711" lon="7.30741">
        <ele>444.5</ele>
        <time>2020-05-10T13:28:57Z</time>
      </trkpt>
      <trkpt lat="48.73702" lon="7.30734">
        <ele>443.7</ele>
        <time>2020-05-10T13:28:59Z</time>
      </trkpt>
      <trkpt lat="48.7369" lon="7.30726">
        <ele>442.5</ele>
        <time>2020-05-10T13:29:00Z</time>
      </trkpt>
      <trkpt lat="48.73675" lon="7.30717">
        <ele>441.6</ele>
        <time>2020-05-10T13:29:02Z</time>
      </trkpt>
      <trkpt lat="48.73669" lon="7.30715">
        <ele>440.8</ele>
        <time>2020-05-10T13:29:03Z</time>
      </trkpt>
      <trkpt lat="48.73657" lon="7.30712">
        <ele>439.7</ele>
        <time>2020-05-10T13:29:05Z</time>
      </trkpt>
      <trkpt lat="48.73652" lon="7.3071">
        <ele>438.6</ele>
        <time>2020-05-10T13:29:06Z</time>
      </trkpt>
      <trkpt lat="48.7364" lon="7.30703">
        <ele>436</ele>
        <time>2020-05-10T13:29:08Z</time>
      </trkpt>
      <trkpt lat="48.73634" lon="7.307">
        <ele>434.2</ele>
        <time>2020-05-10T13:29:09Z</time>
      </trkpt>
      <trkpt lat="48.7362" lon="7.30694">
        <ele>430.5</ele>
        <time>2020-05-10T13:29:11Z</time>
      </trkpt>
      <trkpt lat="48.73607" lon="7.30689">
        <ele>427</ele>
        <time>2020-05-10T13:29:13Z</time>
      </trkpt>
      <trkpt lat="48.73592" lon="7.30689">
        <ele>423.6</ele>
        <time>2020-05-10T13:29:15Z</time>
      </trkpt>
      <trkpt lat="48.73578" lon="7.30688">
        <ele>420.7</ele>
        <time>2020-05-10T13:29:17Z</time>
      </trkpt>
      <trkpt lat="48.73571" lon="7.30687">
        <ele>419.8</ele>
        <time>2020-05-10T13:29:18Z</time>
      </trkpt>
      <trkpt lat="48.7356" lon="7.30687">
        <ele>418.4</ele>
        <time>2020-05-10T13:29:20Z</time>
      </trkpt>
      <trkpt lat="48.73544" lon="7.30685">
        <ele>416</ele>
        <time>2020-05-10T13:29:22Z</time>
      </trkpt>
      <trkpt lat="48.7353" lon="7.30685">
        <ele>414.5</ele>
        <time>2020-05-10T13:29:24Z</time>
      </trkpt>
      <trkpt lat="48.73523" lon="7.30686">
        <ele>414.4</ele>
        <time>2020-05-10T13:29:25Z</time>
      </trkpt>
      <trkpt lat="48.73516" lon="7.30687">
        <ele>413.6</ele>
        <time>2020-05-10T13:29:26Z</time>
      </trkpt>
      <trkpt lat="48.73506" lon="7.30687">
        <ele>412.9</ele>
        <time>2020-05-10T13:29:28Z</time>
      </trkpt>
      <trkpt lat="48.735" lon="7.30688">
        <ele>412.4</ele>
        <time>2020-05-10T13:29:29Z</time>
      </trkpt>
      <trkpt lat="48.73494" lon="7.30692">
        <ele>412.4</ele>
        <time>2020-05-10T13:29:30Z</time>
      </trkpt>
      <trkpt lat="48.73487" lon="7.30695">
        <ele>412.6</ele>
        <time>2020-05-10T13:29:31Z</time>
      </trkpt>
      <trkpt lat="48.73475" lon="7.30692">
        <ele>411.4</ele>
        <time>2020-05-10T13:29:33Z</time>
      </trkpt>
      <trkpt lat="48.73465" lon="7.30684">
        <ele>409.8</ele>
        <time>2020-05-10T13:29:35Z</time>
      </trkpt>
      <trkpt lat="48.73455" lon="7.30681">
        <ele>409.1</ele>
        <time>2020-05-10T13:29:37Z</time>
      </trkpt>
      <trkpt lat="48.7345" lon="7.3068">
        <ele>408.9</ele>
        <time>2020-05-10T13:29:39Z</time>
      </trkpt>
      <trkpt lat="48.73442" lon="7.30677">
        <ele>408.6</ele>
        <time>2020-05-10T13:29:40Z</time>
      </trkpt>
      <trkpt lat="48.7343" lon="7.30673">
        <ele>408</ele>
        <time>2020-05-10T13:29:42Z</time>
      </trkpt>
      <trkpt lat="48.73425" lon="7.30671">
        <ele>407.6</ele>
        <time>2020-05-10T13:29:43Z</time>
      </trkpt>
      <trkpt lat="48.73416" lon="7.30666">
        <ele>406.9</ele>
        <time>2020-05-10T13:29:45Z</time>
      </trkpt>
      <trkpt lat="48.73412" lon="7.30664">
        <ele>406.8</ele>
        <time>2020-05-10T13:29:46Z</time>
      </trkpt>
      <trkpt lat="48.73408" lon="7.30662">
        <ele>406.3</ele>
        <time>2020-05-10T13:29:47Z</time>
      </trkpt>
      <trkpt lat="48.73404" lon="7.30661">
        <ele>406.2</ele>
        <time>2020-05-10T13:29:48Z</time>
      </trkpt>
      <trkpt lat="48.73395" lon="7.30657">
        <ele>405.9</ele>
        <time>2020-05-10T13:29:50Z</time>
      </trkpt>
      <trkpt lat="48.73391" lon="7.30653">
        <ele>405.8</ele>
        <time>2020-05-10T13:29:51Z</time>
      </trkpt>
      <trkpt lat="48.73381" lon="7.30642">
        <ele>405.4</ele>
        <time>2020-05-10T13:29:53Z</time>
      </trkpt>
      <trkpt lat="48.73375" lon="7.30637">
        <ele>404.8</ele>
        <time>2020-05-10T13:29:54Z</time>
      </trkpt>
      <trkpt lat="48.73366" lon="7.30625">
        <ele>403.7</ele>
        <time>2020-05-10T13:29:56Z</time>
      </trkpt>
      <trkpt lat="48.73357" lon="7.30615">
        <ele>403.3</ele>
        <time>2020-05-10T13:29:58Z</time>
      </trkpt>
      <trkpt lat="48.73347" lon="7.30606">
        <ele>403</ele>
        <time>2020-05-10T13:30:00Z</time>
      </trkpt>
      <trkpt lat="48.73339" lon="7.30602">
        <ele>403</ele>
        <time>2020-05-10T13:30:02Z</time>
      </trkpt>
      <trkpt lat="48.73331" lon="7.30593">
        <ele>402.7</ele>
        <time>2020-05-10T13:30:04Z</time>
      </trkpt>
      <trkpt lat="48.73325" lon="7.30588">
        <ele>402.5</ele>
        <time>2020-05-10T13:30:06Z</time>
      </trkpt>
      <trkpt lat="48.73318" lon="7.3058">
        <ele>402.3</ele>
        <time>2020-05-10T13:30:08Z</time>
      </trkpt>
      <trkpt lat="48.73315" lon="7.30575">
        <ele>402.2</ele>
        <time>2020-05-10T13:30:09Z</time>
      </trkpt>
      <trkpt lat="48.73312" lon="7.30572">
        <ele>402.4</ele>
        <time>2020-05-10T13:30:10Z</time>
      </trkpt>
      <trkpt lat="48.73308" lon="7.30568">
        <ele>402.3</ele>
        <time>2020-05-10T13:30:11Z</time>
      </trkpt>
      <trkpt lat="48.73304" lon="7.3056">
        <ele>402.1</ele>
        <time>2020-05-10T13:30:13Z</time>
      </trkpt>
      <trkpt lat="48.73298" lon="7.30554">
        <ele>402.4</ele>
        <time>2020-05-10T13:30:15Z</time>
      </trkpt>
      <trkpt lat="48.73292" lon="7.30549">
        <ele>402.8</ele>
        <time>2020-05-10T13:30:17Z</time>
      </trkpt>
      <trkpt lat="48.73292" lon="7.30549">
        <ele>402.8</ele>
        <time>2020-05-10T13:30:18Z</time>
      </trkpt>
      <trkpt lat="48.73293" lon="7.30549">
        <ele>402.9</ele>
        <time>2020-05-10T13:30:20Z</time>
      </trkpt>
      <trkpt lat="48.73293" lon="7.30548">
        <ele>402.5</ele>
        <time>2020-05-10T13:30:22Z</time>
      </trkpt>
      <trkpt lat="48.73292" lon="7.30547">
        <ele>402.6</ele>
        <time>2020-05-10T13:30:24Z</time>
      </trkpt>
      <trkpt lat="48.7329" lon="7.30547">
        <ele>402.6</ele>
        <time>2020-05-10T13:30:26Z</time>
      </trkpt>
      <trkpt lat="48.73289" lon="7.30546">
        <ele>403</ele>
        <time>2020-05-10T13:30:28Z</time>
      </trkpt>
      <trkpt lat="48.73289" lon="7.30546">
        <ele>403.1</ele>
        <time>2020-05-10T13:30:29Z</time>
      </trkpt>
      <trkpt lat="48.73289" lon="7.30548">
        <ele>403.1</ele>
        <time>2020-05-10T13:30:31Z</time>
      </trkpt>
      <trkpt lat="48.7329" lon="7.30548">
        <ele>403.5</ele>
        <time>2020-05-10T13:30:32Z</time>
      </trkpt>
      <trkpt lat="48.7329" lon="7.30548">
        <ele>403.1</ele>
        <time>2020-05-10T13:30:34Z</time>
      </trkpt>
      <trkpt lat="48.73292" lon="7.30549">
        <ele>403.1</ele>
        <time>2020-05-10T13:30:36Z</time>
      </trkpt>
      <trkpt lat="48.73293" lon="7.3055">
        <ele>402.8</ele>
        <time>2020-05-10T13:30:38Z</time>
      </trkpt>
      <trkpt lat="48.73293" lon="7.30551">
        <ele>402.8</ele>
        <time>2020-05-10T13:30:39Z</time>
      </trkpt>
      <trkpt lat="48.73294" lon="7.30552">
        <ele>402.9</ele>
        <time>2020-05-10T13:30:41Z</time>
      </trkpt>
      <trkpt lat="48.73295" lon="7.30552">
        <ele>402.9</ele>
        <time>2020-05-10T13:30:43Z</time>
      </trkpt>
      <trkpt lat="48.73295" lon="7.30551">
        <ele>402.9</ele>
        <time>2020-05-10T13:30:45Z</time>
      </trkpt>
      <trkpt lat="48.73295" lon="7.30551">
        <ele>403</ele>
        <time>2020-05-10T13:30:46Z</time>
      </trkpt>
      <trkpt lat="48.73294" lon="7.3055">
        <ele>403</ele>
        <time>2020-05-10T13:30:47Z</time>
      </trkpt>
      <trkpt lat="48.73294" lon="7.3055">
        <ele>403</ele>
        <time>2020-05-10T13:30:48Z</time>
      </trkpt>
      <trkpt lat="48.73294" lon="7.30549">
        <ele>403</ele>
        <time>2020-05-10T13:30:50Z</time>
      </trkpt>
      <trkpt lat="48.73294" lon="7.30549">
        <ele>403.1</ele>
        <time>2020-05-10T13:30:52Z</time>
      </trkpt>
      <trkpt lat="48.73293" lon="7.30549">
        <ele>403.1</ele>
        <time>2020-05-10T13:30:53Z</time>
      </trkpt>
      <trkpt lat="48.73293" lon="7.30548">
        <ele>403.1</ele>
        <time>2020-05-10T13:30:55Z</time>
      </trkpt>
      <trkpt lat="48.73293" lon="7.30548">
        <ele>402.8</ele>
        <time>2020-05-10T13:30:56Z</time>
      </trkpt>
      <trkpt lat="48.73293" lon="7.30548">
        <ele>402.8</ele>
        <time>2020-05-10T13:30:57Z</time>
      </trkpt>
      <trkpt lat="48.73289" lon="7.30542">
        <ele>403.3</ele>
        <time>2020-05-10T13:30:59Z</time>
      </trkpt>
      <trkpt lat="48.73288" lon="7.3054">
        <ele>403.3</ele>
        <time>2020-05-10T13:31:00Z</time>
      </trkpt>
      <trkpt lat="48.73286" lon="7.30538">
        <ele>403.3</ele>
        <time>2020-05-10T13:31:01Z</time>
      </trkpt>
      <trkpt lat="48.73282" lon="7.30534">
        <ele>403.3</ele>
        <time>2020-05-10T13:31:03Z</time>
      </trkpt>
      <trkpt lat="48.73279" lon="7.30531">
        <ele>403.7</ele>
        <time>2020-05-10T13:31:04Z</time>
      </trkpt>
      <trkpt lat="48.73274" lon="7.30529">
        <ele>404</ele>
        <time>2020-05-10T13:31:05Z</time>
      </trkpt>
      <trkpt lat="48.7327" lon="7.30527">
        <ele>404.6</ele>
        <time>2020-05-10T13:31:06Z</time>
      </trkpt>
      <trkpt lat="48.73259" lon="7.3053">
        <ele>405.3</ele>
        <time>2020-05-10T13:31:08Z</time>
      </trkpt>
      <trkpt lat="48.73251" lon="7.30532">
        <ele>405.8</ele>
        <time>2020-05-10T13:31:10Z</time>
      </trkpt>
      <trkpt lat="48.73248" lon="7.30537">
        <ele>406.1</ele>
        <time>2020-05-10T13:31:11Z</time>
      </trkpt>
      <trkpt lat="48.73247" lon="7.30542">
        <ele>406.3</ele>
        <time>2020-05-10T13:31:12Z</time>
      </trkpt>
      <trkpt lat="48.73245" lon="7.30548">
        <ele>406.6</ele>
        <time>2020-05-10T13:31:13Z</time>
      </trkpt>
      <trkpt lat="48.73244" lon="7.30553">
        <ele>406.9</ele>
        <time>2020-05-10T13:31:14Z</time>
      </trkpt>
      <trkpt lat="48.73244" lon="7.30559">
        <ele>407.2</ele>
        <time>2020-05-10T13:31:15Z</time>
      </trkpt>
      <trkpt lat="48.73244" lon="7.30571">
        <ele>407.6</ele>
        <time>2020-05-10T13:31:17Z</time>
      </trkpt>
      <trkpt lat="48.73244" lon="7.30584">
        <ele>407.6</ele>
        <time>2020-05-10T13:31:19Z</time>
      </trkpt>
      <trkpt lat="48.73245" lon="7.3059">
        <ele>407.7</ele>
        <time>2020-05-10T13:31:20Z</time>
      </trkpt>
      <trkpt lat="48.73246" lon="7.30599">
        <ele>407.3</ele>
        <time>2020-05-10T13:31:22Z</time>
      </trkpt>
      <trkpt lat="48.73245" lon="7.30604">
        <ele>406.8</ele>
        <time>2020-05-10T13:31:23Z</time>
      </trkpt>
      <trkpt lat="48.73248" lon="7.30618">
        <ele>406.1</ele>
        <time>2020-05-10T13:31:25Z</time>
      </trkpt>
      <trkpt lat="48.73249" lon="7.30625">
        <ele>405.4</ele>
        <time>2020-05-10T13:31:26Z</time>
      </trkpt>
      <trkpt lat="48.73252" lon="7.3064">
        <ele>404.8</ele>
        <time>2020-05-10T13:31:28Z</time>
      </trkpt>
      <trkpt lat="48.73256" lon="7.30654">
        <ele>404.6</ele>
        <time>2020-05-10T13:31:30Z</time>
      </trkpt>
      <trkpt lat="48.73257" lon="7.30661">
        <ele>404.2</ele>
        <time>2020-05-10T13:31:31Z</time>
      </trkpt>
      <trkpt lat="48.73259" lon="7.30672">
        <ele>404.2</ele>
        <time>2020-05-10T13:31:33Z</time>
      </trkpt>
      <trkpt lat="48.73263" lon="7.30685">
        <ele>403.6</ele>
        <time>2020-05-10T13:31:35Z</time>
      </trkpt>
      <trkpt lat="48.73264" lon="7.30691">
        <ele>403.4</ele>
        <time>2020-05-10T13:31:36Z</time>
      </trkpt>
      <trkpt lat="48.73265" lon="7.30696">
        <ele>403.5</ele>
        <time>2020-05-10T13:31:37Z</time>
      </trkpt>
      <trkpt lat="48.73266" lon="7.30701">
        <ele>403.2</ele>
        <time>2020-05-10T13:31:38Z</time>
      </trkpt>
      <trkpt lat="48.73267" lon="7.30706">
        <ele>403</ele>
        <time>2020-05-10T13:31:39Z</time>
      </trkpt>
      <trkpt lat="48.73271" lon="7.30719">
        <ele>403.6</ele>
        <time>2020-05-10T13:31:41Z</time>
      </trkpt>
      <trkpt lat="48.73272" lon="7.30726">
        <ele>403.5</ele>
        <time>2020-05-10T13:31:42Z</time>
      </trkpt>
      <trkpt lat="48.73277" lon="7.30737">
        <ele>404.6</ele>
        <time>2020-05-10T13:31:44Z</time>
      </trkpt>
      <trkpt lat="48.73281" lon="7.30748">
        <ele>405.1</ele>
        <time>2020-05-10T13:31:46Z</time>
      </trkpt>
      <trkpt lat="48.73284" lon="7.30762">
        <ele>405.7</ele>
        <time>2020-05-10T13:31:48Z</time>
      </trkpt>
      <trkpt lat="48.7329" lon="7.30774">
        <ele>405.9</ele>
        <time>2020-05-10T13:31:50Z</time>
      </trkpt>
      <trkpt lat="48.73293" lon="7.30779">
        <ele>406.4</ele>
        <time>2020-05-10T13:31:51Z</time>
      </trkpt>
      <trkpt lat="48.73299" lon="7.30783">
        <ele>406.8</ele>
        <time>2020-05-10T13:31:53Z</time>
      </trkpt>
      <trkpt lat="48.73301" lon="7.30785">
        <ele>407.1</ele>
        <time>2020-05-10T13:31:54Z</time>
      </trkpt>
      <trkpt lat="48.73306" lon="7.30788">
        <ele>407.4</ele>
        <time>2020-05-10T13:31:56Z</time>
      </trkpt>
      <trkpt lat="48.73313" lon="7.30793">
        <ele>408</ele>
        <time>2020-05-10T13:31:58Z</time>
      </trkpt>
      <trkpt lat="48.73316" lon="7.30797">
        <ele>408.3</ele>
        <time>2020-05-10T13:31:59Z</time>
      </trkpt>
      <trkpt lat="48.73319" lon="7.30807">
        <ele>408.6</ele>
        <time>2020-05-10T13:32:01Z</time>
      </trkpt>
      <trkpt lat="48.73321" lon="7.30811">
        <ele>408.8</ele>
        <time>2020-05-10T13:32:02Z</time>
      </trkpt>
      <trkpt lat="48.73323" lon="7.30815">
        <ele>409</ele>
        <time>2020-05-10T13:32:03Z</time>
      </trkpt>
      <trkpt lat="48.73325" lon="7.3082">
        <ele>409.2</ele>
        <time>2020-05-10T13:32:04Z</time>
      </trkpt>
      <trkpt lat="48.73332" lon="7.30835">
        <ele>409.6</ele>
        <time>2020-05-10T13:32:06Z</time>
      </trkpt>
      <trkpt lat="48.73336" lon="7.30843">
        <ele>409.8</ele>
        <time>2020-05-10T13:32:07Z</time>
      </trkpt>
      <trkpt lat="48.73341" lon="7.30859">
        <ele>409.9</ele>
        <time>2020-05-10T13:32:09Z</time>
      </trkpt>
      <trkpt lat="48.73343" lon="7.3087">
        <ele>410</ele>
        <time>2020-05-10T13:32:11Z</time>
      </trkpt>
      <trkpt lat="48.73346" lon="7.30875">
        <ele>410.1</ele>
        <time>2020-05-10T13:32:12Z</time>
      </trkpt>
      <trkpt lat="48.7335" lon="7.30884">
        <ele>410.3</ele>
        <time>2020-05-10T13:32:14Z</time>
      </trkpt>
      <trkpt lat="48.73351" lon="7.30889">
        <ele>410.4</ele>
        <time>2020-05-10T13:32:15Z</time>
      </trkpt>
      <trkpt lat="48.73354" lon="7.30902">
        <ele>410.8</ele>
        <time>2020-05-10T13:32:17Z</time>
      </trkpt>
      <trkpt lat="48.73355" lon="7.30908">
        <ele>411.2</ele>
        <time>2020-05-10T13:32:18Z</time>
      </trkpt>
      <trkpt lat="48.73355" lon="7.30917">
        <ele>411.7</ele>
        <time>2020-05-10T13:32:20Z</time>
      </trkpt>
      <trkpt lat="48.73354" lon="7.3092">
        <ele>411.7</ele>
        <time>2020-05-10T13:32:22Z</time>
      </trkpt>
      <trkpt lat="48.73346" lon="7.30933">
        <ele>412.2</ele>
        <time>2020-05-10T13:32:24Z</time>
      </trkpt>
      <trkpt lat="48.73342" lon="7.30943">
        <ele>412.8</ele>
        <time>2020-05-10T13:32:26Z</time>
      </trkpt>
      <trkpt lat="48.73335" lon="7.30953">
        <ele>412.3</ele>
        <time>2020-05-10T13:32:28Z</time>
      </trkpt>
      <trkpt lat="48.73329" lon="7.30964">
        <ele>412</ele>
        <time>2020-05-10T13:32:30Z</time>
      </trkpt>
      <trkpt lat="48.73328" lon="7.30968">
        <ele>412.2</ele>
        <time>2020-05-10T13:32:31Z</time>
      </trkpt>
      <trkpt lat="48.73322" lon="7.3097">
        <ele>411.6</ele>
        <time>2020-05-10T13:32:33Z</time>
      </trkpt>
      <trkpt lat="48.73321" lon="7.30972">
        <ele>411.6</ele>
        <time>2020-05-10T13:32:34Z</time>
      </trkpt>
      <trkpt lat="48.73322" lon="7.30973">
        <ele>411.8</ele>
        <time>2020-05-10T13:32:35Z</time>
      </trkpt>
      <trkpt lat="48.73323" lon="7.30974">
        <ele>411.8</ele>
        <time>2020-05-10T13:32:36Z</time>
      </trkpt>
      <trkpt lat="48.73323" lon="7.30974">
        <ele>411.8</ele>
        <time>2020-05-10T13:32:37Z</time>
      </trkpt>
      <trkpt lat="48.73321" lon="7.30975">
        <ele>411.9</ele>
        <time>2020-05-10T13:32:39Z</time>
      </trkpt>
      <trkpt lat="48.73321" lon="7.30975">
        <ele>411.4</ele>
        <time>2020-05-10T13:32:40Z</time>
      </trkpt>
      <trkpt lat="48.7332" lon="7.30975">
        <ele>411.5</ele>
        <time>2020-05-10T13:32:41Z</time>
      </trkpt>
      <trkpt lat="48.7332" lon="7.30976">
        <ele>411.5</ele>
        <time>2020-05-10T13:32:42Z</time>
      </trkpt>
      <trkpt lat="48.73319" lon="7.30977">
        <ele>411.5</ele>
        <time>2020-05-10T13:32:44Z</time>
      </trkpt>
      <trkpt lat="48.73319" lon="7.30978">
        <ele>411.7</ele>
        <time>2020-05-10T13:32:45Z</time>
      </trkpt>
      <trkpt lat="48.73318" lon="7.3098">
        <ele>411.2</ele>
        <time>2020-05-10T13:32:46Z</time>
      </trkpt>
      <trkpt lat="48.73312" lon="7.30986">
        <ele>410.3</ele>
        <time>2020-05-10T13:32:48Z</time>
      </trkpt>
      <trkpt lat="48.7331" lon="7.30989">
        <ele>410.3</ele>
        <time>2020-05-10T13:32:49Z</time>
      </trkpt>
      <trkpt lat="48.73306" lon="7.30994">
        <ele>409.5</ele>
        <time>2020-05-10T13:32:51Z</time>
      </trkpt>
      <trkpt lat="48.73304" lon="7.30996">
        <ele>408.9</ele>
        <time>2020-05-10T13:32:52Z</time>
      </trkpt>
      <trkpt lat="48.733" lon="7.30999">
        <ele>408.6</ele>
        <time>2020-05-10T13:32:54Z</time>
      </trkpt>
      <trkpt lat="48.73299" lon="7.31002">
        <ele>408.7</ele>
        <time>2020-05-10T13:32:55Z</time>
      </trkpt>
      <trkpt lat="48.73296" lon="7.31009">
        <ele>408.7</ele>
        <time>2020-05-10T13:32:57Z</time>
      </trkpt>
      <trkpt lat="48.73293" lon="7.31013">
        <ele>408.6</ele>
        <time>2020-05-10T13:32:59Z</time>
      </trkpt>
      <trkpt lat="48.7329" lon="7.31017">
        <ele>408.4</ele>
        <time>2020-05-10T13:33:00Z</time>
      </trkpt>
      <trkpt lat="48.73287" lon="7.31024">
        <ele>408.2</ele>
        <time>2020-05-10T13:33:01Z</time>
      </trkpt>
      <trkpt lat="48.73285" lon="7.3103">
        <ele>408.3</ele>
        <time>2020-05-10T13:33:02Z</time>
      </trkpt>
      <trkpt lat="48.7328" lon="7.3104">
        <ele>408.1</ele>
        <time>2020-05-10T13:33:04Z</time>
      </trkpt>
      <trkpt lat="48.73274" lon="7.31047">
        <ele>407.9</ele>
        <time>2020-05-10T13:33:06Z</time>
      </trkpt>
      <trkpt lat="48.73266" lon="7.31053">
        <ele>406.9</ele>
        <time>2020-05-10T13:33:08Z</time>
      </trkpt>
      <trkpt lat="48.73262" lon="7.31054">
        <ele>407</ele>
        <time>2020-05-10T13:33:09Z</time>
      </trkpt>
      <trkpt lat="48.73256" lon="7.31056">
        <ele>406</ele>
        <time>2020-05-10T13:33:11Z</time>
      </trkpt>
      <trkpt lat="48.73248" lon="7.31062">
        <ele>404.6</ele>
        <time>2020-05-10T13:33:13Z</time>
      </trkpt>
      <trkpt lat="48.73243" lon="7.31066">
        <ele>403.9</ele>
        <time>2020-05-10T13:33:15Z</time>
      </trkpt>
      <trkpt lat="48.73241" lon="7.31067">
        <ele>403.3</ele>
        <time>2020-05-10T13:33:17Z</time>
      </trkpt>
      <trkpt lat="48.73232" lon="7.3107">
        <ele>401.7</ele>
        <time>2020-05-10T13:33:19Z</time>
      </trkpt>
      <trkpt lat="48.73228" lon="7.31071">
        <ele>400.6</ele>
        <time>2020-05-10T13:33:20Z</time>
      </trkpt>
      <trkpt lat="48.7322" lon="7.31072">
        <ele>398.4</ele>
        <time>2020-05-10T13:33:21Z</time>
      </trkpt>
      <trkpt lat="48.73214" lon="7.31072">
        <ele>396.5</ele>
        <time>2020-05-10T13:33:22Z</time>
      </trkpt>
      <trkpt lat="48.73208" lon="7.31072">
        <ele>394.4</ele>
        <time>2020-05-10T13:33:24Z</time>
      </trkpt>
      <trkpt lat="48.73204" lon="7.31072">
        <ele>393.4</ele>
        <time>2020-05-10T13:33:25Z</time>
      </trkpt>
      <trkpt lat="48.73203" lon="7.31073">
        <ele>393</ele>
        <time>2020-05-10T13:33:27Z</time>
      </trkpt>
      <trkpt lat="48.73203" lon="7.31073">
        <ele>392.7</ele>
        <time>2020-05-10T13:33:29Z</time>
      </trkpt>
      <trkpt lat="48.732" lon="7.31072">
        <ele>391.9</ele>
        <time>2020-05-10T13:33:31Z</time>
      </trkpt>
      <trkpt lat="48.732" lon="7.31071">
        <ele>391.7</ele>
        <time>2020-05-10T13:33:32Z</time>
      </trkpt>
      <trkpt lat="48.73199" lon="7.3107">
        <ele>391.2</ele>
        <time>2020-05-10T13:33:34Z</time>
      </trkpt>
      <trkpt lat="48.73198" lon="7.31068">
        <ele>390.8</ele>
        <time>2020-05-10T13:33:35Z</time>
      </trkpt>
      <trkpt lat="48.73191" lon="7.31064">
        <ele>388.2</ele>
        <time>2020-05-10T13:33:37Z</time>
      </trkpt>
      <trkpt lat="48.73186" lon="7.31064">
        <ele>386.7</ele>
        <time>2020-05-10T13:33:38Z</time>
      </trkpt>
      <trkpt lat="48.73182" lon="7.31061">
        <ele>385.3</ele>
        <time>2020-05-10T13:33:39Z</time>
      </trkpt>
      <trkpt lat="48.73175" lon="7.31055">
        <ele>382.7</ele>
        <time>2020-05-10T13:33:41Z</time>
      </trkpt>
      <trkpt lat="48.73171" lon="7.31052">
        <ele>381.5</ele>
        <time>2020-05-10T13:33:42Z</time>
      </trkpt>
      <trkpt lat="48.73167" lon="7.31047">
        <ele>379.8</ele>
        <time>2020-05-10T13:33:44Z</time>
      </trkpt>
      <trkpt lat="48.73165" lon="7.31046">
        <ele>379.2</ele>
        <time>2020-05-10T13:33:45Z</time>
      </trkpt>
      <trkpt lat="48.7316" lon="7.31042">
        <ele>377.4</ele>
        <time>2020-05-10T13:33:47Z</time>
      </trkpt>
      <trkpt lat="48.73152" lon="7.31038">
        <ele>375</ele>
        <time>2020-05-10T13:33:49Z</time>
      </trkpt>
      <trkpt lat="48.73145" lon="7.31034">
        <ele>373</ele>
        <time>2020-05-10T13:33:51Z</time>
      </trkpt>
      <trkpt lat="48.73143" lon="7.31032">
        <ele>372.2</ele>
        <time>2020-05-10T13:33:52Z</time>
      </trkpt>
      <trkpt lat="48.73139" lon="7.31029">
        <ele>371</ele>
        <time>2020-05-10T13:33:54Z</time>
      </trkpt>
      <trkpt lat="48.73135" lon="7.31026">
        <ele>369.9</ele>
        <time>2020-05-10T13:33:55Z</time>
      </trkpt>
      <trkpt lat="48.73133" lon="7.31025">
        <ele>369.5</ele>
        <time>2020-05-10T13:33:56Z</time>
      </trkpt>
      <trkpt lat="48.73127" lon="7.31017">
        <ele>367.3</ele>
        <time>2020-05-10T13:33:58Z</time>
      </trkpt>
      <trkpt lat="48.73124" lon="7.31012">
        <ele>366.2</ele>
        <time>2020-05-10T13:33:59Z</time>
      </trkpt>
      <trkpt lat="48.73122" lon="7.31011">
        <ele>365.7</ele>
        <time>2020-05-10T13:34:00Z</time>
      </trkpt>
      <trkpt lat="48.7312" lon="7.31008">
        <ele>364.9</ele>
        <time>2020-05-10T13:34:01Z</time>
      </trkpt>
      <trkpt lat="48.73115" lon="7.31006">
        <ele>363.7</ele>
        <time>2020-05-10T13:34:03Z</time>
      </trkpt>
      <trkpt lat="48.73108" lon="7.31003">
        <ele>361.9</ele>
        <time>2020-05-10T13:34:04Z</time>
      </trkpt>
      <trkpt lat="48.73104" lon="7.31001">
        <ele>361.1</ele>
        <time>2020-05-10T13:34:05Z</time>
      </trkpt>
      <trkpt lat="48.73097" lon="7.30994">
        <ele>359.8</ele>
        <time>2020-05-10T13:34:07Z</time>
      </trkpt>
      <trkpt lat="48.73094" lon="7.30991">
        <ele>359.5</ele>
        <time>2020-05-10T13:34:08Z</time>
      </trkpt>
      <trkpt lat="48.73087" lon="7.30987">
        <ele>358.8</ele>
        <time>2020-05-10T13:34:10Z</time>
      </trkpt>
      <trkpt lat="48.73085" lon="7.30987">
        <ele>358.5</ele>
        <time>2020-05-10T13:34:11Z</time>
      </trkpt>
      <trkpt lat="48.73083" lon="7.30987">
        <ele>358.3</ele>
        <time>2020-05-10T13:34:13Z</time>
      </trkpt>
      <trkpt lat="48.73083" lon="7.30987">
        <ele>358.3</ele>
        <time>2020-05-10T13:34:14Z</time>
      </trkpt>
      <trkpt lat="48.73083" lon="7.30987">
        <ele>358.2</ele>
        <time>2020-05-10T13:34:16Z</time>
      </trkpt>
      <trkpt lat="48.73082" lon="7.30986">
        <ele>358.1</ele>
        <time>2020-05-10T13:34:17Z</time>
      </trkpt>
      <trkpt lat="48.73081" lon="7.30985">
        <ele>357.9</ele>
        <time>2020-05-10T13:34:19Z</time>
      </trkpt>
      <trkpt lat="48.7308" lon="7.30985">
        <ele>357.8</ele>
        <time>2020-05-10T13:34:21Z</time>
      </trkpt>
      <trkpt lat="48.73081" lon="7.30986">
        <ele>357.7</ele>
        <time>2020-05-10T13:34:23Z</time>
      </trkpt>
      <trkpt lat="48.73083" lon="7.30986">
        <ele>357.5</ele>
        <time>2020-05-10T13:34:24Z</time>
      </trkpt>
      <trkpt lat="48.73085" lon="7.30985">
        <ele>357.2</ele>
        <time>2020-05-10T13:34:26Z</time>
      </trkpt>
      <trkpt lat="48.73085" lon="7.30985">
        <ele>357</ele>
        <time>2020-05-10T13:34:27Z</time>
      </trkpt>
      <trkpt lat="48.73086" lon="7.30984">
        <ele>356.9</ele>
        <time>2020-05-10T13:34:28Z</time>
      </trkpt>
      <trkpt lat="48.73087" lon="7.30984">
        <ele>356.8</ele>
        <time>2020-05-10T13:34:29Z</time>
      </trkpt>
      <trkpt lat="48.73087" lon="7.30984">
        <ele>356.8</ele>
        <time>2020-05-10T13:34:31Z</time>
      </trkpt>
      <trkpt lat="48.73086" lon="7.3098">
        <ele>356.3</ele>
        <time>2020-05-10T13:34:33Z</time>
      </trkpt>
      <trkpt lat="48.73084" lon="7.30977">
        <ele>355.9</ele>
        <time>2020-05-10T13:34:34Z</time>
      </trkpt>
      <trkpt lat="48.73081" lon="7.30975">
        <ele>355.4</ele>
        <time>2020-05-10T13:34:35Z</time>
      </trkpt>
      <trkpt lat="48.73075" lon="7.30968">
        <ele>354.1</ele>
        <time>2020-05-10T13:34:37Z</time>
      </trkpt>
      <trkpt lat="48.73064" lon="7.30959">
        <ele>351.9</ele>
        <time>2020-05-10T13:34:39Z</time>
      </trkpt>
      <trkpt lat="48.73055" lon="7.30951">
        <ele>350.1</ele>
        <time>2020-05-10T13:34:41Z</time>
      </trkpt>
      <trkpt lat="48.73049" lon="7.30938">
        <ele>348.3</ele>
        <time>2020-05-10T13:34:43Z</time>
      </trkpt>
      <trkpt lat="48.73045" lon="7.30932">
        <ele>347.4</ele>
        <time>2020-05-10T13:34:44Z</time>
      </trkpt>
      <trkpt lat="48.73039" lon="7.30926">
        <ele>346.2</ele>
        <time>2020-05-10T13:34:46Z</time>
      </trkpt>
      <trkpt lat="48.73033" lon="7.30919">
        <ele>344.9</ele>
        <time>2020-05-10T13:34:48Z</time>
      </trkpt>
      <trkpt lat="48.7303" lon="7.30915">
        <ele>344.3</ele>
        <time>2020-05-10T13:34:49Z</time>
      </trkpt>
      <trkpt lat="48.73026" lon="7.30911">
        <ele>343.5</ele>
        <time>2020-05-10T13:34:50Z</time>
      </trkpt>
      <trkpt lat="48.7302" lon="7.30903">
        <ele>342.4</ele>
        <time>2020-05-10T13:34:52Z</time>
      </trkpt>
      <trkpt lat="48.73019" lon="7.309">
        <ele>342</ele>
        <time>2020-05-10T13:34:53Z</time>
      </trkpt>
      <trkpt lat="48.73013" lon="7.30893">
        <ele>341.3</ele>
        <time>2020-05-10T13:34:56Z</time>
      </trkpt>
      <trkpt lat="48.73009" lon="7.30884">
        <ele>341</ele>
        <time>2020-05-10T13:34:57Z</time>
      </trkpt>
      <trkpt lat="48.73006" lon="7.30875">
        <ele>340.4</ele>
        <time>2020-05-10T13:34:59Z</time>
      </trkpt>
      <trkpt lat="48.73003" lon="7.30869">
        <ele>339.9</ele>
        <time>2020-05-10T13:35:01Z</time>
      </trkpt>
      <trkpt lat="48.73" lon="7.30865">
        <ele>339.4</ele>
        <time>2020-05-10T13:35:02Z</time>
      </trkpt>
      <trkpt lat="48.72998" lon="7.30863">
        <ele>339.1</ele>
        <time>2020-05-10T13:35:03Z</time>
      </trkpt>
      <trkpt lat="48.72995" lon="7.30858">
        <ele>338.5</ele>
        <time>2020-05-10T13:35:05Z</time>
      </trkpt>
      <trkpt lat="48.72991" lon="7.3085">
        <ele>337.6</ele>
        <time>2020-05-10T13:35:06Z</time>
      </trkpt>
      <trkpt lat="48.7299" lon="7.30845">
        <ele>337.2</ele>
        <time>2020-05-10T13:35:07Z</time>
      </trkpt>
      <trkpt lat="48.72985" lon="7.30834">
        <ele>336.2</ele>
        <time>2020-05-10T13:35:09Z</time>
      </trkpt>
      <trkpt lat="48.72977" lon="7.3082">
        <ele>334.8</ele>
        <time>2020-05-10T13:35:11Z</time>
      </trkpt>
      <trkpt lat="48.72975" lon="7.30816">
        <ele>334.4</ele>
        <time>2020-05-10T13:35:12Z</time>
      </trkpt>
      <trkpt lat="48.72974" lon="7.30814">
        <ele>334.2</ele>
        <time>2020-05-10T13:35:13Z</time>
      </trkpt>
      <trkpt lat="48.72972" lon="7.30807">
        <ele>333.5</ele>
        <time>2020-05-10T13:35:15Z</time>
      </trkpt>
      <trkpt lat="48.72968" lon="7.30798">
        <ele>332.6</ele>
        <time>2020-05-10T13:35:17Z</time>
      </trkpt>
      <trkpt lat="48.72966" lon="7.30794">
        <ele>332.1</ele>
        <time>2020-05-10T13:35:18Z</time>
      </trkpt>
      <trkpt lat="48.72963" lon="7.30786">
        <ele>331.2</ele>
        <time>2020-05-10T13:35:20Z</time>
      </trkpt>
      <trkpt lat="48.72962" lon="7.30781">
        <ele>330.7</ele>
        <time>2020-05-10T13:35:21Z</time>
      </trkpt>
      <trkpt lat="48.7296" lon="7.30777">
        <ele>330.3</ele>
        <time>2020-05-10T13:35:22Z</time>
      </trkpt>
      <trkpt lat="48.72957" lon="7.3077">
        <ele>329.6</ele>
        <time>2020-05-10T13:35:24Z</time>
      </trkpt>
      <trkpt lat="48.72953" lon="7.30754">
        <ele>328.2</ele>
        <time>2020-05-10T13:35:26Z</time>
      </trkpt>
      <trkpt lat="48.72949" lon="7.30749">
        <ele>327.8</ele>
        <time>2020-05-10T13:35:27Z</time>
      </trkpt>
      <trkpt lat="48.72947" lon="7.30745">
        <ele>327.4</ele>
        <time>2020-05-10T13:35:28Z</time>
      </trkpt>
      <trkpt lat="48.72944" lon="7.30733">
        <ele>325.9</ele>
        <time>2020-05-10T13:35:30Z</time>
      </trkpt>
      <trkpt lat="48.72942" lon="7.30722">
        <ele>324.3</ele>
        <time>2020-05-10T13:35:32Z</time>
      </trkpt>
      <trkpt lat="48.7294" lon="7.30718">
        <ele>323.6</ele>
        <time>2020-05-10T13:35:33Z</time>
      </trkpt>
      <trkpt lat="48.72939" lon="7.30717">
        <ele>323.4</ele>
        <time>2020-05-10T13:35:34Z</time>
      </trkpt>
      <trkpt lat="48.72937" lon="7.30714">
        <ele>322.7</ele>
        <time>2020-05-10T13:35:36Z</time>
      </trkpt>
      <trkpt lat="48.72934" lon="7.30709">
        <ele>321.5</ele>
        <time>2020-05-10T13:35:38Z</time>
      </trkpt>
      <trkpt lat="48.72932" lon="7.30706">
        <ele>320.8</ele>
        <time>2020-05-10T13:35:39Z</time>
      </trkpt>
      <trkpt lat="48.7293" lon="7.30703">
        <ele>320</ele>
        <time>2020-05-10T13:35:40Z</time>
      </trkpt>
      <trkpt lat="48.72926" lon="7.30695">
        <ele>318.4</ele>
        <time>2020-05-10T13:35:42Z</time>
      </trkpt>
      <trkpt lat="48.72925" lon="7.30691">
        <ele>317.6</ele>
        <time>2020-05-10T13:35:43Z</time>
      </trkpt>
      <trkpt lat="48.72923" lon="7.30682">
        <ele>316.2</ele>
        <time>2020-05-10T13:35:44Z</time>
      </trkpt>
      <trkpt lat="48.72921" lon="7.30668">
        <ele>313.9</ele>
        <time>2020-05-10T13:35:46Z</time>
      </trkpt>
      <trkpt lat="48.72914" lon="7.30655">
        <ele>311.7</ele>
        <time>2020-05-10T13:35:48Z</time>
      </trkpt>
      <trkpt lat="48.72912" lon="7.30651">
        <ele>311</ele>
        <time>2020-05-10T13:35:49Z</time>
      </trkpt>
      <trkpt lat="48.72906" lon="7.30641">
        <ele>309.4</ele>
        <time>2020-05-10T13:35:51Z</time>
      </trkpt>
      <trkpt lat="48.72902" lon="7.30625">
        <ele>307.3</ele>
        <time>2020-05-10T13:35:53Z</time>
      </trkpt>
      <trkpt lat="48.72899" lon="7.30619">
        <ele>306.3</ele>
        <time>2020-05-10T13:35:54Z</time>
      </trkpt>
      <trkpt lat="48.72892" lon="7.3061">
        <ele>304.6</ele>
        <time>2020-05-10T13:35:56Z</time>
      </trkpt>
      <trkpt lat="48.72889" lon="7.30603">
        <ele>303.5</ele>
        <time>2020-05-10T13:35:57Z</time>
      </trkpt>
      <trkpt lat="48.72887" lon="7.30597">
        <ele>302.5</ele>
        <time>2020-05-10T13:35:58Z</time>
      </trkpt>
      <trkpt lat="48.72885" lon="7.30592">
        <ele>301.7</ele>
        <time>2020-05-10T13:35:59Z</time>
      </trkpt>
      <trkpt lat="48.72881" lon="7.30579">
        <ele>299.5</ele>
        <time>2020-05-10T13:36:01Z</time>
      </trkpt>
      <trkpt lat="48.72879" lon="7.30576">
        <ele>298.8</ele>
        <time>2020-05-10T13:36:02Z</time>
      </trkpt>
      <trkpt lat="48.72876" lon="7.30564">
        <ele>296.8</ele>
        <time>2020-05-10T13:36:04Z</time>
      </trkpt>
      <trkpt lat="48.72872" lon="7.30551">
        <ele>294.3</ele>
        <time>2020-05-10T13:36:06Z</time>
      </trkpt>
      <trkpt lat="48.72868" lon="7.30544">
        <ele>292.8</ele>
        <time>2020-05-10T13:36:08Z</time>
      </trkpt>
      <trkpt lat="48.72867" lon="7.30531">
        <ele>290.7</ele>
        <time>2020-05-10T13:36:10Z</time>
      </trkpt>
      <trkpt lat="48.72864" lon="7.30524">
        <ele>289.1</ele>
        <time>2020-05-10T13:36:12Z</time>
      </trkpt>
      <trkpt lat="48.72861" lon="7.30514">
        <ele>287.3</ele>
        <time>2020-05-10T13:36:14Z</time>
      </trkpt>
      <trkpt lat="48.72859" lon="7.30503">
        <ele>285.3</ele>
        <time>2020-05-10T13:36:16Z</time>
      </trkpt>
      <trkpt lat="48.72855" lon="7.30493">
        <ele>283.5</ele>
        <time>2020-05-10T13:36:18Z</time>
      </trkpt>
      <trkpt lat="48.72853" lon="7.30487">
        <ele>282.4</ele>
        <time>2020-05-10T13:36:19Z</time>
      </trkpt>
      <trkpt lat="48.72846" lon="7.30475">
        <ele>280.2</ele>
        <time>2020-05-10T13:36:22Z</time>
      </trkpt>
      <trkpt lat="48.72841" lon="7.30462">
        <ele>278.3</ele>
        <time>2020-05-10T13:36:23Z</time>
      </trkpt>
      <trkpt lat="48.72835" lon="7.30452">
        <ele>276.8</ele>
        <time>2020-05-10T13:36:25Z</time>
      </trkpt>
      <trkpt lat="48.72825" lon="7.3044">
        <ele>274.6</ele>
        <time>2020-05-10T13:36:27Z</time>
      </trkpt>
      <trkpt lat="48.7282" lon="7.30429">
        <ele>273.2</ele>
        <time>2020-05-10T13:36:28Z</time>
      </trkpt>
      <trkpt lat="48.72813" lon="7.30413">
        <ele>271.1</ele>
        <time>2020-05-10T13:36:30Z</time>
      </trkpt>
      <trkpt lat="48.72807" lon="7.30402">
        <ele>269.7</ele>
        <time>2020-05-10T13:36:31Z</time>
      </trkpt>
      <trkpt lat="48.72802" lon="7.3039">
        <ele>268.3</ele>
        <time>2020-05-10T13:36:32Z</time>
      </trkpt>
      <trkpt lat="48.72793" lon="7.30373">
        <ele>266.1</ele>
        <time>2020-05-10T13:36:34Z</time>
      </trkpt>
      <trkpt lat="48.72786" lon="7.30366">
        <ele>264.8</ele>
        <time>2020-05-10T13:36:36Z</time>
      </trkpt>
      <trkpt lat="48.72778" lon="7.30353">
        <ele>262.7</ele>
        <time>2020-05-10T13:36:38Z</time>
      </trkpt>
      <trkpt lat="48.72773" lon="7.30342">
        <ele>261.2</ele>
        <time>2020-05-10T13:36:39Z</time>
      </trkpt>
      <trkpt lat="48.72764" lon="7.30321">
        <ele>258.4</ele>
        <time>2020-05-10T13:36:41Z</time>
      </trkpt>
      <trkpt lat="48.72761" lon="7.30303">
        <ele>256.3</ele>
        <time>2020-05-10T13:36:43Z</time>
      </trkpt>
      <trkpt lat="48.72759" lon="7.30295">
        <ele>255.4</ele>
        <time>2020-05-10T13:36:44Z</time>
      </trkpt>
      <trkpt lat="48.72755" lon="7.30287">
        <ele>254.2</ele>
        <time>2020-05-10T13:36:45Z</time>
      </trkpt>
      <trkpt lat="48.72748" lon="7.30276">
        <ele>252.9</ele>
        <time>2020-05-10T13:36:46Z</time>
      </trkpt>
      <trkpt lat="48.72743" lon="7.30263">
        <ele>251.6</ele>
        <time>2020-05-10T13:36:48Z</time>
      </trkpt>
      <trkpt lat="48.72739" lon="7.30256">
        <ele>250.9</ele>
        <time>2020-05-10T13:36:49Z</time>
      </trkpt>
      <trkpt lat="48.72737" lon="7.30253">
        <ele>250.5</ele>
        <time>2020-05-10T13:36:50Z</time>
      </trkpt>
      <trkpt lat="48.72736" lon="7.30249">
        <ele>250.2</ele>
        <time>2020-05-10T13:36:52Z</time>
      </trkpt>
      <trkpt lat="48.72736" lon="7.30247">
        <ele>250</ele>
        <time>2020-05-10T13:36:53Z</time>
      </trkpt>
      <trkpt lat="48.72733" lon="7.30238">
        <ele>249.3</ele>
        <time>2020-05-10T13:36:55Z</time>
      </trkpt>
      <trkpt lat="48.7273" lon="7.30234">
        <ele>249</ele>
        <time>2020-05-10T13:36:56Z</time>
      </trkpt>
      <trkpt lat="48.72723" lon="7.30226">
        <ele>247.9</ele>
        <time>2020-05-10T13:36:58Z</time>
      </trkpt>
      <trkpt lat="48.72719" lon="7.30221">
        <ele>247.2</ele>
        <time>2020-05-10T13:36:59Z</time>
      </trkpt>
      <trkpt lat="48.72712" lon="7.30212">
        <ele>245.8</ele>
        <time>2020-05-10T13:37:01Z</time>
      </trkpt>
      <trkpt lat="48.72708" lon="7.30202">
        <ele>244.6</ele>
        <time>2020-05-10T13:37:03Z</time>
      </trkpt>
      <trkpt lat="48.72708" lon="7.30198">
        <ele>244.1</ele>
        <time>2020-05-10T13:37:04Z</time>
      </trkpt>
      <trkpt lat="48.72707" lon="7.3019">
        <ele>243.5</ele>
        <time>2020-05-10T13:37:06Z</time>
      </trkpt>
      <trkpt lat="48.72706" lon="7.30185">
        <ele>243.3</ele>
        <time>2020-05-10T13:37:07Z</time>
      </trkpt>
      <trkpt lat="48.72706" lon="7.30175">
        <ele>242.8</ele>
        <time>2020-05-10T13:37:09Z</time>
      </trkpt>
      <trkpt lat="48.72705" lon="7.30167">
        <ele>242.5</ele>
        <time>2020-05-10T13:37:10Z</time>
      </trkpt>
      <trkpt lat="48.72704" lon="7.30157">
        <ele>241.8</ele>
        <time>2020-05-10T13:37:12Z</time>
      </trkpt>
      <trkpt lat="48.72704" lon="7.30151">
        <ele>241.7</ele>
        <time>2020-05-10T13:37:13Z</time>
      </trkpt>
      <trkpt lat="48.72705" lon="7.3014">
        <ele>240.7</ele>
        <time>2020-05-10T13:37:15Z</time>
      </trkpt>
      <trkpt lat="48.72703" lon="7.30129">
        <ele>240</ele>
        <time>2020-05-10T13:37:17Z</time>
      </trkpt>
      <trkpt lat="48.72703" lon="7.30118">
        <ele>238.5</ele>
        <time>2020-05-10T13:37:19Z</time>
      </trkpt>
      <trkpt lat="48.72703" lon="7.30113">
        <ele>238.2</ele>
        <time>2020-05-10T13:37:20Z</time>
      </trkpt>
      <trkpt lat="48.72704" lon="7.30105">
        <ele>237.2</ele>
        <time>2020-05-10T13:37:22Z</time>
      </trkpt>
      <trkpt lat="48.72704" lon="7.30099">
        <ele>236.9</ele>
        <time>2020-05-10T13:37:23Z</time>
      </trkpt>
      <trkpt lat="48.72704" lon="7.30097">
        <ele>236.6</ele>
        <time>2020-05-10T13:37:24Z</time>
      </trkpt>
      <trkpt lat="48.72704" lon="7.30086">
        <ele>235.7</ele>
        <time>2020-05-10T13:37:26Z</time>
      </trkpt>
      <trkpt lat="48.72704" lon="7.30083">
        <ele>235.5</ele>
        <time>2020-05-10T13:37:27Z</time>
      </trkpt>
      <trkpt lat="48.72704" lon="7.3008">
        <ele>235.3</ele>
        <time>2020-05-10T13:37:29Z</time>
      </trkpt>
      <trkpt lat="48.72704" lon="7.30079">
        <ele>235.7</ele>
        <time>2020-05-10T13:37:31Z</time>
      </trkpt>
      <trkpt lat="48.72704" lon="7.30079">
        <ele>236</ele>
        <time>2020-05-10T13:37:32Z</time>
      </trkpt>
      <trkpt lat="48.72705" lon="7.30078">
        <ele>236.4</ele>
        <time>2020-05-10T13:37:33Z</time>
      </trkpt>
      <trkpt lat="48.72705" lon="7.30078">
        <ele>236.7</ele>
        <time>2020-05-10T13:37:35Z</time>
      </trkpt>
      <trkpt lat="48.72706" lon="7.30078">
        <ele>237.1</ele>
        <time>2020-05-10T13:37:37Z</time>
      </trkpt>
      <trkpt lat="48.72706" lon="7.30076">
        <ele>237.4</ele>
        <time>2020-05-10T13:37:38Z</time>
      </trkpt>
      <trkpt lat="48.72707" lon="7.30075">
        <ele>237.3</ele>
        <time>2020-05-10T13:37:40Z</time>
      </trkpt>
      <trkpt lat="48.72707" lon="7.30072">
        <ele>237.6</ele>
        <time>2020-05-10T13:37:42Z</time>
      </trkpt>
    </trkseg>
  </trk>
</gpx>